<?xml version='1.0' encoding='UTF-8'?><gpx version="1.1" creator="JPX - https://github.com/jenetics/jpx" xmlns="http://www.topografix.com/GPX/1/1"><trk><trkseg><trkpt lat="43.548966139190796" lon="12.180201045634128"><ele>329.0</ele><time>2026-05-01T09:02:51Z</time></trkpt><trkpt lat="43.54841249039228" lon="12.179601870232421"><ele>329.0</ele><time>2026-05-01T09:03:42.001Z</time></trkpt><trkpt lat="43.54833073057264" lon="12.179523433306242"><ele>329.0</ele><time>2026-05-01T09:03:44.001Z</time></trkpt><trkpt lat="43.54825487007849" lon="12.179390310089746"><ele>329.0</ele><time>2026-05-01T09:03:46.001Z</time></trkpt><trkpt lat="43.54819540559194" lon="12.179323505892704"><ele>329.0</ele><time>2026-05-01T09:03:48.001Z</time></trkpt><trkpt lat="43.54813743931816" lon="12.179274042999054"><ele>329.0</ele><time>2026-05-01T09:04:01Z</time></trkpt><trkpt lat="43.54806350039479" lon="12.179339888248206"><ele>329.0</ele><time>2026-05-01T09:04:02Z</time></trkpt><trkpt lat="43.54800403687582" lon="12.179473183250183"><ele>329.0</ele><time>2026-05-01T09:04:03Z</time></trkpt><trkpt lat="43.54795569757256" lon="12.179600500877136"><ele>329.0</ele><time>2026-05-01T09:04:04Z</time></trkpt><trkpt lat="43.54788613936212" lon="12.179717286570922"><ele>329.0</ele><time>2026-05-01T09:04:05Z</time></trkpt><trkpt lat="43.54780517848514" lon="12.179847382102727"><ele>328.5</ele><time>2026-05-01T09:04:06Z</time></trkpt><trkpt lat="43.54773029369656" lon="12.179987806113"><ele>328.0</ele><time>2026-05-01T09:04:07Z</time></trkpt><trkpt lat="43.54765653284307" lon="12.180141227074849"><ele>327.5</ele><time>2026-05-01T09:04:08Z</time></trkpt><trkpt lat="43.54757740809135" lon="12.180294845309641"><ele>327.0</ele><time>2026-05-01T09:04:09Z</time></trkpt><trkpt lat="43.54750001763404" lon="12.180443479157308"><ele>327.0</ele><time>2026-05-01T09:04:10Z</time></trkpt><trkpt lat="43.547425918857" lon="12.180588780021054"><ele>327.0</ele><time>2026-05-01T09:04:11Z</time></trkpt><trkpt lat="43.54735191915458" lon="12.180737047015498"><ele>327.0</ele><time>2026-05-01T09:04:12Z</time></trkpt><trkpt lat="43.54727352226468" lon="12.180888378138272"><ele>327.0</ele><time>2026-05-01T09:04:13Z</time></trkpt><trkpt lat="43.54719312435636" lon="12.181043506089626"><ele>327.25</ele><time>2026-05-01T09:04:14Z</time></trkpt><trkpt lat="43.547114649232874" lon="12.181195458763089"><ele>327.5</ele><time>2026-05-01T09:04:15Z</time></trkpt><trkpt lat="43.547035552338684" lon="12.181347771033227"><ele>327.75</ele><time>2026-05-01T09:04:16Z</time></trkpt><trkpt lat="43.54695970325142" lon="12.181495367542245"><ele>328.0</ele><time>2026-05-01T09:04:17Z</time></trkpt><trkpt lat="43.54688736579426" lon="12.181642196524377"><ele>328.0</ele><time>2026-05-01T09:04:18Z</time></trkpt><trkpt lat="43.546816973229454" lon="12.181785168311874"><ele>328.0</ele><time>2026-05-01T09:04:19Z</time></trkpt><trkpt lat="43.54674395103732" lon="12.181924307840251"><ele>328.0</ele><time>2026-05-01T09:04:20Z</time></trkpt><trkpt lat="43.54666719021575" lon="12.182067803438889"><ele>328.0</ele><time>2026-05-01T09:04:21Z</time></trkpt><trkpt lat="43.546588647662695" lon="12.182212808741985"><ele>328.25</ele><time>2026-05-01T09:04:22Z</time></trkpt><trkpt lat="43.54651210945578" lon="12.1823554317503"><ele>328.5</ele><time>2026-05-01T09:04:23Z</time></trkpt><trkpt lat="43.546442539888744" lon="12.18248101256506"><ele>328.75</ele><time>2026-05-01T09:04:24Z</time></trkpt><trkpt lat="43.546375670736836" lon="12.182603167173038"><ele>329.0</ele><time>2026-05-01T09:04:25Z</time></trkpt><trkpt lat="43.546311781224105" lon="12.182729501273858"><ele>329.0</ele><time>2026-05-01T09:04:26Z</time></trkpt><trkpt lat="43.546248291651345" lon="12.18286005688969"><ele>329.0</ele><time>2026-05-01T09:04:27Z</time></trkpt><trkpt lat="43.54618251166496" lon="12.183004053788432"><ele>329.0</ele><time>2026-05-01T09:04:28Z</time></trkpt><trkpt lat="43.546112378169035" lon="12.183151434583634"><ele>329.0</ele><time>2026-05-01T09:04:29Z</time></trkpt><trkpt lat="43.54603980040007" lon="12.183301463371363"><ele>328.6666666666667</ele><time>2026-05-01T09:04:30Z</time></trkpt><trkpt lat="43.54596429089409" lon="12.18345736515431"><ele>328.3333333333333</ele><time>2026-05-01T09:04:31Z</time></trkpt><trkpt lat="43.54585697805321" lon="12.183615847620537"><ele>328.0</ele><time>2026-05-01T09:04:32Z</time></trkpt><trkpt lat="43.54575492449411" lon="12.18381732264336"><ele>328.0</ele><time>2026-05-01T09:04:33Z</time></trkpt><trkpt lat="43.545663444114865" lon="12.183998365581491"><ele>328.0</ele><time>2026-05-01T09:04:34Z</time></trkpt><trkpt lat="43.545588660300275" lon="12.184155908636743"><ele>328.0</ele><time>2026-05-01T09:04:35Z</time></trkpt><trkpt lat="43.54550233770954" lon="12.184282424576969"><ele>328.0</ele><time>2026-05-01T09:04:36Z</time></trkpt><trkpt lat="43.54540004953926" lon="12.184390921496295"><ele>327.79999999999995</ele><time>2026-05-01T09:04:37Z</time></trkpt><trkpt lat="43.545289637919645" lon="12.184472430986212"><ele>327.6</ele><time>2026-05-01T09:04:38Z</time></trkpt><trkpt lat="43.545195073328365" lon="12.184544702413737"><ele>327.4</ele><time>2026-05-01T09:04:39Z</time></trkpt><trkpt lat="43.54512853524461" lon="12.184652407743176"><ele>327.20000000000005</ele><time>2026-05-01T09:04:40Z</time></trkpt><trkpt lat="43.545088538660785" lon="12.18479888360734"><ele>327.0</ele><time>2026-05-01T09:04:41Z</time></trkpt><trkpt lat="43.545082766056545" lon="12.18498367298535"><ele>327.6666666666667</ele><time>2026-05-01T09:04:42Z</time></trkpt><trkpt lat="43.54505597735324" lon="12.18516891076332"><ele>328.33333333333337</ele><time>2026-05-01T09:04:43Z</time></trkpt><trkpt lat="43.54497993387808" lon="12.185345529555075"><ele>329.0</ele><time>2026-05-01T09:04:44Z</time></trkpt><trkpt lat="43.54486062847292" lon="12.185510959608"><ele>330.0</ele><time>2026-05-01T09:04:45Z</time></trkpt><trkpt lat="43.5447786371259" lon="12.185709952953717"><ele>331.0</ele><time>2026-05-01T09:04:46Z</time></trkpt><trkpt lat="43.544684812621" lon="12.18588760246758"><ele>332.0</ele><time>2026-05-01T09:04:47Z</time></trkpt><trkpt lat="43.544590661655306" lon="12.186066709363969"><ele>332.6666666666667</ele><time>2026-05-01T09:04:48Z</time></trkpt><trkpt lat="43.54449269395902" lon="12.18624686098646"><ele>333.3333333333333</ele><time>2026-05-01T09:04:49Z</time></trkpt><trkpt lat="43.54437010022767" lon="12.186402326602451"><ele>334.0</ele><time>2026-05-01T09:04:50Z</time></trkpt><trkpt lat="43.54425622314513" lon="12.18657590042104"><ele>334.0</ele><time>2026-05-01T09:04:51Z</time></trkpt><trkpt lat="43.54411260023201" lon="12.186705377446065"><ele>334.0</ele><time>2026-05-01T09:04:52Z</time></trkpt><trkpt lat="43.54398056541356" lon="12.186864019110693"><ele>334.0</ele><time>2026-05-01T09:04:53Z</time></trkpt><trkpt lat="43.54383881558516" lon="12.187002204833915"><ele>333.66666666666663</ele><time>2026-05-01T09:04:54Z</time></trkpt><trkpt lat="43.5436964927716" lon="12.1871444791141"><ele>333.3333333333333</ele><time>2026-05-01T09:04:55Z</time></trkpt><trkpt lat="43.54355743522079" lon="12.18728733395853"><ele>333.0</ele><time>2026-05-01T09:04:56Z</time></trkpt><trkpt lat="43.54341503572674" lon="12.187427531994809"><ele>333.0</ele><time>2026-05-01T09:04:57Z</time></trkpt><trkpt lat="43.543265026740414" lon="12.187565314196972"><ele>333.0</ele><time>2026-05-01T09:04:58Z</time></trkpt><trkpt lat="43.54311125531231" lon="12.18769981439548"><ele>333.0</ele><time>2026-05-01T09:04:59Z</time></trkpt><trkpt lat="43.54295513766438" lon="12.187836711121125"><ele>332.6666666666667</ele><time>2026-05-01T09:05:00Z</time></trkpt><trkpt lat="43.54279625808777" lon="12.187978172025105"><ele>332.33333333333337</ele><time>2026-05-01T09:05:01Z</time></trkpt><trkpt lat="43.542644294601445" lon="12.188115529148329"><ele>332.0</ele><time>2026-05-01T09:05:02Z</time></trkpt><trkpt lat="43.54249135588978" lon="12.188252618344002"><ele>332.0</ele><time>2026-05-01T09:05:03Z</time></trkpt><trkpt lat="43.54233365197345" lon="12.188394680050006"><ele>332.0</ele><time>2026-05-01T09:05:04Z</time></trkpt><trkpt lat="43.54217610393552" lon="12.188540511428057"><ele>332.0</ele><time>2026-05-01T09:05:05Z</time></trkpt><trkpt lat="43.54202540176462" lon="12.18869367599423"><ele>332.0</ele><time>2026-05-01T09:05:06Z</time></trkpt><trkpt lat="43.54188295525098" lon="12.188861894047868"><ele>332.0</ele><time>2026-05-01T09:05:07Z</time></trkpt><trkpt lat="43.54175449820374" lon="12.18904718507464"><ele>332.0</ele><time>2026-05-01T09:05:08Z</time></trkpt><trkpt lat="43.54164709921077" lon="12.18925118221962"><ele>333.6666666666667</ele><time>2026-05-01T09:05:09Z</time></trkpt><trkpt lat="43.541542710216035" lon="12.189461152878199"><ele>335.3333333333333</ele><time>2026-05-01T09:05:10Z</time></trkpt><trkpt lat="43.54143436545519" lon="12.1896709711657"><ele>337.0</ele><time>2026-05-01T09:05:11Z</time></trkpt><trkpt lat="43.54132545771892" lon="12.189877838184124"><ele>336.66666666666663</ele><time>2026-05-01T09:05:12Z</time></trkpt><trkpt lat="43.5412119842562" lon="12.190083963674969"><ele>336.3333333333333</ele><time>2026-05-01T09:05:13Z</time></trkpt><trkpt lat="43.54109973036802" lon="12.19029127406925"><ele>336.0</ele><time>2026-05-01T09:05:14Z</time></trkpt><trkpt lat="43.54098564890093" lon="12.190505311365714"><ele>337.0</ele><time>2026-05-01T09:05:15Z</time></trkpt><trkpt lat="43.540868575013775" lon="12.19071584175618"><ele>338.0</ele><time>2026-05-01T09:05:16Z</time></trkpt><trkpt lat="43.540751282824246" lon="12.190929286651793"><ele>339.0</ele><time>2026-05-01T09:05:17Z</time></trkpt><trkpt lat="43.54063862504403" lon="12.191146476591765"><ele>339.0</ele><time>2026-05-01T09:05:18Z</time></trkpt><trkpt lat="43.540522913711065" lon="12.191361313899213"><ele>339.0</ele><time>2026-05-01T09:05:19Z</time></trkpt><trkpt lat="43.54040251572743" lon="12.191584664724356"><ele>339.0</ele><time>2026-05-01T09:05:20Z</time></trkpt><trkpt lat="43.540280565747764" lon="12.191814450278732"><ele>338.6666666666667</ele><time>2026-05-01T09:05:21Z</time></trkpt><trkpt lat="43.540154105845765" lon="12.192050576472703"><ele>338.33333333333337</ele><time>2026-05-01T09:05:22Z</time></trkpt><trkpt lat="43.54003052619891" lon="12.19227925045123"><ele>338.0</ele><time>2026-05-01T09:05:23Z</time></trkpt><trkpt lat="43.53990879878175" lon="12.192499872371704"><ele>338.0</ele><time>2026-05-01T09:05:24Z</time></trkpt><trkpt lat="43.53978514378527" lon="12.192730372712123"><ele>338.0</ele><time>2026-05-01T09:05:25Z</time></trkpt><trkpt lat="43.539657846983204" lon="12.192962875030613"><ele>338.0</ele><time>2026-05-01T09:05:26Z</time></trkpt><trkpt lat="43.539532589914174" lon="12.19319582372098"><ele>336.33333333333337</ele><time>2026-05-01T09:05:27Z</time></trkpt><trkpt lat="43.53940845138736" lon="12.193432119179995"><ele>334.6666666666667</ele><time>2026-05-01T09:05:28Z</time></trkpt><trkpt lat="43.53928329106474" lon="12.193669728902549"><ele>333.0</ele><time>2026-05-01T09:05:29Z</time></trkpt><trkpt lat="43.53915585918181" lon="12.193908452756823"><ele>332.6666666666667</ele><time>2026-05-01T09:05:30Z</time></trkpt><trkpt lat="43.53902516626386" lon="12.194151739226978"><ele>332.33333333333337</ele><time>2026-05-01T09:05:31Z</time></trkpt><trkpt lat="43.53889290265734" lon="12.194396174304131"><ele>332.0</ele><time>2026-05-01T09:05:32Z</time></trkpt><trkpt lat="43.53875894833448" lon="12.194641806957142"><ele>330.0</ele><time>2026-05-01T09:05:33Z</time></trkpt><trkpt lat="43.53860362091431" lon="12.194869262493702"><ele>328.0</ele><time>2026-05-01T09:05:34Z</time></trkpt><trkpt lat="43.53844908318382" lon="12.195098458099368"><ele>328.0</ele><time>2026-05-01T09:05:35Z</time></trkpt><trkpt lat="43.53828245062717" lon="12.195320540977441"><ele>328.0</ele><time>2026-05-01T09:05:36Z</time></trkpt><trkpt lat="43.53811923596526" lon="12.19555718414692"><ele>328.0</ele><time>2026-05-01T09:05:37Z</time></trkpt><trkpt lat="43.537931753334995" lon="12.195763410486725"><ele>328.0</ele><time>2026-05-01T09:05:38Z</time></trkpt><trkpt lat="43.537772122833914" lon="12.196000768758362"><ele>328.0</ele><time>2026-05-01T09:05:39Z</time></trkpt><trkpt lat="43.53760140155226" lon="12.196228496809704"><ele>328.0</ele><time>2026-05-01T09:05:40Z</time></trkpt><trkpt lat="43.53744223411215" lon="12.196472557728185"><ele>332.0</ele><time>2026-05-01T09:05:41Z</time></trkpt><trkpt lat="43.537291065794626" lon="12.19673041271347"><ele>336.0</ele><time>2026-05-01T09:05:42Z</time></trkpt><trkpt lat="43.53714929711072" lon="12.196997773510702"><ele>335.0</ele><time>2026-05-01T09:05:43Z</time></trkpt><trkpt lat="43.53700350946841" lon="12.197262636680549"><ele>334.0</ele><time>2026-05-01T09:05:44Z</time></trkpt><trkpt lat="43.53684729772191" lon="12.197503894048646"><ele>334.0</ele><time>2026-05-01T09:05:45Z</time></trkpt><trkpt lat="43.536716254534426" lon="12.197765255416112"><ele>334.0</ele><time>2026-05-01T09:05:46Z</time></trkpt><trkpt lat="43.53657761469216" lon="12.1980132787617"><ele>332.3333333333333</ele><time>2026-05-01T09:05:47Z</time></trkpt><trkpt lat="43.53644168918988" lon="12.198254959430152"><ele>330.6666666666667</ele><time>2026-05-01T09:05:48Z</time></trkpt><trkpt lat="43.53631194636392" lon="12.198487589138109"><ele>329.0</ele><time>2026-05-01T09:05:49Z</time></trkpt><trkpt lat="43.53619107694724" lon="12.198692626040515"><ele>329.0</ele><time>2026-05-01T09:05:50Z</time></trkpt><trkpt lat="43.53608182965726" lon="12.198896688830766"><ele>329.0</ele><time>2026-05-01T09:05:51Z</time></trkpt><trkpt lat="43.53599338666529" lon="12.199119956868481"><ele>329.0</ele><time>2026-05-01T09:05:52Z</time></trkpt><trkpt lat="43.53593782290117" lon="12.199367507241236"><ele>331.33333333333337</ele><time>2026-05-01T09:05:53Z</time></trkpt><trkpt lat="43.535915013498304" lon="12.199635436094805"><ele>333.6666666666667</ele><time>2026-05-01T09:05:54Z</time></trkpt><trkpt lat="43.53592184675575" lon="12.199909358913429"><ele>336.0</ele><time>2026-05-01T09:05:55Z</time></trkpt><trkpt lat="43.535949986783315" lon="12.200192335811956"><ele>336.6666666666667</ele><time>2026-05-01T09:05:56Z</time></trkpt><trkpt lat="43.535976236428404" lon="12.200473053865883"><ele>337.33333333333337</ele><time>2026-05-01T09:05:57Z</time></trkpt><trkpt lat="43.5359672497111" lon="12.200751342572323"><ele>338.0</ele><time>2026-05-01T09:05:58Z</time></trkpt><trkpt lat="43.53594155917457" lon="12.201022736186507"><ele>338.0</ele><time>2026-05-01T09:05:59Z</time></trkpt><trkpt lat="43.53589873233655" lon="12.201281411858396"><ele>338.0</ele><time>2026-05-01T09:06:00Z</time></trkpt><trkpt lat="43.535844081061946" lon="12.201541489109456"><ele>338.0</ele><time>2026-05-01T09:06:01Z</time></trkpt><trkpt lat="43.53578980099271" lon="12.201804828214824"><ele>338.33333333333337</ele><time>2026-05-01T09:06:02Z</time></trkpt><trkpt lat="43.53569675323838" lon="12.202048244509779"><ele>338.6666666666667</ele><time>2026-05-01T09:06:03Z</time></trkpt><trkpt lat="43.535618111367555" lon="12.20229486680563"><ele>339.0</ele><time>2026-05-01T09:06:04Z</time></trkpt><trkpt lat="43.5354904233899" lon="12.20251927259289"><ele>339.6666666666667</ele><time>2026-05-01T09:06:05Z</time></trkpt><trkpt lat="43.535387466348716" lon="12.202761968564594"><ele>340.33333333333337</ele><time>2026-05-01T09:06:06Z</time></trkpt><trkpt lat="43.535291443723196" lon="12.203008907133402"><ele>341.0</ele><time>2026-05-01T09:06:07Z</time></trkpt><trkpt lat="43.535202229686355" lon="12.203264849622776"><ele>340.6666666666667</ele><time>2026-05-01T09:06:08Z</time></trkpt><trkpt lat="43.535112679759344" lon="12.20351989377773"><ele>340.3333333333333</ele><time>2026-05-01T09:06:09Z</time></trkpt><trkpt lat="43.53501565092981" lon="12.203771513834553"><ele>340.0</ele><time>2026-05-01T09:06:10Z</time></trkpt><trkpt lat="43.534900159437974" lon="12.20401228481286"><ele>340.0</ele><time>2026-05-01T09:06:11Z</time></trkpt><trkpt lat="43.53475818736491" lon="12.20424594478318"><ele>340.0</ele><time>2026-05-01T09:06:12Z</time></trkpt><trkpt lat="43.534597591189886" lon="12.204491183837836"><ele>337.5</ele><time>2026-05-01T09:06:13Z</time></trkpt><trkpt lat="43.53443568016437" lon="12.204745505928454"><ele>335.0</ele><time>2026-05-01T09:06:14Z</time></trkpt><trkpt lat="43.53428197972003" lon="12.204989921962285"><ele>335.0</ele><time>2026-05-01T09:06:15Z</time></trkpt><trkpt lat="43.53413000231165" lon="12.205236958078693"><ele>335.0</ele><time>2026-05-01T09:06:16Z</time></trkpt><trkpt lat="43.53397754917231" lon="12.205486098478938"><ele>335.5</ele><time>2026-05-01T09:06:17Z</time></trkpt><trkpt lat="43.53382374523213" lon="12.205733592779017"><ele>336.0</ele><time>2026-05-01T09:06:18Z</time></trkpt><trkpt lat="43.5336677026751" lon="12.205976106390644"><ele>335.0</ele><time>2026-05-01T09:06:19Z</time></trkpt><trkpt lat="43.533509567395775" lon="12.206217448943697"><ele>334.0</ele><time>2026-05-01T09:06:20Z</time></trkpt><trkpt lat="43.53335143943724" lon="12.206464580362118"><ele>335.0</ele><time>2026-05-01T09:06:21Z</time></trkpt><trkpt lat="43.53319396764533" lon="12.206708689585588"><ele>336.0</ele><time>2026-05-01T09:06:22Z</time></trkpt><trkpt lat="43.53303357869196" lon="12.206946652625286"><ele>336.0</ele><time>2026-05-01T09:06:23Z</time></trkpt><trkpt lat="43.53287404082848" lon="12.207183695690471"><ele>336.0</ele><time>2026-05-01T09:06:24Z</time></trkpt><trkpt lat="43.532720633987" lon="12.207422636681335"><ele>336.0</ele><time>2026-05-01T09:06:25Z</time></trkpt><trkpt lat="43.53257730639386" lon="12.207669369980369"><ele>336.0</ele><time>2026-05-01T09:06:26Z</time></trkpt><trkpt lat="43.532443553082246" lon="12.20792516719454"><ele>338.0</ele><time>2026-05-01T09:06:27Z</time></trkpt><trkpt lat="43.532316871887176" lon="12.208188425417601"><ele>340.0</ele><time>2026-05-01T09:06:28Z</time></trkpt><trkpt lat="43.532187836989486" lon="12.20845183165183"><ele>340.0</ele><time>2026-05-01T09:06:29Z</time></trkpt><trkpt lat="43.532058129463984" lon="12.208713065210217"><ele>340.0</ele><time>2026-05-01T09:06:30Z</time></trkpt><trkpt lat="43.53193280667508" lon="12.20897152098443"><ele>340.66666666666663</ele><time>2026-05-01T09:06:31Z</time></trkpt><trkpt lat="43.531811680045045" lon="12.20922301231781"><ele>341.3333333333333</ele><time>2026-05-01T09:06:32Z</time></trkpt><trkpt lat="43.53167907449045" lon="12.2094564537462"><ele>342.0</ele><time>2026-05-01T09:06:33Z</time></trkpt><trkpt lat="43.53152826878456" lon="12.209657348745312"><ele>342.0</ele><time>2026-05-01T09:06:34Z</time></trkpt><trkpt lat="43.53135428782548" lon="12.209820373413471"><ele>342.0</ele><time>2026-05-01T09:06:35Z</time></trkpt><trkpt lat="43.5311719983308" lon="12.209969116129997"><ele>342.0</ele><time>2026-05-01T09:06:36Z</time></trkpt><trkpt lat="43.53098807201209" lon="12.210120758867458"><ele>342.3333333333333</ele><time>2026-05-01T09:06:37Z</time></trkpt><trkpt lat="43.53081094493738" lon="12.210269279816647"><ele>342.66666666666663</ele><time>2026-05-01T09:06:38Z</time></trkpt><trkpt lat="43.53064943465705" lon="12.21040675348565"><ele>343.0</ele><time>2026-05-01T09:06:39Z</time></trkpt><trkpt lat="43.530494080475705" lon="12.21053926063377"><ele>343.66666666666663</ele><time>2026-05-01T09:06:40Z</time></trkpt><trkpt lat="43.530326070246254" lon="12.210667784903098"><ele>344.3333333333333</ele><time>2026-05-01T09:06:41Z</time></trkpt><trkpt lat="43.53014581832486" lon="12.210783040396523"><ele>345.0</ele><time>2026-05-01T09:06:42Z</time></trkpt><trkpt lat="43.52996240279536" lon="12.210889477240526"><ele>345.0</ele><time>2026-05-01T09:06:43Z</time></trkpt><trkpt lat="43.52977666909112" lon="12.210992918381391"><ele>345.0</ele><time>2026-05-01T09:06:44Z</time></trkpt><trkpt lat="43.529601672150505" lon="12.211089629311761"><ele>345.0</ele><time>2026-05-01T09:06:45Z</time></trkpt><trkpt lat="43.52944110098071" lon="12.211183563976585"><ele>344.6666666666667</ele><time>2026-05-01T09:06:46Z</time></trkpt><trkpt lat="43.52930066449685" lon="12.211287412378928"><ele>344.33333333333337</ele><time>2026-05-01T09:06:47Z</time></trkpt><trkpt lat="43.52918210635236" lon="12.211417336335625"><ele>344.0</ele><time>2026-05-01T09:06:48Z</time></trkpt><trkpt lat="43.52908899771188" lon="12.211578506323056"><ele>344.0</ele><time>2026-05-01T09:06:49Z</time></trkpt><trkpt lat="43.52901963212038" lon="12.211777081120232"><ele>344.0</ele><time>2026-05-01T09:06:50Z</time></trkpt><trkpt lat="43.528977337601475" lon="12.211978133332302"><ele>344.0</ele><time>2026-05-01T09:06:51Z</time></trkpt><trkpt lat="43.5289347208141" lon="12.212147940161032"><ele>344.0</ele><time>2026-05-01T09:06:52Z</time></trkpt><trkpt lat="43.528892535568446" lon="12.212281311311774"><ele>344.4</ele><time>2026-05-01T09:06:53Z</time></trkpt><trkpt lat="43.52887640219432" lon="12.212380305217481"><ele>344.79999999999995</ele><time>2026-05-01T09:06:54Z</time></trkpt><trkpt lat="43.52890013658702" lon="12.212468323881055"><ele>345.20000000000005</ele><time>2026-05-01T09:06:55Z</time></trkpt><trkpt lat="43.52895875984334" lon="12.212571467706319"><ele>345.6</ele><time>2026-05-01T09:06:56Z</time></trkpt><trkpt lat="43.52904966648464" lon="12.212702306222296"><ele>346.0</ele><time>2026-05-01T09:06:57Z</time></trkpt><trkpt lat="43.52915402338912" lon="12.212857622016617"><ele>346.0</ele><time>2026-05-01T09:06:58Z</time></trkpt><trkpt lat="43.52926748176612" lon="12.213036191613504"><ele>346.0</ele><time>2026-05-01T09:06:59Z</time></trkpt><trkpt lat="43.529390453165654" lon="12.213232562032983"><ele>346.0</ele><time>2026-05-01T09:07:00Z</time></trkpt><trkpt lat="43.52951233179247" lon="12.2134255055223"><ele>346.3333333333333</ele><time>2026-05-01T09:07:01Z</time></trkpt><trkpt lat="43.52964300881633" lon="12.213634326958191"><ele>346.6666666666667</ele><time>2026-05-01T09:07:02Z</time></trkpt><trkpt lat="43.52977956685493" lon="12.213854081404376"><ele>347.0</ele><time>2026-05-01T09:07:03Z</time></trkpt><trkpt lat="43.52991765947728" lon="12.214075607399737"><ele>348.6666666666667</ele><time>2026-05-01T09:07:04Z</time></trkpt><trkpt lat="43.530052792403936" lon="12.214290032525"><ele>350.3333333333333</ele><time>2026-05-01T09:07:05Z</time></trkpt><trkpt lat="43.530179462511484" lon="12.21448960303963"><ele>352.0</ele><time>2026-05-01T09:07:06Z</time></trkpt><trkpt lat="43.53028913000182" lon="12.214665695094753"><ele>352.25</ele><time>2026-05-01T09:07:07Z</time></trkpt><trkpt lat="43.53038920413281" lon="12.214826166182252"><ele>352.5</ele><time>2026-05-01T09:07:08Z</time></trkpt><trkpt lat="43.53045038721529" lon="12.21499661569234"><ele>352.75</ele><time>2026-05-01T09:07:09Z</time></trkpt><trkpt lat="43.530497528586324" lon="12.215145272977125"><ele>353.0</ele><time>2026-05-01T09:07:10Z</time></trkpt><trkpt lat="43.5305074400302" lon="12.215304307956883"><ele>353.0</ele><time>2026-05-01T09:07:11Z</time></trkpt><trkpt lat="43.53047178768441" lon="12.215481820285305"><ele>353.0</ele><time>2026-05-01T09:07:12Z</time></trkpt><trkpt lat="43.53043636556175" lon="12.215692541412913"><ele>353.0</ele><time>2026-05-01T09:07:13Z</time></trkpt><trkpt lat="43.53039897586725" lon="12.215936943626007"><ele>353.6666666666667</ele><time>2026-05-01T09:07:14Z</time></trkpt><trkpt lat="43.530370549042004" lon="12.21621096405484"><ele>354.3333333333333</ele><time>2026-05-01T09:07:15Z</time></trkpt><trkpt lat="43.530322871060044" lon="12.216492023903859"><ele>355.0</ele><time>2026-05-01T09:07:16Z</time></trkpt><trkpt lat="43.53029763429365" lon="12.216726435233877"><ele>356.25</ele><time>2026-05-01T09:07:17Z</time></trkpt><trkpt lat="43.53027428941537" lon="12.216913999487659"><ele>357.5</ele><time>2026-05-01T09:07:18Z</time></trkpt><trkpt lat="43.53020047177602" lon="12.21706439819627"><ele>358.75</ele><time>2026-05-01T09:07:19Z</time></trkpt><trkpt lat="43.53012472048" lon="12.217223388215192"><ele>360.0</ele><time>2026-05-01T09:07:20Z</time></trkpt><trkpt lat="43.53004433453988" lon="12.21740500115149"><ele>362.25</ele><time>2026-05-01T09:07:21Z</time></trkpt><trkpt lat="43.52997420289852" lon="12.21760213814858"><ele>364.5</ele><time>2026-05-01T09:07:22Z</time></trkpt><trkpt lat="43.529894633300096" lon="12.217773729529492"><ele>366.75</ele><time>2026-05-01T09:07:23Z</time></trkpt><trkpt lat="43.52980227776027" lon="12.21792087598476"><ele>369.0</ele><time>2026-05-01T09:07:24Z</time></trkpt><trkpt lat="43.52973004960607" lon="12.218055299303584"><ele>369.6</ele><time>2026-05-01T09:07:25Z</time></trkpt><trkpt lat="43.52966529907655" lon="12.218172533352705"><ele>370.2</ele><time>2026-05-01T09:07:26Z</time></trkpt><trkpt lat="43.52961650768925" lon="12.218281174740499"><ele>370.8</ele><time>2026-05-01T09:07:27Z</time></trkpt><trkpt lat="43.52956992312766" lon="12.218360031422034"><ele>371.40000000000003</ele><time>2026-05-01T09:07:28Z</time></trkpt><trkpt lat="43.52950250877265" lon="12.218431134806327"><ele>372.0</ele><time>2026-05-01T09:07:30Z</time></trkpt><trkpt lat="43.52958594025435" lon="12.218625357689541"><ele>372.0</ele><time>2026-05-01T09:07:34Z</time></trkpt><trkpt lat="43.52967722808474" lon="12.21869625937457"><ele>372.0</ele><time>2026-05-01T09:07:35Z</time></trkpt><trkpt lat="43.529784312344404" lon="12.218815130303618"><ele>372.0</ele><time>2026-05-01T09:07:36Z</time></trkpt><trkpt lat="43.52989368290971" lon="12.218931342894377"><ele>372.0</ele><time>2026-05-01T09:07:37Z</time></trkpt><trkpt lat="43.53000702866683" lon="12.21903583890735"><ele>372.0</ele><time>2026-05-01T09:07:38Z</time></trkpt><trkpt lat="43.5301125834432" lon="12.21916431445613"><ele>372.0</ele><time>2026-05-01T09:07:39Z</time></trkpt><trkpt lat="43.53021827246217" lon="12.219294428666588"><ele>372.0</ele><time>2026-05-01T09:07:40Z</time></trkpt><trkpt lat="43.53033196986096" lon="12.219426540494958"><ele>372.0</ele><time>2026-05-01T09:07:41Z</time></trkpt><trkpt lat="43.53043880066176" lon="12.21955884234454"><ele>373.3333333333333</ele><time>2026-05-01T09:07:42Z</time></trkpt><trkpt lat="43.530573431978745" lon="12.21969396270794"><ele>374.66666666666663</ele><time>2026-05-01T09:07:43Z</time></trkpt><trkpt lat="43.530709657159754" lon="12.219888323212611"><ele>376.0</ele><time>2026-05-01T09:07:44Z</time></trkpt><trkpt lat="43.530880201374615" lon="12.220089301900055"><ele>376.0</ele><time>2026-05-01T09:07:45Z</time></trkpt><trkpt lat="43.53103738954989" lon="12.220317612967666"><ele>376.0</ele><time>2026-05-01T09:07:46Z</time></trkpt><trkpt lat="43.531187727311014" lon="12.220504827861493"><ele>376.0</ele><time>2026-05-01T09:07:47Z</time></trkpt><trkpt lat="43.531328369667165" lon="12.220670071315796"><ele>376.3333333333333</ele><time>2026-05-01T09:07:48Z</time></trkpt><trkpt lat="43.53147411587304" lon="12.220843429018213"><ele>376.6666666666667</ele><time>2026-05-01T09:07:49Z</time></trkpt><trkpt lat="43.531623161439256" lon="12.221020832595181"><ele>377.0</ele><time>2026-05-01T09:07:50Z</time></trkpt><trkpt lat="43.531784552903375" lon="12.22118562870082"><ele>377.0</ele><time>2026-05-01T09:07:51Z</time></trkpt><trkpt lat="43.531952877658114" lon="12.221335302192605"><ele>377.0</ele><time>2026-05-01T09:07:52Z</time></trkpt><trkpt lat="43.532124601919826" lon="12.22148785821491"><ele>377.0</ele><time>2026-05-01T09:07:53Z</time></trkpt><trkpt lat="43.532258076440876" lon="12.221670358752968"><ele>376.33333333333337</ele><time>2026-05-01T09:07:54Z</time></trkpt><trkpt lat="43.53238715842798" lon="12.221864236331621"><ele>375.6666666666667</ele><time>2026-05-01T09:07:55Z</time></trkpt><trkpt lat="43.532514384407655" lon="12.222072858570519"><ele>375.0</ele><time>2026-05-01T09:07:56Z</time></trkpt><trkpt lat="43.53265473796956" lon="12.22227542797409"><ele>372.0</ele><time>2026-05-01T09:07:57Z</time></trkpt><trkpt lat="43.53278039428355" lon="12.222487584843854"><ele>369.0</ele><time>2026-05-01T09:07:58Z</time></trkpt><trkpt lat="43.53290430501113" lon="12.222678725848825"><ele>366.0</ele><time>2026-05-01T09:07:59Z</time></trkpt><trkpt lat="43.53300836931803" lon="12.222863494858197"><ele>367.25</ele><time>2026-05-01T09:08:00Z</time></trkpt><trkpt lat="43.533109936744204" lon="12.223036979967024"><ele>368.5</ele><time>2026-05-01T09:08:01Z</time></trkpt><trkpt lat="43.533186310268164" lon="12.223188659143288"><ele>369.75</ele><time>2026-05-01T09:08:02Z</time></trkpt><trkpt lat="43.533232185022136" lon="12.223342991369327"><ele>371.0</ele><time>2026-05-01T09:08:03Z</time></trkpt><trkpt lat="43.53322468849181" lon="12.223497874442936"><ele>371.0</ele><time>2026-05-01T09:08:04Z</time></trkpt><trkpt lat="43.533163061330576" lon="12.223629020597473"><ele>371.0</ele><time>2026-05-01T09:08:05Z</time></trkpt><trkpt lat="43.53306617533288" lon="12.223734198076276"><ele>371.0</ele><time>2026-05-01T09:08:06Z</time></trkpt><trkpt lat="43.53294871891595" lon="12.223854881975065"><ele>371.0</ele><time>2026-05-01T09:08:07Z</time></trkpt><trkpt lat="43.532821217372316" lon="12.223985095509674"><ele>367.5</ele><time>2026-05-01T09:08:08Z</time></trkpt><trkpt lat="43.5326852465283" lon="12.224095796585654"><ele>364.0</ele><time>2026-05-01T09:08:09Z</time></trkpt><trkpt lat="43.53257695834809" lon="12.22421318822003"><ele>360.5</ele><time>2026-05-01T09:08:10Z</time></trkpt><trkpt lat="43.53249001627303" lon="12.224334344013974"><ele>357.0</ele><time>2026-05-01T09:08:11Z</time></trkpt><trkpt lat="43.532456444389126" lon="12.224496317302648"><ele>357.0</ele><time>2026-05-01T09:08:12Z</time></trkpt><trkpt lat="43.532502639885365" lon="12.224660116396896"><ele>357.0</ele><time>2026-05-01T09:08:13Z</time></trkpt><trkpt lat="43.53255464746208" lon="12.224817055423994"><ele>357.0</ele><time>2026-05-01T09:08:14Z</time></trkpt><trkpt lat="43.532626619138426" lon="12.224989237898175"><ele>357.0</ele><time>2026-05-01T09:08:15Z</time></trkpt><trkpt lat="43.53268042776203" lon="12.225198328313946"><ele>356.3333333333333</ele><time>2026-05-01T09:08:16Z</time></trkpt><trkpt lat="43.53276012689034" lon="12.225408370226777"><ele>355.66666666666663</ele><time>2026-05-01T09:08:17Z</time></trkpt><trkpt lat="43.5328380530454" lon="12.225634693926715"><ele>355.0</ele><time>2026-05-01T09:08:18Z</time></trkpt><trkpt lat="43.5329184889452" lon="12.225879828854316"><ele>356.3333333333333</ele><time>2026-05-01T09:08:19Z</time></trkpt><trkpt lat="43.5329950846571" lon="12.226121632188468"><ele>357.6666666666667</ele><time>2026-05-01T09:08:20Z</time></trkpt><trkpt lat="43.533121742343994" lon="12.226329327457353"><ele>359.0</ele><time>2026-05-01T09:08:21Z</time></trkpt><trkpt lat="43.533257661972385" lon="12.226537227546492"><ele>359.0</ele><time>2026-05-01T09:08:22Z</time></trkpt><trkpt lat="43.53341604095028" lon="12.226734688884038"><ele>359.0</ele><time>2026-05-01T09:08:23Z</time></trkpt><trkpt lat="43.533573367782424" lon="12.22694340023881"><ele>359.0</ele><time>2026-05-01T09:08:24Z</time></trkpt><trkpt lat="43.533733193563656" lon="12.227167559108922"><ele>360.6666666666667</ele><time>2026-05-01T09:08:25Z</time></trkpt><trkpt lat="43.53389224048745" lon="12.227391662731312"><ele>362.3333333333333</ele><time>2026-05-01T09:08:26Z</time></trkpt><trkpt lat="43.53404357654254" lon="12.227598916051301"><ele>364.0</ele><time>2026-05-01T09:08:27Z</time></trkpt><trkpt lat="43.534177108173274" lon="12.227818129097631"><ele>364.0</ele><time>2026-05-01T09:08:28Z</time></trkpt><trkpt lat="43.53432800984644" lon="12.228023166788248"><ele>364.0</ele><time>2026-05-01T09:08:29Z</time></trkpt><trkpt lat="43.534481390813575" lon="12.228220656037267"><ele>364.0</ele><time>2026-05-01T09:08:30Z</time></trkpt><trkpt lat="43.534617954195866" lon="12.228445351306696"><ele>364.3333333333333</ele><time>2026-05-01T09:08:31Z</time></trkpt><trkpt lat="43.534744954640175" lon="12.22866842336594"><ele>364.6666666666667</ele><time>2026-05-01T09:08:32Z</time></trkpt><trkpt lat="43.534859325502985" lon="12.228869323349349"><ele>365.0</ele><time>2026-05-01T09:08:33Z</time></trkpt><trkpt lat="43.53498166162221" lon="12.229046262004966"><ele>365.0</ele><time>2026-05-01T09:08:34Z</time></trkpt><trkpt lat="43.53511830220239" lon="12.229176046683312"><ele>365.0</ele><time>2026-05-01T09:08:35Z</time></trkpt><trkpt lat="43.535256241733514" lon="12.22926969853497"><ele>365.0</ele><time>2026-05-01T09:08:36Z</time></trkpt><trkpt lat="43.53537402965561" lon="12.229392017666422"><ele>366.6666666666667</ele><time>2026-05-01T09:08:37Z</time></trkpt><trkpt lat="43.53543323212367" lon="12.22958533866164"><ele>368.3333333333333</ele><time>2026-05-01T09:08:38Z</time></trkpt><trkpt lat="43.535496048464154" lon="12.22980287614933"><ele>370.0</ele><time>2026-05-01T09:08:39Z</time></trkpt><trkpt lat="43.53556506877564" lon="12.230040545629683"><ele>370.0</ele><time>2026-05-01T09:08:40Z</time></trkpt><trkpt lat="43.535654625038035" lon="12.230295337034928"><ele>370.0</ele><time>2026-05-01T09:08:41Z</time></trkpt><trkpt lat="43.535723774202054" lon="12.230595180277414"><ele>370.0</ele><time>2026-05-01T09:08:42Z</time></trkpt><trkpt lat="43.53581390446395" lon="12.230909924189104"><ele>369.0</ele><time>2026-05-01T09:08:43Z</time></trkpt><trkpt lat="43.535908667141456" lon="12.231236742466102"><ele>368.0</ele><time>2026-05-01T09:08:44Z</time></trkpt><trkpt lat="43.53599579362331" lon="12.231537693877655"><ele>368.0</ele><time>2026-05-01T09:08:45Z</time></trkpt><trkpt lat="43.536079167322036" lon="12.231833028457245"><ele>368.0</ele><time>2026-05-01T09:08:46Z</time></trkpt><trkpt lat="43.536174079910715" lon="12.232120367674963"><ele>370.5</ele><time>2026-05-01T09:08:47Z</time></trkpt><trkpt lat="43.53628755685369" lon="12.232392611784032"><ele>373.0</ele><time>2026-05-01T09:08:48Z</time></trkpt><trkpt lat="43.53640214940828" lon="12.232662043340822"><ele>373.0</ele><time>2026-05-01T09:08:49Z</time></trkpt><trkpt lat="43.53651476667254" lon="12.232924763058683"><ele>373.0</ele><time>2026-05-01T09:08:50Z</time></trkpt><trkpt lat="43.53660560093702" lon="12.233178531873566"><ele>373.0</ele><time>2026-05-01T09:08:51Z</time></trkpt><trkpt lat="43.53665188297441" lon="12.233422681897375"><ele>373.3333333333333</ele><time>2026-05-01T09:08:52Z</time></trkpt><trkpt lat="43.53668047217491" lon="12.23368340114332"><ele>373.6666666666667</ele><time>2026-05-01T09:08:53Z</time></trkpt><trkpt lat="43.53671045710939" lon="12.233982695157788"><ele>374.0</ele><time>2026-05-01T09:08:54Z</time></trkpt><trkpt lat="43.53674443856275" lon="12.23431137308197"><ele>375.5</ele><time>2026-05-01T09:08:55Z</time></trkpt><trkpt lat="43.53678893720922" lon="12.234652198816288"><ele>377.0</ele><time>2026-05-01T09:08:56Z</time></trkpt><trkpt lat="43.53682575902234" lon="12.234995000594775"><ele>378.5</ele><time>2026-05-01T09:08:57Z</time></trkpt><trkpt lat="43.53684128578271" lon="12.235318314916489"><ele>380.0</ele><time>2026-05-01T09:08:58Z</time></trkpt><trkpt lat="43.53686750296172" lon="12.235615735787881"><ele>381.0</ele><time>2026-05-01T09:08:59Z</time></trkpt><trkpt lat="43.536882063589054" lon="12.235908795129006"><ele>382.0</ele><time>2026-05-01T09:09:00Z</time></trkpt><trkpt lat="43.53687266568321" lon="12.23621023942345"><ele>383.0</ele><time>2026-05-01T09:09:01Z</time></trkpt><trkpt lat="43.53684991161834" lon="12.2365174081177"><ele>385.0</ele><time>2026-05-01T09:09:02Z</time></trkpt><trkpt lat="43.53684622706032" lon="12.236830200788376"><ele>387.0</ele><time>2026-05-01T09:09:03Z</time></trkpt><trkpt lat="43.53684684633082" lon="12.237145264897459"><ele>388.0</ele><time>2026-05-01T09:09:04Z</time></trkpt><trkpt lat="43.53688385460707" lon="12.237458513744752"><ele>389.0</ele><time>2026-05-01T09:09:05Z</time></trkpt><trkpt lat="43.53696613033623" lon="12.237759127215"><ele>388.5</ele><time>2026-05-01T09:09:06Z</time></trkpt><trkpt lat="43.537080685585714" lon="12.238047536986462"><ele>388.0</ele><time>2026-05-01T09:09:07Z</time></trkpt><trkpt lat="43.53717290578916" lon="12.23834538420252"><ele>388.0</ele><time>2026-05-01T09:09:08Z</time></trkpt><trkpt lat="43.53727535410245" lon="12.238639817259076"><ele>388.0</ele><time>2026-05-01T09:09:09Z</time></trkpt><trkpt lat="43.53743469249269" lon="12.238894698791782"><ele>388.0</ele><time>2026-05-01T09:09:10Z</time></trkpt><trkpt lat="43.53757148309657" lon="12.239147885047396"><ele>388.0</ele><time>2026-05-01T09:09:11Z</time></trkpt><trkpt lat="43.53771758990674" lon="12.239369325589966"><ele>388.0</ele><time>2026-05-01T09:09:12Z</time></trkpt><trkpt lat="43.5378599198692" lon="12.2395973707967"><ele>394.33333333333337</ele><time>2026-05-01T09:09:13Z</time></trkpt><trkpt lat="43.53796746138238" lon="12.239850342914615"><ele>400.66666666666663</ele><time>2026-05-01T09:09:14Z</time></trkpt><trkpt lat="43.53805334050903" lon="12.240142316839624"><ele>407.0</ele><time>2026-05-01T09:09:15Z</time></trkpt><trkpt lat="43.53812080459507" lon="12.240460062340611"><ele>400.5</ele><time>2026-05-01T09:09:16Z</time></trkpt><trkpt lat="43.5381873558518" lon="12.240790437327986"><ele>394.0</ele><time>2026-05-01T09:09:17Z</time></trkpt><trkpt lat="43.538265322228526" lon="12.241096630381008"><ele>394.0</ele><time>2026-05-01T09:09:18Z</time></trkpt><trkpt lat="43.53835223584021" lon="12.241393653729205"><ele>394.0</ele><time>2026-05-01T09:09:19Z</time></trkpt><trkpt lat="43.538448953747995" lon="12.241680112886733"><ele>392.5</ele><time>2026-05-01T09:09:20Z</time></trkpt><trkpt lat="43.53856029412603" lon="12.241960145782324"><ele>391.0</ele><time>2026-05-01T09:09:21Z</time></trkpt><trkpt lat="43.538683673072455" lon="12.242236008998356"><ele>403.0</ele><time>2026-05-01T09:09:22Z</time></trkpt><trkpt lat="43.53880860189011" lon="12.242513996004229"><ele>415.0</ele><time>2026-05-01T09:09:23Z</time></trkpt><trkpt lat="43.53893230868151" lon="12.242795582424659"><ele>415.0</ele><time>2026-05-01T09:09:24Z</time></trkpt><trkpt lat="43.53904816547584" lon="12.243084631208726"><ele>415.0</ele><time>2026-05-01T09:09:25Z</time></trkpt><trkpt lat="43.53915052709561" lon="12.243392845182102"><ele>409.5</ele><time>2026-05-01T09:09:26Z</time></trkpt><trkpt lat="43.53924304743216" lon="12.243698290723959"><ele>404.0</ele><time>2026-05-01T09:09:27Z</time></trkpt><trkpt lat="43.53933636118032" lon="12.243995854349713"><ele>401.66666666666663</ele><time>2026-05-01T09:09:28Z</time></trkpt><trkpt lat="43.53943343748975" lon="12.244275911492938"><ele>399.33333333333337</ele><time>2026-05-01T09:09:29Z</time></trkpt><trkpt lat="43.53954755917767" lon="12.24454144551403"><ele>397.0</ele><time>2026-05-01T09:09:30Z</time></trkpt><trkpt lat="43.53968110107481" lon="12.244792923079551"><ele>405.0</ele><time>2026-05-01T09:09:31Z</time></trkpt><trkpt lat="43.53983199397659" lon="12.245037054896128"><ele>413.0</ele><time>2026-05-01T09:09:32Z</time></trkpt><trkpt lat="43.540002766665616" lon="12.245243998354557"><ele>413.0</ele><time>2026-05-01T09:09:33Z</time></trkpt><trkpt lat="43.540169431249474" lon="12.245461626472435"><ele>413.0</ele><time>2026-05-01T09:09:34Z</time></trkpt><trkpt lat="43.5403126311336" lon="12.24571215369866"><ele>421.0</ele><time>2026-05-01T09:09:35Z</time></trkpt><trkpt lat="43.54044429305077" lon="12.245988185451184"><ele>429.0</ele><time>2026-05-01T09:09:36Z</time></trkpt><trkpt lat="43.54056691383036" lon="12.246286019372485"><ele>420.0</ele><time>2026-05-01T09:09:37Z</time></trkpt><trkpt lat="43.54069782901396" lon="12.246580185905454"><ele>411.0</ele><time>2026-05-01T09:09:38Z</time></trkpt><trkpt lat="43.54083047510398" lon="12.246874535113085"><ele>411.0</ele><time>2026-05-01T09:09:39Z</time></trkpt><trkpt lat="43.540961511733414" lon="12.247172044583374"><ele>411.0</ele><time>2026-05-01T09:09:40Z</time></trkpt><trkpt lat="43.541093310250275" lon="12.247470100067863"><ele>419.5</ele><time>2026-05-01T09:09:41Z</time></trkpt><trkpt lat="43.541229641298486" lon="12.24776243068106"><ele>428.0</ele><time>2026-05-01T09:09:42Z</time></trkpt><trkpt lat="43.54137479849696" lon="12.24804889798854"><ele>419.5</ele><time>2026-05-01T09:09:43Z</time></trkpt><trkpt lat="43.541517628996246" lon="12.248312127729342"><ele>411.0</ele><time>2026-05-01T09:09:44Z</time></trkpt><trkpt lat="43.54165772839891" lon="12.248536694495648"><ele>411.0</ele><time>2026-05-01T09:09:45Z</time></trkpt><trkpt lat="43.54178319516356" lon="12.24876402289647"><ele>411.0</ele><time>2026-05-01T09:09:46Z</time></trkpt><trkpt lat="43.5418879260778" lon="12.24901378253911"><ele>411.0</ele><time>2026-05-01T09:09:47Z</time></trkpt><trkpt lat="43.54196666405448" lon="12.24928385900451"><ele>410.33333333333337</ele><time>2026-05-01T09:09:48Z</time></trkpt><trkpt lat="43.54202944188927" lon="12.249558048144927"><ele>409.6666666666667</ele><time>2026-05-01T09:09:49Z</time></trkpt><trkpt lat="43.542097050697805" lon="12.249804316039668"><ele>409.0</ele><time>2026-05-01T09:09:50Z</time></trkpt><trkpt lat="43.542162235735866" lon="12.250015197968382"><ele>409.0</ele><time>2026-05-01T09:09:51Z</time></trkpt><trkpt lat="43.542208141748056" lon="12.250213802197623"><ele>409.0</ele><time>2026-05-01T09:09:52Z</time></trkpt><trkpt lat="43.54221913902066" lon="12.250424280755979"><ele>409.0</ele><time>2026-05-01T09:09:53Z</time></trkpt><trkpt lat="43.542173830747274" lon="12.250645598580356"><ele>413.6666666666667</ele><time>2026-05-01T09:09:54Z</time></trkpt><trkpt lat="43.54209898812236" lon="12.250850953035744"><ele>418.33333333333337</ele><time>2026-05-01T09:09:55Z</time></trkpt><trkpt lat="43.54206505559236" lon="12.251035969548933"><ele>423.0</ele><time>2026-05-01T09:09:56Z</time></trkpt><trkpt lat="43.54208682717098" lon="12.251250822797877"><ele>426.33333333333337</ele><time>2026-05-01T09:09:57Z</time></trkpt><trkpt lat="43.542136280029155" lon="12.251490984772662"><ele>429.6666666666667</ele><time>2026-05-01T09:09:58Z</time></trkpt><trkpt lat="43.54218050366234" lon="12.251769205021802"><ele>433.0</ele><time>2026-05-01T09:09:59Z</time></trkpt><trkpt lat="43.54220284173887" lon="12.252041084018584"><ele>433.0</ele><time>2026-05-01T09:10:00Z</time></trkpt><trkpt lat="43.54221762886912" lon="12.252273653621055"><ele>433.0</ele><time>2026-05-01T09:10:01Z</time></trkpt><trkpt lat="43.54223891885168" lon="12.252465659124804"><ele>433.0</ele><time>2026-05-01T09:10:02Z</time></trkpt><trkpt lat="43.542280772467294" lon="12.252634450414902"><ele>433.0</ele><time>2026-05-01T09:10:03Z</time></trkpt><trkpt lat="43.54235624360457" lon="12.252746130489047"><ele>431.0</ele><time>2026-05-01T09:10:04Z</time></trkpt><trkpt lat="43.54248202567429" lon="12.252816606337806"><ele>429.0</ele><time>2026-05-01T09:10:05Z</time></trkpt><trkpt lat="43.54264593326882" lon="12.252886710068331"><ele>427.0</ele><time>2026-05-01T09:10:06Z</time></trkpt><trkpt lat="43.542822969119555" lon="12.252999685482816"><ele>432.6666666666667</ele><time>2026-05-01T09:10:07Z</time></trkpt><trkpt lat="43.54301134659123" lon="12.253162612258494"><ele>438.33333333333337</ele><time>2026-05-01T09:10:08Z</time></trkpt><trkpt lat="43.54317246859857" lon="12.253344555851998"><ele>444.0</ele><time>2026-05-01T09:10:09Z</time></trkpt><trkpt lat="43.54330053840151" lon="12.253569917124842"><ele>444.0</ele><time>2026-05-01T09:10:10Z</time></trkpt><trkpt lat="43.54339393899645" lon="12.253841823605402"><ele>444.0</ele><time>2026-05-01T09:10:11Z</time></trkpt><trkpt lat="43.543470528439215" lon="12.254147366254722"><ele>436.0</ele><time>2026-05-01T09:10:12Z</time></trkpt><trkpt lat="43.54353827984539" lon="12.254465676944372"><ele>428.0</ele><time>2026-05-01T09:10:13Z</time></trkpt><trkpt lat="43.543613254237854" lon="12.254823478406259"><ele>439.5</ele><time>2026-05-01T09:10:14Z</time></trkpt><trkpt lat="43.54373080652823" lon="12.255177460517695"><ele>451.0</ele><time>2026-05-01T09:10:15Z</time></trkpt><trkpt lat="43.5438665924148" lon="12.255501541647162"><ele>446.0</ele><time>2026-05-01T09:10:16Z</time></trkpt><trkpt lat="43.5439821194411" lon="12.255836523973791"><ele>441.0</ele><time>2026-05-01T09:10:17Z</time></trkpt><trkpt lat="43.544060463681554" lon="12.256189392536093"><ele>438.0</ele><time>2026-05-01T09:10:18Z</time></trkpt><trkpt lat="43.544122403536065" lon="12.256519323044982"><ele>435.0</ele><time>2026-05-01T09:10:19Z</time></trkpt><trkpt lat="43.54420414684362" lon="12.256809168991493"><ele>435.0</ele><time>2026-05-01T09:10:20Z</time></trkpt><trkpt lat="43.54430419440223" lon="12.257060608879817"><ele>435.0</ele><time>2026-05-01T09:10:21Z</time></trkpt><trkpt lat="43.54439374166046" lon="12.257312096821433"><ele>435.0</ele><time>2026-05-01T09:10:22Z</time></trkpt><trkpt lat="43.54447396068771" lon="12.257547403569834"><ele>439.5</ele><time>2026-05-01T09:10:23Z</time></trkpt><trkpt lat="43.54456444035138" lon="12.257734499897426"><ele>444.0</ele><time>2026-05-01T09:10:24Z</time></trkpt><trkpt lat="43.54466664337411" lon="12.25785391985105"><ele>448.5</ele><time>2026-05-01T09:10:25Z</time></trkpt><trkpt lat="43.54477126678689" lon="12.257902364345437"><ele>453.0</ele><time>2026-05-01T09:10:26Z</time></trkpt><trkpt lat="43.54488711513583" lon="12.257889268539776"><ele>453.0</ele><time>2026-05-01T09:10:27Z</time></trkpt><trkpt lat="43.54501379130128" lon="12.257854694448236"><ele>453.0</ele><time>2026-05-01T09:10:28Z</time></trkpt><trkpt lat="43.545149632222866" lon="12.257844961864157"><ele>453.0</ele><time>2026-05-01T09:10:29Z</time></trkpt><trkpt lat="43.545293049493154" lon="12.25787609987641"><ele>453.0</ele><time>2026-05-01T09:10:30Z</time></trkpt><trkpt lat="43.54542187247587" lon="12.257986263673658"><ele>452.0</ele><time>2026-05-01T09:10:31Z</time></trkpt><trkpt lat="43.545552101363874" lon="12.25814276375731"><ele>451.0</ele><time>2026-05-01T09:10:32Z</time></trkpt><trkpt lat="43.54568420976692" lon="12.258336290422053"><ele>450.0</ele><time>2026-05-01T09:10:33Z</time></trkpt><trkpt lat="43.5458171261567" lon="12.258533860575907"><ele>450.0</ele><time>2026-05-01T09:10:34Z</time></trkpt><trkpt lat="43.54592836324827" lon="12.258705204595813"><ele>450.0</ele><time>2026-05-01T09:10:35Z</time></trkpt><trkpt lat="43.54602586462508" lon="12.258849622264728"><ele>450.0</ele><time>2026-05-01T09:10:36Z</time></trkpt><trkpt lat="43.54612068140064" lon="12.258966127049021"><ele>450.0</ele><time>2026-05-01T09:10:37Z</time></trkpt><trkpt lat="43.54621984514264" lon="12.259072869841843"><ele>451.0</ele><time>2026-05-01T09:10:38Z</time></trkpt><trkpt lat="43.54633567369886" lon="12.259147567403348"><ele>452.0</ele><time>2026-05-01T09:10:39Z</time></trkpt><trkpt lat="43.546445424402144" lon="12.259190658505878"><ele>453.0</ele><time>2026-05-01T09:10:40Z</time></trkpt><trkpt lat="43.54653993899647" lon="12.259226223977901"><ele>454.0</ele><time>2026-05-01T09:10:41Z</time></trkpt><trkpt lat="43.5466130482993" lon="12.259292528262161"><ele>455.0</ele><time>2026-05-01T09:10:42Z</time></trkpt><trkpt lat="43.54665310656108" lon="12.25942042382571"><ele>455.0</ele><time>2026-05-01T09:10:43Z</time></trkpt><trkpt lat="43.546635171269905" lon="12.25958583377042"><ele>455.0</ele><time>2026-05-01T09:10:44Z</time></trkpt><trkpt lat="43.54656429497463" lon="12.259744789176585"><ele>455.0</ele><time>2026-05-01T09:10:45Z</time></trkpt><trkpt lat="43.546453865523134" lon="12.259894616297553"><ele>455.0</ele><time>2026-05-01T09:10:46Z</time></trkpt><trkpt lat="43.54632934050589" lon="12.260047241908964"><ele>457.5</ele><time>2026-05-01T09:10:47Z</time></trkpt><trkpt lat="43.5462327277236" lon="12.260198103142875"><ele>460.0</ele><time>2026-05-01T09:10:48Z</time></trkpt><trkpt lat="43.546199155101014" lon="12.26034410124281"><ele>462.5</ele><time>2026-05-01T09:10:49Z</time></trkpt><trkpt lat="43.54620662602515" lon="12.260501341960547"><ele>465.0</ele><time>2026-05-01T09:10:50Z</time></trkpt><trkpt lat="43.54626674686154" lon="12.260658669845132"><ele>467.0</ele><time>2026-05-01T09:10:51Z</time></trkpt><trkpt lat="43.54637143425804" lon="12.260795441069837"><ele>469.0</ele><time>2026-05-01T09:10:52Z</time></trkpt><trkpt lat="43.54650921955092" lon="12.260921253824595"><ele>471.0</ele><time>2026-05-01T09:10:53Z</time></trkpt><trkpt lat="43.54664362940362" lon="12.261084242711483"><ele>471.0</ele><time>2026-05-01T09:10:54Z</time></trkpt><trkpt lat="43.54676512660327" lon="12.261295159722582"><ele>471.0</ele><time>2026-05-01T09:10:55Z</time></trkpt><trkpt lat="43.546882171934335" lon="12.261536670010713"><ele>471.0</ele><time>2026-05-01T09:10:56Z</time></trkpt><trkpt lat="43.54697694160442" lon="12.261769038103237"><ele>467.0</ele><time>2026-05-01T09:10:57Z</time></trkpt><trkpt lat="43.547033131745" lon="12.261980946011452"><ele>463.0</ele><time>2026-05-01T09:10:58Z</time></trkpt><trkpt lat="43.54705679778303" lon="12.262174707607853"><ele>459.0</ele><time>2026-05-01T09:10:59Z</time></trkpt><trkpt lat="43.54705122915921" lon="12.262372041487572"><ele>455.0</ele><time>2026-05-01T09:11:00Z</time></trkpt><trkpt lat="43.547018889706166" lon="12.26255486061215"><ele>454.75</ele><time>2026-05-01T09:11:01Z</time></trkpt><trkpt lat="43.54697987054009" lon="12.26272492101562"><ele>454.5</ele><time>2026-05-01T09:11:02Z</time></trkpt><trkpt lat="43.54690598402392" lon="12.262886585393026"><ele>454.25</ele><time>2026-05-01T09:11:03Z</time></trkpt><trkpt lat="43.54684862280225" lon="12.263048224005129"><ele>454.0</ele><time>2026-05-01T09:11:04Z</time></trkpt><trkpt lat="43.54678799776935" lon="12.263262556686161"><ele>458.6666666666667</ele><time>2026-05-01T09:11:05Z</time></trkpt><trkpt lat="43.546697883107875" lon="12.263459723220732"><ele>463.33333333333337</ele><time>2026-05-01T09:11:06Z</time></trkpt><trkpt lat="43.546593018343216" lon="12.263618534535032"><ele>468.0</ele><time>2026-05-01T09:11:07Z</time></trkpt><trkpt lat="43.546527523620874" lon="12.263773069860699"><ele>468.0</ele><time>2026-05-01T09:11:08Z</time></trkpt><trkpt lat="43.54653288183116" lon="12.263939324696448"><ele>468.0</ele><time>2026-05-01T09:11:09Z</time></trkpt><trkpt lat="43.546587414041966" lon="12.26410488631214"><ele>468.0</ele><time>2026-05-01T09:11:10Z</time></trkpt><trkpt lat="43.54667877484431" lon="12.264252836459299"><ele>468.0</ele><time>2026-05-01T09:11:11Z</time></trkpt><trkpt lat="43.54680110341713" lon="12.264392180220531"><ele>468.0</ele><time>2026-05-01T09:11:12Z</time></trkpt><trkpt lat="43.54692837767981" lon="12.264549933774822"><ele>468.0</ele><time>2026-05-01T09:11:13Z</time></trkpt><trkpt lat="43.547070253127444" lon="12.264722617459604"><ele>468.0</ele><time>2026-05-01T09:11:14Z</time></trkpt><trkpt lat="43.54720053140117" lon="12.264916279635322"><ele>471.66666666666663</ele><time>2026-05-01T09:11:15Z</time></trkpt><trkpt lat="43.547285637097986" lon="12.265117430622078"><ele>475.3333333333333</ele><time>2026-05-01T09:11:16Z</time></trkpt><trkpt lat="43.54734614652949" lon="12.265315406499846"><ele>479.0</ele><time>2026-05-01T09:11:17Z</time></trkpt><trkpt lat="43.547423153619256" lon="12.26549974314899"><ele>474.66666666666663</ele><time>2026-05-01T09:11:18Z</time></trkpt><trkpt lat="43.54752573722074" lon="12.265657235795894"><ele>470.33333333333337</ele><time>2026-05-01T09:11:19Z</time></trkpt><trkpt lat="43.54765656795413" lon="12.265786467575953"><ele>466.0</ele><time>2026-05-01T09:11:20Z</time></trkpt><trkpt lat="43.54779254882939" lon="12.265897775874835"><ele>475.33333333333337</ele><time>2026-05-01T09:11:21Z</time></trkpt><trkpt lat="43.54793716646271" lon="12.266007495938746"><ele>484.66666666666663</ele><time>2026-05-01T09:11:22Z</time></trkpt><trkpt lat="43.548096234454164" lon="12.266154436697825"><ele>494.0</ele><time>2026-05-01T09:11:23Z</time></trkpt><trkpt lat="43.54826008384327" lon="12.266286619845129"><ele>494.0</ele><time>2026-05-01T09:11:24Z</time></trkpt><trkpt lat="43.54839155337659" lon="12.26639391229401"><ele>494.0</ele><time>2026-05-01T09:11:25Z</time></trkpt><trkpt lat="43.548515206442076" lon="12.266494825708138"><ele>494.0</ele><time>2026-05-01T09:11:26Z</time></trkpt><trkpt lat="43.548639619229455" lon="12.266578576373117"><ele>494.0</ele><time>2026-05-01T09:11:27Z</time></trkpt><trkpt lat="43.54877279651432" lon="12.26663407546925"><ele>491.2</ele><time>2026-05-01T09:11:28Z</time></trkpt><trkpt lat="43.548882726906676" lon="12.266662093539036"><ele>488.4</ele><time>2026-05-01T09:11:29Z</time></trkpt><trkpt lat="43.54898203808683" lon="12.26671768265184"><ele>485.6</ele><time>2026-05-01T09:11:30Z</time></trkpt><trkpt lat="43.549032159560156" lon="12.266792462442524"><ele>482.8</ele><time>2026-05-01T09:11:31Z</time></trkpt><trkpt lat="43.54903845791723" lon="12.266905787209492"><ele>480.0</ele><time>2026-05-01T09:11:32Z</time></trkpt><trkpt lat="43.54906046343051" lon="12.267028642583501"><ele>480.0</ele><time>2026-05-01T09:11:33Z</time></trkpt><trkpt lat="43.549074097490525" lon="12.267187065841195"><ele>480.0</ele><time>2026-05-01T09:11:34Z</time></trkpt><trkpt lat="43.54905869780106" lon="12.267323548945935"><ele>480.0</ele><time>2026-05-01T09:11:35Z</time></trkpt><trkpt lat="43.54899499632986" lon="12.26741853061261"><ele>480.0</ele><time>2026-05-01T09:11:36Z</time></trkpt><trkpt lat="43.548892701390024" lon="12.267473495778482"><ele>480.0</ele><time>2026-05-01T09:11:37Z</time></trkpt><trkpt lat="43.54876963069326" lon="12.267528495423461"><ele>481.25</ele><time>2026-05-01T09:11:38Z</time></trkpt><trkpt lat="43.54863509465897" lon="12.267528909680685"><ele>482.5</ele><time>2026-05-01T09:11:39Z</time></trkpt><trkpt lat="43.54850400740278" lon="12.267484782061576"><ele>483.75</ele><time>2026-05-01T09:11:40Z</time></trkpt><trkpt lat="43.54837413049207" lon="12.267424212477273"><ele>485.0</ele><time>2026-05-01T09:11:41Z</time></trkpt><trkpt lat="43.54827070198389" lon="12.267346634947577"><ele>485.0</ele><time>2026-05-01T09:11:42Z</time></trkpt><trkpt lat="43.54818463402505" lon="12.267296467893638"><ele>485.0</ele><time>2026-05-01T09:11:43Z</time></trkpt><trkpt lat="43.54810131093917" lon="12.267298731419782"><ele>485.0</ele><time>2026-05-01T09:11:44Z</time></trkpt><trkpt lat="43.548012873896276" lon="12.267367583804129"><ele>485.0</ele><time>2026-05-01T09:11:45Z</time></trkpt><trkpt lat="43.54795462162697" lon="12.267501697609777"><ele>485.0</ele><time>2026-05-01T09:11:46Z</time></trkpt><trkpt lat="43.54795187613699" lon="12.267660824817685"><ele>485.0</ele><time>2026-05-01T09:11:47Z</time></trkpt><trkpt lat="43.54798155412009" lon="12.267837467087633"><ele>485.0</ele><time>2026-05-01T09:11:48Z</time></trkpt><trkpt lat="43.54800782753794" lon="12.268042519063409"><ele>485.0</ele><time>2026-05-01T09:11:49Z</time></trkpt><trkpt lat="43.54802345683908" lon="12.268282126358597"><ele>489.66666666666663</ele><time>2026-05-01T09:11:50Z</time></trkpt><trkpt lat="43.54804635669728" lon="12.268547893549542"><ele>494.33333333333337</ele><time>2026-05-01T09:11:51Z</time></trkpt><trkpt lat="43.54806431024971" lon="12.26883420670518"><ele>499.0</ele><time>2026-05-01T09:11:52Z</time></trkpt><trkpt lat="43.54808614964857" lon="12.269117615631027"><ele>499.0</ele><time>2026-05-01T09:11:53Z</time></trkpt><trkpt lat="43.548124571604774" lon="12.269436432218107"><ele>499.0</ele><time>2026-05-01T09:11:54Z</time></trkpt><trkpt lat="43.54813147738688" lon="12.26970238763241"><ele>499.0</ele><time>2026-05-01T09:11:55Z</time></trkpt><trkpt lat="43.5481818865734" lon="12.269933903672369"><ele>499.0</ele><time>2026-05-01T09:11:56Z</time></trkpt><trkpt lat="43.54824613901433" lon="12.270125005033252"><ele>499.0</ele><time>2026-05-01T09:11:57Z</time></trkpt><trkpt lat="43.54835152896694" lon="12.27028782752371"><ele>499.0</ele><time>2026-05-01T09:11:58Z</time></trkpt><trkpt lat="43.548484984316055" lon="12.270465100817722"><ele>496.0</ele><time>2026-05-01T09:11:59Z</time></trkpt><trkpt lat="43.548599393105825" lon="12.270689301636093"><ele>493.0</ele><time>2026-05-01T09:12:00Z</time></trkpt><trkpt lat="43.54870930352113" lon="12.270936464512728"><ele>490.0</ele><time>2026-05-01T09:12:01Z</time></trkpt><trkpt lat="43.548798154936996" lon="12.271176437784177"><ele>499.0</ele><time>2026-05-01T09:12:02Z</time></trkpt><trkpt lat="43.5488663518451" lon="12.271388334405767"><ele>508.0</ele><time>2026-05-01T09:12:03Z</time></trkpt><trkpt lat="43.54889829470762" lon="12.27159591805189"><ele>517.0</ele><time>2026-05-01T09:12:04Z</time></trkpt><trkpt lat="43.54890245636553" lon="12.271825997904568"><ele>517.0</ele><time>2026-05-01T09:12:05Z</time></trkpt><trkpt lat="43.54891089590357" lon="12.272058205271085"><ele>517.0</ele><time>2026-05-01T09:12:06Z</time></trkpt><trkpt lat="43.54894137809212" lon="12.27224669059858"><ele>517.0</ele><time>2026-05-01T09:12:07Z</time></trkpt><trkpt lat="43.54897634641841" lon="12.272415266730022"><ele>517.0</ele><time>2026-05-01T09:12:08Z</time></trkpt><trkpt lat="43.54907645084535" lon="12.272552483179197"><ele>512.6666666666667</ele><time>2026-05-01T09:12:09Z</time></trkpt><trkpt lat="43.54920300617991" lon="12.2727014398564"><ele>508.33333333333337</ele><time>2026-05-01T09:12:10Z</time></trkpt><trkpt lat="43.54936212498909" lon="12.272822960708224"><ele>504.0</ele><time>2026-05-01T09:12:11Z</time></trkpt><trkpt lat="43.54951811238106" lon="12.27295518464298"><ele>510.0</ele><time>2026-05-01T09:12:12Z</time></trkpt><trkpt lat="43.54964978088469" lon="12.273129415794063"><ele>516.0</ele><time>2026-05-01T09:12:13Z</time></trkpt><trkpt lat="43.54977470953594" lon="12.27330715491444"><ele>522.0</ele><time>2026-05-01T09:12:14Z</time></trkpt><trkpt lat="43.549882568089565" lon="12.273491263979562"><ele>522.0</ele><time>2026-05-01T09:12:15Z</time></trkpt><trkpt lat="43.54996459200896" lon="12.273685802935786"><ele>522.0</ele><time>2026-05-01T09:12:16Z</time></trkpt><trkpt lat="43.54998848372438" lon="12.273867395045883"><ele>522.0</ele><time>2026-05-01T09:12:17Z</time></trkpt><trkpt lat="43.54998445772692" lon="12.274064408131128"><ele>522.0</ele><time>2026-05-01T09:12:18Z</time></trkpt><trkpt lat="43.5499737780918" lon="12.274318854105083"><ele>521.0</ele><time>2026-05-01T09:12:19Z</time></trkpt><trkpt lat="43.54996644781225" lon="12.274593568493245"><ele>520.0</ele><time>2026-05-01T09:12:20Z</time></trkpt><trkpt lat="43.5499562706925" lon="12.274879932498"><ele>519.0</ele><time>2026-05-01T09:12:21Z</time></trkpt><trkpt lat="43.54994204681734" lon="12.275173790172897"><ele>519.0</ele><time>2026-05-01T09:12:22Z</time></trkpt><trkpt lat="43.549924474081024" lon="12.275480375885914"><ele>519.0</ele><time>2026-05-01T09:12:23Z</time></trkpt><trkpt lat="43.54989912077387" lon="12.275801889791577"><ele>520.6666666666666</ele><time>2026-05-01T09:12:24Z</time></trkpt><trkpt lat="43.549871662882474" lon="12.27607466221814"><ele>522.3333333333333</ele><time>2026-05-01T09:12:25Z</time></trkpt><trkpt lat="43.54986178201934" lon="12.276315122331226"><ele>524.0</ele><time>2026-05-01T09:12:26Z</time></trkpt><trkpt lat="43.54984426050265" lon="12.276530288642867"><ele>524.75</ele><time>2026-05-01T09:12:27Z</time></trkpt><trkpt lat="43.549847734178094" lon="12.276727082794375"><ele>525.5</ele><time>2026-05-01T09:12:28Z</time></trkpt><trkpt lat="43.54991486874246" lon="12.27690242570121"><ele>526.25</ele><time>2026-05-01T09:12:29Z</time></trkpt><trkpt lat="43.550003803789465" lon="12.277075566861685"><ele>527.0</ele><time>2026-05-01T09:12:30Z</time></trkpt><trkpt lat="43.55014137436132" lon="12.277235508004848"><ele>526.3333333333333</ele><time>2026-05-01T09:12:31Z</time></trkpt><trkpt lat="43.55020914359774" lon="12.277470276091329"><ele>525.6666666666666</ele><time>2026-05-01T09:12:32Z</time></trkpt><trkpt lat="43.550299622651806" lon="12.277713705770978"><ele>525.0</ele><time>2026-05-01T09:12:33Z</time></trkpt><trkpt lat="43.55042201293855" lon="12.277945098142446"><ele>533.5</ele><time>2026-05-01T09:12:34Z</time></trkpt><trkpt lat="43.55056712639582" lon="12.278184423609856"><ele>542.0</ele><time>2026-05-01T09:12:35Z</time></trkpt><trkpt lat="43.55071972291257" lon="12.278464897195473"><ele>542.0</ele><time>2026-05-01T09:12:36Z</time></trkpt><trkpt lat="43.55086953934243" lon="12.278771675654532"><ele>542.0</ele><time>2026-05-01T09:12:37Z</time></trkpt><trkpt lat="43.55101465006758" lon="12.27906206870909"><ele>544.3333333333333</ele><time>2026-05-01T09:12:38Z</time></trkpt><trkpt lat="43.55115137221539" lon="12.279322960710882"><ele>546.6666666666666</ele><time>2026-05-01T09:12:39Z</time></trkpt><trkpt lat="43.55127760498955" lon="12.27955424215982"><ele>549.0</ele><time>2026-05-01T09:12:40Z</time></trkpt><trkpt lat="43.55137880153179" lon="12.279785068982"><ele>549.0</ele><time>2026-05-01T09:12:41Z</time></trkpt><trkpt lat="43.551478727492466" lon="12.279985390736222"><ele>549.0</ele><time>2026-05-01T09:12:42Z</time></trkpt><trkpt lat="43.551573971248416" lon="12.280169616181114"><ele>549.0</ele><time>2026-05-01T09:12:43Z</time></trkpt><trkpt lat="43.55166220615387" lon="12.280331450978704"><ele>549.0</ele><time>2026-05-01T09:12:44Z</time></trkpt><trkpt lat="43.55178007847709" lon="12.28048440669571"><ele>549.0</ele><time>2026-05-01T09:12:45Z</time></trkpt><trkpt lat="43.55192364052548" lon="12.280594552946628"><ele>549.0</ele><time>2026-05-01T09:12:46Z</time></trkpt><trkpt lat="43.552091811352945" lon="12.280695542657517"><ele>552.6666666666666</ele><time>2026-05-01T09:12:47Z</time></trkpt><trkpt lat="43.5522870365981" lon="12.280769555167026"><ele>556.3333333333333</ele><time>2026-05-01T09:12:48Z</time></trkpt><trkpt lat="43.55245684211996" lon="12.280966221027084"><ele>560.0</ele><time>2026-05-01T09:12:49Z</time></trkpt><trkpt lat="43.55265206024631" lon="12.28119382293707"><ele>565.5</ele><time>2026-05-01T09:12:50Z</time></trkpt><trkpt lat="43.552844561445255" lon="12.281457323435115"><ele>571.0</ele><time>2026-05-01T09:12:51Z</time></trkpt><trkpt lat="43.553019156561746" lon="12.281726966725394"><ele>571.0</ele><time>2026-05-01T09:12:52Z</time></trkpt><trkpt lat="43.55317301734377" lon="12.281953948695726"><ele>571.0</ele><time>2026-05-01T09:12:53Z</time></trkpt><trkpt lat="43.55331987224133" lon="12.28212514114937"><ele>571.0</ele><time>2026-05-01T09:12:54Z</time></trkpt><trkpt lat="43.55345033071399" lon="12.282222841003133"><ele>565.6666666666667</ele><time>2026-05-01T09:12:55Z</time></trkpt><trkpt lat="43.55359993245354" lon="12.282274748786113"><ele>560.3333333333334</ele><time>2026-05-01T09:12:56Z</time></trkpt><trkpt lat="43.553776879073" lon="12.282281343750087"><ele>555.0</ele><time>2026-05-01T09:12:57Z</time></trkpt><trkpt lat="43.55397491354342" lon="12.282329677538842"><ele>555.0</ele><time>2026-05-01T09:12:58Z</time></trkpt><trkpt lat="43.554192113247026" lon="12.282381107049538"><ele>555.0</ele><time>2026-05-01T09:12:59Z</time></trkpt><trkpt lat="43.55441276737231" lon="12.282436307573008"><ele>555.0</ele><time>2026-05-01T09:13:00Z</time></trkpt><trkpt lat="43.55462880317155" lon="12.282471994007556"><ele>559.0</ele><time>2026-05-01T09:13:01Z</time></trkpt><trkpt lat="43.55483582135288" lon="12.28251553976809"><ele>563.0</ele><time>2026-05-01T09:13:02Z</time></trkpt><trkpt lat="43.55502331400331" lon="12.282514420426144"><ele>567.0</ele><time>2026-05-01T09:13:03Z</time></trkpt><trkpt lat="43.55525977758217" lon="12.282558051204392"><ele>570.6666666666666</ele><time>2026-05-01T09:13:04Z</time></trkpt><trkpt lat="43.5554829414745" lon="12.282566299647893"><ele>574.3333333333333</ele><time>2026-05-01T09:13:05Z</time></trkpt><trkpt lat="43.55567117124395" lon="12.282582011658027"><ele>578.0</ele><time>2026-05-01T09:13:06Z</time></trkpt><trkpt lat="43.55588615467835" lon="12.282629421610187"><ele>578.0</ele><time>2026-05-01T09:13:07Z</time></trkpt><trkpt lat="43.556048166490626" lon="12.28272926869307"><ele>578.0</ele><time>2026-05-01T09:13:08Z</time></trkpt><trkpt lat="43.55622261908587" lon="12.28284291239621"><ele>578.0</ele><time>2026-05-01T09:13:09Z</time></trkpt><trkpt lat="43.55640346580175" lon="12.282942755920676"><ele>581.3333333333333</ele><time>2026-05-01T09:13:10Z</time></trkpt><trkpt lat="43.55656603086154" lon="12.283093044273842"><ele>584.6666666666666</ele><time>2026-05-01T09:13:11Z</time></trkpt><trkpt lat="43.55673776660602" lon="12.283250105436139"><ele>588.0</ele><time>2026-05-01T09:13:12Z</time></trkpt><trkpt lat="43.55693210054666" lon="12.283388736797743"><ele>584.5</ele><time>2026-05-01T09:13:13Z</time></trkpt><trkpt lat="43.557154513380944" lon="12.28352394185219"><ele>581.0</ele><time>2026-05-01T09:13:14Z</time></trkpt><trkpt lat="43.557402480227296" lon="12.283636232275388"><ele>581.0</ele><time>2026-05-01T09:13:15Z</time></trkpt><trkpt lat="43.5575891611095" lon="12.283799201118994"><ele>581.0</ele><time>2026-05-01T09:13:16Z</time></trkpt><trkpt lat="43.557729815645196" lon="12.283946671349131"><ele>581.0</ele><time>2026-05-01T09:13:17Z</time></trkpt><trkpt lat="43.557836501639" lon="12.284090526222945"><ele>581.75</ele><time>2026-05-01T09:13:18Z</time></trkpt><trkpt lat="43.55793291853443" lon="12.284185194392734"><ele>582.5</ele><time>2026-05-01T09:13:19Z</time></trkpt><trkpt lat="43.55801066364452" lon="12.284230346834482"><ele>583.25</ele><time>2026-05-01T09:13:20Z</time></trkpt><trkpt lat="43.55813531985174" lon="12.284293501790946"><ele>584.0</ele><time>2026-05-01T09:13:21Z</time></trkpt><trkpt lat="43.558243406531105" lon="12.28436793699545"><ele>584.0</ele><time>2026-05-01T09:13:22Z</time></trkpt><trkpt lat="43.55835862901651" lon="12.284426805241162"><ele>584.0</ele><time>2026-05-01T09:13:23Z</time></trkpt><trkpt lat="43.558470322208464" lon="12.284497612068744"><ele>584.0</ele><time>2026-05-01T09:13:24Z</time></trkpt><trkpt lat="43.55857758724507" lon="12.284588732509548"><ele>584.0</ele><time>2026-05-01T09:13:25Z</time></trkpt><trkpt lat="43.5586927656371" lon="12.284681759070534"><ele>583.75</ele><time>2026-05-01T09:13:26Z</time></trkpt><trkpt lat="43.55880952066862" lon="12.28477060488494"><ele>583.5</ele><time>2026-05-01T09:13:27Z</time></trkpt><trkpt lat="43.55892616383298" lon="12.284859365581614"><ele>583.25</ele><time>2026-05-01T09:13:28Z</time></trkpt><trkpt lat="43.559039947307184" lon="12.284945950165763"><ele>583.0</ele><time>2026-05-01T09:13:29Z</time></trkpt><trkpt lat="43.55913188983659" lon="12.285033648995787"><ele>583.0</ele><time>2026-05-01T09:13:30Z</time></trkpt><trkpt lat="43.559204885566324" lon="12.28515696431654"><ele>583.0</ele><time>2026-05-01T09:13:31Z</time></trkpt><trkpt lat="43.5592754642274" lon="12.285300981836624"><ele>583.0</ele><time>2026-05-01T09:13:32Z</time></trkpt><trkpt lat="43.55935450136872" lon="12.285460217912345"><ele>583.0</ele><time>2026-05-01T09:13:33Z</time></trkpt><trkpt lat="43.55944572776007" lon="12.285642299501227"><ele>590.0</ele><time>2026-05-01T09:13:34Z</time></trkpt><trkpt lat="43.559555185058" lon="12.285857946363711"><ele>597.0</ele><time>2026-05-01T09:13:35Z</time></trkpt><trkpt lat="43.55965341761349" lon="12.286055080722019"><ele>604.0</ele><time>2026-05-01T09:13:36Z</time></trkpt><trkpt lat="43.55971427860723" lon="12.286212971675402"><ele>604.0</ele><time>2026-05-01T09:13:37Z</time></trkpt><trkpt lat="43.55979147323333" lon="12.286335087013727"><ele>604.0</ele><time>2026-05-01T09:13:38Z</time></trkpt><trkpt lat="43.55987088227927" lon="12.286426139487034"><ele>604.0</ele><time>2026-05-01T09:13:39Z</time></trkpt><trkpt lat="43.55998822204014" lon="12.286467288458905"><ele>604.0</ele><time>2026-05-01T09:13:40Z</time></trkpt><trkpt lat="43.56013342853473" lon="12.286497999075042"><ele>603.6666666666667</ele><time>2026-05-01T09:13:41Z</time></trkpt><trkpt lat="43.56028668788875" lon="12.286576408736897"><ele>603.3333333333334</ele><time>2026-05-01T09:13:42Z</time></trkpt><trkpt lat="43.56046271512803" lon="12.286617247098924"><ele>603.0</ele><time>2026-05-01T09:13:43Z</time></trkpt><trkpt lat="43.56064450663695" lon="12.286663638780695"><ele>603.0</ele><time>2026-05-01T09:13:44Z</time></trkpt><trkpt lat="43.560806810122" lon="12.286681505892048"><ele>603.0</ele><time>2026-05-01T09:13:45Z</time></trkpt><trkpt lat="43.56094713661024" lon="12.28675089268509"><ele>603.0</ele><time>2026-05-01T09:13:46Z</time></trkpt><trkpt lat="43.561081155829505" lon="12.286837082913442"><ele>607.0</ele><time>2026-05-01T09:13:47Z</time></trkpt><trkpt lat="43.561202427458674" lon="12.286946022211064"><ele>611.0</ele><time>2026-05-01T09:13:48Z</time></trkpt><trkpt lat="43.561352384505554" lon="12.287066301369016"><ele>615.0</ele><time>2026-05-01T09:13:49Z</time></trkpt><trkpt lat="43.56152046002705" lon="12.287134077665867"><ele>615.0</ele><time>2026-05-01T09:13:50Z</time></trkpt><trkpt lat="43.561684482573796" lon="12.287207242629425"><ele>615.0</ele><time>2026-05-01T09:13:51Z</time></trkpt><trkpt lat="43.56182734476157" lon="12.287338327806218"><ele>615.0</ele><time>2026-05-01T09:13:52Z</time></trkpt><trkpt lat="43.56198191505977" lon="12.287482459507267"><ele>617.6666666666666</ele><time>2026-05-01T09:13:53Z</time></trkpt><trkpt lat="43.56214846756164" lon="12.287640320854578"><ele>620.3333333333333</ele><time>2026-05-01T09:13:54Z</time></trkpt><trkpt lat="43.562317172749594" lon="12.28779515753251"><ele>623.0</ele><time>2026-05-01T09:13:55Z</time></trkpt><trkpt lat="43.5624672764598" lon="12.287906298216202"><ele>623.0</ele><time>2026-05-01T09:13:56Z</time></trkpt><trkpt lat="43.562585645052835" lon="12.288019013811194"><ele>623.0</ele><time>2026-05-01T09:13:57Z</time></trkpt><trkpt lat="43.56269911243344" lon="12.288102252040117"><ele>623.0</ele><time>2026-05-01T09:13:58Z</time></trkpt><trkpt lat="43.56283566641461" lon="12.288147494656503"><ele>623.0</ele><time>2026-05-01T09:13:59Z</time></trkpt><trkpt lat="43.56300273476332" lon="12.288167564510802"><ele>624.6666666666666</ele><time>2026-05-01T09:14:00Z</time></trkpt><trkpt lat="43.56316833019225" lon="12.288244859926834"><ele>626.3333333333334</ele><time>2026-05-01T09:14:01Z</time></trkpt><trkpt lat="43.56332822433792" lon="12.288304377438672"><ele>628.0</ele><time>2026-05-01T09:14:02Z</time></trkpt><trkpt lat="43.56346214442626" lon="12.288367157157529"><ele>628.0</ele><time>2026-05-01T09:14:03Z</time></trkpt><trkpt lat="43.56357265234093" lon="12.2884555460131"><ele>628.0</ele><time>2026-05-01T09:14:04Z</time></trkpt><trkpt lat="43.56365812302662" lon="12.28858737009515"><ele>628.0</ele><time>2026-05-01T09:14:05Z</time></trkpt><trkpt lat="43.56371537875168" lon="12.288768496121907"><ele>628.0</ele><time>2026-05-01T09:14:06Z</time></trkpt><trkpt lat="43.56381307084024" lon="12.288905432536614"><ele>629.0</ele><time>2026-05-01T09:14:07Z</time></trkpt><trkpt lat="43.563913152101904" lon="12.28903078873478"><ele>630.0</ele><time>2026-05-01T09:14:08Z</time></trkpt><trkpt lat="43.56403261816078" lon="12.28909756954737"><ele>631.0</ele><time>2026-05-01T09:14:09Z</time></trkpt><trkpt lat="43.56416500117326" lon="12.289111387787212"><ele>632.0</ele><time>2026-05-01T09:14:10Z</time></trkpt><trkpt lat="43.5643171006662" lon="12.289107803064688"><ele>632.0</ele><time>2026-05-01T09:14:11Z</time></trkpt><trkpt lat="43.56447527733927" lon="12.289155891550772"><ele>632.0</ele><time>2026-05-01T09:14:12Z</time></trkpt><trkpt lat="43.564609578995615" lon="12.289170271949047"><ele>632.0</ele><time>2026-05-01T09:14:13Z</time></trkpt><trkpt lat="43.56472033708673" lon="12.289185702503584"><ele>632.0</ele><time>2026-05-01T09:14:14Z</time></trkpt><trkpt lat="43.564809752419144" lon="12.289142178398512"><ele>633.5</ele><time>2026-05-01T09:14:15Z</time></trkpt><trkpt lat="43.564891731969006" lon="12.289048827494716"><ele>635.0</ele><time>2026-05-01T09:14:16Z</time></trkpt><trkpt lat="43.56498299088191" lon="12.288921458926064"><ele>636.5</ele><time>2026-05-01T09:14:17Z</time></trkpt><trkpt lat="43.56508390130475" lon="12.288756020131883"><ele>638.0</ele><time>2026-05-01T09:14:18Z</time></trkpt><trkpt lat="43.5651770545831" lon="12.288635631037613"><ele>642.0</ele><time>2026-05-01T09:14:19Z</time></trkpt><trkpt lat="43.56525166799947" lon="12.288536039540896"><ele>646.0</ele><time>2026-05-01T09:14:20Z</time></trkpt><trkpt lat="43.565331975844636" lon="12.2884946700432"><ele>650.0</ele><time>2026-05-01T09:14:21Z</time></trkpt><trkpt lat="43.565407602454314" lon="12.288550701881212"><ele>654.0</ele><time>2026-05-01T09:14:22Z</time></trkpt><trkpt lat="43.56547840710121" lon="12.288617406714003"><ele>658.0</ele><time>2026-05-01T09:14:23Z</time></trkpt><trkpt lat="43.565520217073" lon="12.288745592434722"><ele>657.4</ele><time>2026-05-01T09:14:24Z</time></trkpt><trkpt lat="43.565543606876126" lon="12.288886010326124"><ele>656.8</ele><time>2026-05-01T09:14:25Z</time></trkpt><trkpt lat="43.56553593947645" lon="12.289041244024263"><ele>656.2</ele><time>2026-05-01T09:14:26Z</time></trkpt><trkpt lat="43.565547357267455" lon="12.289168639795045"><ele>655.6</ele><time>2026-05-01T09:14:27Z</time></trkpt><trkpt lat="43.56555941739001" lon="12.289270739673526"><ele>655.0</ele><time>2026-05-01T09:14:28Z</time></trkpt><trkpt lat="43.56559557718525" lon="12.28936907963985"><ele>655.0</ele><time>2026-05-01T09:14:29Z</time></trkpt><trkpt lat="43.56565085146818" lon="12.289459821167048"><ele>655.0</ele><time>2026-05-01T09:14:30Z</time></trkpt><trkpt lat="43.56573404751417" lon="12.289540530812596"><ele>655.0</ele><time>2026-05-01T09:14:31Z</time></trkpt><trkpt lat="43.565848239441834" lon="12.289610969781824"><ele>655.0</ele><time>2026-05-01T09:14:32Z</time></trkpt><trkpt lat="43.56599017052374" lon="12.289692066262937"><ele>651.6666666666667</ele><time>2026-05-01T09:14:33Z</time></trkpt><trkpt lat="43.566128371141374" lon="12.289822349318515"><ele>648.3333333333334</ele><time>2026-05-01T09:14:34Z</time></trkpt><trkpt lat="43.56627847210337" lon="12.289946433647255"><ele>645.0</ele><time>2026-05-01T09:14:35Z</time></trkpt><trkpt lat="43.56643826240328" lon="12.290065384735263"><ele>652.6666666666666</ele><time>2026-05-01T09:14:36Z</time></trkpt><trkpt lat="43.5665789873462" lon="12.290190477446158"><ele>660.3333333333333</ele><time>2026-05-01T09:14:37Z</time></trkpt><trkpt lat="43.56671999718008" lon="12.290316327934908"><ele>668.0</ele><time>2026-05-01T09:14:38Z</time></trkpt><trkpt lat="43.566883806822204" lon="12.290417014247858"><ele>666.6666666666666</ele><time>2026-05-01T09:14:39Z</time></trkpt><trkpt lat="43.56707487045156" lon="12.29050459954057"><ele>665.3333333333334</ele><time>2026-05-01T09:14:40Z</time></trkpt><trkpt lat="43.56723372467981" lon="12.290636832442859"><ele>664.0</ele><time>2026-05-01T09:14:41Z</time></trkpt><trkpt lat="43.56739403911199" lon="12.290784466417476"><ele>664.0</ele><time>2026-05-01T09:14:42Z</time></trkpt><trkpt lat="43.567558119885675" lon="12.290940281425595"><ele>664.0</ele><time>2026-05-01T09:14:43Z</time></trkpt><trkpt lat="43.56769679980061" lon="12.291124586955588"><ele>664.0</ele><time>2026-05-01T09:14:44Z</time></trkpt><trkpt lat="43.56783948125285" lon="12.291302583162642"><ele>665.3333333333334</ele><time>2026-05-01T09:14:45Z</time></trkpt><trkpt lat="43.56799507995308" lon="12.291447005150758"><ele>666.6666666666666</ele><time>2026-05-01T09:14:46Z</time></trkpt><trkpt lat="43.568147706402954" lon="12.291571437640822"><ele>668.0</ele><time>2026-05-01T09:14:47Z</time></trkpt><trkpt lat="43.568292691445066" lon="12.291651127786297"><ele>668.0</ele><time>2026-05-01T09:14:48Z</time></trkpt><trkpt lat="43.56840899795091" lon="12.2917542016367"><ele>668.0</ele><time>2026-05-01T09:14:49Z</time></trkpt><trkpt lat="43.56850350375168" lon="12.291855109104999"><ele>668.0</ele><time>2026-05-01T09:14:50Z</time></trkpt><trkpt lat="43.5685770528742" lon="12.291972379174581"><ele>668.0</ele><time>2026-05-01T09:14:51Z</time></trkpt><trkpt lat="43.56861301174311" lon="12.29209201335784"><ele>668.0</ele><time>2026-05-01T09:14:52Z</time></trkpt><trkpt lat="43.56862016284135" lon="12.292201537387314"><ele>668.0</ele><time>2026-05-01T09:14:53Z</time></trkpt><trkpt lat="43.56855762718674" lon="12.292306402304185"><ele>668.0</ele><time>2026-05-01T09:14:54Z</time></trkpt><trkpt lat="43.56843922703798" lon="12.292378331985908"><ele>668.0</ele><time>2026-05-01T09:14:55Z</time></trkpt><trkpt lat="43.568325850199194" lon="12.29251410478063"><ele>668.0</ele><time>2026-05-01T09:14:56Z</time></trkpt><trkpt lat="43.56818819201826" lon="12.292646085707197"><ele>668.0</ele><time>2026-05-01T09:14:57Z</time></trkpt><trkpt lat="43.568054561859775" lon="12.29280320077684"><ele>668.0</ele><time>2026-05-01T09:14:58Z</time></trkpt><trkpt lat="43.56795015709402" lon="12.292971559905595"><ele>671.0</ele><time>2026-05-01T09:14:59Z</time></trkpt><trkpt lat="43.56788286876379" lon="12.293132039800401"><ele>674.0</ele><time>2026-05-01T09:15:00Z</time></trkpt><trkpt lat="43.56784106269227" lon="12.293281473896057"><ele>677.0</ele><time>2026-05-01T09:15:01Z</time></trkpt><trkpt lat="43.56782700396314" lon="12.293414765257486"><ele>680.0</ele><time>2026-05-01T09:15:02Z</time></trkpt><trkpt lat="43.567833497566916" lon="12.293504944994861"><ele>683.0</ele><time>2026-05-01T09:15:03Z</time></trkpt><trkpt lat="43.5679016638359" lon="12.293535918496621"><ele>683.5999999999999</ele><time>2026-05-01T09:15:05Z</time></trkpt><trkpt lat="43.56796430556453" lon="12.293516250169692"><ele>684.1999999999999</ele><time>2026-05-01T09:15:06Z</time></trkpt><trkpt lat="43.56804000009598" lon="12.293479249308989"><ele>684.8</ele><time>2026-05-01T09:15:07Z</time></trkpt><trkpt lat="43.56810100465684" lon="12.293364614043156"><ele>685.4</ele><time>2026-05-01T09:15:08Z</time></trkpt><trkpt lat="43.568185967893385" lon="12.293237544901755"><ele>686.0</ele><time>2026-05-01T09:15:09Z</time></trkpt><trkpt lat="43.568272810151186" lon="12.293146014055385"><ele>686.0</ele><time>2026-05-01T09:15:10Z</time></trkpt><trkpt lat="43.568350344109874" lon="12.293111929516709"><ele>686.0</ele><time>2026-05-01T09:15:11Z</time></trkpt><trkpt lat="43.568450787627036" lon="12.29309291878804"><ele>686.0</ele><time>2026-05-01T09:15:12Z</time></trkpt><trkpt lat="43.56855630888137" lon="12.293121655630584"><ele>686.0</ele><time>2026-05-01T09:15:13Z</time></trkpt><trkpt lat="43.56866747974585" lon="12.293159072087315"><ele>686.0</ele><time>2026-05-01T09:15:14Z</time></trkpt><trkpt lat="43.568776599449805" lon="12.29320698519338"><ele>686.0</ele><time>2026-05-01T09:15:15Z</time></trkpt><trkpt lat="43.56886627617066" lon="12.293259233113368"><ele>686.0</ele><time>2026-05-01T09:15:16Z</time></trkpt><trkpt lat="43.56895437033233" lon="12.293318646009512"><ele>686.0</ele><time>2026-05-01T09:15:17Z</time></trkpt><trkpt lat="43.5690339930923" lon="12.29337420490156"><ele>686.0</ele><time>2026-05-01T09:15:18Z</time></trkpt><trkpt lat="43.56906977886877" lon="12.293498412289276"><ele>686.0</ele><time>2026-05-01T09:15:19Z</time></trkpt><trkpt lat="43.56914089670337" lon="12.293601134642008"><ele>686.0</ele><time>2026-05-01T09:15:20Z</time></trkpt><trkpt lat="43.56919542299025" lon="12.293756939139858"><ele>686.0</ele><time>2026-05-01T09:15:21Z</time></trkpt><trkpt lat="43.56925153742457" lon="12.293927583957059"><ele>686.0</ele><time>2026-05-01T09:15:22Z</time></trkpt><trkpt lat="43.56929952532112" lon="12.294097633841371"><ele>686.0</ele><time>2026-05-01T09:15:23Z</time></trkpt><trkpt lat="43.56930595800359" lon="12.294278076992336"><ele>688.0</ele><time>2026-05-01T09:15:24Z</time></trkpt><trkpt lat="43.5693478771167" lon="12.294435924227484"><ele>690.0</ele><time>2026-05-01T09:15:25Z</time></trkpt><trkpt lat="43.569399187541464" lon="12.294590874140379"><ele>692.0</ele><time>2026-05-01T09:15:26Z</time></trkpt><trkpt lat="43.56945259318922" lon="12.294715223071117"><ele>694.0</ele><time>2026-05-01T09:15:27Z</time></trkpt><trkpt lat="43.569493360161125" lon="12.294806599229997"><ele>696.0</ele><time>2026-05-01T09:15:28Z</time></trkpt><trkpt lat="43.569544521230746" lon="12.294926249321746"><ele>696.0</ele><time>2026-05-01T09:15:30Z</time></trkpt><trkpt lat="43.56959721698084" lon="12.295141885939989"><ele>696.0</ele><time>2026-05-01T09:17:40Z</time></trkpt><trkpt lat="43.569617536947995" lon="12.295234895537487"><ele>696.0</ele><time>2026-05-01T09:17:41Z</time></trkpt><trkpt lat="43.5696421995594" lon="12.295362199207533"><ele>696.0</ele><time>2026-05-01T09:17:42Z</time></trkpt><trkpt lat="43.569670237691945" lon="12.295514661134673"><ele>696.0</ele><time>2026-05-01T09:17:43Z</time></trkpt><trkpt lat="43.56970360606247" lon="12.295630247149868"><ele>699.5</ele><time>2026-05-01T09:17:44Z</time></trkpt><trkpt lat="43.569758124091" lon="12.295778485779284"><ele>703.0</ele><time>2026-05-01T09:17:45Z</time></trkpt><trkpt lat="43.56981908688992" lon="12.295920134941674"><ele>706.5</ele><time>2026-05-01T09:17:46Z</time></trkpt><trkpt lat="43.569893209535245" lon="12.296060061781706"><ele>710.0</ele><time>2026-05-01T09:17:47Z</time></trkpt><trkpt lat="43.56996941302947" lon="12.2961979502301"><ele>710.0</ele><time>2026-05-01T09:17:48Z</time></trkpt><trkpt lat="43.57005012647096" lon="12.296334323786708"><ele>710.0</ele><time>2026-05-01T09:17:49Z</time></trkpt><trkpt lat="43.57012080320739" lon="12.29645718398944"><ele>710.0</ele><time>2026-05-01T09:17:50Z</time></trkpt><trkpt lat="43.570176900597076" lon="12.296574653295838"><ele>710.0</ele><time>2026-05-01T09:17:51Z</time></trkpt><trkpt lat="43.57023613815577" lon="12.296694028937733"><ele>710.0</ele><time>2026-05-01T09:17:52Z</time></trkpt><trkpt lat="43.570251549134426" lon="12.296843257214988"><ele>715.5</ele><time>2026-05-01T09:17:53Z</time></trkpt><trkpt lat="43.57025969895498" lon="12.296998697519626"><ele>721.0</ele><time>2026-05-01T09:17:54Z</time></trkpt><trkpt lat="43.57024905079863" lon="12.297151236106885"><ele>726.5</ele><time>2026-05-01T09:17:55Z</time></trkpt><trkpt lat="43.57025166597904" lon="12.297322501194216"><ele>732.0</ele><time>2026-05-01T09:17:56Z</time></trkpt><trkpt lat="43.570272440726704" lon="12.29747010432857"><ele>729.75</ele><time>2026-05-01T09:17:57Z</time></trkpt><trkpt lat="43.570325032609" lon="12.297619037948106"><ele>727.5</ele><time>2026-05-01T09:17:58Z</time></trkpt><trkpt lat="43.570400451047966" lon="12.297772936971961"><ele>725.25</ele><time>2026-05-01T09:17:59Z</time></trkpt><trkpt lat="43.57048389255159" lon="12.297933618578817"><ele>723.0</ele><time>2026-05-01T09:18:00Z</time></trkpt><trkpt lat="43.57059288942022" lon="12.298086909608744"><ele>729.3333333333334</ele><time>2026-05-01T09:18:01Z</time></trkpt><trkpt lat="43.5707312887425" lon="12.29819255536005"><ele>735.6666666666667</ele><time>2026-05-01T09:18:02Z</time></trkpt><trkpt lat="43.57085858212262" lon="12.298306293492514"><ele>742.0</ele><time>2026-05-01T09:18:03Z</time></trkpt><trkpt lat="43.57098473434493" lon="12.298416031036359"><ele>742.0</ele><time>2026-05-01T09:18:04Z</time></trkpt><trkpt lat="43.57111090104651" lon="12.298493399663107"><ele>742.0</ele><time>2026-05-01T09:18:05Z</time></trkpt><trkpt lat="43.571242496886015" lon="12.29852488605389"><ele>742.0</ele><time>2026-05-01T09:18:06Z</time></trkpt><trkpt lat="43.571383766863235" lon="12.298498261393046"><ele>742.0</ele><time>2026-05-01T09:18:07Z</time></trkpt><trkpt lat="43.571544332458316" lon="12.298502528268857"><ele>741.75</ele><time>2026-05-01T09:18:08Z</time></trkpt><trkpt lat="43.57170454208636" lon="12.298556326487287"><ele>741.5</ele><time>2026-05-01T09:18:09Z</time></trkpt><trkpt lat="43.57183685531244" lon="12.298595941225706"><ele>741.25</ele><time>2026-05-01T09:18:10Z</time></trkpt><trkpt lat="43.57195562424089" lon="12.298606693803153"><ele>741.0</ele><time>2026-05-01T09:18:11Z</time></trkpt><trkpt lat="43.57204489606216" lon="12.29862588552552"><ele>742.1666666666666</ele><time>2026-05-01T09:18:12Z</time></trkpt><trkpt lat="43.57212032018336" lon="12.298635399792342"><ele>743.3333333333334</ele><time>2026-05-01T09:18:13Z</time></trkpt><trkpt lat="43.572205935712255" lon="12.298644596818438"><ele>744.5</ele><time>2026-05-01T09:18:14Z</time></trkpt><trkpt lat="43.572294422677885" lon="12.298685806533513"><ele>745.6666666666667</ele><time>2026-05-01T09:18:15Z</time></trkpt><trkpt lat="43.57238598954363" lon="12.298685016430074"><ele>746.8333333333334</ele><time>2026-05-01T09:18:16Z</time></trkpt><trkpt lat="43.572448352963825" lon="12.298727813714123"><ele>748.0</ele><time>2026-05-01T09:18:17Z</time></trkpt><trkpt lat="43.57248085310912" lon="12.29882676451956"><ele>751.5999999999999</ele><time>2026-05-01T09:18:18Z</time></trkpt><trkpt lat="43.57249543188536" lon="12.298918260320713"><ele>755.1999999999999</ele><time>2026-05-01T09:18:19Z</time></trkpt><trkpt lat="43.57253644403132" lon="12.299034107303587"><ele>758.8</ele><time>2026-05-01T09:18:20Z</time></trkpt><trkpt lat="43.572582285254896" lon="12.299154803912073"><ele>762.4</ele><time>2026-05-01T09:18:21Z</time></trkpt><trkpt lat="43.57264997907763" lon="12.299287647407088"><ele>766.0</ele><time>2026-05-01T09:18:22Z</time></trkpt><trkpt lat="43.57270147508905" lon="12.299431635042827"><ele>766.0</ele><time>2026-05-01T09:18:23Z</time></trkpt><trkpt lat="43.572786611732184" lon="12.299568464049276"><ele>766.0</ele><time>2026-05-01T09:18:24Z</time></trkpt><trkpt lat="43.572894782776665" lon="12.299656855642956"><ele>766.0</ele><time>2026-05-01T09:18:25Z</time></trkpt><trkpt lat="43.57299998068612" lon="12.299706434632869"><ele>766.0</ele><time>2026-05-01T09:18:26Z</time></trkpt><trkpt lat="43.573089614843774" lon="12.299746823021318"><ele>769.1999999999999</ele><time>2026-05-01T09:18:27Z</time></trkpt><trkpt lat="43.573182688749675" lon="12.299788114313223"><ele>772.4</ele><time>2026-05-01T09:18:28Z</time></trkpt><trkpt lat="43.57325311314523" lon="12.299856588615961"><ele>775.6</ele><time>2026-05-01T09:18:29Z</time></trkpt><trkpt lat="43.57330448574956" lon="12.299959603304229"><ele>778.8</ele><time>2026-05-01T09:18:30Z</time></trkpt><trkpt lat="43.573349369425145" lon="12.300073871679137"><ele>782.0</ele><time>2026-05-01T09:18:31Z</time></trkpt><trkpt lat="43.57338806322507" lon="12.300207940041597"><ele>782.0</ele><time>2026-05-01T09:18:32Z</time></trkpt><trkpt lat="43.573411217324285" lon="12.300371408647045"><ele>782.0</ele><time>2026-05-01T09:18:33Z</time></trkpt><trkpt lat="43.573439871475244" lon="12.300515942692451"><ele>782.0</ele><time>2026-05-01T09:18:34Z</time></trkpt><trkpt lat="43.57347200856701" lon="12.300636676263355"><ele>782.0</ele><time>2026-05-01T09:18:35Z</time></trkpt><trkpt lat="43.57352998658368" lon="12.300752158120066"><ele>782.0</ele><time>2026-05-01T09:18:36Z</time></trkpt><trkpt lat="43.57362567224051" lon="12.30084064705827"><ele>783.5</ele><time>2026-05-01T09:18:37Z</time></trkpt><trkpt lat="43.57373869227027" lon="12.300886020635966"><ele>785.0</ele><time>2026-05-01T09:18:38Z</time></trkpt><trkpt lat="43.573850813349914" lon="12.300959515154364"><ele>786.5</ele><time>2026-05-01T09:18:39Z</time></trkpt><trkpt lat="43.57397184747458" lon="12.301032905075958"><ele>788.0</ele><time>2026-05-01T09:18:40Z</time></trkpt><trkpt lat="43.57408877444401" lon="12.301098608105344"><ele>788.0</ele><time>2026-05-01T09:18:41Z</time></trkpt><trkpt lat="43.57420635961947" lon="12.301143080389169"><ele>788.0</ele><time>2026-05-01T09:18:42Z</time></trkpt><trkpt lat="43.57433188920302" lon="12.301156628510277"><ele>788.0</ele><time>2026-05-01T09:18:43Z</time></trkpt><trkpt lat="43.57444809851906" lon="12.301142887241635"><ele>788.0</ele><time>2026-05-01T09:18:44Z</time></trkpt><trkpt lat="43.57457277165447" lon="12.301137795089703"><ele>789.5</ele><time>2026-05-01T09:18:45Z</time></trkpt><trkpt lat="43.57471292907184" lon="12.301137484695351"><ele>791.0</ele><time>2026-05-01T09:18:46Z</time></trkpt><trkpt lat="43.574841517631995" lon="12.30112997324012"><ele>792.5</ele><time>2026-05-01T09:18:47Z</time></trkpt><trkpt lat="43.574970057102995" lon="12.301115787292892"><ele>794.0</ele><time>2026-05-01T09:18:48Z</time></trkpt><trkpt lat="43.57509971414369" lon="12.301138368479135"><ele>794.0</ele><time>2026-05-01T09:18:49Z</time></trkpt><trkpt lat="43.57522830022621" lon="12.301166236787918"><ele>794.0</ele><time>2026-05-01T09:18:50Z</time></trkpt><trkpt lat="43.57535764614777" lon="12.301214122402591"><ele>794.0</ele><time>2026-05-01T09:18:51Z</time></trkpt><trkpt lat="43.57549610086056" lon="12.301292205188702"><ele>794.0</ele><time>2026-05-01T09:18:52Z</time></trkpt><trkpt lat="43.57561661439759" lon="12.301400948540113"><ele>799.6</ele><time>2026-05-01T09:18:53Z</time></trkpt><trkpt lat="43.575726865845695" lon="12.301479964908813"><ele>805.2</ele><time>2026-05-01T09:18:54Z</time></trkpt><trkpt lat="43.575816887836424" lon="12.30153118514689"><ele>810.8000000000001</ele><time>2026-05-01T09:18:55Z</time></trkpt><trkpt lat="43.57590377908877" lon="12.301543234663114"><ele>816.4000000000001</ele><time>2026-05-01T09:18:56Z</time></trkpt><trkpt lat="43.57598738258211" lon="12.301511682674821"><ele>822.0</ele><time>2026-05-01T09:18:57Z</time></trkpt><trkpt lat="43.576071363168204" lon="12.301437518888065"><ele>823.8</ele><time>2026-05-01T09:18:58Z</time></trkpt><trkpt lat="43.57613493566491" lon="12.301328765699152"><ele>825.6</ele><time>2026-05-01T09:18:59Z</time></trkpt><trkpt lat="43.5762020372809" lon="12.30120275100227"><ele>827.4</ele><time>2026-05-01T09:19:00Z</time></trkpt><trkpt lat="43.57626588757686" lon="12.301062613338011"><ele>829.1999999999999</ele><time>2026-05-01T09:19:01Z</time></trkpt><trkpt lat="43.57633153212517" lon="12.300932368780993"><ele>831.0</ele><time>2026-05-01T09:19:02Z</time></trkpt><trkpt lat="43.57643048589909" lon="12.300871323862236"><ele>831.0</ele><time>2026-05-01T09:19:03Z</time></trkpt><trkpt lat="43.576529189393916" lon="12.30078313307391"><ele>831.0</ele><time>2026-05-01T09:19:04Z</time></trkpt><trkpt lat="43.576617598226576" lon="12.300678261228848"><ele>831.0</ele><time>2026-05-01T09:19:05Z</time></trkpt><trkpt lat="43.5766960742547" lon="12.300612352689454"><ele>831.0</ele><time>2026-05-01T09:19:06Z</time></trkpt><trkpt lat="43.57674503454457" lon="12.300498504005999"><ele>831.0</ele><time>2026-05-01T09:19:07Z</time></trkpt><trkpt lat="43.57674170577562" lon="12.300353569258386"><ele>831.1999999999999</ele><time>2026-05-01T09:19:08Z</time></trkpt><trkpt lat="43.576729401955795" lon="12.300224188922394"><ele>831.4</ele><time>2026-05-01T09:19:09Z</time></trkpt><trkpt lat="43.576709757663934" lon="12.300090418421076"><ele>831.6</ele><time>2026-05-01T09:19:10Z</time></trkpt><trkpt lat="43.576685620528636" lon="12.299926555087545"><ele>831.8</ele><time>2026-05-01T09:19:11Z</time></trkpt><trkpt lat="43.57666914185837" lon="12.299744330981312"><ele>832.0</ele><time>2026-05-01T09:19:12Z</time></trkpt><trkpt lat="43.57666478207838" lon="12.299545350629868"><ele>834.5</ele><time>2026-05-01T09:19:13Z</time></trkpt><trkpt lat="43.576670428675634" lon="12.299375285037287"><ele>837.0</ele><time>2026-05-01T09:19:14Z</time></trkpt><trkpt lat="43.576664059713956" lon="12.29923684704685"><ele>839.5</ele><time>2026-05-01T09:19:15Z</time></trkpt><trkpt lat="43.57663877613825" lon="12.299085981842744"><ele>842.0</ele><time>2026-05-01T09:19:16Z</time></trkpt><trkpt lat="43.57659979021795" lon="12.298926003187615"><ele>845.75</ele><time>2026-05-01T09:19:17Z</time></trkpt><trkpt lat="43.57654975370232" lon="12.298747582427119"><ele>849.5</ele><time>2026-05-01T09:19:18Z</time></trkpt><trkpt lat="43.576493513432936" lon="12.298588351405453"><ele>853.25</ele><time>2026-05-01T09:19:19Z</time></trkpt><trkpt lat="43.57643380673068" lon="12.298457983859608"><ele>857.0</ele><time>2026-05-01T09:19:20Z</time></trkpt><trkpt lat="43.57636257970434" lon="12.298358032075457"><ele>857.0000000000001</ele><time>2026-05-01T09:19:21Z</time></trkpt><trkpt lat="43.576276729853" lon="12.298273187760202"><ele>857.0</ele><time>2026-05-01T09:19:22Z</time></trkpt><trkpt lat="43.57618907600627" lon="12.29821830964907"><ele>857.0</ele><time>2026-05-01T09:19:23Z</time></trkpt><trkpt lat="43.57613529710054" lon="12.298141160173445"><ele>857.0</ele><time>2026-05-01T09:19:24Z</time></trkpt><trkpt lat="43.57607552835294" lon="12.298095620086315"><ele>857.0000000000001</ele><time>2026-05-01T09:19:25Z</time></trkpt><trkpt lat="43.57604521611547" lon="12.298012371661004"><ele>857.0</ele><time>2026-05-01T09:19:26Z</time></trkpt><trkpt lat="43.576041892014864" lon="12.297922462266694"><ele>857.0000000000001</ele><time>2026-05-01T09:19:27Z</time></trkpt><trkpt lat="43.57607278188991" lon="12.297843050143937"><ele>857.0</ele><time>2026-05-01T09:19:28Z</time></trkpt><trkpt lat="43.57612670135747" lon="12.29779288186223"><ele>857.0</ele><time>2026-05-01T09:19:29Z</time></trkpt><trkpt lat="43.57623840729659" lon="12.297813791936067"><ele>857.0</ele><time>2026-05-01T09:19:31Z</time></trkpt><trkpt lat="43.57627652119846" lon="12.29790952743405"><ele>857.0000000000001</ele><time>2026-05-01T09:19:32Z</time></trkpt><trkpt lat="43.576323046332945" lon="12.297988858050243"><ele>857.0</ele><time>2026-05-01T09:19:33Z</time></trkpt><trkpt lat="43.576377792460114" lon="12.298065457570262"><ele>857.0</ele><time>2026-05-01T09:19:34Z</time></trkpt><trkpt lat="43.57645426617927" lon="12.29816682581818"><ele>857.0</ele><time>2026-05-01T09:19:35Z</time></trkpt><trkpt lat="43.576545296739305" lon="12.29825854645373"><ele>857.0</ele><time>2026-05-01T09:19:36Z</time></trkpt><trkpt lat="43.57662538952358" lon="12.298355986798843"><ele>857.0</ele><time>2026-05-01T09:19:37Z</time></trkpt><trkpt lat="43.57669905383975" lon="12.298477980402234"><ele>857.0</ele><time>2026-05-01T09:19:38Z</time></trkpt><trkpt lat="43.5768000416418" lon="12.298586822167088"><ele>857.0</ele><time>2026-05-01T09:19:39Z</time></trkpt><trkpt lat="43.576929459758446" lon="12.298659682270117"><ele>857.0</ele><time>2026-05-01T09:19:40Z</time></trkpt><trkpt lat="43.57703548607938" lon="12.298769150506878"><ele>857.0</ele><time>2026-05-01T09:19:41Z</time></trkpt><trkpt lat="43.57715862319779" lon="12.298879151123609"><ele>857.0</ele><time>2026-05-01T09:19:42Z</time></trkpt><trkpt lat="43.57727260693498" lon="12.298983384167304"><ele>860.75</ele><time>2026-05-01T09:19:43Z</time></trkpt><trkpt lat="43.57738695635569" lon="12.299072531024082"><ele>864.5</ele><time>2026-05-01T09:19:44Z</time></trkpt><trkpt lat="43.577510973369954" lon="12.299127628446653"><ele>868.25</ele><time>2026-05-01T09:19:45Z</time></trkpt><trkpt lat="43.5776298504708" lon="12.299181449376842"><ele>872.0</ele><time>2026-05-01T09:19:46Z</time></trkpt><trkpt lat="43.57773438570734" lon="12.299244660523883"><ele>872.0</ele><time>2026-05-01T09:19:47Z</time></trkpt><trkpt lat="43.57781120172435" lon="12.29934805565233"><ele>872.0</ele><time>2026-05-01T09:19:48Z</time></trkpt><trkpt lat="43.57789285895441" lon="12.299465579606684"><ele>872.0</ele><time>2026-05-01T09:19:49Z</time></trkpt><trkpt lat="43.57798221896053" lon="12.299605884085764"><ele>872.0</ele><time>2026-05-01T09:19:50Z</time></trkpt><trkpt lat="43.578071222126546" lon="12.299756023230332"><ele>877.5</ele><time>2026-05-01T09:19:51Z</time></trkpt><trkpt lat="43.578153310306185" lon="12.299904152520881"><ele>883.0</ele><time>2026-05-01T09:19:52Z</time></trkpt><trkpt lat="43.57818074003577" lon="12.300063055173858"><ele>888.5</ele><time>2026-05-01T09:19:53Z</time></trkpt><trkpt lat="43.57819946492648" lon="12.300191076901472"><ele>894.0</ele><time>2026-05-01T09:19:54Z</time></trkpt><trkpt lat="43.578205403897186" lon="12.30037619362784"><ele>894.0</ele><time>2026-05-01T09:19:56Z</time></trkpt><trkpt lat="43.578189150489614" lon="12.300524189117459"><ele>894.0</ele><time>2026-05-01T09:19:57Z</time></trkpt><trkpt lat="43.57816630745388" lon="12.300726819629759"><ele>894.0</ele><time>2026-05-01T09:19:58Z</time></trkpt><trkpt lat="43.57813382910139" lon="12.300961192799193"><ele>894.0</ele><time>2026-05-01T09:19:59Z</time></trkpt><trkpt lat="43.57809672242548" lon="12.301201783215191"><ele>886.6666666666667</ele><time>2026-05-01T09:20:00Z</time></trkpt><trkpt lat="43.578054312739305" lon="12.30144474614474"><ele>879.3333333333334</ele><time>2026-05-01T09:20:01Z</time></trkpt><trkpt lat="43.5780080313741" lon="12.301646763847769"><ele>872.0</ele><time>2026-05-01T09:20:02Z</time></trkpt><trkpt lat="43.577942250968235" lon="12.301887414387265"><ele>872.0</ele><time>2026-05-01T09:20:03Z</time></trkpt><trkpt lat="43.57787197208066" lon="12.302122820193857"><ele>872.0</ele><time>2026-05-01T09:20:04Z</time></trkpt><trkpt lat="43.5778049163591" lon="12.302338539682102"><ele>872.0</ele><time>2026-05-01T09:20:05Z</time></trkpt><trkpt lat="43.57773800986474" lon="12.302541838082544"><ele>873.75</ele><time>2026-05-01T09:20:06Z</time></trkpt><trkpt lat="43.57767005654058" lon="12.302724074137233"><ele>875.5</ele><time>2026-05-01T09:20:07Z</time></trkpt><trkpt lat="43.577604564821854" lon="12.302883988400664"><ele>877.25</ele><time>2026-05-01T09:20:08Z</time></trkpt><trkpt lat="43.57755041121489" lon="12.303022141180314"><ele>879.0</ele><time>2026-05-01T09:20:09Z</time></trkpt><trkpt lat="43.577502725282464" lon="12.303146731514834"><ele>880.2</ele><time>2026-05-01T09:20:10Z</time></trkpt><trkpt lat="43.57746080945099" lon="12.303269249058056"><ele>881.4000000000001</ele><time>2026-05-01T09:20:11Z</time></trkpt><trkpt lat="43.57742791011348" lon="12.3033974290832"><ele>882.6</ele><time>2026-05-01T09:20:12Z</time></trkpt><trkpt lat="43.57741010766885" lon="12.30352332201714"><ele>883.8</ele><time>2026-05-01T09:20:13Z</time></trkpt><trkpt lat="43.57739733321198" lon="12.303662233752567"><ele>885.0</ele><time>2026-05-01T09:20:14Z</time></trkpt><trkpt lat="43.57739507931019" lon="12.303795724583523"><ele>884.8</ele><time>2026-05-01T09:20:15Z</time></trkpt><trkpt lat="43.577431922048675" lon="12.30392927472581"><ele>884.6</ele><time>2026-05-01T09:20:16Z</time></trkpt><trkpt lat="43.57747514117705" lon="12.304072264248234"><ele>884.4000000000001</ele><time>2026-05-01T09:20:17Z</time></trkpt><trkpt lat="43.577542261370674" lon="12.304200552832343"><ele>884.2</ele><time>2026-05-01T09:20:18Z</time></trkpt><trkpt lat="43.57759919421129" lon="12.304334024354496"><ele>884.0</ele><time>2026-05-01T09:20:19Z</time></trkpt><trkpt lat="43.577660025886686" lon="12.304442732321885"><ele>884.0</ele><time>2026-05-01T09:20:20Z</time></trkpt><trkpt lat="43.57768261604503" lon="12.30457960519804"><ele>884.0000000000001</ele><time>2026-05-01T09:20:21Z</time></trkpt><trkpt lat="43.57767181069708" lon="12.304693414572146"><ele>884.0000000000001</ele><time>2026-05-01T09:20:22Z</time></trkpt><trkpt lat="43.57762082123425" lon="12.304816457205163"><ele>884.0</ele><time>2026-05-01T09:20:23Z</time></trkpt><trkpt lat="43.57755494990323" lon="12.304937804245467"><ele>884.0</ele><time>2026-05-01T09:20:24Z</time></trkpt><trkpt lat="43.57747757346185" lon="12.305093988299946"><ele>883.25</ele><time>2026-05-01T09:20:25Z</time></trkpt><trkpt lat="43.57738898665595" lon="12.305269012754097"><ele>882.5</ele><time>2026-05-01T09:20:26Z</time></trkpt><trkpt lat="43.57731423680023" lon="12.305460388917412"><ele>881.75</ele><time>2026-05-01T09:20:27Z</time></trkpt><trkpt lat="43.57723508917291" lon="12.305615245936721"><ele>881.0</ele><time>2026-05-01T09:20:28Z</time></trkpt><trkpt lat="43.577169681223864" lon="12.305751398398444"><ele>881.4</ele><time>2026-05-01T09:20:29Z</time></trkpt><trkpt lat="43.57712486945724" lon="12.30589368907862"><ele>881.8</ele><time>2026-05-01T09:20:30Z</time></trkpt><trkpt lat="43.57710039796553" lon="12.30603956625612"><ele>882.1999999999999</ele><time>2026-05-01T09:20:31Z</time></trkpt><trkpt lat="43.57707646190475" lon="12.306168026572736"><ele>882.5999999999999</ele><time>2026-05-01T09:20:32Z</time></trkpt><trkpt lat="43.577099783894674" lon="12.306323945584712"><ele>883.0</ele><time>2026-05-01T09:20:33Z</time></trkpt><trkpt lat="43.57714639533228" lon="12.306470478197147"><ele>883.0</ele><time>2026-05-01T09:20:34Z</time></trkpt><trkpt lat="43.57719693756153" lon="12.306575430164022"><ele>883.0</ele><time>2026-05-01T09:20:35Z</time></trkpt><trkpt lat="43.577266089375776" lon="12.306666940856216"><ele>883.0</ele><time>2026-05-01T09:20:36Z</time></trkpt><trkpt lat="43.57738533809728" lon="12.30673922747386"><ele>883.0</ele><time>2026-05-01T09:20:37Z</time></trkpt><trkpt lat="43.57749844841496" lon="12.30677368503948"><ele>883.0</ele><time>2026-05-01T09:20:38Z</time></trkpt><trkpt lat="43.57761754503493" lon="12.306785300432043"><ele>883.0</ele><time>2026-05-01T09:20:39Z</time></trkpt><trkpt lat="43.577748994737824" lon="12.306747967466501"><ele>883.0</ele><time>2026-05-01T09:20:40Z</time></trkpt><trkpt lat="43.57790655665667" lon="12.30666277733095"><ele>883.0</ele><time>2026-05-01T09:20:41Z</time></trkpt><trkpt lat="43.57807570497287" lon="12.306604045546836"><ele>883.2</ele><time>2026-05-01T09:20:42Z</time></trkpt><trkpt lat="43.57821196114814" lon="12.306601600419341"><ele>883.4</ele><time>2026-05-01T09:20:43Z</time></trkpt><trkpt lat="43.57831805117771" lon="12.306626983931459"><ele>883.6000000000001</ele><time>2026-05-01T09:20:44Z</time></trkpt><trkpt lat="43.578396767698635" lon="12.306667195178527"><ele>883.8000000000001</ele><time>2026-05-01T09:20:45Z</time></trkpt><trkpt lat="43.578451699771655" lon="12.306718817950257"><ele>884.0</ele><time>2026-05-01T09:20:46Z</time></trkpt><trkpt lat="43.57849434401919" lon="12.306800515361507"><ele>884.0</ele><time>2026-05-01T09:20:47Z</time></trkpt><trkpt lat="43.578536989343235" lon="12.306918072672095"><ele>884.0</ele><time>2026-05-01T09:20:48Z</time></trkpt><trkpt lat="43.57854847792228" lon="12.307070639721726"><ele>884.0</ele><time>2026-05-01T09:20:49Z</time></trkpt><trkpt lat="43.57856641594336" lon="12.307244860865236"><ele>884.0</ele><time>2026-05-01T09:20:50Z</time></trkpt><trkpt lat="43.57859416359248" lon="12.307422993042733"><ele>885.4000000000001</ele><time>2026-05-01T09:20:51Z</time></trkpt><trkpt lat="43.57866234971376" lon="12.307543300673505"><ele>886.8000000000001</ele><time>2026-05-01T09:20:52Z</time></trkpt><trkpt lat="43.57871911993086" lon="12.307643709861159"><ele>888.1999999999999</ele><time>2026-05-01T09:20:53Z</time></trkpt><trkpt lat="43.57881538967201" lon="12.307707110497143"><ele>889.5999999999999</ele><time>2026-05-01T09:20:54Z</time></trkpt><trkpt lat="43.57893764132353" lon="12.307719800365975"><ele>891.0</ele><time>2026-05-01T09:20:55Z</time></trkpt><trkpt lat="43.579053497366274" lon="12.307770469995809"><ele>891.0</ele><time>2026-05-01T09:20:56Z</time></trkpt><trkpt lat="43.579151810473924" lon="12.307888978567945"><ele>891.0</ele><time>2026-05-01T09:20:57Z</time></trkpt><trkpt lat="43.5792453640213" lon="12.308016927836027"><ele>891.0</ele><time>2026-05-01T09:20:58Z</time></trkpt><trkpt lat="43.57934826684669" lon="12.308159303627031"><ele>891.0</ele><time>2026-05-01T09:20:59Z</time></trkpt><trkpt lat="43.57947309157829" lon="12.308323055839725"><ele>892.25</ele><time>2026-05-01T09:21:00Z</time></trkpt><trkpt lat="43.57960571186556" lon="12.308435417826626"><ele>893.5</ele><time>2026-05-01T09:21:01Z</time></trkpt><trkpt lat="43.5796966906265" lon="12.308527251715445"><ele>894.75</ele><time>2026-05-01T09:21:02Z</time></trkpt><trkpt lat="43.579722242003704" lon="12.308662833320616"><ele>896.0</ele><time>2026-05-01T09:21:03Z</time></trkpt><trkpt lat="43.579741569219244" lon="12.308799306204397"><ele>898.75</ele><time>2026-05-01T09:21:04Z</time></trkpt><trkpt lat="43.57975841895312" lon="12.308987476591934"><ele>901.5</ele><time>2026-05-01T09:21:05Z</time></trkpt><trkpt lat="43.57983867165278" lon="12.309162546972475"><ele>904.25</ele><time>2026-05-01T09:21:06Z</time></trkpt><trkpt lat="43.579902999341776" lon="12.30932819901032"><ele>907.0</ele><time>2026-05-01T09:21:07Z</time></trkpt><trkpt lat="43.57995028913599" lon="12.309472412562718"><ele>907.0</ele><time>2026-05-01T09:21:08Z</time></trkpt><trkpt lat="43.5799736642814" lon="12.309626416143516"><ele>907.0</ele><time>2026-05-01T09:21:09Z</time></trkpt><trkpt lat="43.579978460144844" lon="12.309782817754408"><ele>907.0</ele><time>2026-05-01T09:21:10Z</time></trkpt><trkpt lat="43.579963493542735" lon="12.309935993467986"><ele>907.0</ele><time>2026-05-01T09:21:11Z</time></trkpt><trkpt lat="43.579994357772875" lon="12.31007389928851"><ele>907.0</ele><time>2026-05-01T09:21:12Z</time></trkpt><trkpt lat="43.580099779244726" lon="12.310166596432481"><ele>909.4000000000001</ele><time>2026-05-01T09:21:13Z</time></trkpt><trkpt lat="43.580151760869114" lon="12.310248614445584"><ele>911.8000000000001</ele><time>2026-05-01T09:21:14Z</time></trkpt><trkpt lat="43.580224661321765" lon="12.310241387438948"><ele>914.2</ele><time>2026-05-01T09:21:15Z</time></trkpt><trkpt lat="43.58031850882788" lon="12.310216624948543"><ele>916.6</ele><time>2026-05-01T09:21:17Z</time></trkpt><trkpt lat="43.580456820561594" lon="12.31013777208804"><ele>919.0</ele><time>2026-05-01T09:21:19Z</time></trkpt><trkpt lat="43.58056154810951" lon="12.310075683298026"><ele>919.0</ele><time>2026-05-01T09:21:20Z</time></trkpt><trkpt lat="43.580707536308985" lon="12.309997685503244"><ele>919.0</ele><time>2026-05-01T09:21:21Z</time></trkpt><trkpt lat="43.580865382974274" lon="12.309930257072716"><ele>919.0</ele><time>2026-05-01T09:21:22Z</time></trkpt><trkpt lat="43.58103496425692" lon="12.309888107055126"><ele>922.25</ele><time>2026-05-01T09:21:23Z</time></trkpt><trkpt lat="43.58118394331696" lon="12.309860102038897"><ele>925.5</ele><time>2026-05-01T09:21:24Z</time></trkpt><trkpt lat="43.58130385029881" lon="12.309852793820712"><ele>928.75</ele><time>2026-05-01T09:21:25Z</time></trkpt><trkpt lat="43.581408787952206" lon="12.309882142934917"><ele>932.0</ele><time>2026-05-01T09:21:26Z</time></trkpt><trkpt lat="43.58150196870679" lon="12.309978649755797"><ele>932.0</ele><time>2026-05-01T09:21:27Z</time></trkpt><trkpt lat="43.58160744985715" lon="12.310089261508931"><ele>932.0</ele><time>2026-05-01T09:21:28Z</time></trkpt><trkpt lat="43.581721558750345" lon="12.310219306801327"><ele>932.0</ele><time>2026-05-01T09:21:29Z</time></trkpt><trkpt lat="43.58183824962105" lon="12.310356790921054"><ele>932.0</ele><time>2026-05-01T09:21:30Z</time></trkpt><trkpt lat="43.581949130006194" lon="12.310503277107765"><ele>933.5</ele><time>2026-05-01T09:21:31Z</time></trkpt><trkpt lat="43.58205227970255" lon="12.310640612980412"><ele>935.0</ele><time>2026-05-01T09:21:32Z</time></trkpt><trkpt lat="43.58212995038307" lon="12.310777948996515"><ele>936.5</ele><time>2026-05-01T09:21:33Z</time></trkpt><trkpt lat="43.582234509054814" lon="12.310903084627622"><ele>938.0</ele><time>2026-05-01T09:21:34Z</time></trkpt><trkpt lat="43.58235154833297" lon="12.311004754563882"><ele>938.0</ele><time>2026-05-01T09:21:35Z</time></trkpt><trkpt lat="43.58249871011577" lon="12.31107964877928"><ele>938.0</ele><time>2026-05-01T09:21:36Z</time></trkpt><trkpt lat="43.5826861466685" lon="12.311117212760978"><ele>938.0</ele><time>2026-05-01T09:21:37Z</time></trkpt><trkpt lat="43.58288051784413" lon="12.311146532522013"><ele>937.25</ele><time>2026-05-01T09:21:38Z</time></trkpt><trkpt lat="43.58305358774953" lon="12.311158689532432"><ele>936.5</ele><time>2026-05-01T09:21:39Z</time></trkpt><trkpt lat="43.58319725219624" lon="12.31116237855434"><ele>935.75</ele><time>2026-05-01T09:21:40Z</time></trkpt><trkpt lat="43.58331368203444" lon="12.311178106699584"><ele>935.0</ele><time>2026-05-01T09:21:41Z</time></trkpt><trkpt lat="43.58342259908226" lon="12.31121511475696"><ele>935.0</ele><time>2026-05-01T09:21:42Z</time></trkpt><trkpt lat="43.5835316495257" lon="12.311307535509831"><ele>935.0</ele><time>2026-05-01T09:21:43Z</time></trkpt><trkpt lat="43.58367623946019" lon="12.311380918453413"><ele>935.0</ele><time>2026-05-01T09:21:44Z</time></trkpt><trkpt lat="43.58379400148295" lon="12.311437028624079"><ele>935.0</ele><time>2026-05-01T09:21:45Z</time></trkpt><trkpt lat="43.58391427304653" lon="12.311434615656632"><ele>938.3333333333334</ele><time>2026-05-01T09:21:46Z</time></trkpt><trkpt lat="43.58406789652215" lon="12.311467544852807"><ele>941.6666666666667</ele><time>2026-05-01T09:21:47Z</time></trkpt><trkpt lat="43.584237148760764" lon="12.311496441855693"><ele>945.0</ele><time>2026-05-01T09:21:48Z</time></trkpt><trkpt lat="43.584411587624274" lon="12.31154296667445"><ele>944.0</ele><time>2026-05-01T09:21:49Z</time></trkpt><trkpt lat="43.5845934157964" lon="12.311570500968465"><ele>943.0</ele><time>2026-05-01T09:21:50Z</time></trkpt><trkpt lat="43.584770563002536" lon="12.311582312491362"><ele>942.0</ele><time>2026-05-01T09:21:51Z</time></trkpt><trkpt lat="43.584959321369254" lon="12.311548548975544"><ele>942.0</ele><time>2026-05-01T09:21:52Z</time></trkpt><trkpt lat="43.58514070852109" lon="12.311543446696836"><ele>942.0</ele><time>2026-05-01T09:21:53Z</time></trkpt><trkpt lat="43.5853281300843" lon="12.311494847145152"><ele>942.0</ele><time>2026-05-01T09:21:54Z</time></trkpt><trkpt lat="43.585527545542355" lon="12.311398255157114"><ele>943.0</ele><time>2026-05-01T09:21:55Z</time></trkpt><trkpt lat="43.58574146638856" lon="12.311297728270647"><ele>944.0</ele><time>2026-05-01T09:21:56Z</time></trkpt><trkpt lat="43.585976424949266" lon="12.311227007223845"><ele>944.0</ele><time>2026-05-01T09:21:57Z</time></trkpt><trkpt lat="43.58617528873274" lon="12.311155161380203"><ele>944.0</ele><time>2026-05-01T09:21:58Z</time></trkpt><trkpt lat="43.586326103422664" lon="12.311077430365362"><ele>944.0</ele><time>2026-05-01T09:21:59Z</time></trkpt><trkpt lat="43.5864684398065" lon="12.311006429820138"><ele>948.75</ele><time>2026-05-01T09:22:00Z</time></trkpt><trkpt lat="43.58660955398976" lon="12.310924313521108"><ele>953.5</ele><time>2026-05-01T09:22:01Z</time></trkpt><trkpt lat="43.58674094991136" lon="12.31084255429884"><ele>958.25</ele><time>2026-05-01T09:22:02Z</time></trkpt><trkpt lat="43.58685924895766" lon="12.310734281313463"><ele>963.0</ele><time>2026-05-01T09:22:03Z</time></trkpt><trkpt lat="43.58696318890442" lon="12.310611555154578"><ele>960.75</ele><time>2026-05-01T09:22:04Z</time></trkpt><trkpt lat="43.587048291461485" lon="12.310496623570623"><ele>958.5</ele><time>2026-05-01T09:22:05Z</time></trkpt><trkpt lat="43.58712252189733" lon="12.31037201996198"><ele>956.25</ele><time>2026-05-01T09:22:06Z</time></trkpt><trkpt lat="43.587195776744764" lon="12.310216022700995"><ele>954.0</ele><time>2026-05-01T09:22:07Z</time></trkpt><trkpt lat="43.5872649660568" lon="12.31003501883047"><ele>954.0</ele><time>2026-05-01T09:22:08Z</time></trkpt><trkpt lat="43.58733358202433" lon="12.309838953160488"><ele>954.0</ele><time>2026-05-01T09:22:09Z</time></trkpt><trkpt lat="43.587429814009454" lon="12.309656048678045"><ele>954.0</ele><time>2026-05-01T09:22:10Z</time></trkpt><trkpt lat="43.58749990727466" lon="12.30944839005794"><ele>955.0</ele><time>2026-05-01T09:22:11Z</time></trkpt><trkpt lat="43.587581406488475" lon="12.309277319427757"><ele>956.0</ele><time>2026-05-01T09:22:12Z</time></trkpt><trkpt lat="43.58767772658959" lon="12.309152353467649"><ele>957.0</ele><time>2026-05-01T09:22:13Z</time></trkpt><trkpt lat="43.587766001323985" lon="12.309054511414251"><ele>958.0</ele><time>2026-05-01T09:22:14Z</time></trkpt><trkpt lat="43.58786379689902" lon="12.308965613373978"><ele>958.0</ele><time>2026-05-01T09:22:15Z</time></trkpt><trkpt lat="43.587970330636864" lon="12.308927261617566"><ele>958.0</ele><time>2026-05-01T09:22:16Z</time></trkpt><trkpt lat="43.58807761315345" lon="12.308927516991538"><ele>958.0</ele><time>2026-05-01T09:22:17Z</time></trkpt><trkpt lat="43.588193690348454" lon="12.308961508838502"><ele>958.0</ele><time>2026-05-01T09:22:18Z</time></trkpt><trkpt lat="43.58830729035872" lon="12.309076229701166"><ele>958.0</ele><time>2026-05-01T09:22:19Z</time></trkpt><trkpt lat="43.588439674888555" lon="12.309161132275348"><ele>958.0</ele><time>2026-05-01T09:22:20Z</time></trkpt><trkpt lat="43.58857351749308" lon="12.309245502215914"><ele>958.0</ele><time>2026-05-01T09:22:21Z</time></trkpt><trkpt lat="43.58873631233932" lon="12.309299725029655"><ele>960.0</ele><time>2026-05-01T09:22:22Z</time></trkpt><trkpt lat="43.588926475737736" lon="12.309332708362557"><ele>962.0</ele><time>2026-05-01T09:22:23Z</time></trkpt><trkpt lat="43.58913959568941" lon="12.309361180775104"><ele>964.0</ele><time>2026-05-01T09:22:24Z</time></trkpt><trkpt lat="43.58935202356051" lon="12.309435273785871"><ele>963.5</ele><time>2026-05-01T09:22:25Z</time></trkpt><trkpt lat="43.58953194691323" lon="12.309494757562653"><ele>963.0</ele><time>2026-05-01T09:22:26Z</time></trkpt><trkpt lat="43.58967034780138" lon="12.30949646919202"><ele>962.5</ele><time>2026-05-01T09:22:27Z</time></trkpt><trkpt lat="43.58978210143379" lon="12.309500461918823"><ele>962.0</ele><time>2026-05-01T09:22:28Z</time></trkpt><trkpt lat="43.58990302362209" lon="12.309473598716945"><ele>962.0</ele><time>2026-05-01T09:22:29Z</time></trkpt><trkpt lat="43.590024858696246" lon="12.309409610355258"><ele>962.0</ele><time>2026-05-01T09:22:30Z</time></trkpt><trkpt lat="43.590162666122595" lon="12.309319729721736"><ele>962.0</ele><time>2026-05-01T09:22:31Z</time></trkpt><trkpt lat="43.59033174924534" lon="12.309237099438542"><ele>960.6666666666667</ele><time>2026-05-01T09:22:32Z</time></trkpt><trkpt lat="43.590508161973865" lon="12.309123928105263"><ele>959.3333333333333</ele><time>2026-05-01T09:22:33Z</time></trkpt><trkpt lat="43.590659758608794" lon="12.308991820388117"><ele>958.0</ele><time>2026-05-01T09:22:34Z</time></trkpt><trkpt lat="43.590809323483974" lon="12.308887663593287"><ele>954.6666666666666</ele><time>2026-05-01T09:22:35Z</time></trkpt><trkpt lat="43.59094185982004" lon="12.308714468493879"><ele>951.3333333333333</ele><time>2026-05-01T09:22:36Z</time></trkpt><trkpt lat="43.59107592094751" lon="12.308573291138883"><ele>948.0</ele><time>2026-05-01T09:22:37Z</time></trkpt><trkpt lat="43.59117263028574" lon="12.308418948052378"><ele>948.0</ele><time>2026-05-01T09:22:38Z</time></trkpt><trkpt lat="43.59125821348696" lon="12.308287393593828"><ele>948.0</ele><time>2026-05-01T09:22:39Z</time></trkpt><trkpt lat="43.59133887850701" lon="12.308198736920618"><ele>948.0</ele><time>2026-05-01T09:22:40Z</time></trkpt><trkpt lat="43.59142466923623" lon="12.308131955853012"><ele>948.0</ele><time>2026-05-01T09:22:41Z</time></trkpt><trkpt lat="43.591524907194504" lon="12.308088427730988"><ele>948.0</ele><time>2026-05-01T09:22:42Z</time></trkpt><trkpt lat="43.591649028550876" lon="12.308075992140383"><ele>948.0</ele><time>2026-05-01T09:22:43Z</time></trkpt><trkpt lat="43.59177877373635" lon="12.308081088263183"><ele>948.0</ele><time>2026-05-01T09:22:44Z</time></trkpt><trkpt lat="43.59189445154023" lon="12.308062297858042"><ele>948.0</ele><time>2026-05-01T09:22:45Z</time></trkpt><trkpt lat="43.59200073068431" lon="12.30807160543053"><ele>948.0</ele><time>2026-05-01T09:22:46Z</time></trkpt><trkpt lat="43.59208171065401" lon="12.308069171617822"><ele>948.0</ele><time>2026-05-01T09:22:47Z</time></trkpt><trkpt lat="43.59214430623399" lon="12.30804284605573"><ele>945.6666666666666</ele><time>2026-05-01T09:22:48Z</time></trkpt><trkpt lat="43.59220410951765" lon="12.308013054441528"><ele>943.3333333333333</ele><time>2026-05-01T09:22:49Z</time></trkpt><trkpt lat="43.59224236424175" lon="12.307914676094098"><ele>941.0</ele><time>2026-05-01T09:22:50Z</time></trkpt><trkpt lat="43.59224794851297" lon="12.307810567771288"><ele>938.6666666666666</ele><time>2026-05-01T09:22:51Z</time></trkpt><trkpt lat="43.59221350916982" lon="12.307693304085728"><ele>936.3333333333333</ele><time>2026-05-01T09:22:52Z</time></trkpt><trkpt lat="43.59212716513157" lon="12.307584869698353"><ele>934.0</ele><time>2026-05-01T09:22:53Z</time></trkpt><trkpt lat="43.5920358421419" lon="12.307452757710362"><ele>938.0</ele><time>2026-05-01T09:22:54Z</time></trkpt><trkpt lat="43.59193867686888" lon="12.307304131988182"><ele>942.0</ele><time>2026-05-01T09:22:55Z</time></trkpt><trkpt lat="43.591855431994745" lon="12.307159909724298"><ele>946.0</ele><time>2026-05-01T09:22:56Z</time></trkpt><trkpt lat="43.591803228314795" lon="12.307010634929096"><ele>950.0</ele><time>2026-05-01T09:22:57Z</time></trkpt><trkpt lat="43.591763506350574" lon="12.306870474667853"><ele>950.0</ele><time>2026-05-01T09:22:58Z</time></trkpt><trkpt lat="43.591751945387685" lon="12.30672794050914"><ele>950.0</ele><time>2026-05-01T09:22:59Z</time></trkpt><trkpt lat="43.591761892542564" lon="12.306577658099357"><ele>950.0</ele><time>2026-05-01T09:23:00Z</time></trkpt><trkpt lat="43.591792020261586" lon="12.30640006790495"><ele>950.0</ele><time>2026-05-01T09:23:01Z</time></trkpt><trkpt lat="43.59182919867368" lon="12.306190219285591"><ele>949.0</ele><time>2026-05-01T09:23:02Z</time></trkpt><trkpt lat="43.59185562767647" lon="12.30596551908558"><ele>948.0</ele><time>2026-05-01T09:23:03Z</time></trkpt><trkpt lat="43.59189557339319" lon="12.30575720309139"><ele>947.0</ele><time>2026-05-01T09:23:04Z</time></trkpt><trkpt lat="43.591926928741266" lon="12.305580036196037"><ele>946.4000000000001</ele><time>2026-05-01T09:23:05Z</time></trkpt><trkpt lat="43.59195236264725" lon="12.305411121096466"><ele>945.8000000000001</ele><time>2026-05-01T09:23:06Z</time></trkpt><trkpt lat="43.59195792670116" lon="12.305257863467189"><ele>945.2</ele><time>2026-05-01T09:23:07Z</time></trkpt><trkpt lat="43.591936038034525" lon="12.30511402132584"><ele>944.6</ele><time>2026-05-01T09:23:08Z</time></trkpt><trkpt lat="43.59192142098285" lon="12.304975226107356"><ele>944.0</ele><time>2026-05-01T09:23:09Z</time></trkpt><trkpt lat="43.59195679278575" lon="12.304832458734792"><ele>937.25</ele><time>2026-05-01T09:23:10Z</time></trkpt><trkpt lat="43.592028358414915" lon="12.304718482104095"><ele>930.5</ele><time>2026-05-01T09:23:11Z</time></trkpt><trkpt lat="43.59209780143196" lon="12.304552324779003"><ele>923.75</ele><time>2026-05-01T09:23:12Z</time></trkpt><trkpt lat="43.592140126139995" lon="12.304362067486407"><ele>917.0</ele><time>2026-05-01T09:23:13Z</time></trkpt><trkpt lat="43.59215431430492" lon="12.304133588090073"><ele>918.0</ele><time>2026-05-01T09:23:14Z</time></trkpt><trkpt lat="43.59219227848045" lon="12.303895923614801"><ele>919.0</ele><time>2026-05-01T09:23:15Z</time></trkpt><trkpt lat="43.592205196381066" lon="12.303639681835207"><ele>920.0</ele><time>2026-05-01T09:23:16Z</time></trkpt><trkpt lat="43.59227768774259" lon="12.303380970525234"><ele>920.0</ele><time>2026-05-01T09:23:17Z</time></trkpt><trkpt lat="43.59231464737533" lon="12.30313932020114"><ele>920.0</ele><time>2026-05-01T09:23:18Z</time></trkpt><trkpt lat="43.59235228715246" lon="12.302925093694176"><ele>920.0</ele><time>2026-05-01T09:23:19Z</time></trkpt><trkpt lat="43.59239116537818" lon="12.302725484534555"><ele>918.6666666666667</ele><time>2026-05-01T09:23:20Z</time></trkpt><trkpt lat="43.592435308869554" lon="12.302513696851449"><ele>917.3333333333333</ele><time>2026-05-01T09:23:21Z</time></trkpt><trkpt lat="43.59248387969454" lon="12.302297794370054"><ele>916.0</ele><time>2026-05-01T09:23:22Z</time></trkpt><trkpt lat="43.592540958821644" lon="12.302091648258175"><ele>912.0</ele><time>2026-05-01T09:23:23Z</time></trkpt><trkpt lat="43.59259275494666" lon="12.301915424573352"><ele>907.9999999999999</ele><time>2026-05-01T09:23:24Z</time></trkpt><trkpt lat="43.592640714305325" lon="12.301778068377276"><ele>903.9999999999999</ele><time>2026-05-01T09:23:25Z</time></trkpt><trkpt lat="43.592686299890666" lon="12.30167313309054"><ele>900.0</ele><time>2026-05-01T09:23:26Z</time></trkpt><trkpt lat="43.59273510351223" lon="12.301579610164898"><ele>896.0</ele><time>2026-05-01T09:23:27Z</time></trkpt><trkpt lat="43.59281694344913" lon="12.301527093384559"><ele>896.5000000000001</ele><time>2026-05-01T09:23:28Z</time></trkpt><trkpt lat="43.59289226129334" lon="12.301474136625146"><ele>897.0</ele><time>2026-05-01T09:23:29Z</time></trkpt><trkpt lat="43.592985103734655" lon="12.301449304125198"><ele>897.5</ele><time>2026-05-01T09:23:30Z</time></trkpt><trkpt lat="43.59307497399768" lon="12.301478009152387"><ele>898.0</ele><time>2026-05-01T09:23:31Z</time></trkpt><trkpt lat="43.59312413807122" lon="12.301545925424076"><ele>898.5000000000001</ele><time>2026-05-01T09:23:32Z</time></trkpt><trkpt lat="43.59317690053613" lon="12.301615771332171"><ele>899.0</ele><time>2026-05-01T09:23:33Z</time></trkpt><trkpt lat="43.59322649737984" lon="12.301716159294768"><ele>899.0</ele><time>2026-05-01T09:23:34Z</time></trkpt><trkpt lat="43.593239137338955" lon="12.30182547450545"><ele>899.0000000000001</ele><time>2026-05-01T09:23:35Z</time></trkpt><trkpt lat="43.59323374948904" lon="12.30195455912405"><ele>899.0000000000001</ele><time>2026-05-01T09:23:36Z</time></trkpt><trkpt lat="43.59320694631534" lon="12.302107977621684"><ele>899.0</ele><time>2026-05-01T09:23:37Z</time></trkpt><trkpt lat="43.59315765893113" lon="12.302280965666471"><ele>899.0</ele><time>2026-05-01T09:23:38Z</time></trkpt><trkpt lat="43.593100045050036" lon="12.302476335780293"><ele>898.0</ele><time>2026-05-01T09:23:39Z</time></trkpt><trkpt lat="43.5930614820267" lon="12.302678983157236"><ele>897.0</ele><time>2026-05-01T09:23:40Z</time></trkpt><trkpt lat="43.59304468491835" lon="12.302926945436782"><ele>896.0</ele><time>2026-05-01T09:23:41Z</time></trkpt><trkpt lat="43.59306505455509" lon="12.303174375015828"><ele>895.3333333333334</ele><time>2026-05-01T09:23:42Z</time></trkpt><trkpt lat="43.59308503078504" lon="12.303464905833474"><ele>894.6666666666667</ele><time>2026-05-01T09:23:43Z</time></trkpt><trkpt lat="43.593080435587034" lon="12.303708994960829"><ele>894.0</ele><time>2026-05-01T09:23:44Z</time></trkpt><trkpt lat="43.59307885130927" lon="12.30389678762098"><ele>892.3333333333333</ele><time>2026-05-01T09:23:45Z</time></trkpt><trkpt lat="43.593082840605334" lon="12.304109215200121"><ele>890.6666666666666</ele><time>2026-05-01T09:23:46Z</time></trkpt><trkpt lat="43.59314385801149" lon="12.304350511943177"><ele>889.0</ele><time>2026-05-01T09:23:47Z</time></trkpt><trkpt lat="43.59319892674866" lon="12.304628325887428"><ele>888.3333333333333</ele><time>2026-05-01T09:23:48Z</time></trkpt><trkpt lat="43.59322884724093" lon="12.304861655253406"><ele>887.6666666666667</ele><time>2026-05-01T09:23:49Z</time></trkpt><trkpt lat="43.59326758622037" lon="12.30506440891961"><ele>887.0</ele><time>2026-05-01T09:23:50Z</time></trkpt><trkpt lat="43.593293290158954" lon="12.305243130611334"><ele>887.0</ele><time>2026-05-01T09:23:51Z</time></trkpt><trkpt lat="43.59332645687163" lon="12.305408567980692"><ele>887.0</ele><time>2026-05-01T09:23:52Z</time></trkpt><trkpt lat="43.59337198948517" lon="12.305568176179957"><ele>887.0</ele><time>2026-05-01T09:23:53Z</time></trkpt><trkpt lat="43.59343216826847" lon="12.3057237648546"><ele>887.0</ele><time>2026-05-01T09:23:54Z</time></trkpt><trkpt lat="43.593513333987815" lon="12.30584084626768"><ele>888.0</ele><time>2026-05-01T09:23:55Z</time></trkpt><trkpt lat="43.59357116422644" lon="12.305978355543806"><ele>889.0</ele><time>2026-05-01T09:23:56Z</time></trkpt><trkpt lat="43.59366490751068" lon="12.306109130787368"><ele>890.0</ele><time>2026-05-01T09:23:57Z</time></trkpt><trkpt lat="43.59377784870397" lon="12.306210552336577"><ele>891.0</ele><time>2026-05-01T09:23:58Z</time></trkpt><trkpt lat="43.59391489275061" lon="12.306283653612347"><ele>890.1999999999999</ele><time>2026-05-01T09:23:59Z</time></trkpt><trkpt lat="43.59403155602744" lon="12.30632859267787"><ele>889.3999999999999</ele><time>2026-05-01T09:24:00Z</time></trkpt><trkpt lat="43.59416497949599" lon="12.30636367314818"><ele>888.6</ele><time>2026-05-01T09:24:01Z</time></trkpt><trkpt lat="43.59424147601611" lon="12.306392002276146"><ele>887.8</ele><time>2026-05-01T09:24:02Z</time></trkpt><trkpt lat="43.59430961327924" lon="12.306433302082707"><ele>887.0</ele><time>2026-05-01T09:24:03Z</time></trkpt><trkpt lat="43.594394307371175" lon="12.306513729896757"><ele>881.0</ele><time>2026-05-01T09:24:04Z</time></trkpt><trkpt lat="43.594506097210605" lon="12.306654181494684"><ele>875.0</ele><time>2026-05-01T09:24:05Z</time></trkpt><trkpt lat="43.59460781498222" lon="12.30680516466787"><ele>869.0</ele><time>2026-05-01T09:24:06Z</time></trkpt><trkpt lat="43.59469137771603" lon="12.30693692247932"><ele>863.0</ele><time>2026-05-01T09:24:07Z</time></trkpt><trkpt lat="43.59474604572585" lon="12.307043316767098"><ele>863.0000000000001</ele><time>2026-05-01T09:24:08Z</time></trkpt><trkpt lat="43.59478996395674" lon="12.307134935359914"><ele>863.0</ele><time>2026-05-01T09:24:09Z</time></trkpt><trkpt lat="43.5948453694772" lon="12.307237089171686"><ele>863.0</ele><time>2026-05-01T09:24:10Z</time></trkpt><trkpt lat="43.594892031462756" lon="12.307311028836523"><ele>863.0</ele><time>2026-05-01T09:24:11Z</time></trkpt><trkpt lat="43.59497069293293" lon="12.3073337775791"><ele>863.0000000000001</ele><time>2026-05-01T09:24:12Z</time></trkpt><trkpt lat="43.59504936534102" lon="12.307292128952337"><ele>863.0</ele><time>2026-05-01T09:24:13Z</time></trkpt><trkpt lat="43.59511390855119" lon="12.3072314987595"><ele>863.0</ele><time>2026-05-01T09:24:14Z</time></trkpt><trkpt lat="43.5951829895046" lon="12.307133935024552"><ele>863.0</ele><time>2026-05-01T09:24:15Z</time></trkpt><trkpt lat="43.59524293701385" lon="12.30698944819262"><ele>863.0</ele><time>2026-05-01T09:24:16Z</time></trkpt><trkpt lat="43.59528455915599" lon="12.306835445036992"><ele>863.0</ele><time>2026-05-01T09:24:17Z</time></trkpt><trkpt lat="43.59531968347333" lon="12.306722708410998"><ele>863.0</ele><time>2026-05-01T09:24:18Z</time></trkpt><trkpt lat="43.595368151871995" lon="12.306639235662534"><ele>861.4</ele><time>2026-05-01T09:24:19Z</time></trkpt><trkpt lat="43.59550014904489" lon="12.306563014760965"><ele>859.8</ele><time>2026-05-01T09:24:21Z</time></trkpt><trkpt lat="43.59557528296039" lon="12.306600475895992"><ele>858.2</ele><time>2026-05-01T09:24:22Z</time></trkpt><trkpt lat="43.595622035793056" lon="12.30667038896773"><ele>856.6</ele><time>2026-05-01T09:24:23Z</time></trkpt><trkpt lat="43.59567321633464" lon="12.306753484585384"><ele>855.0</ele><time>2026-05-01T09:24:24Z</time></trkpt><trkpt lat="43.595713290476596" lon="12.306862621314618"><ele>855.0</ele><time>2026-05-01T09:24:25Z</time></trkpt><trkpt lat="43.595779396254734" lon="12.306987491521296"><ele>855.0</ele><time>2026-05-01T09:24:26Z</time></trkpt><trkpt lat="43.59585783466302" lon="12.307093523055638"><ele>855.0</ele><time>2026-05-01T09:24:27Z</time></trkpt><trkpt lat="43.59600195842441" lon="12.307131113643939"><ele>855.0</ele><time>2026-05-01T09:24:28Z</time></trkpt><trkpt lat="43.5961008577701" lon="12.307167055462262"><ele>853.0</ele><time>2026-05-01T09:24:29Z</time></trkpt><trkpt lat="43.59620277002841" lon="12.307169686134813"><ele>851.0</ele><time>2026-05-01T09:24:30Z</time></trkpt><trkpt lat="43.59632317708777" lon="12.30711165900946"><ele>849.0</ele><time>2026-05-01T09:24:31Z</time></trkpt><trkpt lat="43.596431019514924" lon="12.307022406105974"><ele>847.0</ele><time>2026-05-01T09:24:32Z</time></trkpt><trkpt lat="43.59655551243929" lon="12.306966197270967"><ele>847.0</ele><time>2026-05-01T09:24:33Z</time></trkpt><trkpt lat="43.59667495195555" lon="12.30697862981665"><ele>847.0</ele><time>2026-05-01T09:24:34Z</time></trkpt><trkpt lat="43.5967739365144" lon="12.306989759622278"><ele>847.0</ele><time>2026-05-01T09:24:35Z</time></trkpt><trkpt lat="43.59685637188964" lon="12.307021646521873"><ele>847.0</ele><time>2026-05-01T09:24:36Z</time></trkpt><trkpt lat="43.596922044947306" lon="12.307092602531373"><ele>847.0</ele><time>2026-05-01T09:24:37Z</time></trkpt><trkpt lat="43.596996773960406" lon="12.307172651570145"><ele>846.75</ele><time>2026-05-01T09:24:38Z</time></trkpt><trkpt lat="43.59707936202883" lon="12.307282190496158"><ele>846.5</ele><time>2026-05-01T09:24:39Z</time></trkpt><trkpt lat="43.597170009934935" lon="12.30741384947925"><ele>846.25</ele><time>2026-05-01T09:24:40Z</time></trkpt><trkpt lat="43.597251986536826" lon="12.307520324340082"><ele>846.0</ele><time>2026-05-01T09:24:41Z</time></trkpt><trkpt lat="43.597308336686" lon="12.307649596480683"><ele>846.0</ele><time>2026-05-01T09:24:42Z</time></trkpt><trkpt lat="43.597370738860576" lon="12.30776575703523"><ele>846.0</ele><time>2026-05-01T09:24:43Z</time></trkpt><trkpt lat="43.597440669922676" lon="12.307873187765182"><ele>846.0</ele><time>2026-05-01T09:24:44Z</time></trkpt><trkpt lat="43.5975577156472" lon="12.30795370929274"><ele>846.0</ele><time>2026-05-01T09:24:45Z</time></trkpt><trkpt lat="43.5976735666573" lon="12.308037947412418"><ele>844.75</ele><time>2026-05-01T09:24:46Z</time></trkpt><trkpt lat="43.59777778257912" lon="12.308165972106124"><ele>843.5</ele><time>2026-05-01T09:24:47Z</time></trkpt><trkpt lat="43.59789029146278" lon="12.308298452567026"><ele>842.25</ele><time>2026-05-01T09:24:48Z</time></trkpt><trkpt lat="43.59799873377856" lon="12.30844471886199"><ele>841.0</ele><time>2026-05-01T09:24:49Z</time></trkpt><trkpt lat="43.59808847009706" lon="12.308572135032527"><ele>840.9999999999999</ele><time>2026-05-01T09:24:50Z</time></trkpt><trkpt lat="43.598165191705306" lon="12.308678144799972"><ele>841.0</ele><time>2026-05-01T09:24:51Z</time></trkpt><trkpt lat="43.59824167954236" lon="12.308775084593425"><ele>841.0</ele><time>2026-05-01T09:24:52Z</time></trkpt><trkpt lat="43.59830551951759" lon="12.30884627488531"><ele>841.0</ele><time>2026-05-01T09:24:53Z</time></trkpt><trkpt lat="43.59837132154452" lon="12.308903091862813"><ele>840.9999999999999</ele><time>2026-05-01T09:24:54Z</time></trkpt><trkpt lat="43.59844749890632" lon="12.30891327867527"><ele>841.0</ele><time>2026-05-01T09:24:55Z</time></trkpt><trkpt lat="43.59857909760514" lon="12.308874694175662"><ele>840.9999999999999</ele><time>2026-05-01T09:24:57Z</time></trkpt><trkpt lat="43.59863652442277" lon="12.308812230090428"><ele>841.0</ele><time>2026-05-01T09:24:58Z</time></trkpt><trkpt lat="43.598672183054845" lon="12.308734709486732"><ele>841.0</ele><time>2026-05-01T09:24:59Z</time></trkpt><trkpt lat="43.59867895199586" lon="12.3086466429461"><ele>841.0</ele><time>2026-05-01T09:25:00Z</time></trkpt><trkpt lat="43.59861569797845" lon="12.308480232012146"><ele>840.9999999999999</ele><time>2026-05-01T09:25:02Z</time></trkpt><trkpt lat="43.59855511557836" lon="12.308386877623432"><ele>841.0</ele><time>2026-05-01T09:25:03Z</time></trkpt><trkpt lat="43.59847590198515" lon="12.308289402357476"><ele>841.0</ele><time>2026-05-01T09:25:04Z</time></trkpt><trkpt lat="43.59838690202405" lon="12.3081834007354"><ele>841.0</ele><time>2026-05-01T09:25:05Z</time></trkpt><trkpt lat="43.598295404565015" lon="12.308053651296213"><ele>841.0</ele><time>2026-05-01T09:25:06Z</time></trkpt><trkpt lat="43.59821132160198" lon="12.307899360694066"><ele>841.0</ele><time>2026-05-01T09:25:07Z</time></trkpt><trkpt lat="43.59813020950849" lon="12.307728810271733"><ele>836.25</ele><time>2026-05-01T09:25:08Z</time></trkpt><trkpt lat="43.59804999875008" lon="12.307570549244405"><ele>831.5</ele><time>2026-05-01T09:25:09Z</time></trkpt><trkpt lat="43.59797488557407" lon="12.30740183392315"><ele>826.75</ele><time>2026-05-01T09:25:10Z</time></trkpt><trkpt lat="43.597918702689704" lon="12.307229798385174"><ele>822.0</ele><time>2026-05-01T09:25:11Z</time></trkpt><trkpt lat="43.597879809098295" lon="12.307048630680331"><ele>823.5</ele><time>2026-05-01T09:25:12Z</time></trkpt><trkpt lat="43.59785078046599" lon="12.306878467806108"><ele>825.0</ele><time>2026-05-01T09:25:13Z</time></trkpt><trkpt lat="43.5978129554625" lon="12.30671706137418"><ele>826.5</ele><time>2026-05-01T09:25:14Z</time></trkpt><trkpt lat="43.59776283565526" lon="12.306573903215428"><ele>828.0</ele><time>2026-05-01T09:25:15Z</time></trkpt><trkpt lat="43.597701206778616" lon="12.306442583037294"><ele>823.8</ele><time>2026-05-01T09:25:16Z</time></trkpt><trkpt lat="43.597636579698865" lon="12.306356032300021"><ele>819.5999999999999</ele><time>2026-05-01T09:25:17Z</time></trkpt><trkpt lat="43.59754648763369" lon="12.306283360433754"><ele>815.4000000000001</ele><time>2026-05-01T09:25:18Z</time></trkpt><trkpt lat="43.59744433607542" lon="12.306243205663609"><ele>811.2</ele><time>2026-05-01T09:25:19Z</time></trkpt><trkpt lat="43.59733280870922" lon="12.306207289591601"><ele>807.0</ele><time>2026-05-01T09:25:20Z</time></trkpt><trkpt lat="43.59722851498645" lon="12.306171902224348"><ele>807.0</ele><time>2026-05-01T09:25:21Z</time></trkpt><trkpt lat="43.59713721710347" lon="12.306112466178345"><ele>807.0</ele><time>2026-05-01T09:25:22Z</time></trkpt><trkpt lat="43.597068710312726" lon="12.3059891970927"><ele>807.0</ele><time>2026-05-01T09:25:23Z</time></trkpt><trkpt lat="43.59698066393682" lon="12.305872187631765"><ele>807.0</ele><time>2026-05-01T09:25:24Z</time></trkpt><trkpt lat="43.596905404626256" lon="12.30575011924998"><ele>804.8</ele><time>2026-05-01T09:25:25Z</time></trkpt><trkpt lat="43.59683021607326" lon="12.305662512760776"><ele>802.6</ele><time>2026-05-01T09:25:26Z</time></trkpt><trkpt lat="43.59675232758292" lon="12.305588355255683"><ele>800.4</ele><time>2026-05-01T09:25:27Z</time></trkpt><trkpt lat="43.59666781239954" lon="12.305529684809981"><ele>798.1999999999999</ele><time>2026-05-01T09:25:28Z</time></trkpt><trkpt lat="43.596558959704964" lon="12.305492858458587"><ele>796.0</ele><time>2026-05-01T09:25:29Z</time></trkpt><trkpt lat="43.59644661900406" lon="12.30548402022397"><ele>795.9999999999999</ele><time>2026-05-01T09:25:30Z</time></trkpt><trkpt lat="43.59634273441219" lon="12.305492551949213"><ele>796.0</ele><time>2026-05-01T09:25:31Z</time></trkpt><trkpt lat="43.59624050383" lon="12.305477358584819"><ele>796.0</ele><time>2026-05-01T09:25:32Z</time></trkpt><trkpt lat="43.59615229423577" lon="12.305445725066646"><ele>796.0</ele><time>2026-05-01T09:25:33Z</time></trkpt><trkpt lat="43.596083428147324" lon="12.305398174784688"><ele>795.9999999999999</ele><time>2026-05-01T09:25:34Z</time></trkpt><trkpt lat="43.59602738901642" lon="12.305331783306965"><ele>796.0</ele><time>2026-05-01T09:25:35Z</time></trkpt><trkpt lat="43.595990776598" lon="12.305226009738343"><ele>794.8</ele><time>2026-05-01T09:25:36Z</time></trkpt><trkpt lat="43.59600492845425" lon="12.305094291809054"><ele>793.5999999999999</ele><time>2026-05-01T09:25:37Z</time></trkpt><trkpt lat="43.59604709023585" lon="12.304988019087661"><ele>792.4</ele><time>2026-05-01T09:25:38Z</time></trkpt><trkpt lat="43.596104023139404" lon="12.304860867007157"><ele>791.2</ele><time>2026-05-01T09:25:39Z</time></trkpt><trkpt lat="43.59617197748266" lon="12.304683582406456"><ele>790.0</ele><time>2026-05-01T09:25:40Z</time></trkpt><trkpt lat="43.59625163311217" lon="12.304476805724171"><ele>790.0</ele><time>2026-05-01T09:25:41Z</time></trkpt><trkpt lat="43.59631904464633" lon="12.304266467825787"><ele>790.0</ele><time>2026-05-01T09:25:42Z</time></trkpt><trkpt lat="43.596366490357106" lon="12.304075532589293"><ele>790.0</ele><time>2026-05-01T09:25:43Z</time></trkpt><trkpt lat="43.59642348517735" lon="12.30390805938985"><ele>790.0</ele><time>2026-05-01T09:25:44Z</time></trkpt><trkpt lat="43.5964833334789" lon="12.30375634440098"><ele>790.3333333333333</ele><time>2026-05-01T09:25:45Z</time></trkpt><trkpt lat="43.59654126041318" lon="12.303583463008724"><ele>790.6666666666667</ele><time>2026-05-01T09:25:46Z</time></trkpt><trkpt lat="43.59659463659388" lon="12.303385509190887"><ele>791.0</ele><time>2026-05-01T09:25:47Z</time></trkpt><trkpt lat="43.596638624401045" lon="12.303157910300937"><ele>791.3333333333334</ele><time>2026-05-01T09:25:48Z</time></trkpt><trkpt lat="43.5966769008208" lon="12.302888632325997"><ele>791.6666666666667</ele><time>2026-05-01T09:25:49Z</time></trkpt><trkpt lat="43.59672343004592" lon="12.302591175130177"><ele>792.0</ele><time>2026-05-01T09:25:50Z</time></trkpt><trkpt lat="43.59676973227776" lon="12.302346190837739"><ele>791.3333333333333</ele><time>2026-05-01T09:25:51Z</time></trkpt><trkpt lat="43.59679443220334" lon="12.302117214254897"><ele>790.6666666666666</ele><time>2026-05-01T09:25:52Z</time></trkpt><trkpt lat="43.596832675156314" lon="12.30189265527115"><ele>790.0</ele><time>2026-05-01T09:25:53Z</time></trkpt><trkpt lat="43.596865854262724" lon="12.301664201929366"><ele>790.0</ele><time>2026-05-01T09:25:54Z</time></trkpt><trkpt lat="43.59689996644769" lon="12.301439552212532"><ele>790.0</ele><time>2026-05-01T09:25:55Z</time></trkpt><trkpt lat="43.59692969647435" lon="12.301230228681325"><ele>790.0</ele><time>2026-05-01T09:25:56Z</time></trkpt><trkpt lat="43.59696603310194" lon="12.30103766929542"><ele>790.8</ele><time>2026-05-01T09:25:57Z</time></trkpt><trkpt lat="43.59700207733785" lon="12.300876676072813"><ele>791.6</ele><time>2026-05-01T09:25:58Z</time></trkpt><trkpt lat="43.59702660544083" lon="12.300751642575356"><ele>792.4000000000001</ele><time>2026-05-01T09:25:59Z</time></trkpt><trkpt lat="43.597069373715975" lon="12.300658322276282"><ele>793.2</ele><time>2026-05-01T09:26:00Z</time></trkpt><trkpt lat="43.59710749874117" lon="12.30058272987996"><ele>794.0</ele><time>2026-05-01T09:26:01Z</time></trkpt><trkpt lat="43.59722719044501" lon="12.300545833120617"><ele>787.8000000000001</ele><time>2026-05-01T09:26:03Z</time></trkpt><trkpt lat="43.59735018901377" lon="12.300606576890322"><ele>781.6</ele><time>2026-05-01T09:26:05Z</time></trkpt><trkpt lat="43.59738317389983" lon="12.300697863669846"><ele>775.4</ele><time>2026-05-01T09:26:06Z</time></trkpt><trkpt lat="43.597385257011304" lon="12.300819609515084"><ele>769.2</ele><time>2026-05-01T09:26:07Z</time></trkpt><trkpt lat="43.59740404915436" lon="12.300981967381427"><ele>763.0</ele><time>2026-05-01T09:26:08Z</time></trkpt><trkpt lat="43.59741822841163" lon="12.301165413648386"><ele>763.0</ele><time>2026-05-01T09:26:09Z</time></trkpt><trkpt lat="43.59743500200889" lon="12.301377844448236"><ele>763.0</ele><time>2026-05-01T09:26:10Z</time></trkpt><trkpt lat="43.59745558148373" lon="12.30160080311488"><ele>763.0</ele><time>2026-05-01T09:26:11Z</time></trkpt><trkpt lat="43.59747715563865" lon="12.301828996737667"><ele>763.0</ele><time>2026-05-01T09:26:12Z</time></trkpt><trkpt lat="43.5974984847509" lon="12.302050174228901"><ele>763.0</ele><time>2026-05-01T09:26:13Z</time></trkpt><trkpt lat="43.597517997693345" lon="12.302252518628736"><ele>763.0</ele><time>2026-05-01T09:26:14Z</time></trkpt><trkpt lat="43.59754635231893" lon="12.302431098606098"><ele>763.0</ele><time>2026-05-01T09:26:15Z</time></trkpt><trkpt lat="43.59756047451496" lon="12.302611020861267"><ele>762.5999999999999</ele><time>2026-05-01T09:26:16Z</time></trkpt><trkpt lat="43.597559937998035" lon="12.302784462362645"><ele>762.1999999999999</ele><time>2026-05-01T09:26:17Z</time></trkpt><trkpt lat="43.597572836470434" lon="12.30293564442104"><ele>761.8</ele><time>2026-05-01T09:26:18Z</time></trkpt><trkpt lat="43.59758472028644" lon="12.30307087309256"><ele>761.4</ele><time>2026-05-01T09:26:19Z</time></trkpt><trkpt lat="43.59760680280992" lon="12.303180608080684"><ele>761.0</ele><time>2026-05-01T09:26:20Z</time></trkpt><trkpt lat="43.5976328401817" lon="12.303312797234293"><ele>761.8333333333333</ele><time>2026-05-01T09:26:21Z</time></trkpt><trkpt lat="43.59766113548688" lon="12.303433384494957"><ele>762.6666666666666</ele><time>2026-05-01T09:26:22Z</time></trkpt><trkpt lat="43.597734372037884" lon="12.303504679097912"><ele>763.5</ele><time>2026-05-01T09:26:23Z</time></trkpt><trkpt lat="43.59778898749398" lon="12.303566550090384"><ele>764.3333333333334</ele><time>2026-05-01T09:26:24Z</time></trkpt><trkpt lat="43.597853637222705" lon="12.303595432433662"><ele>765.1666666666667</ele><time>2026-05-01T09:26:25Z</time></trkpt><trkpt lat="43.59792903279673" lon="12.303572221342243"><ele>766.0</ele><time>2026-05-01T09:26:26Z</time></trkpt><trkpt lat="43.59800233000842" lon="12.303552258655294"><ele>761.5999999999999</ele><time>2026-05-01T09:26:27Z</time></trkpt><trkpt lat="43.5980560887707" lon="12.303450559197554"><ele>757.2</ele><time>2026-05-01T09:26:28Z</time></trkpt><trkpt lat="43.59807448762155" lon="12.303319041725945"><ele>752.8</ele><time>2026-05-01T09:26:29Z</time></trkpt><trkpt lat="43.598087525693295" lon="12.303181113439841"><ele>748.4000000000001</ele><time>2026-05-01T09:26:30Z</time></trkpt><trkpt lat="43.59809825328192" lon="12.303016414192525"><ele>744.0</ele><time>2026-05-01T09:26:31Z</time></trkpt><trkpt lat="43.59810900163928" lon="12.302832337956785"><ele>743.5</ele><time>2026-05-01T09:26:32Z</time></trkpt><trkpt lat="43.5981221272297" lon="12.302633566386497"><ele>743.0</ele><time>2026-05-01T09:26:33Z</time></trkpt><trkpt lat="43.5981365412746" lon="12.302426219059438"><ele>742.5</ele><time>2026-05-01T09:26:34Z</time></trkpt><trkpt lat="43.59816082066519" lon="12.302217204120955"><ele>742.0</ele><time>2026-05-01T09:26:35Z</time></trkpt><trkpt lat="43.59818491561157" lon="12.302006815541086"><ele>740.3333333333334</ele><time>2026-05-01T09:26:36Z</time></trkpt><trkpt lat="43.59820806719942" lon="12.301784061490512"><ele>738.6666666666666</ele><time>2026-05-01T09:26:37Z</time></trkpt><trkpt lat="43.598219437855604" lon="12.30151853538075"><ele>737.0</ele><time>2026-05-01T09:26:38Z</time></trkpt><trkpt lat="43.59823061690339" lon="12.301269527461992"><ele>736.0</ele><time>2026-05-01T09:26:39Z</time></trkpt><trkpt lat="43.59825169205224" lon="12.301015156700911"><ele>735.0</ele><time>2026-05-01T09:26:40Z</time></trkpt><trkpt lat="43.598275886870745" lon="12.300748220476242"><ele>734.0</ele><time>2026-05-01T09:26:41Z</time></trkpt><trkpt lat="43.598302315767604" lon="12.300510610193578"><ele>733.0</ele><time>2026-05-01T09:26:42Z</time></trkpt><trkpt lat="43.59834715433329" lon="12.300296383033873"><ele>732.0</ele><time>2026-05-01T09:26:43Z</time></trkpt><trkpt lat="43.598359748922675" lon="12.300079571754276"><ele>731.0</ele><time>2026-05-01T09:26:44Z</time></trkpt><trkpt lat="43.598378449230545" lon="12.299831307150454"><ele>730.0</ele><time>2026-05-01T09:26:45Z</time></trkpt><trkpt lat="43.59839774460322" lon="12.299585653346828"><ele>729.0</ele><time>2026-05-01T09:26:46Z</time></trkpt><trkpt lat="43.5984304018985" lon="12.299382524910566"><ele>728.0</ele><time>2026-05-01T09:26:47Z</time></trkpt><trkpt lat="43.59843900215674" lon="12.299181160449827"><ele>728.0</ele><time>2026-05-01T09:26:48Z</time></trkpt><trkpt lat="43.598456730167186" lon="12.298994491097492"><ele>728.0</ele><time>2026-05-01T09:26:49Z</time></trkpt><trkpt lat="43.59847508034326" lon="12.298824012311474"><ele>728.0</ele><time>2026-05-01T09:26:50Z</time></trkpt><trkpt lat="43.598493356348726" lon="12.298662970312835"><ele>728.0</ele><time>2026-05-01T09:26:51Z</time></trkpt><trkpt lat="43.598523878424054" lon="12.298507842094589"><ele>727.2</ele><time>2026-05-01T09:26:52Z</time></trkpt><trkpt lat="43.59852733971417" lon="12.298361709097014"><ele>726.4</ele><time>2026-05-01T09:26:53Z</time></trkpt><trkpt lat="43.59854469686541" lon="12.298228207982676"><ele>725.6</ele><time>2026-05-01T09:26:54Z</time></trkpt><trkpt lat="43.59852687970989" lon="12.298107708434076"><ele>724.8000000000001</ele><time>2026-05-01T09:26:55Z</time></trkpt><trkpt lat="43.598492189548125" lon="12.297997566053056"><ele>724.0</ele><time>2026-05-01T09:26:56Z</time></trkpt><trkpt lat="43.59843513854303" lon="12.297893519287472"><ele>717.5</ele><time>2026-05-01T09:26:57Z</time></trkpt><trkpt lat="43.598355852270565" lon="12.297802613803416"><ele>711.0</ele><time>2026-05-01T09:26:58Z</time></trkpt><trkpt lat="43.598254250242675" lon="12.2977380173195"><ele>704.5</ele><time>2026-05-01T09:26:59Z</time></trkpt><trkpt lat="43.59812889324458" lon="12.297692608668461"><ele>698.0</ele><time>2026-05-01T09:27:00Z</time></trkpt><trkpt lat="43.59800462430784" lon="12.297661760951337"><ele>698.0</ele><time>2026-05-01T09:27:01Z</time></trkpt><trkpt lat="43.59789409721839" lon="12.297655752626278"><ele>698.0</ele><time>2026-05-01T09:27:02Z</time></trkpt><trkpt lat="43.59779398284059" lon="12.297663177852456"><ele>698.0</ele><time>2026-05-01T09:27:03Z</time></trkpt><trkpt lat="43.59770774458715" lon="12.297682552817268"><ele>698.0</ele><time>2026-05-01T09:27:04Z</time></trkpt><trkpt lat="43.59763091661374" lon="12.297680471962343"><ele>698.0</ele><time>2026-05-01T09:27:05Z</time></trkpt><trkpt lat="43.59756244003673" lon="12.297654801586331"><ele>698.0</ele><time>2026-05-01T09:27:06Z</time></trkpt><trkpt lat="43.59750875379865" lon="12.297598187201652"><ele>700.0</ele><time>2026-05-01T09:27:07Z</time></trkpt><trkpt lat="43.59746160898116" lon="12.297449980134564"><ele>702.0</ele><time>2026-05-01T09:27:09Z</time></trkpt><trkpt lat="43.59751791634964" lon="12.29731227289604"><ele>704.0</ele><time>2026-05-01T09:27:11Z</time></trkpt><trkpt lat="43.597578397880554" lon="12.297267803979011"><ele>706.0</ele><time>2026-05-01T09:27:12Z</time></trkpt><trkpt lat="43.59765906605377" lon="12.297286698124422"><ele>708.0</ele><time>2026-05-01T09:27:13Z</time></trkpt><trkpt lat="43.59773125683916" lon="12.297334272225564"><ele>708.0</ele><time>2026-05-01T09:27:14Z</time></trkpt><trkpt lat="43.59779939962662" lon="12.297412943721788"><ele>708.0</ele><time>2026-05-01T09:27:15Z</time></trkpt><trkpt lat="43.597911617626465" lon="12.297497260572731"><ele>708.0</ele><time>2026-05-01T09:27:16Z</time></trkpt><trkpt lat="43.59805149193064" lon="12.29750595400073"><ele>708.0</ele><time>2026-05-01T09:27:17Z</time></trkpt><trkpt lat="43.59817972971737" lon="12.297484647048758"><ele>705.5</ele><time>2026-05-01T09:27:18Z</time></trkpt><trkpt lat="43.598291462366824" lon="12.297517240808407"><ele>703.0</ele><time>2026-05-01T09:27:19Z</time></trkpt><trkpt lat="43.59840806871752" lon="12.297519055522958"><ele>700.5</ele><time>2026-05-01T09:27:20Z</time></trkpt><trkpt lat="43.59853009795067" lon="12.29756394050314"><ele>698.0</ele><time>2026-05-01T09:27:21Z</time></trkpt><trkpt lat="43.59866205746943" lon="12.297565128153"><ele>696.0</ele><time>2026-05-01T09:27:22Z</time></trkpt><trkpt lat="43.59878637464099" lon="12.297541769744583"><ele>694.0</ele><time>2026-05-01T09:27:23Z</time></trkpt><trkpt lat="43.59889577434377" lon="12.297490890245035"><ele>692.0</ele><time>2026-05-01T09:27:24Z</time></trkpt><trkpt lat="43.59898694287121" lon="12.29746802486884"><ele>690.0</ele><time>2026-05-01T09:27:25Z</time></trkpt><trkpt lat="43.599092379913905" lon="12.297459780889218"><ele>688.0</ele><time>2026-05-01T09:27:26Z</time></trkpt><trkpt lat="43.59918292920525" lon="12.297519284497803"><ele>688.0</ele><time>2026-05-01T09:27:27Z</time></trkpt><trkpt lat="43.59928209582524" lon="12.297586797764465"><ele>688.0</ele><time>2026-05-01T09:27:28Z</time></trkpt><trkpt lat="43.59937657387753" lon="12.297684902418803"><ele>688.0</ele><time>2026-05-01T09:27:29Z</time></trkpt><trkpt lat="43.59946350955535" lon="12.297779275923775"><ele>688.0</ele><time>2026-05-01T09:27:30Z</time></trkpt><trkpt lat="43.59955151428861" lon="12.297895862692195"><ele>684.25</ele><time>2026-05-01T09:27:31Z</time></trkpt><trkpt lat="43.59962395794932" lon="12.298028310786869"><ele>680.5</ele><time>2026-05-01T09:27:32Z</time></trkpt><trkpt lat="43.59967771417734" lon="12.298169507902148"><ele>676.75</ele><time>2026-05-01T09:27:33Z</time></trkpt><trkpt lat="43.59972358478541" lon="12.298327377742538"><ele>673.0</ele><time>2026-05-01T09:27:34Z</time></trkpt><trkpt lat="43.5997486583687" lon="12.298515310896459"><ele>673.0</ele><time>2026-05-01T09:27:35Z</time></trkpt><trkpt lat="43.599753479830085" lon="12.298743537585814"><ele>673.0</ele><time>2026-05-01T09:27:36Z</time></trkpt><trkpt lat="43.59976054460343" lon="12.298977014388207"><ele>673.0</ele><time>2026-05-01T09:27:37Z</time></trkpt><trkpt lat="43.59976664481491" lon="12.299192645600815"><ele>673.0</ele><time>2026-05-01T09:27:38Z</time></trkpt><trkpt lat="43.59976590658141" lon="12.299403558550745"><ele>673.0</ele><time>2026-05-01T09:27:39Z</time></trkpt><trkpt lat="43.59976889739765" lon="12.29960619948866"><ele>673.0</ele><time>2026-05-01T09:27:40Z</time></trkpt><trkpt lat="43.59978295826386" lon="12.299814746491757"><ele>673.0</ele><time>2026-05-01T09:27:41Z</time></trkpt><trkpt lat="43.599835803991276" lon="12.300023151051581"><ele>673.0</ele><time>2026-05-01T09:27:42Z</time></trkpt><trkpt lat="43.59986367075171" lon="12.30023056502416"><ele>673.0</ele><time>2026-05-01T09:27:43Z</time></trkpt><trkpt lat="43.59990376544029" lon="12.300410002498738"><ele>673.0</ele><time>2026-05-01T09:27:44Z</time></trkpt><trkpt lat="43.59996124036721" lon="12.300573739377311"><ele>673.25</ele><time>2026-05-01T09:27:45Z</time></trkpt><trkpt lat="43.60000078257532" lon="12.300742732935985"><ele>673.5</ele><time>2026-05-01T09:27:46Z</time></trkpt><trkpt lat="43.60005103037557" lon="12.30089873613981"><ele>673.75</ele><time>2026-05-01T09:27:47Z</time></trkpt><trkpt lat="43.60011163663638" lon="12.30103445968139"><ele>674.0</ele><time>2026-05-01T09:27:48Z</time></trkpt><trkpt lat="43.60017326035819" lon="12.301143312793073"><ele>674.0</ele><time>2026-05-01T09:27:49Z</time></trkpt><trkpt lat="43.60024045322238" lon="12.301220705628959"><ele>674.0</ele><time>2026-05-01T09:27:50Z</time></trkpt><trkpt lat="43.60031392823297" lon="12.301267742367095"><ele>674.0</ele><time>2026-05-01T09:27:51Z</time></trkpt><trkpt lat="43.600403152377446" lon="12.301290677560116"><ele>674.0</ele><time>2026-05-01T09:27:52Z</time></trkpt><trkpt lat="43.600502761678314" lon="12.301275798484044"><ele>674.0</ele><time>2026-05-01T09:27:53Z</time></trkpt><trkpt lat="43.6006068873232" lon="12.301241622660147"><ele>674.25</ele><time>2026-05-01T09:27:54Z</time></trkpt><trkpt lat="43.60070296496369" lon="12.301120730227202"><ele>674.5</ele><time>2026-05-01T09:27:55Z</time></trkpt><trkpt lat="43.60079571650906" lon="12.300988582976927"><ele>674.75</ele><time>2026-05-01T09:27:56Z</time></trkpt><trkpt lat="43.60086515662587" lon="12.30083518003673"><ele>675.0</ele><time>2026-05-01T09:27:57Z</time></trkpt><trkpt lat="43.60091218969166" lon="12.300644171718497"><ele>670.3333333333334</ele><time>2026-05-01T09:27:58Z</time></trkpt><trkpt lat="43.60094524877401" lon="12.300431458367097"><ele>665.6666666666667</ele><time>2026-05-01T09:27:59Z</time></trkpt><trkpt lat="43.60099352646565" lon="12.300227355173604"><ele>661.0</ele><time>2026-05-01T09:28:00Z</time></trkpt><trkpt lat="43.60107795228383" lon="12.300049216472429"><ele>661.0</ele><time>2026-05-01T09:28:01Z</time></trkpt><trkpt lat="43.601156609730346" lon="12.299862873446418"><ele>661.0</ele><time>2026-05-01T09:28:02Z</time></trkpt><trkpt lat="43.601230139065564" lon="12.29967763067717"><ele>661.0</ele><time>2026-05-01T09:28:03Z</time></trkpt><trkpt lat="43.60128480493425" lon="12.299513485188307"><ele>661.0</ele><time>2026-05-01T09:28:04Z</time></trkpt><trkpt lat="43.60132864443736" lon="12.299379216405871"><ele>661.3333333333334</ele><time>2026-05-01T09:28:05Z</time></trkpt><trkpt lat="43.60136700511685" lon="12.299262294842302"><ele>661.6666666666667</ele><time>2026-05-01T09:28:06Z</time></trkpt><trkpt lat="43.60141108972016" lon="12.29914616011953"><ele>662.0</ele><time>2026-05-01T09:28:07Z</time></trkpt><trkpt lat="43.60145547092674" lon="12.299050250137489"><ele>662.3333333333334</ele><time>2026-05-01T09:28:08Z</time></trkpt><trkpt lat="43.60151666254299" lon="12.29897950281161"><ele>662.6666666666666</ele><time>2026-05-01T09:28:09Z</time></trkpt><trkpt lat="43.60159338092657" lon="12.29893491797038"><ele>663.0</ele><time>2026-05-01T09:28:10Z</time></trkpt><trkpt lat="43.60170411336003" lon="12.298934490256846"><ele>663.0</ele><time>2026-05-01T09:28:11Z</time></trkpt><trkpt lat="43.601828753934456" lon="12.298929525732792"><ele>663.0</ele><time>2026-05-01T09:28:12Z</time></trkpt><trkpt lat="43.60196216078476" lon="12.298912346810653"><ele>663.0</ele><time>2026-05-01T09:28:13Z</time></trkpt><trkpt lat="43.6020762146444" lon="12.29889256891287"><ele>663.0</ele><time>2026-05-01T09:28:14Z</time></trkpt><trkpt lat="43.60218831958379" lon="12.298861844663199"><ele>657.25</ele><time>2026-05-01T09:28:15Z</time></trkpt><trkpt lat="43.60232916830901" lon="12.298787040454084"><ele>651.5</ele><time>2026-05-01T09:28:16Z</time></trkpt><trkpt lat="43.602432617589486" lon="12.298680436516008"><ele>645.75</ele><time>2026-05-01T09:28:17Z</time></trkpt><trkpt lat="43.60252329580544" lon="12.298583023020154"><ele>640.0</ele><time>2026-05-01T09:28:18Z</time></trkpt><trkpt lat="43.6026019297351" lon="12.29849339442611"><ele>640.0</ele><time>2026-05-01T09:28:19Z</time></trkpt><trkpt lat="43.60268758082826" lon="12.29841718951653"><ele>640.0</ele><time>2026-05-01T09:28:20Z</time></trkpt><trkpt lat="43.60279665828844" lon="12.298374102519679"><ele>640.0</ele><time>2026-05-01T09:28:21Z</time></trkpt><trkpt lat="43.602921195736975" lon="12.298347981921284"><ele>640.0</ele><time>2026-05-01T09:28:22Z</time></trkpt><trkpt lat="43.60306109993617" lon="12.29832645395757"><ele>641.25</ele><time>2026-05-01T09:28:23Z</time></trkpt><trkpt lat="43.60320626077261" lon="12.298312117431646"><ele>642.5</ele><time>2026-05-01T09:28:24Z</time></trkpt><trkpt lat="43.60334898268494" lon="12.298306880687855"><ele>643.75</ele><time>2026-05-01T09:28:25Z</time></trkpt><trkpt lat="43.603491363474426" lon="12.298307210675384"><ele>645.0</ele><time>2026-05-01T09:28:26Z</time></trkpt><trkpt lat="43.60362793508051" lon="12.298309188213267"><ele>642.25</ele><time>2026-05-01T09:28:27Z</time></trkpt><trkpt lat="43.60376392621895" lon="12.298317047752464"><ele>639.5</ele><time>2026-05-01T09:28:28Z</time></trkpt><trkpt lat="43.60389750594519" lon="12.298344244932897"><ele>636.75</ele><time>2026-05-01T09:28:29Z</time></trkpt><trkpt lat="43.604023440112385" lon="12.298396428342278"><ele>634.0</ele><time>2026-05-01T09:28:30Z</time></trkpt><trkpt lat="43.60414174934214" lon="12.298448415108863"><ele>634.0</ele><time>2026-05-01T09:28:31Z</time></trkpt><trkpt lat="43.604250023512805" lon="12.29848981741566"><ele>634.0</ele><time>2026-05-01T09:28:32Z</time></trkpt><trkpt lat="43.60434696874377" lon="12.298519959563627"><ele>634.0</ele><time>2026-05-01T09:28:33Z</time></trkpt><trkpt lat="43.60443688004964" lon="12.298547914692104"><ele>634.0</ele><time>2026-05-01T09:28:34Z</time></trkpt><trkpt lat="43.6045193569661" lon="12.298573558328256"><ele>634.0</ele><time>2026-05-01T09:28:35Z</time></trkpt><trkpt lat="43.60465744483435" lon="12.298322680718636"><ele>634.5</ele><time>2026-05-01T09:28:36Z</time></trkpt><trkpt lat="43.60476083459265" lon="12.29819948580719"><ele>635.0</ele><time>2026-05-01T09:28:37Z</time></trkpt><trkpt lat="43.60485189513453" lon="12.298072776631274"><ele>635.5</ele><time>2026-05-01T09:28:38Z</time></trkpt><trkpt lat="43.60493938174236" lon="12.297963346550246"><ele>636.0</ele><time>2026-05-01T09:28:39Z</time></trkpt><trkpt lat="43.60504713368272" lon="12.297881348380463"><ele>631.0</ele><time>2026-05-01T09:28:40Z</time></trkpt><trkpt lat="43.60517012292184" lon="12.297837434601558"><ele>626.0</ele><time>2026-05-01T09:28:41Z</time></trkpt><trkpt lat="43.605309795988106" lon="12.297815919721153"><ele>621.0</ele><time>2026-05-01T09:28:42Z</time></trkpt><trkpt lat="43.60545764254557" lon="12.297818623555303"><ele>616.0</ele><time>2026-05-01T09:28:43Z</time></trkpt><trkpt lat="43.605594497988555" lon="12.297850979628244"><ele>619.3333333333334</ele><time>2026-05-01T09:28:44Z</time></trkpt><trkpt lat="43.60572820750482" lon="12.297905355500014"><ele>622.6666666666666</ele><time>2026-05-01T09:28:45Z</time></trkpt><trkpt lat="43.605865753986315" lon="12.29799560020765"><ele>626.0</ele><time>2026-05-01T09:28:46Z</time></trkpt><trkpt lat="43.60603138840098" lon="12.2981183741247"><ele>619.0</ele><time>2026-05-01T09:28:47Z</time></trkpt><trkpt lat="43.606203139626544" lon="12.29825748239772"><ele>612.0</ele><time>2026-05-01T09:28:48Z</time></trkpt><trkpt lat="43.60635958516998" lon="12.298395867057598"><ele>605.0</ele><time>2026-05-01T09:28:49Z</time></trkpt><trkpt lat="43.606498235456584" lon="12.298538622779398"><ele>605.0</ele><time>2026-05-01T09:28:50Z</time></trkpt><trkpt lat="43.60662470749862" lon="12.29866797299689"><ele>605.0</ele><time>2026-05-01T09:28:51Z</time></trkpt><trkpt lat="43.60674958298" lon="12.298773035206933"><ele>605.0</ele><time>2026-05-01T09:28:52Z</time></trkpt><trkpt lat="43.60689251035734" lon="12.298860347892283"><ele>606.75</ele><time>2026-05-01T09:28:53Z</time></trkpt><trkpt lat="43.60704010435543" lon="12.298937562539537"><ele>608.5</ele><time>2026-05-01T09:28:54Z</time></trkpt><trkpt lat="43.60717985335351" lon="12.299000124609554"><ele>610.25</ele><time>2026-05-01T09:28:55Z</time></trkpt><trkpt lat="43.60731210602618" lon="12.299069766597986"><ele>612.0</ele><time>2026-05-01T09:28:56Z</time></trkpt><trkpt lat="43.607436123371876" lon="12.299142848809048"><ele>612.0</ele><time>2026-05-01T09:28:57Z</time></trkpt><trkpt lat="43.6075535238226" lon="12.299192215192464"><ele>612.0</ele><time>2026-05-01T09:28:58Z</time></trkpt><trkpt lat="43.60767060031001" lon="12.29921231439523"><ele>612.0</ele><time>2026-05-01T09:28:59Z</time></trkpt><trkpt lat="43.607796490165796" lon="12.299208126781023"><ele>612.0</ele><time>2026-05-01T09:29:00Z</time></trkpt><trkpt lat="43.60791773906057" lon="12.299178339064694"><ele>613.5</ele><time>2026-05-01T09:29:01Z</time></trkpt><trkpt lat="43.60801392849332" lon="12.299119128485817"><ele>615.0</ele><time>2026-05-01T09:29:02Z</time></trkpt><trkpt lat="43.608099081298214" lon="12.299027457265739"><ele>616.5</ele><time>2026-05-01T09:29:03Z</time></trkpt><trkpt lat="43.6081793929324" lon="12.298886027487614"><ele>618.0</ele><time>2026-05-01T09:29:04Z</time></trkpt><trkpt lat="43.60825811523959" lon="12.29871330316208"><ele>616.5</ele><time>2026-05-01T09:29:05Z</time></trkpt><trkpt lat="43.6083450913623" lon="12.2985387139776"><ele>615.0</ele><time>2026-05-01T09:29:06Z</time></trkpt><trkpt lat="43.608444105200164" lon="12.298389321892207"><ele>613.5</ele><time>2026-05-01T09:29:07Z</time></trkpt><trkpt lat="43.60855256281675" lon="12.298263887210123"><ele>612.0</ele><time>2026-05-01T09:29:08Z</time></trkpt><trkpt lat="43.60866637390646" lon="12.298157560717689"><ele>606.0</ele><time>2026-05-01T09:29:09Z</time></trkpt><trkpt lat="43.60878044008804" lon="12.298051974190498"><ele>600.0</ele><time>2026-05-01T09:29:10Z</time></trkpt><trkpt lat="43.608906095747656" lon="12.297967556099996"><ele>594.0</ele><time>2026-05-01T09:29:11Z</time></trkpt><trkpt lat="43.609030570959675" lon="12.297923148688293"><ele>588.0</ele><time>2026-05-01T09:29:12Z</time></trkpt><trkpt lat="43.60914804425619" lon="12.29790621725224"><ele>588.0</ele><time>2026-05-01T09:29:13Z</time></trkpt><trkpt lat="43.60926889648945" lon="12.297902098227825"><ele>588.0</ele><time>2026-05-01T09:29:14Z</time></trkpt><trkpt lat="43.609411653886475" lon="12.297947004465046"><ele>588.0</ele><time>2026-05-01T09:29:15Z</time></trkpt><trkpt lat="43.60953769051881" lon="12.297905634563394"><ele>588.0</ele><time>2026-05-01T09:29:16Z</time></trkpt><trkpt lat="43.60965133460662" lon="12.29780898722563"><ele>590.3333333333334</ele><time>2026-05-01T09:29:17Z</time></trkpt><trkpt lat="43.609734457217534" lon="12.297673451798536"><ele>592.6666666666667</ele><time>2026-05-01T09:29:18Z</time></trkpt><trkpt lat="43.60980473435361" lon="12.297496004301737"><ele>595.0</ele><time>2026-05-01T09:29:19Z</time></trkpt><trkpt lat="43.60990384463756" lon="12.29729264942083"><ele>590.25</ele><time>2026-05-01T09:29:20Z</time></trkpt><trkpt lat="43.61000041789555" lon="12.29709804026366"><ele>585.5</ele><time>2026-05-01T09:29:21Z</time></trkpt><trkpt lat="43.610084678582574" lon="12.296958163546151"><ele>580.75</ele><time>2026-05-01T09:29:22Z</time></trkpt><trkpt lat="43.610164072846565" lon="12.296865987782992"><ele>576.0</ele><time>2026-05-01T09:29:23Z</time></trkpt><trkpt lat="43.61025532402029" lon="12.29683652875708"><ele>578.0</ele><time>2026-05-01T09:29:24Z</time></trkpt><trkpt lat="43.61033941508487" lon="12.296831625201529"><ele>580.0</ele><time>2026-05-01T09:29:25Z</time></trkpt><trkpt lat="43.61043716259405" lon="12.296834941206074"><ele>582.0</ele><time>2026-05-01T09:29:26Z</time></trkpt><trkpt lat="43.6105548880422" lon="12.296856033944069"><ele>584.0</ele><time>2026-05-01T09:29:27Z</time></trkpt><trkpt lat="43.61068010820918" lon="12.296877269624465"><ele>586.0</ele><time>2026-05-01T09:29:28Z</time></trkpt><trkpt lat="43.61080546485314" lon="12.296877883496332"><ele>586.0</ele><time>2026-05-01T09:29:29Z</time></trkpt><trkpt lat="43.610939218533794" lon="12.296801841792801"><ele>586.0</ele><time>2026-05-01T09:29:30Z</time></trkpt><trkpt lat="43.61107178634246" lon="12.296656307676592"><ele>586.0</ele><time>2026-05-01T09:29:31Z</time></trkpt><trkpt lat="43.611232836543" lon="12.296492389707044"><ele>584.3333333333334</ele><time>2026-05-01T09:29:32Z</time></trkpt><trkpt lat="43.61140699839566" lon="12.296310876096499"><ele>582.6666666666666</ele><time>2026-05-01T09:29:33Z</time></trkpt><trkpt lat="43.61156957182296" lon="12.29614852380464"><ele>581.0</ele><time>2026-05-01T09:29:34Z</time></trkpt><trkpt lat="43.61170195315264" lon="12.295983627003832"><ele>581.0</ele><time>2026-05-01T09:29:35Z</time></trkpt><trkpt lat="43.61181025820309" lon="12.29578484055527"><ele>581.0</ele><time>2026-05-01T09:29:36Z</time></trkpt><trkpt lat="43.6118964622775" lon="12.295604096658183"><ele>581.0</ele><time>2026-05-01T09:29:37Z</time></trkpt><trkpt lat="43.611987386205904" lon="12.295456812921103"><ele>580.3333333333333</ele><time>2026-05-01T09:29:38Z</time></trkpt><trkpt lat="43.61210427904698" lon="12.295341660035565"><ele>579.6666666666666</ele><time>2026-05-01T09:29:39Z</time></trkpt><trkpt lat="43.61225503051832" lon="12.295226451262666"><ele>579.0</ele><time>2026-05-01T09:29:40Z</time></trkpt><trkpt lat="43.61240541346471" lon="12.295083339789636"><ele>579.0</ele><time>2026-05-01T09:29:41Z</time></trkpt><trkpt lat="43.61252753147395" lon="12.294933406300439"><ele>579.0</ele><time>2026-05-01T09:29:42Z</time></trkpt><trkpt lat="43.61263308622515" lon="12.294795158248009"><ele>579.0</ele><time>2026-05-01T09:29:43Z</time></trkpt><trkpt lat="43.61271483470831" lon="12.294646291070833"><ele>579.0</ele><time>2026-05-01T09:29:44Z</time></trkpt><trkpt lat="43.61276332241193" lon="12.294485525108852"><ele>578.8</ele><time>2026-05-01T09:29:45Z</time></trkpt><trkpt lat="43.61281982955191" lon="12.29434453241436"><ele>578.5999999999999</ele><time>2026-05-01T09:29:46Z</time></trkpt><trkpt lat="43.6128922604469" lon="12.294230262260825"><ele>578.4</ele><time>2026-05-01T09:29:47Z</time></trkpt><trkpt lat="43.612962408580756" lon="12.294154440527292"><ele>578.1999999999999</ele><time>2026-05-01T09:29:48Z</time></trkpt><trkpt lat="43.61305057857503" lon="12.294111851713769"><ele>578.0</ele><time>2026-05-01T09:29:49Z</time></trkpt><trkpt lat="43.61313780908096" lon="12.294117542954917"><ele>578.0</ele><time>2026-05-01T09:29:50Z</time></trkpt><trkpt lat="43.61323449965281" lon="12.294100630944316"><ele>578.0</ele><time>2026-05-01T09:29:51Z</time></trkpt><trkpt lat="43.613348290616564" lon="12.294077177793177"><ele>578.0</ele><time>2026-05-01T09:29:52Z</time></trkpt><trkpt lat="43.61348151995687" lon="12.294029417151263"><ele>578.0</ele><time>2026-05-01T09:29:53Z</time></trkpt><trkpt lat="43.61359600831043" lon="12.293980164896208"><ele>578.8333333333333</ele><time>2026-05-01T09:29:54Z</time></trkpt><trkpt lat="43.61367285417522" lon="12.293938992471368"><ele>579.6666666666666</ele><time>2026-05-01T09:29:55Z</time></trkpt><trkpt lat="43.61374101897264" lon="12.293905801714656"><ele>580.5</ele><time>2026-05-01T09:29:56Z</time></trkpt><trkpt lat="43.61381462619096" lon="12.29386641651192"><ele>581.3333333333334</ele><time>2026-05-01T09:29:57Z</time></trkpt><trkpt lat="43.61388933108941" lon="12.293811582810578"><ele>582.1666666666667</ele><time>2026-05-01T09:29:58Z</time></trkpt><trkpt lat="43.61395787538583" lon="12.29375730902579"><ele>583.0</ele><time>2026-05-01T09:29:59Z</time></trkpt><trkpt lat="43.614020144535516" lon="12.293699818639418"><ele>579.8</ele><time>2026-05-01T09:30:00Z</time></trkpt><trkpt lat="43.61407218749836" lon="12.29361489780557"><ele>576.5999999999999</ele><time>2026-05-01T09:30:01Z</time></trkpt><trkpt lat="43.61411583107572" lon="12.293527333580066"><ele>573.4000000000001</ele><time>2026-05-01T09:30:02Z</time></trkpt><trkpt lat="43.61415205399374" lon="12.293403839263885"><ele>570.2</ele><time>2026-05-01T09:30:03Z</time></trkpt><trkpt lat="43.614223787863416" lon="12.293273264755335"><ele>567.0</ele><time>2026-05-01T09:30:04Z</time></trkpt><trkpt lat="43.61428660461965" lon="12.293122987442466"><ele>564.25</ele><time>2026-05-01T09:30:05Z</time></trkpt><trkpt lat="43.61434917482586" lon="12.292975933638223"><ele>561.5</ele><time>2026-05-01T09:30:06Z</time></trkpt><trkpt lat="43.614411494112744" lon="12.292835345571147"><ele>558.75</ele><time>2026-05-01T09:30:07Z</time></trkpt><trkpt lat="43.61447693339071" lon="12.292705610178192"><ele>556.0</ele><time>2026-05-01T09:30:08Z</time></trkpt><trkpt lat="43.6145518094326" lon="12.2925927974393"><ele>556.0</ele><time>2026-05-01T09:30:09Z</time></trkpt><trkpt lat="43.61463823307382" lon="12.292503838466406"><ele>556.0</ele><time>2026-05-01T09:30:10Z</time></trkpt><trkpt lat="43.614730498357616" lon="12.292428783635824"><ele>556.0</ele><time>2026-05-01T09:30:11Z</time></trkpt><trkpt lat="43.61484833007375" lon="12.292411344906238"><ele>556.0</ele><time>2026-05-01T09:30:12Z</time></trkpt><trkpt lat="43.61498363752769" lon="12.292395992251098"><ele>556.0</ele><time>2026-05-01T09:30:13Z</time></trkpt><trkpt lat="43.615106163111456" lon="12.29238591359389"><ele>556.0</ele><time>2026-05-01T09:30:14Z</time></trkpt><trkpt lat="43.615217494564504" lon="12.292380527380798"><ele>556.0</ele><time>2026-05-01T09:30:15Z</time></trkpt><trkpt lat="43.615319414584214" lon="12.292410843530119"><ele>556.0</ele><time>2026-05-01T09:30:16Z</time></trkpt><trkpt lat="43.615427838777336" lon="12.292488505571802"><ele>553.0</ele><time>2026-05-01T09:30:17Z</time></trkpt><trkpt lat="43.61554093296113" lon="12.29260659353327"><ele>550.0</ele><time>2026-05-01T09:30:18Z</time></trkpt><trkpt lat="43.61564872513831" lon="12.292734114735387"><ele>547.0</ele><time>2026-05-01T09:30:19Z</time></trkpt><trkpt lat="43.61571548369692" lon="12.292875223398934"><ele>544.0</ele><time>2026-05-01T09:30:20Z</time></trkpt><trkpt lat="43.615775419654504" lon="12.293018372156606"><ele>545.25</ele><time>2026-05-01T09:30:21Z</time></trkpt><trkpt lat="43.61584949230329" lon="12.293131465442585"><ele>546.5</ele><time>2026-05-01T09:30:22Z</time></trkpt><trkpt lat="43.61595615972193" lon="12.293169113403323"><ele>547.75</ele><time>2026-05-01T09:30:23Z</time></trkpt><trkpt lat="43.61606333123859" lon="12.293170155857085"><ele>549.0</ele><time>2026-05-01T09:30:24Z</time></trkpt><trkpt lat="43.61618368674771" lon="12.293137971489497"><ele>549.0</ele><time>2026-05-01T09:30:25Z</time></trkpt><trkpt lat="43.61631158027089" lon="12.293135762313568"><ele>549.0</ele><time>2026-05-01T09:30:26Z</time></trkpt><trkpt lat="43.61645278005351" lon="12.29314834292375"><ele>549.0</ele><time>2026-05-01T09:30:27Z</time></trkpt><trkpt lat="43.616592401383166" lon="12.293140097478549"><ele>549.0</ele><time>2026-05-01T09:30:28Z</time></trkpt><trkpt lat="43.61672827522125" lon="12.293133752863342"><ele>549.0</ele><time>2026-05-01T09:30:29Z</time></trkpt><trkpt lat="43.61687009770862" lon="12.293078708510787"><ele>549.0</ele><time>2026-05-01T09:30:30Z</time></trkpt><trkpt lat="43.617000888309704" lon="12.292992649054135"><ele>549.0</ele><time>2026-05-01T09:30:31Z</time></trkpt><trkpt lat="43.61711426536068" lon="12.292885517809223"><ele>549.0</ele><time>2026-05-01T09:30:32Z</time></trkpt><trkpt lat="43.61722982444951" lon="12.292816740003358"><ele>549.0</ele><time>2026-05-01T09:30:33Z</time></trkpt><trkpt lat="43.61732447032029" lon="12.29275310041867"><ele>549.0</ele><time>2026-05-01T09:30:34Z</time></trkpt><trkpt lat="43.61738913064662" lon="12.292701059924989"><ele>549.0</ele><time>2026-05-01T09:30:35Z</time></trkpt><trkpt lat="43.61749562697881" lon="12.29285971175781"><ele>549.0</ele><time>2026-05-01T09:30:37Z</time></trkpt><trkpt lat="43.61757215185839" lon="12.292988644086778"><ele>546.5</ele><time>2026-05-01T09:30:38Z</time></trkpt><trkpt lat="43.617659108944565" lon="12.293138001732402"><ele>544.0</ele><time>2026-05-01T09:30:39Z</time></trkpt><trkpt lat="43.61776511264556" lon="12.29326240296258"><ele>541.5</ele><time>2026-05-01T09:30:40Z</time></trkpt><trkpt lat="43.617862068514164" lon="12.29335391957639"><ele>539.0</ele><time>2026-05-01T09:30:41Z</time></trkpt><trkpt lat="43.61796238501004" lon="12.293392298273611"><ele>538.75</ele><time>2026-05-01T09:30:42Z</time></trkpt><trkpt lat="43.61807467671204" lon="12.293368234461623"><ele>538.5</ele><time>2026-05-01T09:30:43Z</time></trkpt><trkpt lat="43.618204140676" lon="12.293319419987169"><ele>538.25</ele><time>2026-05-01T09:30:44Z</time></trkpt><trkpt lat="43.61835158219321" lon="12.293282914669104"><ele>538.0</ele><time>2026-05-01T09:30:45Z</time></trkpt><trkpt lat="43.618507942779914" lon="12.293242449197145"><ele>537.6666666666667</ele><time>2026-05-01T09:30:46Z</time></trkpt><trkpt lat="43.618666411326444" lon="12.293221406766099"><ele>537.3333333333334</ele><time>2026-05-01T09:30:47Z</time></trkpt><trkpt lat="43.618826157285895" lon="12.29322273800228"><ele>537.0</ele><time>2026-05-01T09:30:48Z</time></trkpt><trkpt lat="43.618992340835945" lon="12.293235301073608"><ele>537.0</ele><time>2026-05-01T09:30:49Z</time></trkpt><trkpt lat="43.619163280030556" lon="12.293254433414523"><ele>537.0</ele><time>2026-05-01T09:30:50Z</time></trkpt><trkpt lat="43.619331898617254" lon="12.293279489096063"><ele>537.0</ele><time>2026-05-01T09:30:51Z</time></trkpt><trkpt lat="43.61949960262674" lon="12.293304376964345"><ele>537.3333333333334</ele><time>2026-05-01T09:30:52Z</time></trkpt><trkpt lat="43.61965880686842" lon="12.293321522706904"><ele>537.6666666666667</ele><time>2026-05-01T09:30:53Z</time></trkpt><trkpt lat="43.61981854751267" lon="12.293338726233245"><ele>538.0</ele><time>2026-05-01T09:30:54Z</time></trkpt><trkpt lat="43.619967360145786" lon="12.29337236740961"><ele>538.0</ele><time>2026-05-01T09:30:55Z</time></trkpt><trkpt lat="43.6201139093053" lon="12.293456356817678"><ele>538.0</ele><time>2026-05-01T09:30:56Z</time></trkpt><trkpt lat="43.62026402875089" lon="12.29355827628005"><ele>538.0</ele><time>2026-05-01T09:30:57Z</time></trkpt><trkpt lat="43.620415155214204" lon="12.293651093451524"><ele>537.25</ele><time>2026-05-01T09:30:58Z</time></trkpt><trkpt lat="43.62056010027506" lon="12.293738871099313"><ele>536.5</ele><time>2026-05-01T09:30:59Z</time></trkpt><trkpt lat="43.6206916812085" lon="12.293819696315909"><ele>535.75</ele><time>2026-05-01T09:31:00Z</time></trkpt><trkpt lat="43.620794527662504" lon="12.293938610875177"><ele>535.0</ele><time>2026-05-01T09:31:01Z</time></trkpt><trkpt lat="43.620855789557126" lon="12.294112802492988"><ele>535.0</ele><time>2026-05-01T09:31:02Z</time></trkpt><trkpt lat="43.620874520695864" lon="12.294305926467118"><ele>535.0</ele><time>2026-05-01T09:31:03Z</time></trkpt><trkpt lat="43.6208969446726" lon="12.294514714780753"><ele>535.0</ele><time>2026-05-01T09:31:04Z</time></trkpt><trkpt lat="43.62095201519559" lon="12.294710675939399"><ele>535.0</ele><time>2026-05-01T09:31:05Z</time></trkpt><trkpt lat="43.62102822118472" lon="12.29489590208689"><ele>534.6666666666667</ele><time>2026-05-01T09:31:06Z</time></trkpt><trkpt lat="43.621134660168174" lon="12.295054892710219"><ele>534.3333333333334</ele><time>2026-05-01T09:31:07Z</time></trkpt><trkpt lat="43.62124820550458" lon="12.295202397936492"><ele>534.0</ele><time>2026-05-01T09:31:08Z</time></trkpt><trkpt lat="43.62136793635478" lon="12.295341984774435"><ele>534.0</ele><time>2026-05-01T09:31:09Z</time></trkpt><trkpt lat="43.62149407267851" lon="12.295477320924482"><ele>534.0</ele><time>2026-05-01T09:31:10Z</time></trkpt><trkpt lat="43.62161810423668" lon="12.295628930625538"><ele>534.0</ele><time>2026-05-01T09:31:11Z</time></trkpt><trkpt lat="43.6217506639334" lon="12.295768544228158"><ele>531.6666666666666</ele><time>2026-05-01T09:31:12Z</time></trkpt><trkpt lat="43.621880052939154" lon="12.295911994693519"><ele>529.3333333333333</ele><time>2026-05-01T09:31:13Z</time></trkpt><trkpt lat="43.621996263825345" lon="12.296075190719858"><ele>527.0</ele><time>2026-05-01T09:31:14Z</time></trkpt><trkpt lat="43.622087702344125" lon="12.296268790836251"><ele>523.6666666666666</ele><time>2026-05-01T09:31:15Z</time></trkpt><trkpt lat="43.622174617868495" lon="12.296460699527021"><ele>520.3333333333334</ele><time>2026-05-01T09:31:16Z</time></trkpt><trkpt lat="43.62228747039405" lon="12.296613041644623"><ele>517.0</ele><time>2026-05-01T09:31:17Z</time></trkpt><trkpt lat="43.62242802931444" lon="12.296740975610225"><ele>517.0</ele><time>2026-05-01T09:31:18Z</time></trkpt><trkpt lat="43.6225829505643" lon="12.296822481307778"><ele>517.0</ele><time>2026-05-01T09:31:19Z</time></trkpt><trkpt lat="43.62272205018531" lon="12.296888642864435"><ele>517.0</ele><time>2026-05-01T09:31:20Z</time></trkpt><trkpt lat="43.62283505475464" lon="12.296942778074348"><ele>517.0</ele><time>2026-05-01T09:31:21Z</time></trkpt><trkpt lat="43.62293523303701" lon="12.296996075842792"><ele>516.8000000000001</ele><time>2026-05-01T09:31:22Z</time></trkpt><trkpt lat="43.6230295637798" lon="12.297057825870805"><ele>516.6</ele><time>2026-05-01T09:31:23Z</time></trkpt><trkpt lat="43.623130285769065" lon="12.29712526197223"><ele>516.4000000000001</ele><time>2026-05-01T09:31:24Z</time></trkpt><trkpt lat="43.6232257324745" lon="12.297198917644096"><ele>516.2</ele><time>2026-05-01T09:31:25Z</time></trkpt><trkpt lat="43.62331400201443" lon="12.297303233234068"><ele>516.0</ele><time>2026-05-01T09:31:26Z</time></trkpt><trkpt lat="43.623399085724856" lon="12.29742289403292"><ele>516.0</ele><time>2026-05-01T09:31:27Z</time></trkpt><trkpt lat="43.623472810837264" lon="12.297563918217877"><ele>516.0</ele><time>2026-05-01T09:31:28Z</time></trkpt><trkpt lat="43.62352435074741" lon="12.297724941678498"><ele>516.0</ele><time>2026-05-01T09:31:29Z</time></trkpt><trkpt lat="43.623567610854764" lon="12.297905113240436"><ele>516.0</ele><time>2026-05-01T09:31:30Z</time></trkpt><trkpt lat="43.623609952298196" lon="12.298103049755722"><ele>515.75</ele><time>2026-05-01T09:31:31Z</time></trkpt><trkpt lat="43.62365558801061" lon="12.298296109929145"><ele>515.5</ele><time>2026-05-01T09:31:32Z</time></trkpt><trkpt lat="43.6237023250202" lon="12.298483738458517"><ele>515.25</ele><time>2026-05-01T09:31:33Z</time></trkpt><trkpt lat="43.6237865460247" lon="12.2986443000277"><ele>515.0</ele><time>2026-05-01T09:31:34Z</time></trkpt><trkpt lat="43.623902777905144" lon="12.29875867823618"><ele>515.0</ele><time>2026-05-01T09:31:35Z</time></trkpt><trkpt lat="43.6240441603316" lon="12.29882919957413"><ele>515.0</ele><time>2026-05-01T09:31:36Z</time></trkpt><trkpt lat="43.62421044008286" lon="12.298858179306832"><ele>515.0</ele><time>2026-05-01T09:31:37Z</time></trkpt><trkpt lat="43.62438581972524" lon="12.298924434604922"><ele>515.0</ele><time>2026-05-01T09:31:38Z</time></trkpt><trkpt lat="43.62456974069891" lon="12.298996066474185"><ele>515.0</ele><time>2026-05-01T09:31:39Z</time></trkpt><trkpt lat="43.62474628578786" lon="12.299076947897898"><ele>515.0</ele><time>2026-05-01T09:31:40Z</time></trkpt><trkpt lat="43.624913001256246" lon="12.299184259750158"><ele>515.0</ele><time>2026-05-01T09:31:41Z</time></trkpt><trkpt lat="43.62507514017731" lon="12.299312874447102"><ele>515.0</ele><time>2026-05-01T09:31:42Z</time></trkpt><trkpt lat="43.625232638530726" lon="12.299453574551118"><ele>515.0</ele><time>2026-05-01T09:31:43Z</time></trkpt><trkpt lat="43.625387477307356" lon="12.29960887295371"><ele>514.6666666666666</ele><time>2026-05-01T09:31:44Z</time></trkpt><trkpt lat="43.62553239067822" lon="12.299778037059108"><ele>514.3333333333334</ele><time>2026-05-01T09:31:45Z</time></trkpt><trkpt lat="43.62567255250558" lon="12.29996147816404"><ele>514.0</ele><time>2026-05-01T09:31:46Z</time></trkpt><trkpt lat="43.62582289783866" lon="12.300142249588655"><ele>514.0</ele><time>2026-05-01T09:31:47Z</time></trkpt><trkpt lat="43.62597797628068" lon="12.300320512101234"><ele>514.0</ele><time>2026-05-01T09:31:48Z</time></trkpt><trkpt lat="43.6261219731877" lon="12.300516192784237"><ele>514.0</ele><time>2026-05-01T09:31:49Z</time></trkpt><trkpt lat="43.6262440530102" lon="12.300736995734187"><ele>513.3333333333334</ele><time>2026-05-01T09:31:50Z</time></trkpt><trkpt lat="43.62637280515975" lon="12.30098930901317"><ele>512.6666666666666</ele><time>2026-05-01T09:31:51Z</time></trkpt><trkpt lat="43.62649724391848" lon="12.301232453425534"><ele>512.0</ele><time>2026-05-01T09:31:52Z</time></trkpt><trkpt lat="43.626619242702816" lon="12.301468657873846"><ele>512.0</ele><time>2026-05-01T09:31:53Z</time></trkpt><trkpt lat="43.626737900130095" lon="12.301701550238754"><ele>512.0</ele><time>2026-05-01T09:31:54Z</time></trkpt><trkpt lat="43.626869601279616" lon="12.301908412700891"><ele>512.0</ele><time>2026-05-01T09:31:55Z</time></trkpt><trkpt lat="43.627006035371146" lon="12.302112144467442"><ele>512.0</ele><time>2026-05-01T09:31:56Z</time></trkpt><trkpt lat="43.627166524441535" lon="12.302288076434422"><ele>512.0</ele><time>2026-05-01T09:31:57Z</time></trkpt><trkpt lat="43.62733075077047" lon="12.302480315685903"><ele>512.0</ele><time>2026-05-01T09:31:58Z</time></trkpt><trkpt lat="43.62749421510548" lon="12.302658072434708"><ele>512.0</ele><time>2026-05-01T09:31:59Z</time></trkpt><trkpt lat="43.62764986061206" lon="12.302833128218237"><ele>512.0</ele><time>2026-05-01T09:32:00Z</time></trkpt><trkpt lat="43.62777562632797" lon="12.303017322409826"><ele>512.0</ele><time>2026-05-01T09:32:01Z</time></trkpt><trkpt lat="43.627850888351645" lon="12.30322495825293"><ele>511.66666666666663</ele><time>2026-05-01T09:32:02Z</time></trkpt><trkpt lat="43.62793401971096" lon="12.303435488937401"><ele>511.33333333333337</ele><time>2026-05-01T09:32:03Z</time></trkpt><trkpt lat="43.62804575886818" lon="12.303584831313755"><ele>511.0</ele><time>2026-05-01T09:32:04Z</time></trkpt><trkpt lat="43.6281934535438" lon="12.303695946636942"><ele>511.0</ele><time>2026-05-01T09:32:05Z</time></trkpt><trkpt lat="43.628333712108876" lon="12.303840280769126"><ele>511.0</ele><time>2026-05-01T09:32:06Z</time></trkpt><trkpt lat="43.628456140830345" lon="12.304007258365617"><ele>511.0</ele><time>2026-05-01T09:32:07Z</time></trkpt><trkpt lat="43.628563685447816" lon="12.304209747391356"><ele>507.6666666666667</ele><time>2026-05-01T09:32:08Z</time></trkpt><trkpt lat="43.62867117220372" lon="12.304422976574662"><ele>504.33333333333337</ele><time>2026-05-01T09:32:09Z</time></trkpt><trkpt lat="43.62878421744385" lon="12.304641887477995"><ele>501.0</ele><time>2026-05-01T09:32:10Z</time></trkpt><trkpt lat="43.62889668569397" lon="12.304866385043013"><ele>497.33333333333337</ele><time>2026-05-01T09:32:11Z</time></trkpt><trkpt lat="43.62900730580084" lon="12.305092848879326"><ele>493.6666666666667</ele><time>2026-05-01T09:32:12Z</time></trkpt><trkpt lat="43.62911375332646" lon="12.305311118013613"><ele>490.0</ele><time>2026-05-01T09:32:13Z</time></trkpt><trkpt lat="43.62923462684443" lon="12.305528803586553"><ele>490.33333333333337</ele><time>2026-05-01T09:32:14Z</time></trkpt><trkpt lat="43.62933487632712" lon="12.305769251308874"><ele>490.66666666666663</ele><time>2026-05-01T09:32:15Z</time></trkpt><trkpt lat="43.629442685850584" lon="12.3059927259972"><ele>491.0</ele><time>2026-05-01T09:32:16Z</time></trkpt><trkpt lat="43.62955291345685" lon="12.306211960757958"><ele>492.66666666666663</ele><time>2026-05-01T09:32:17Z</time></trkpt><trkpt lat="43.62968720753087" lon="12.306405183767781"><ele>494.33333333333337</ele><time>2026-05-01T09:32:18Z</time></trkpt><trkpt lat="43.62982504987917" lon="12.306593295434583"><ele>496.0</ele><time>2026-05-01T09:32:19Z</time></trkpt><trkpt lat="43.62998011973722" lon="12.306758903578864"><ele>497.33333333333337</ele><time>2026-05-01T09:32:20Z</time></trkpt><trkpt lat="43.630135173386" lon="12.306908029814148"><ele>498.66666666666663</ele><time>2026-05-01T09:32:21Z</time></trkpt><trkpt lat="43.630285659272914" lon="12.30703074241319"><ele>500.0</ele><time>2026-05-01T09:32:22Z</time></trkpt><trkpt lat="43.63044116108437" lon="12.307119270734704"><ele>500.0</ele><time>2026-05-01T09:32:23Z</time></trkpt><trkpt lat="43.63058980818332" lon="12.307228129974732"><ele>500.0</ele><time>2026-05-01T09:32:24Z</time></trkpt><trkpt lat="43.63074039680851" lon="12.307328956418116"><ele>500.0</ele><time>2026-05-01T09:32:25Z</time></trkpt><trkpt lat="43.630880243998554" lon="12.30746544734895"><ele>499.0</ele><time>2026-05-01T09:32:26Z</time></trkpt><trkpt lat="43.63100383023734" lon="12.307641150818526"><ele>498.0</ele><time>2026-05-01T09:32:27Z</time></trkpt><trkpt lat="43.63113348641863" lon="12.307842445753995"><ele>497.0</ele><time>2026-05-01T09:32:28Z</time></trkpt><trkpt lat="43.631253783885874" lon="12.308032205425542"><ele>494.0</ele><time>2026-05-01T09:32:29Z</time></trkpt><trkpt lat="43.6313943145203" lon="12.308184558625511"><ele>491.0</ele><time>2026-05-01T09:32:30Z</time></trkpt><trkpt lat="43.631530181491236" lon="12.30834364882142"><ele>488.0</ele><time>2026-05-01T09:32:31Z</time></trkpt><trkpt lat="43.631682519715916" lon="12.3084790419146"><ele>488.0</ele><time>2026-05-01T09:32:32Z</time></trkpt><trkpt lat="43.63182486754097" lon="12.308639728211512"><ele>488.0</ele><time>2026-05-01T09:32:33Z</time></trkpt><trkpt lat="43.63194236214911" lon="12.308840969622697"><ele>488.0</ele><time>2026-05-01T09:32:34Z</time></trkpt><trkpt lat="43.632021577200135" lon="12.309078727228975"><ele>489.66666666666663</ele><time>2026-05-01T09:32:35Z</time></trkpt><trkpt lat="43.632092440813814" lon="12.309350006792874"><ele>491.33333333333337</ele><time>2026-05-01T09:32:36Z</time></trkpt><trkpt lat="43.63214628457542" lon="12.309639332833681"><ele>493.0</ele><time>2026-05-01T09:32:37Z</time></trkpt><trkpt lat="43.63221686312709" lon="12.309932956997153"><ele>493.0</ele><time>2026-05-01T09:32:38Z</time></trkpt><trkpt lat="43.63227518707554" lon="12.31022736676254"><ele>493.0</ele><time>2026-05-01T09:32:39Z</time></trkpt><trkpt lat="43.632344312624454" lon="12.310512026081032"><ele>493.0</ele><time>2026-05-01T09:32:40Z</time></trkpt><trkpt lat="43.63241392664554" lon="12.31075105585264"><ele>491.0</ele><time>2026-05-01T09:32:41Z</time></trkpt><trkpt lat="43.632478579932716" lon="12.310960058399274"><ele>489.0</ele><time>2026-05-01T09:32:42Z</time></trkpt><trkpt lat="43.632549339318274" lon="12.311132929741198"><ele>487.0</ele><time>2026-05-01T09:32:43Z</time></trkpt><trkpt lat="43.63264551099562" lon="12.311281797385059"><ele>485.33333333333337</ele><time>2026-05-01T09:32:44Z</time></trkpt><trkpt lat="43.632751054054815" lon="12.311436974380387"><ele>483.66666666666663</ele><time>2026-05-01T09:32:45Z</time></trkpt><trkpt lat="43.632872316403834" lon="12.311593788831738"><ele>482.0</ele><time>2026-05-01T09:32:46Z</time></trkpt><trkpt lat="43.63299862584635" lon="12.311757130465274"><ele>483.66666666666663</ele><time>2026-05-01T09:32:47Z</time></trkpt><trkpt lat="43.633145000792325" lon="12.311911825007206"><ele>485.33333333333337</ele><time>2026-05-01T09:32:48Z</time></trkpt><trkpt lat="43.63328407795062" lon="12.312080638938255"><ele>487.0</ele><time>2026-05-01T09:32:49Z</time></trkpt><trkpt lat="43.633398935296974" lon="12.31227072527618"><ele>487.0</ele><time>2026-05-01T09:32:50Z</time></trkpt><trkpt lat="43.63349969419353" lon="12.312465686867762"><ele>487.0</ele><time>2026-05-01T09:32:51Z</time></trkpt><trkpt lat="43.63359223312939" lon="12.312657119957994"><ele>487.0</ele><time>2026-05-01T09:32:52Z</time></trkpt><trkpt lat="43.63369361960263" lon="12.312827618503569"><ele>492.0</ele><time>2026-05-01T09:32:53Z</time></trkpt><trkpt lat="43.63377525680809" lon="12.312991978075143"><ele>497.0</ele><time>2026-05-01T09:32:54Z</time></trkpt><trkpt lat="43.63389284558013" lon="12.313173618597327"><ele>502.0</ele><time>2026-05-01T09:32:55Z</time></trkpt><trkpt lat="43.63397302533031" lon="12.313375109832151"><ele>502.0</ele><time>2026-05-01T09:32:56Z</time></trkpt><trkpt lat="43.63405832418003" lon="12.313572910915743"><ele>502.0</ele><time>2026-05-01T09:32:57Z</time></trkpt><trkpt lat="43.63413999196983" lon="12.313750180783043"><ele>502.0</ele><time>2026-05-01T09:32:58Z</time></trkpt><trkpt lat="43.634174353402976" lon="12.313946396205163"><ele>499.75</ele><time>2026-05-01T09:32:59Z</time></trkpt><trkpt lat="43.634224890544814" lon="12.314133956893647"><ele>497.5</ele><time>2026-05-01T09:33:00Z</time></trkpt><trkpt lat="43.63429369113604" lon="12.31430026721634"><ele>495.25</ele><time>2026-05-01T09:33:01Z</time></trkpt><trkpt lat="43.63433983115819" lon="12.314498160455049"><ele>493.0</ele><time>2026-05-01T09:33:02Z</time></trkpt><trkpt lat="43.6344166710249" lon="12.314674995203275"><ele>497.25</ele><time>2026-05-01T09:33:03Z</time></trkpt><trkpt lat="43.63447701732292" lon="12.31486560998714"><ele>501.5</ele><time>2026-05-01T09:33:04Z</time></trkpt><trkpt lat="43.63453652887477" lon="12.31504823877066"><ele>505.75</ele><time>2026-05-01T09:33:05Z</time></trkpt><trkpt lat="43.634593532190486" lon="12.3152223906524"><ele>510.0</ele><time>2026-05-01T09:33:06Z</time></trkpt><trkpt lat="43.63465491476267" lon="12.315389667156259"><ele>510.0</ele><time>2026-05-01T09:33:07Z</time></trkpt><trkpt lat="43.6347007333304" lon="12.315567302341506"><ele>510.0</ele><time>2026-05-01T09:33:08Z</time></trkpt><trkpt lat="43.63475923410244" lon="12.315729111486283"><ele>510.0</ele><time>2026-05-01T09:33:09Z</time></trkpt><trkpt lat="43.63481616212347" lon="12.315887200672995"><ele>510.0</ele><time>2026-05-01T09:33:10Z</time></trkpt><trkpt lat="43.63486855561423" lon="12.316039848443294"><ele>505.6</ele><time>2026-05-01T09:33:11Z</time></trkpt><trkpt lat="43.634913948984625" lon="12.316184509383747"><ele>501.2</ele><time>2026-05-01T09:33:12Z</time></trkpt><trkpt lat="43.63494274875662" lon="12.316321989379393"><ele>496.79999999999995</ele><time>2026-05-01T09:33:13Z</time></trkpt><trkpt lat="43.634959860121825" lon="12.316438417689934"><ele>492.4</ele><time>2026-05-01T09:33:14Z</time></trkpt><trkpt lat="43.63498770836153" lon="12.316531650893868"><ele>488.0</ele><time>2026-05-01T09:33:15Z</time></trkpt><trkpt lat="43.63500413186365" lon="12.316683394468159"><ele>485.0</ele><time>2026-05-01T09:33:17Z</time></trkpt><trkpt lat="43.63501234785092" lon="12.31678872297677"><ele>481.99999999999994</ele><time>2026-05-01T09:33:19Z</time></trkpt><trkpt lat="43.63503740157474" lon="12.316882491403838"><ele>478.99999999999994</ele><time>2026-05-01T09:33:22Z</time></trkpt><trkpt lat="43.63493847669873" lon="12.31693653059078"><ele>476.0</ele><time>2026-05-01T09:33:27Z</time></trkpt><trkpt lat="43.6350306669959" lon="12.316929622581727"><ele>473.0</ele><time>2026-05-01T09:33:43Z</time></trkpt><trkpt lat="43.6351335140284" lon="12.317013433718351"><ele>473.0</ele><time>2026-05-01T09:33:45Z</time></trkpt><trkpt lat="43.63519458685544" lon="12.317097447963866"><ele>472.99999999999994</ele><time>2026-05-01T09:33:46Z</time></trkpt><trkpt lat="43.63527115894852" lon="12.317197874229821"><ele>472.99999999999994</ele><time>2026-05-01T09:33:47Z</time></trkpt><trkpt lat="43.6353486105387" lon="12.317291039629907"><ele>473.0</ele><time>2026-05-01T09:33:48Z</time></trkpt><trkpt lat="43.63543024335503" lon="12.317398856116718"><ele>473.0</ele><time>2026-05-01T09:33:49Z</time></trkpt><trkpt lat="43.635507585656086" lon="12.317509967306085"><ele>472.59999999999997</ele><time>2026-05-01T09:33:50Z</time></trkpt><trkpt lat="43.6355760815694" lon="12.317614468957666"><ele>472.19999999999993</ele><time>2026-05-01T09:33:51Z</time></trkpt><trkpt lat="43.63561048280643" lon="12.31773567065688"><ele>471.8</ele><time>2026-05-01T09:33:52Z</time></trkpt><trkpt lat="43.63559159830093" lon="12.31786910102804"><ele>471.4</ele><time>2026-05-01T09:33:53Z</time></trkpt><trkpt lat="43.6355825329289" lon="12.31803073826364"><ele>471.0</ele><time>2026-05-01T09:33:54Z</time></trkpt><trkpt lat="43.63558220613496" lon="12.318211770262408"><ele>471.0</ele><time>2026-05-01T09:33:55Z</time></trkpt><trkpt lat="43.63556641043525" lon="12.318411371240646"><ele>471.0</ele><time>2026-05-01T09:33:56Z</time></trkpt><trkpt lat="43.63557650521214" lon="12.318610093443631"><ele>471.0</ele><time>2026-05-01T09:33:57Z</time></trkpt><trkpt lat="43.63560247408051" lon="12.318828122602072"><ele>471.0</ele><time>2026-05-01T09:33:58Z</time></trkpt><trkpt lat="43.63563882909012" lon="12.3190174156926"><ele>469.5</ele><time>2026-05-01T09:33:59Z</time></trkpt><trkpt lat="43.63568729846022" lon="12.319194038823273"><ele>468.0</ele><time>2026-05-01T09:34:00Z</time></trkpt><trkpt lat="43.63574292450256" lon="12.319360242005231"><ele>466.5</ele><time>2026-05-01T09:34:01Z</time></trkpt><trkpt lat="43.63579833345872" lon="12.319506094934441"><ele>465.0</ele><time>2026-05-01T09:34:02Z</time></trkpt><trkpt lat="43.63587772964624" lon="12.31962492175775"><ele>465.0</ele><time>2026-05-01T09:34:03Z</time></trkpt><trkpt lat="43.63597612850549" lon="12.319705445537176"><ele>465.0</ele><time>2026-05-01T09:34:04Z</time></trkpt><trkpt lat="43.63607994952843" lon="12.319768301053037"><ele>465.0</ele><time>2026-05-01T09:34:05Z</time></trkpt><trkpt lat="43.636171876925125" lon="12.319798718955035"><ele>465.0</ele><time>2026-05-01T09:34:06Z</time></trkpt><trkpt lat="43.6362697560327" lon="12.319868085342875"><ele>465.0</ele><time>2026-05-01T09:34:07Z</time></trkpt><trkpt lat="43.63636315851235" lon="12.319948621140021"><ele>465.0</ele><time>2026-05-01T09:34:08Z</time></trkpt><trkpt lat="43.636447357160954" lon="12.32005837218031"><ele>465.0</ele><time>2026-05-01T09:34:09Z</time></trkpt><trkpt lat="43.63651169429295" lon="12.320190455193586"><ele>465.0</ele><time>2026-05-01T09:34:10Z</time></trkpt><trkpt lat="43.636568680254584" lon="12.320339217794565"><ele>465.0</ele><time>2026-05-01T09:34:11Z</time></trkpt><trkpt lat="43.63662819137147" lon="12.320490706406877"><ele>464.8</ele><time>2026-05-01T09:34:12Z</time></trkpt><trkpt lat="43.636705423605015" lon="12.32062309265338"><ele>464.6</ele><time>2026-05-01T09:34:13Z</time></trkpt><trkpt lat="43.63676675207132" lon="12.320739253938411"><ele>464.4</ele><time>2026-05-01T09:34:14Z</time></trkpt><trkpt lat="43.636841688288136" lon="12.320830020146674"><ele>464.2</ele><time>2026-05-01T09:34:15Z</time></trkpt><trkpt lat="43.636928191781514" lon="12.320890805557282"><ele>464.0</ele><time>2026-05-01T09:34:16Z</time></trkpt><trkpt lat="43.63700687566155" lon="12.320948643453338"><ele>464.0</ele><time>2026-05-01T09:34:17Z</time></trkpt><trkpt lat="43.637085034679544" lon="12.320985351133752"><ele>464.0</ele><time>2026-05-01T09:34:18Z</time></trkpt><trkpt lat="43.63716585996258" lon="12.321031219334882"><ele>464.0</ele><time>2026-05-01T09:34:19Z</time></trkpt><trkpt lat="43.63725263358469" lon="12.321083547727909"><ele>464.0</ele><time>2026-05-01T09:34:20Z</time></trkpt><trkpt lat="43.63733641344374" lon="12.321149301575591"><ele>464.0</ele><time>2026-05-01T09:34:21Z</time></trkpt><trkpt lat="43.63741714702148" lon="12.321237129638572"><ele>464.0</ele><time>2026-05-01T09:34:22Z</time></trkpt><trkpt lat="43.63749972916355" lon="12.3213327010153"><ele>464.0</ele><time>2026-05-01T09:34:23Z</time></trkpt><trkpt lat="43.637582130982835" lon="12.321434550940982"><ele>464.0</ele><time>2026-05-01T09:34:24Z</time></trkpt><trkpt lat="43.63766539109013" lon="12.321539464175345"><ele>464.0</ele><time>2026-05-01T09:34:25Z</time></trkpt><trkpt lat="43.63775226183948" lon="12.321648926912838"><ele>464.0</ele><time>2026-05-01T09:34:26Z</time></trkpt><trkpt lat="43.63784531221576" lon="12.321744370760237"><ele>463.25</ele><time>2026-05-01T09:34:27Z</time></trkpt><trkpt lat="43.63793225425357" lon="12.321856812911836"><ele>462.5</ele><time>2026-05-01T09:34:28Z</time></trkpt><trkpt lat="43.63799746975743" lon="12.322002967431134"><ele>461.75</ele><time>2026-05-01T09:34:29Z</time></trkpt><trkpt lat="43.63808446968106" lon="12.322130984523863"><ele>461.0</ele><time>2026-05-01T09:34:30Z</time></trkpt><trkpt lat="43.63818049575499" lon="12.3222521054996"><ele>460.5</ele><time>2026-05-01T09:34:31Z</time></trkpt><trkpt lat="43.63827903182224" lon="12.322369972317414"><ele>460.0</ele><time>2026-05-01T09:34:32Z</time></trkpt><trkpt lat="43.63838872669601" lon="12.322468064704283"><ele>459.5</ele><time>2026-05-01T09:34:33Z</time></trkpt><trkpt lat="43.63848427345037" lon="12.322589013164746"><ele>459.0</ele><time>2026-05-01T09:34:34Z</time></trkpt><trkpt lat="43.63859077259483" lon="12.322711411381471"><ele>459.5</ele><time>2026-05-01T09:34:35Z</time></trkpt><trkpt lat="43.6386837848904" lon="12.322855610552272"><ele>460.0</ele><time>2026-05-01T09:34:36Z</time></trkpt><trkpt lat="43.63878157206828" lon="12.32300287724652"><ele>460.5</ele><time>2026-05-01T09:34:37Z</time></trkpt><trkpt lat="43.6388570981935" lon="12.323163265060348"><ele>461.0</ele><time>2026-05-01T09:34:38Z</time></trkpt><trkpt lat="43.63891896785213" lon="12.323341816377031"><ele>461.0</ele><time>2026-05-01T09:34:39Z</time></trkpt><trkpt lat="43.63899660178502" lon="12.323525987193394"><ele>461.0</ele><time>2026-05-01T09:34:40Z</time></trkpt><trkpt lat="43.639082421210134" lon="12.323663441026016"><ele>461.0</ele><time>2026-05-01T09:34:41Z</time></trkpt><trkpt lat="43.63917906449084" lon="12.323788506055111"><ele>461.0</ele><time>2026-05-01T09:34:42Z</time></trkpt><trkpt lat="43.639258768964645" lon="12.323942268820089"><ele>461.5</ele><time>2026-05-01T09:34:43Z</time></trkpt><trkpt lat="43.63936146987949" lon="12.324082386515215"><ele>462.0</ele><time>2026-05-01T09:34:44Z</time></trkpt><trkpt lat="43.63944773841151" lon="12.324198221338639"><ele>462.5</ele><time>2026-05-01T09:34:45Z</time></trkpt><trkpt lat="43.639544978485716" lon="12.324308818563711"><ele>463.0</ele><time>2026-05-01T09:34:46Z</time></trkpt><trkpt lat="43.639651004694436" lon="12.324426387380589"><ele>463.0</ele><time>2026-05-01T09:34:47Z</time></trkpt><trkpt lat="43.63976398613842" lon="12.3245664865405"><ele>463.0</ele><time>2026-05-01T09:34:48Z</time></trkpt><trkpt lat="43.63989084514569" lon="12.324732554713385"><ele>463.0</ele><time>2026-05-01T09:34:49Z</time></trkpt><trkpt lat="43.64003106725163" lon="12.324918205971562"><ele>462.6666666666667</ele><time>2026-05-01T09:34:50Z</time></trkpt><trkpt lat="43.64018972836134" lon="12.325112023063204"><ele>462.33333333333337</ele><time>2026-05-01T09:34:51Z</time></trkpt><trkpt lat="43.6403506234427" lon="12.32529263243681"><ele>462.0</ele><time>2026-05-01T09:34:52Z</time></trkpt><trkpt lat="43.64050014065578" lon="12.325483179226218"><ele>460.66666666666663</ele><time>2026-05-01T09:34:53Z</time></trkpt><trkpt lat="43.64066488283631" lon="12.325642126519002"><ele>459.3333333333333</ele><time>2026-05-01T09:34:54Z</time></trkpt><trkpt lat="43.64083267687751" lon="12.325802683464254"><ele>458.0</ele><time>2026-05-01T09:34:55Z</time></trkpt><trkpt lat="43.641007570244106" lon="12.32595473732922"><ele>457.0</ele><time>2026-05-01T09:34:56Z</time></trkpt><trkpt lat="43.64115441547376" lon="12.326162340435605"><ele>456.0</ele><time>2026-05-01T09:34:57Z</time></trkpt><trkpt lat="43.64130780603605" lon="12.32636691349813"><ele>455.0</ele><time>2026-05-01T09:34:58Z</time></trkpt><trkpt lat="43.6414619485035" lon="12.326577269321186"><ele>454.3333333333333</ele><time>2026-05-01T09:34:59Z</time></trkpt><trkpt lat="43.64161429034621" lon="12.326789339336576"><ele>453.66666666666663</ele><time>2026-05-01T09:35:00Z</time></trkpt><trkpt lat="43.64176134158691" lon="12.327013053633337"><ele>453.0</ele><time>2026-05-01T09:35:01Z</time></trkpt><trkpt lat="43.641901074297124" lon="12.327240529106014"><ele>451.66666666666663</ele><time>2026-05-01T09:35:02Z</time></trkpt><trkpt lat="43.642025598811266" lon="12.327464235821811"><ele>450.3333333333333</ele><time>2026-05-01T09:35:03Z</time></trkpt><trkpt lat="43.642132916130436" lon="12.327694137672992"><ele>449.0</ele><time>2026-05-01T09:35:04Z</time></trkpt><trkpt lat="43.6422237109262" lon="12.327933119272515"><ele>448.0</ele><time>2026-05-01T09:35:05Z</time></trkpt><trkpt lat="43.64232441930307" lon="12.328161330341215"><ele>447.0</ele><time>2026-05-01T09:35:06Z</time></trkpt><trkpt lat="43.64240315880474" lon="12.328396967324771"><ele>446.0</ele><time>2026-05-01T09:35:07Z</time></trkpt><trkpt lat="43.64248828649838" lon="12.32863458228318"><ele>446.0</ele><time>2026-05-01T09:35:08Z</time></trkpt><trkpt lat="43.642590467892326" lon="12.32885813954962"><ele>446.0</ele><time>2026-05-01T09:35:09Z</time></trkpt><trkpt lat="43.64272746791916" lon="12.329066722418077"><ele>446.0</ele><time>2026-05-01T09:35:10Z</time></trkpt><trkpt lat="43.64285546920113" lon="12.329289085029345"><ele>445.66666666666663</ele><time>2026-05-01T09:35:11Z</time></trkpt><trkpt lat="43.642959659342004" lon="12.329526752066975"><ele>445.33333333333337</ele><time>2026-05-01T09:35:12Z</time></trkpt><trkpt lat="43.64305628018044" lon="12.329774219455997"><ele>445.0</ele><time>2026-05-01T09:35:13Z</time></trkpt><trkpt lat="43.64315404382867" lon="12.330025869443679"><ele>445.0</ele><time>2026-05-01T09:35:14Z</time></trkpt><trkpt lat="43.64324544956634" lon="12.330263800357267"><ele>445.0</ele><time>2026-05-01T09:35:15Z</time></trkpt><trkpt lat="43.64335580009973" lon="12.33050299143623"><ele>445.0</ele><time>2026-05-01T09:35:16Z</time></trkpt><trkpt lat="43.6434505589402" lon="12.33073716568157"><ele>443.33333333333337</ele><time>2026-05-01T09:35:17Z</time></trkpt><trkpt lat="43.6435256325822" lon="12.330971142064078"><ele>441.66666666666663</ele><time>2026-05-01T09:35:18Z</time></trkpt><trkpt lat="43.643608102422625" lon="12.331172895962348"><ele>440.0</ele><time>2026-05-01T09:35:19Z</time></trkpt><trkpt lat="43.64372488173953" lon="12.331341912227265"><ele>442.0</ele><time>2026-05-01T09:35:20Z</time></trkpt><trkpt lat="43.6438493819097" lon="12.331516512004704"><ele>444.0</ele><time>2026-05-01T09:35:21Z</time></trkpt><trkpt lat="43.64398339961251" lon="12.33168547259681"><ele>446.0</ele><time>2026-05-01T09:35:22Z</time></trkpt><trkpt lat="43.6441216277976" lon="12.331860511699468"><ele>446.0</ele><time>2026-05-01T09:35:23Z</time></trkpt><trkpt lat="43.644253812296554" lon="12.332056431832187"><ele>446.0</ele><time>2026-05-01T09:35:24Z</time></trkpt><trkpt lat="43.6443929723531" lon="12.33224588075348"><ele>446.0</ele><time>2026-05-01T09:35:25Z</time></trkpt><trkpt lat="43.64451699115179" lon="12.332439499956877"><ele>452.66666666666663</ele><time>2026-05-01T09:35:26Z</time></trkpt><trkpt lat="43.64463390730037" lon="12.332635793706586"><ele>459.33333333333337</ele><time>2026-05-01T09:35:27Z</time></trkpt><trkpt lat="43.644747324452275" lon="12.33282838773877"><ele>466.0</ele><time>2026-05-01T09:35:28Z</time></trkpt><trkpt lat="43.6448486761927" lon="12.333002663327626"><ele>460.75</ele><time>2026-05-01T09:35:29Z</time></trkpt><trkpt lat="43.64495539543104" lon="12.333154937705608"><ele>455.5</ele><time>2026-05-01T09:35:30Z</time></trkpt><trkpt lat="43.645040604189276" lon="12.333298840454432"><ele>450.25</ele><time>2026-05-01T09:35:31Z</time></trkpt><trkpt lat="43.645122051099584" lon="12.33341766759369"><ele>445.0</ele><time>2026-05-01T09:35:32Z</time></trkpt><trkpt lat="43.64519814431925" lon="12.333482588773997"><ele>445.00000000000006</ele><time>2026-05-01T09:35:33Z</time></trkpt><trkpt lat="43.64527679394942" lon="12.333522941967296"><ele>445.0</ele><time>2026-05-01T09:35:34Z</time></trkpt><trkpt lat="43.64535578418926" lon="12.3335310861275"><ele>445.0</ele><time>2026-05-01T09:35:35Z</time></trkpt><trkpt lat="43.64544126352769" lon="12.333532921441273"><ele>445.0</ele><time>2026-05-01T09:35:36Z</time></trkpt><trkpt lat="43.64552624665379" lon="12.333567958503876"><ele>445.00000000000006</ele><time>2026-05-01T09:35:37Z</time></trkpt><trkpt lat="43.645577629508864" lon="12.333677351743896"><ele>445.0</ele><time>2026-05-01T09:35:38Z</time></trkpt><trkpt lat="43.64562810254507" lon="12.333774261153719"><ele>445.00000000000006</ele><time>2026-05-01T09:35:39Z</time></trkpt><trkpt lat="43.6456744248163" lon="12.333877547052523"><ele>445.0</ele><time>2026-05-01T09:35:40Z</time></trkpt><trkpt lat="43.64571701314957" lon="12.333982165365732"><ele>445.0</ele><time>2026-05-01T09:35:41Z</time></trkpt><trkpt lat="43.64576225204338" lon="12.334081720577684"><ele>445.0</ele><time>2026-05-01T09:35:42Z</time></trkpt><trkpt lat="43.64577421623157" lon="12.334200268615817"><ele>445.00000000000006</ele><time>2026-05-01T09:35:43Z</time></trkpt><trkpt lat="43.64579569057534" lon="12.3343121815755"><ele>445.0</ele><time>2026-05-01T09:35:44Z</time></trkpt><trkpt lat="43.64580714545706" lon="12.334422706985524"><ele>443.1666666666667</ele><time>2026-05-01T09:35:45Z</time></trkpt><trkpt lat="43.64582126825989" lon="12.334531452561492"><ele>441.33333333333337</ele><time>2026-05-01T09:35:46Z</time></trkpt><trkpt lat="43.64583591794617" lon="12.33464355113652"><ele>439.5</ele><time>2026-05-01T09:35:47Z</time></trkpt><trkpt lat="43.64585126585853" lon="12.334747765386677"><ele>437.66666666666663</ele><time>2026-05-01T09:35:48Z</time></trkpt><trkpt lat="43.64586549397588" lon="12.33484064832883"><ele>435.8333333333333</ele><time>2026-05-01T09:35:49Z</time></trkpt><trkpt lat="43.64588829461526" lon="12.334964798423792"><ele>434.0</ele><time>2026-05-01T09:35:51Z</time></trkpt><trkpt lat="43.645898657273555" lon="12.335095071900016"><ele>432.75</ele><time>2026-05-01T09:35:53Z</time></trkpt><trkpt lat="43.645797088772674" lon="12.335222916160316"><ele>431.5</ele><time>2026-05-01T09:35:54Z</time></trkpt><trkpt lat="43.64573321287126" lon="12.335363683979091"><ele>430.25</ele><time>2026-05-01T09:35:55Z</time></trkpt><trkpt lat="43.64567958271188" lon="12.33554681410868"><ele>429.0</ele><time>2026-05-01T09:35:56Z</time></trkpt><trkpt lat="43.645643099472856" lon="12.335746583141427"><ele>428.66666666666663</ele><time>2026-05-01T09:35:57Z</time></trkpt><trkpt lat="43.64562363174473" lon="12.335970787955832"><ele>428.3333333333333</ele><time>2026-05-01T09:35:58Z</time></trkpt><trkpt lat="43.645623132877255" lon="12.336208586948654"><ele>428.0</ele><time>2026-05-01T09:35:59Z</time></trkpt><trkpt lat="43.645637574326685" lon="12.336445226868394"><ele>427.0</ele><time>2026-05-01T09:36:00Z</time></trkpt><trkpt lat="43.64566335846013" lon="12.33669384250632"><ele>426.0</ele><time>2026-05-01T09:36:01Z</time></trkpt><trkpt lat="43.645708502676946" lon="12.336938164070334"><ele>425.0</ele><time>2026-05-01T09:36:02Z</time></trkpt><trkpt lat="43.64578499783358" lon="12.337171393019746"><ele>425.3333333333333</ele><time>2026-05-01T09:36:03Z</time></trkpt><trkpt lat="43.64590912180096" lon="12.33737177106526"><ele>425.66666666666663</ele><time>2026-05-01T09:36:04Z</time></trkpt><trkpt lat="43.64604634673289" lon="12.33751319305358"><ele>426.0</ele><time>2026-05-01T09:36:05Z</time></trkpt><trkpt lat="43.64617280542747" lon="12.337595895598199"><ele>426.0</ele><time>2026-05-01T09:36:06Z</time></trkpt><trkpt lat="43.64628672528414" lon="12.33766303635302"><ele>426.0</ele><time>2026-05-01T09:36:07Z</time></trkpt><trkpt lat="43.64639305559191" lon="12.337737280424957"><ele>426.0</ele><time>2026-05-01T09:36:08Z</time></trkpt><trkpt lat="43.64648796010883" lon="12.337804390697174"><ele>426.0</ele><time>2026-05-01T09:36:09Z</time></trkpt><trkpt lat="43.646587829810954" lon="12.337871402836726"><ele>426.0</ele><time>2026-05-01T09:36:10Z</time></trkpt><trkpt lat="43.646698303081955" lon="12.337956448543723"><ele>426.0</ele><time>2026-05-01T09:36:11Z</time></trkpt><trkpt lat="43.64681504751876" lon="12.338056642259453"><ele>426.0</ele><time>2026-05-01T09:36:12Z</time></trkpt><trkpt lat="43.64691828719496" lon="12.338210133986307"><ele>426.0</ele><time>2026-05-01T09:36:13Z</time></trkpt><trkpt lat="43.647031501771224" lon="12.338352332341852"><ele>423.33333333333337</ele><time>2026-05-01T09:36:14Z</time></trkpt><trkpt lat="43.64713772846626" lon="12.33851180247701"><ele>420.6666666666667</ele><time>2026-05-01T09:36:15Z</time></trkpt><trkpt lat="43.647238864673795" lon="12.338686884647613"><ele>418.0</ele><time>2026-05-01T09:36:16Z</time></trkpt><trkpt lat="43.64734627680362" lon="12.338866168061415"><ele>416.6666666666667</ele><time>2026-05-01T09:36:17Z</time></trkpt><trkpt lat="43.647428945595436" lon="12.339060743284858"><ele>415.33333333333337</ele><time>2026-05-01T09:36:18Z</time></trkpt><trkpt lat="43.647500817836715" lon="12.339259446274806"><ele>414.0</ele><time>2026-05-01T09:36:19Z</time></trkpt><trkpt lat="43.647561080405765" lon="12.339466525225571"><ele>414.0</ele><time>2026-05-01T09:36:20Z</time></trkpt><trkpt lat="43.6476076041071" lon="12.339691978340877"><ele>414.0</ele><time>2026-05-01T09:36:21Z</time></trkpt><trkpt lat="43.647640794077915" lon="12.339926219867394"><ele>414.0</ele><time>2026-05-01T09:36:22Z</time></trkpt><trkpt lat="43.64766490293572" lon="12.340164225877631"><ele>412.66666666666663</ele><time>2026-05-01T09:36:23Z</time></trkpt><trkpt lat="43.64767995482369" lon="12.340395363472863"><ele>411.3333333333333</ele><time>2026-05-01T09:36:24Z</time></trkpt><trkpt lat="43.64768981119139" lon="12.340609704512067"><ele>410.0</ele><time>2026-05-01T09:36:25Z</time></trkpt><trkpt lat="43.647681278866806" lon="12.34080499670987"><ele>409.25</ele><time>2026-05-01T09:36:26Z</time></trkpt><trkpt lat="43.64770273092942" lon="12.340994788100792"><ele>408.5</ele><time>2026-05-01T09:36:27Z</time></trkpt><trkpt lat="43.64770648724347" lon="12.34119478232354"><ele>407.75</ele><time>2026-05-01T09:36:28Z</time></trkpt><trkpt lat="43.64771033788313" lon="12.341402138459618"><ele>407.0</ele><time>2026-05-01T09:36:29Z</time></trkpt><trkpt lat="43.647717500615784" lon="12.341603529636947"><ele>407.0</ele><time>2026-05-01T09:36:30Z</time></trkpt><trkpt lat="43.64772653431464" lon="12.34180210861415"><ele>407.0</ele><time>2026-05-01T09:36:31Z</time></trkpt><trkpt lat="43.64773389925799" lon="12.342004711829938"><ele>407.0</ele><time>2026-05-01T09:36:32Z</time></trkpt><trkpt lat="43.6477399532605" lon="12.342211046262115"><ele>407.0</ele><time>2026-05-01T09:36:33Z</time></trkpt><trkpt lat="43.64774525621079" lon="12.34242053989981"><ele>407.75</ele><time>2026-05-01T09:36:34Z</time></trkpt><trkpt lat="43.647754760509066" lon="12.34262992054631"><ele>408.5</ele><time>2026-05-01T09:36:35Z</time></trkpt><trkpt lat="43.647750961759215" lon="12.34283976775999"><ele>409.25</ele><time>2026-05-01T09:36:36Z</time></trkpt><trkpt lat="43.64775730888637" lon="12.343030282309899"><ele>410.0</ele><time>2026-05-01T09:36:37Z</time></trkpt><trkpt lat="43.64775767021831" lon="12.343202071330655"><ele>410.0</ele><time>2026-05-01T09:36:38Z</time></trkpt><trkpt lat="43.64774553881813" lon="12.343356098410963"><ele>410.0</ele><time>2026-05-01T09:36:39Z</time></trkpt><trkpt lat="43.64772423742161" lon="12.343504123170321"><ele>410.0</ele><time>2026-05-01T09:36:40Z</time></trkpt><trkpt lat="43.64770891314562" lon="12.343657080276634"><ele>410.0</ele><time>2026-05-01T09:36:41Z</time></trkpt><trkpt lat="43.64765874613194" lon="12.34378152180052"><ele>410.0</ele><time>2026-05-01T09:36:42Z</time></trkpt><trkpt lat="43.64763396511933" lon="12.343902011385323"><ele>410.2</ele><time>2026-05-01T09:36:43Z</time></trkpt><trkpt lat="43.64757848191837" lon="12.343981211203612"><ele>410.4</ele><time>2026-05-01T09:36:44Z</time></trkpt><trkpt lat="43.647543851897034" lon="12.34405510271143"><ele>410.6</ele><time>2026-05-01T09:36:45Z</time></trkpt><trkpt lat="43.64751028149797" lon="12.344152902822058"><ele>410.8</ele><time>2026-05-01T09:36:47Z</time></trkpt><trkpt lat="43.64768263157123" lon="12.34429194018385"><ele>411.0</ele><time>2026-05-01T09:36:48Z</time></trkpt><trkpt lat="43.6477766607273" lon="12.344340118778511"><ele>409.25</ele><time>2026-05-01T09:36:49Z</time></trkpt><trkpt lat="43.64789903851517" lon="12.344385651599909"><ele>407.5</ele><time>2026-05-01T09:36:50Z</time></trkpt><trkpt lat="43.648035210000764" lon="12.344456498388608"><ele>405.75</ele><time>2026-05-01T09:36:51Z</time></trkpt><trkpt lat="43.64818511925484" lon="12.344539638435835"><ele>404.0</ele><time>2026-05-01T09:36:52Z</time></trkpt><trkpt lat="43.648332585138036" lon="12.344643270024946"><ele>404.2</ele><time>2026-05-01T09:36:53Z</time></trkpt><trkpt lat="43.6484615867242" lon="12.344723816782949"><ele>404.4</ele><time>2026-05-01T09:36:54Z</time></trkpt><trkpt lat="43.64856304919825" lon="12.344796240489462"><ele>404.6</ele><time>2026-05-01T09:36:55Z</time></trkpt><trkpt lat="43.64864587309634" lon="12.344854556956527"><ele>404.8</ele><time>2026-05-01T09:36:56Z</time></trkpt><trkpt lat="43.64866384900522" lon="12.344983940249035"><ele>405.0</ele><time>2026-05-01T09:36:57Z</time></trkpt><trkpt lat="43.64867154384853" lon="12.345109748947014"><ele>405.0</ele><time>2026-05-01T09:36:58Z</time></trkpt><trkpt lat="43.64863000919053" lon="12.345247176581887"><ele>405.0</ele><time>2026-05-01T09:36:59Z</time></trkpt><trkpt lat="43.64859745895976" lon="12.34543006503123"><ele>405.0</ele><time>2026-05-01T09:37:00Z</time></trkpt><trkpt lat="43.64859505954835" lon="12.345638120115664"><ele>405.0</ele><time>2026-05-01T09:37:01Z</time></trkpt><trkpt lat="43.648590123130234" lon="12.345818449158488"><ele>405.6</ele><time>2026-05-01T09:37:02Z</time></trkpt><trkpt lat="43.648585487247004" lon="12.345955613683572"><ele>406.2</ele><time>2026-05-01T09:37:03Z</time></trkpt><trkpt lat="43.648596110054925" lon="12.346053001015575"><ele>406.79999999999995</ele><time>2026-05-01T09:37:04Z</time></trkpt><trkpt lat="43.648655488394496" lon="12.346106477917402"><ele>407.4</ele><time>2026-05-01T09:37:06Z</time></trkpt><trkpt lat="43.648735640348455" lon="12.346319350146624"><ele>408.0</ele><time>2026-05-01T09:37:13Z</time></trkpt><trkpt lat="43.64876622291713" lon="12.346521531366033"><ele>410.6666666666667</ele><time>2026-05-01T09:37:14Z</time></trkpt><trkpt lat="43.64879855368551" lon="12.346668981972316"><ele>413.33333333333337</ele><time>2026-05-01T09:37:15Z</time></trkpt><trkpt lat="43.64882896364728" lon="12.346776994090703"><ele>416.0</ele><time>2026-05-01T09:37:16Z</time></trkpt><trkpt lat="43.64885683180744" lon="12.3468722891046"><ele>418.6666666666667</ele><time>2026-05-01T09:37:17Z</time></trkpt><trkpt lat="43.64891891194458" lon="12.346916894231295"><ele>421.33333333333337</ele><time>2026-05-01T09:37:18Z</time></trkpt><trkpt lat="43.64898903899258" lon="12.346950399671348"><ele>424.0</ele><time>2026-05-01T09:37:19Z</time></trkpt><trkpt lat="43.64906765471803" lon="12.346934189863594"><ele>424.0</ele><time>2026-05-01T09:37:20Z</time></trkpt><trkpt lat="43.6491364523894" lon="12.346896930803869"><ele>424.0</ele><time>2026-05-01T09:37:21Z</time></trkpt><trkpt lat="43.64916359917776" lon="12.346755159825708"><ele>424.0</ele><time>2026-05-01T09:37:22Z</time></trkpt><trkpt lat="43.64917752193373" lon="12.346626233257673"><ele>424.0</ele><time>2026-05-01T09:37:23Z</time></trkpt><trkpt lat="43.649175550515984" lon="12.346512545075337"><ele>424.0</ele><time>2026-05-01T09:37:24Z</time></trkpt><trkpt lat="43.649190920098825" lon="12.346373619622245"><ele>423.4</ele><time>2026-05-01T09:37:26Z</time></trkpt><trkpt lat="43.649238503266126" lon="12.346307023273141"><ele>422.79999999999995</ele><time>2026-05-01T09:37:27Z</time></trkpt><trkpt lat="43.64927655219305" lon="12.34620477059858"><ele>422.20000000000005</ele><time>2026-05-01T09:37:28Z</time></trkpt><trkpt lat="43.649360517250926" lon="12.346118069041982"><ele>421.6</ele><time>2026-05-01T09:37:29Z</time></trkpt><trkpt lat="43.64944757126987" lon="12.346008424407577"><ele>421.0</ele><time>2026-05-01T09:37:30Z</time></trkpt><trkpt lat="43.64950896884352" lon="12.345914731194268"><ele>421.00000000000006</ele><time>2026-05-01T09:37:31Z</time></trkpt><trkpt lat="43.64956084102711" lon="12.345862821419397"><ele>421.0</ele><time>2026-05-01T09:37:32Z</time></trkpt><trkpt lat="43.649625355462845" lon="12.345800104083013"><ele>421.0</ele><time>2026-05-01T09:37:34Z</time></trkpt><trkpt lat="43.64966912040661" lon="12.345733166876572"><ele>421.0</ele><time>2026-05-01T09:37:38Z</time></trkpt><trkpt lat="43.649587141308096" lon="12.345803888913043"><ele>421.00000000000006</ele><time>2026-05-01T09:37:44Z</time></trkpt><trkpt lat="43.649614989040415" lon="12.345906420083532"><ele>421.0</ele><time>2026-05-01T09:37:45Z</time></trkpt><trkpt lat="43.649385389786914" lon="12.346057201416412"><ele>421.0</ele><time>2026-05-01T09:37:46Z</time></trkpt><trkpt lat="43.64930405485456" lon="12.346162751465942"><ele>421.0</ele><time>2026-05-01T09:37:47Z</time></trkpt><trkpt lat="43.649229807285955" lon="12.346265580346797"><ele>421.0</ele><time>2026-05-01T09:37:48Z</time></trkpt><trkpt lat="43.64917298328217" lon="12.346372314604464"><ele>421.0</ele><time>2026-05-01T09:37:49Z</time></trkpt><trkpt lat="43.649143231954724" lon="12.346493268369302"><ele>421.0</ele><time>2026-05-01T09:37:50Z</time></trkpt><trkpt lat="43.64914086244094" lon="12.346638577513097"><ele>421.50000000000006</ele><time>2026-05-01T09:37:51Z</time></trkpt><trkpt lat="43.649138805081" lon="12.346783212816366"><ele>422.0</ele><time>2026-05-01T09:37:52Z</time></trkpt><trkpt lat="43.649104993832886" lon="12.346888036150807"><ele>422.5</ele><time>2026-05-01T09:37:53Z</time></trkpt><trkpt lat="43.649043470681264" lon="12.346947574090027"><ele>423.0</ele><time>2026-05-01T09:37:54Z</time></trkpt><trkpt lat="43.64896233684645" lon="12.346958282221333"><ele>423.50000000000006</ele><time>2026-05-01T09:37:55Z</time></trkpt><trkpt lat="43.648886759164576" lon="12.34690708418808"><ele>424.0</ele><time>2026-05-01T09:37:56Z</time></trkpt><trkpt lat="43.64883198956178" lon="12.346820342020123"><ele>424.0</ele><time>2026-05-01T09:37:57Z</time></trkpt><trkpt lat="43.648790623874085" lon="12.346686101187553"><ele>424.0</ele><time>2026-05-01T09:37:58Z</time></trkpt><trkpt lat="43.64875681376334" lon="12.346534797422379"><ele>424.0</ele><time>2026-05-01T09:37:59Z</time></trkpt><trkpt lat="43.648735443424016" lon="12.346374591132292"><ele>424.0</ele><time>2026-05-01T09:38:00Z</time></trkpt><trkpt lat="43.648716269795045" lon="12.346248193952206"><ele>424.0</ele><time>2026-05-01T09:38:01Z</time></trkpt><trkpt lat="43.64869598807913" lon="12.346163917648658"><ele>424.0</ele><time>2026-05-01T09:38:02Z</time></trkpt><trkpt lat="43.648624269963754" lon="12.346178705100304"><ele>424.0</ele><time>2026-05-01T09:38:06Z</time></trkpt><trkpt lat="43.648637022394176" lon="12.346358662229528"><ele>424.0</ele><time>2026-05-01T09:38:08Z</time></trkpt><trkpt lat="43.64867301492183" lon="12.346504370946633"><ele>424.0</ele><time>2026-05-01T09:38:09Z</time></trkpt><trkpt lat="43.64869438656435" lon="12.346651250844706"><ele>424.0</ele><time>2026-05-01T09:38:10Z</time></trkpt><trkpt lat="43.648717321744705" lon="12.346825343791137"><ele>424.0</ele><time>2026-05-01T09:38:11Z</time></trkpt><trkpt lat="43.648739542881444" lon="12.347016944637273"><ele>424.0</ele><time>2026-05-01T09:38:12Z</time></trkpt><trkpt lat="43.64876117878714" lon="12.347224989527968"><ele>424.0</ele><time>2026-05-01T09:38:13Z</time></trkpt><trkpt lat="43.64877163825753" lon="12.347448694693862"><ele>422.0</ele><time>2026-05-01T09:38:14Z</time></trkpt><trkpt lat="43.6487842756018" lon="12.347676294903994"><ele>420.0</ele><time>2026-05-01T09:38:15Z</time></trkpt><trkpt lat="43.648816955281355" lon="12.347897510516699"><ele>418.0</ele><time>2026-05-01T09:38:16Z</time></trkpt><trkpt lat="43.64887563399531" lon="12.348136707543187"><ele>416.33333333333337</ele><time>2026-05-01T09:38:17Z</time></trkpt><trkpt lat="43.648950165602976" lon="12.348392279054458"><ele>414.66666666666663</ele><time>2026-05-01T09:38:18Z</time></trkpt><trkpt lat="43.64902787784056" lon="12.348655484352637"><ele>413.0</ele><time>2026-05-01T09:38:19Z</time></trkpt><trkpt lat="43.64910001336426" lon="12.348913211494942"><ele>411.3333333333333</ele><time>2026-05-01T09:38:20Z</time></trkpt><trkpt lat="43.64916844425676" lon="12.349152098402637"><ele>409.66666666666663</ele><time>2026-05-01T09:38:21Z</time></trkpt><trkpt lat="43.64923128777226" lon="12.349360526382915"><ele>408.0</ele><time>2026-05-01T09:38:22Z</time></trkpt><trkpt lat="43.64928677618058" lon="12.349534240261127"><ele>408.0</ele><time>2026-05-01T09:38:23Z</time></trkpt><trkpt lat="43.64934265217421" lon="12.34966473260782"><ele>408.0</ele><time>2026-05-01T09:38:24Z</time></trkpt><trkpt lat="43.64940212762667" lon="12.349762410231957"><ele>408.0</ele><time>2026-05-01T09:38:25Z</time></trkpt><trkpt lat="43.6494776531327" lon="12.349834173622364"><ele>408.0</ele><time>2026-05-01T09:38:26Z</time></trkpt><trkpt lat="43.64958944698294" lon="12.349889708569728"><ele>408.0</ele><time>2026-05-01T09:38:27Z</time></trkpt><trkpt lat="43.64971738974298" lon="12.349935534756586"><ele>411.0</ele><time>2026-05-01T09:38:28Z</time></trkpt><trkpt lat="43.6498394638965" lon="12.35000553919775"><ele>414.0</ele><time>2026-05-01T09:38:29Z</time></trkpt><trkpt lat="43.649942047415514" lon="12.35012497626797"><ele>417.0</ele><time>2026-05-01T09:38:30Z</time></trkpt><trkpt lat="43.65003523650325" lon="12.350261421421097"><ele>420.0</ele><time>2026-05-01T09:38:31Z</time></trkpt><trkpt lat="43.65011915006478" lon="12.350417302595408"><ele>417.0</ele><time>2026-05-01T09:38:32Z</time></trkpt><trkpt lat="43.65020009522397" lon="12.350598366538405"><ele>414.0</ele><time>2026-05-01T09:38:33Z</time></trkpt><trkpt lat="43.6502994695707" lon="12.35078971578602"><ele>411.0</ele><time>2026-05-01T09:38:34Z</time></trkpt><trkpt lat="43.65037801821692" lon="12.35099756961585"><ele>420.0</ele><time>2026-05-01T09:38:35Z</time></trkpt><trkpt lat="43.650435091263326" lon="12.351213206129803"><ele>429.0</ele><time>2026-05-01T09:38:36Z</time></trkpt><trkpt lat="43.65049978158012" lon="12.35142384290611"><ele>438.0</ele><time>2026-05-01T09:38:37Z</time></trkpt><trkpt lat="43.6505420506611" lon="12.351656984879858"><ele>438.33333333333337</ele><time>2026-05-01T09:38:38Z</time></trkpt><trkpt lat="43.65057575902943" lon="12.351902596456167"><ele>438.6666666666667</ele><time>2026-05-01T09:38:39Z</time></trkpt><trkpt lat="43.65062771048446" lon="12.352162083425071"><ele>439.0</ele><time>2026-05-01T09:38:40Z</time></trkpt><trkpt lat="43.65065004462132" lon="12.352428768373194"><ele>437.33333333333337</ele><time>2026-05-01T09:38:41Z</time></trkpt><trkpt lat="43.65068796917241" lon="12.352689568633608"><ele>435.66666666666663</ele><time>2026-05-01T09:38:42Z</time></trkpt><trkpt lat="43.6507330217436" lon="12.35294435238089"><ele>434.0</ele><time>2026-05-01T09:38:43Z</time></trkpt><trkpt lat="43.650786305778624" lon="12.353195080294087"><ele>434.0</ele><time>2026-05-01T09:38:44Z</time></trkpt><trkpt lat="43.65078697184137" lon="12.35345807030566"><ele>434.0</ele><time>2026-05-01T09:38:45Z</time></trkpt><trkpt lat="43.65080633850236" lon="12.35372128675099"><ele>434.0</ele><time>2026-05-01T09:38:46Z</time></trkpt><trkpt lat="43.65083812550997" lon="12.353949474528902"><ele>433.75</ele><time>2026-05-01T09:38:47Z</time></trkpt><trkpt lat="43.65085014426014" lon="12.354161371190301"><ele>433.5</ele><time>2026-05-01T09:38:48Z</time></trkpt><trkpt lat="43.65085814050045" lon="12.354346107859058"><ele>433.25</ele><time>2026-05-01T09:38:49Z</time></trkpt><trkpt lat="43.650867348256945" lon="12.354513845565236"><ele>433.0</ele><time>2026-05-01T09:38:50Z</time></trkpt><trkpt lat="43.65089288881625" lon="12.354666692634966"><ele>430.5</ele><time>2026-05-01T09:38:51Z</time></trkpt><trkpt lat="43.6509466036212" lon="12.354816823550632"><ele>428.0</ele><time>2026-05-01T09:38:52Z</time></trkpt><trkpt lat="43.651024365986146" lon="12.354933674544203"><ele>425.5</ele><time>2026-05-01T09:38:53Z</time></trkpt><trkpt lat="43.65112713561425" lon="12.355008130094882"><ele>423.0</ele><time>2026-05-01T09:38:54Z</time></trkpt><trkpt lat="43.6512554657916" lon="12.355057942484208"><ele>431.33333333333337</ele><time>2026-05-01T09:38:55Z</time></trkpt><trkpt lat="43.651405419491375" lon="12.355101690040513"><ele>439.6666666666667</ele><time>2026-05-01T09:38:56Z</time></trkpt><trkpt lat="43.65156750952447" lon="12.355169386457366"><ele>448.0</ele><time>2026-05-01T09:38:57Z</time></trkpt><trkpt lat="43.65173179198423" lon="12.35530009087337"><ele>448.0</ele><time>2026-05-01T09:38:58Z</time></trkpt><trkpt lat="43.651913302340624" lon="12.355433096765134"><ele>448.0</ele><time>2026-05-01T09:38:59Z</time></trkpt><trkpt lat="43.652113793700316" lon="12.355554216785029"><ele>448.0</ele><time>2026-05-01T09:39:00Z</time></trkpt><trkpt lat="43.65232693140099" lon="12.355678514296258"><ele>447.33333333333337</ele><time>2026-05-01T09:39:01Z</time></trkpt><trkpt lat="43.652540443049396" lon="12.355786302029125"><ele>446.66666666666663</ele><time>2026-05-01T09:39:02Z</time></trkpt><trkpt lat="43.6527227015925" lon="12.355852695748942"><ele>446.0</ele><time>2026-05-01T09:39:03Z</time></trkpt><trkpt lat="43.65285435923126" lon="12.355898190021525"><ele>446.0</ele><time>2026-05-01T09:39:04Z</time></trkpt><trkpt lat="43.652963859847596" lon="12.355906794029076"><ele>446.0</ele><time>2026-05-01T09:39:05Z</time></trkpt><trkpt lat="43.65306025905754" lon="12.355873026164645"><ele>446.0</ele><time>2026-05-01T09:39:06Z</time></trkpt><trkpt lat="43.65313781648039" lon="12.355803295270015"><ele>446.0</ele><time>2026-05-01T09:39:07Z</time></trkpt><trkpt lat="43.65319448994295" lon="12.355724774912453"><ele>446.0</ele><time>2026-05-01T09:39:08Z</time></trkpt><trkpt lat="43.6532701162356" lon="12.35561151355147"><ele>450.5</ele><time>2026-05-01T09:39:09Z</time></trkpt><trkpt lat="43.65335132018815" lon="12.35547740023816"><ele>455.0</ele><time>2026-05-01T09:39:10Z</time></trkpt><trkpt lat="43.6534567324122" lon="12.355343474235939"><ele>459.5</ele><time>2026-05-01T09:39:11Z</time></trkpt><trkpt lat="43.653564036033245" lon="12.355175576763815"><ele>464.0</ele><time>2026-05-01T09:39:12Z</time></trkpt><trkpt lat="43.6536726546647" lon="12.354998389942455"><ele>464.0</ele><time>2026-05-01T09:39:13Z</time></trkpt><trkpt lat="43.65378150877258" lon="12.354807984014318"><ele>464.0</ele><time>2026-05-01T09:39:14Z</time></trkpt><trkpt lat="43.65388430969879" lon="12.354644712671725"><ele>464.0</ele><time>2026-05-01T09:39:15Z</time></trkpt><trkpt lat="43.65399146858734" lon="12.35446950807402"><ele>470.0</ele><time>2026-05-01T09:39:16Z</time></trkpt><trkpt lat="43.65409541168723" lon="12.35428423404533"><ele>476.0</ele><time>2026-05-01T09:39:17Z</time></trkpt><trkpt lat="43.65418805704171" lon="12.354055832127818"><ele>482.0</ele><time>2026-05-01T09:39:18Z</time></trkpt><trkpt lat="43.6542641229478" lon="12.353863419347741"><ele>483.6</ele><time>2026-05-01T09:39:19Z</time></trkpt><trkpt lat="43.654318128757154" lon="12.353728846092135"><ele>485.20000000000005</ele><time>2026-05-01T09:39:20Z</time></trkpt><trkpt lat="43.65439246299505" lon="12.353641299173956"><ele>486.8</ele><time>2026-05-01T09:39:21Z</time></trkpt><trkpt lat="43.65446484036409" lon="12.353562015498431"><ele>488.4</ele><time>2026-05-01T09:39:22Z</time></trkpt><trkpt lat="43.65455810661816" lon="12.353502141482382"><ele>490.0</ele><time>2026-05-01T09:39:23Z</time></trkpt><trkpt lat="43.65466457403551" lon="12.353465320812557"><ele>490.0</ele><time>2026-05-01T09:39:24Z</time></trkpt><trkpt lat="43.65477584141557" lon="12.353476737582602"><ele>490.0</ele><time>2026-05-01T09:39:25Z</time></trkpt><trkpt lat="43.65489268133783" lon="12.35350985609301"><ele>490.0</ele><time>2026-05-01T09:39:26Z</time></trkpt><trkpt lat="43.65499538866706" lon="12.35356379015699"><ele>490.0</ele><time>2026-05-01T09:39:27Z</time></trkpt><trkpt lat="43.65506847777709" lon="12.353626948342457"><ele>490.0</ele><time>2026-05-01T09:39:28Z</time></trkpt><trkpt lat="43.6551289153409" lon="12.353703710930489"><ele>490.0</ele><time>2026-05-01T09:39:29Z</time></trkpt><trkpt lat="43.65517677226836" lon="12.353802089166157"><ele>490.0</ele><time>2026-05-01T09:39:30Z</time></trkpt><trkpt lat="43.65523678523326" lon="12.35391939543171"><ele>490.0</ele><time>2026-05-01T09:39:31Z</time></trkpt><trkpt lat="43.65530415967791" lon="12.354030015732448"><ele>490.0</ele><time>2026-05-01T09:39:32Z</time></trkpt><trkpt lat="43.65535972151737" lon="12.354130318879974"><ele>490.0</ele><time>2026-05-01T09:39:33Z</time></trkpt><trkpt lat="43.65540758302845" lon="12.354194440487072"><ele>489.8</ele><time>2026-05-01T09:39:34Z</time></trkpt><trkpt lat="43.655500299031786" lon="12.354270352165772"><ele>489.6</ele><time>2026-05-01T09:39:36Z</time></trkpt><trkpt lat="43.655582701528225" lon="12.354206891194968"><ele>489.4</ele><time>2026-05-01T09:39:38Z</time></trkpt><trkpt lat="43.6556761346003" lon="12.354117440048348"><ele>489.2</ele><time>2026-05-01T09:39:40Z</time></trkpt><trkpt lat="43.655719776913756" lon="12.354009960546223"><ele>489.0</ele><time>2026-05-01T09:39:41Z</time></trkpt><trkpt lat="43.65578166214906" lon="12.353915115571231"><ele>491.79999999999995</ele><time>2026-05-01T09:39:42Z</time></trkpt><trkpt lat="43.65583484737126" lon="12.353845462433512"><ele>494.59999999999997</ele><time>2026-05-01T09:39:43Z</time></trkpt><trkpt lat="43.655932379286796" lon="12.353748762145644"><ele>497.4</ele><time>2026-05-01T09:39:45Z</time></trkpt><trkpt lat="43.65603944589891" lon="12.353725915689498"><ele>500.2</ele><time>2026-05-01T09:39:47Z</time></trkpt><trkpt lat="43.656163425165325" lon="12.353720033866022"><ele>503.0</ele><time>2026-05-01T09:39:49Z</time></trkpt><trkpt lat="43.65622006282893" lon="12.353780536679977"><ele>503.4</ele><time>2026-05-01T09:39:50Z</time></trkpt><trkpt lat="43.65628161141227" lon="12.353853262388256"><ele>503.79999999999995</ele><time>2026-05-01T09:39:51Z</time></trkpt><trkpt lat="43.65634889377971" lon="12.353941429124323"><ele>504.2</ele><time>2026-05-01T09:39:52Z</time></trkpt><trkpt lat="43.65641487228492" lon="12.354039773549136"><ele>504.6</ele><time>2026-05-01T09:39:53Z</time></trkpt><trkpt lat="43.65647526758076" lon="12.354153940299081"><ele>505.0</ele><time>2026-05-01T09:39:54Z</time></trkpt><trkpt lat="43.65654920603037" lon="12.354264546935681"><ele>504.00000000000006</ele><time>2026-05-01T09:39:55Z</time></trkpt><trkpt lat="43.65659454119836" lon="12.354393335080472"><ele>503.0</ele><time>2026-05-01T09:39:56Z</time></trkpt><trkpt lat="43.65661890680162" lon="12.354527555711746"><ele>502.0</ele><time>2026-05-01T09:39:57Z</time></trkpt><trkpt lat="43.6566366987519" lon="12.35464400498543"><ele>501.0</ele><time>2026-05-01T09:39:58Z</time></trkpt><trkpt lat="43.6566568046421" lon="12.354733387552391"><ele>500.00000000000006</ele><time>2026-05-01T09:39:59Z</time></trkpt><trkpt lat="43.65670591441637" lon="12.354813754832158"><ele>499.0</ele><time>2026-05-01T09:40:00Z</time></trkpt><trkpt lat="43.65676765069836" lon="12.35488387436928"><ele>499.4</ele><time>2026-05-01T09:40:01Z</time></trkpt><trkpt lat="43.65683699869736" lon="12.35493872794736"><ele>499.79999999999995</ele><time>2026-05-01T09:40:02Z</time></trkpt><trkpt lat="43.656911843436305" lon="12.354995140673642"><ele>500.20000000000005</ele><time>2026-05-01T09:40:03Z</time></trkpt><trkpt lat="43.65700339246378" lon="12.355043656228053"><ele>500.6</ele><time>2026-05-01T09:40:04Z</time></trkpt><trkpt lat="43.65711374545139" lon="12.35507144663759"><ele>501.0</ele><time>2026-05-01T09:40:05Z</time></trkpt><trkpt lat="43.65723716850771" lon="12.355079524630769"><ele>501.0</ele><time>2026-05-01T09:40:06Z</time></trkpt><trkpt lat="43.657367727412385" lon="12.355093316655847"><ele>501.0</ele><time>2026-05-01T09:40:07Z</time></trkpt><trkpt lat="43.657487189949684" lon="12.35511453602378"><ele>501.0</ele><time>2026-05-01T09:40:08Z</time></trkpt><trkpt lat="43.657580813925925" lon="12.355107328159688"><ele>501.0</ele><time>2026-05-01T09:40:09Z</time></trkpt><trkpt lat="43.65766664486833" lon="12.355080887405423"><ele>501.0</ele><time>2026-05-01T09:40:10Z</time></trkpt><trkpt lat="43.6577638888734" lon="12.355025236327991"><ele>501.6</ele><time>2026-05-01T09:40:11Z</time></trkpt><trkpt lat="43.65787592119246" lon="12.354976272016726"><ele>502.20000000000005</ele><time>2026-05-01T09:40:12Z</time></trkpt><trkpt lat="43.65798316297619" lon="12.354875142502225"><ele>502.79999999999995</ele><time>2026-05-01T09:40:13Z</time></trkpt><trkpt lat="43.65808024596529" lon="12.354804926899192"><ele>503.4</ele><time>2026-05-01T09:40:14Z</time></trkpt><trkpt lat="43.65816942817904" lon="12.354772360052012"><ele>504.0</ele><time>2026-05-01T09:40:15Z</time></trkpt><trkpt lat="43.658271160770745" lon="12.354762924393638"><ele>504.0</ele><time>2026-05-01T09:40:16Z</time></trkpt><trkpt lat="43.65838790761082" lon="12.354746941508528"><ele>504.0</ele><time>2026-05-01T09:40:17Z</time></trkpt><trkpt lat="43.65852771770555" lon="12.3547221789055"><ele>504.0</ele><time>2026-05-01T09:40:18Z</time></trkpt><trkpt lat="43.658661736603314" lon="12.354706639289722"><ele>504.0</ele><time>2026-05-01T09:40:19Z</time></trkpt><trkpt lat="43.658800155257595" lon="12.354716764906122"><ele>504.25</ele><time>2026-05-01T09:40:20Z</time></trkpt><trkpt lat="43.658945250143404" lon="12.354711472772694"><ele>504.5</ele><time>2026-05-01T09:40:21Z</time></trkpt><trkpt lat="43.659075907897225" lon="12.354726419643477"><ele>504.75</ele><time>2026-05-01T09:40:22Z</time></trkpt><trkpt lat="43.65920467898118" lon="12.354709755780029"><ele>505.0</ele><time>2026-05-01T09:40:23Z</time></trkpt><trkpt lat="43.65930128955678" lon="12.354684664099368"><ele>507.50000000000006</ele><time>2026-05-01T09:40:24Z</time></trkpt><trkpt lat="43.65937542684564" lon="12.354653211213463"><ele>510.0</ele><time>2026-05-01T09:40:25Z</time></trkpt><trkpt lat="43.65942890727977" lon="12.35458259339312"><ele>512.5</ele><time>2026-05-01T09:40:26Z</time></trkpt><trkpt lat="43.659486703405456" lon="12.354478600993492"><ele>515.0</ele><time>2026-05-01T09:40:27Z</time></trkpt><trkpt lat="43.659565278042045" lon="12.354388235698563"><ele>517.5</ele><time>2026-05-01T09:40:28Z</time></trkpt><trkpt lat="43.65964758524302" lon="12.354308957215002"><ele>520.0</ele><time>2026-05-01T09:40:29Z</time></trkpt><trkpt lat="43.65974182491363" lon="12.35425863289771"><ele>520.0</ele><time>2026-05-01T09:40:30Z</time></trkpt><trkpt lat="43.65983647653535" lon="12.354224528500747"><ele>520.0</ele><time>2026-05-01T09:40:31Z</time></trkpt><trkpt lat="43.65992871897057" lon="12.354163783204479"><ele>520.0</ele><time>2026-05-01T09:40:32Z</time></trkpt><trkpt lat="43.66001326443831" lon="12.354077148620437"><ele>520.0</ele><time>2026-05-01T09:40:33Z</time></trkpt><trkpt lat="43.660098256628274" lon="12.353957793197214"><ele>520.0</ele><time>2026-05-01T09:40:34Z</time></trkpt><trkpt lat="43.66020915910887" lon="12.353878464851055"><ele>521.25</ele><time>2026-05-01T09:40:35Z</time></trkpt><trkpt lat="43.6602984024812" lon="12.353787991974386"><ele>522.5</ele><time>2026-05-01T09:40:36Z</time></trkpt><trkpt lat="43.66038692031083" lon="12.353723580104514"><ele>523.75</ele><time>2026-05-01T09:40:37Z</time></trkpt><trkpt lat="43.66044719467286" lon="12.353592088573434"><ele>525.0</ele><time>2026-05-01T09:40:38Z</time></trkpt><trkpt lat="43.66053013245653" lon="12.353459604771402"><ele>525.0</ele><time>2026-05-01T09:40:39Z</time></trkpt><trkpt lat="43.660608664591194" lon="12.353327991317514"><ele>525.0</ele><time>2026-05-01T09:40:40Z</time></trkpt><trkpt lat="43.66069757008595" lon="12.353238670822158"><ele>525.0</ele><time>2026-05-01T09:40:41Z</time></trkpt><trkpt lat="43.66080508143523" lon="12.353147031905019"><ele>525.0</ele><time>2026-05-01T09:40:42Z</time></trkpt><trkpt lat="43.66092678326527" lon="12.35307604587751"><ele>523.75</ele><time>2026-05-01T09:40:43Z</time></trkpt><trkpt lat="43.661079712537685" lon="12.353005920992214"><ele>522.5</ele><time>2026-05-01T09:40:44Z</time></trkpt><trkpt lat="43.661228552538596" lon="12.352942739931803"><ele>521.25</ele><time>2026-05-01T09:40:45Z</time></trkpt><trkpt lat="43.66135145140504" lon="12.3528892954605"><ele>520.0</ele><time>2026-05-01T09:40:46Z</time></trkpt><trkpt lat="43.661438886042674" lon="12.352830532188593"><ele>520.0</ele><time>2026-05-01T09:40:47Z</time></trkpt><trkpt lat="43.66149745591035" lon="12.352777296890345"><ele>520.0</ele><time>2026-05-01T09:40:48Z</time></trkpt><trkpt lat="43.66154822496559" lon="12.352627513741636"><ele>520.0</ele><time>2026-05-01T09:40:50Z</time></trkpt><trkpt lat="43.66156522033989" lon="12.352519499596937"><ele>520.0</ele><time>2026-05-01T09:40:51Z</time></trkpt><trkpt lat="43.66154166090272" lon="12.352416898156974"><ele>520.0</ele><time>2026-05-01T09:40:52Z</time></trkpt><trkpt lat="43.66147863255514" lon="12.35233178833338"><ele>520.0</ele><time>2026-05-01T09:40:53Z</time></trkpt><trkpt lat="43.661418842831424" lon="12.352243211167718"><ele>521.6</ele><time>2026-05-01T09:40:54Z</time></trkpt><trkpt lat="43.66138053565855" lon="12.352158346222666"><ele>523.2</ele><time>2026-05-01T09:40:55Z</time></trkpt><trkpt lat="43.661401141922475" lon="12.352003813596824"><ele>524.8</ele><time>2026-05-01T09:40:57Z</time></trkpt><trkpt lat="43.66143364415072" lon="12.35189375499809"><ele>526.4</ele><time>2026-05-01T09:40:58Z</time></trkpt><trkpt lat="43.66145361591202" lon="12.35176671473341"><ele>528.0</ele><time>2026-05-01T09:40:59Z</time></trkpt><trkpt lat="43.66145737344335" lon="12.351626974307484"><ele>528.0</ele><time>2026-05-01T09:41:00Z</time></trkpt><trkpt lat="43.66142523509718" lon="12.351493639027748"><ele>528.0</ele><time>2026-05-01T09:41:01Z</time></trkpt><trkpt lat="43.66142313407103" lon="12.351386701149174"><ele>528.0</ele><time>2026-05-01T09:41:02Z</time></trkpt><trkpt lat="43.66140581615539" lon="12.351297406575899"><ele>528.0</ele><time>2026-05-01T09:41:03Z</time></trkpt><trkpt lat="43.66145037070974" lon="12.351231199548373"><ele>528.0</ele><time>2026-05-01T09:41:04Z</time></trkpt><trkpt lat="43.66148121953621" lon="12.351150866019513"><ele>528.0</ele><time>2026-05-01T09:41:05Z</time></trkpt><trkpt lat="43.66156740177953" lon="12.35114956267555"><ele>531.6</ele><time>2026-05-01T09:41:06Z</time></trkpt><trkpt lat="43.661659223788995" lon="12.351133842803176"><ele>535.1999999999999</ele><time>2026-05-01T09:41:07Z</time></trkpt><trkpt lat="43.66175255628275" lon="12.351130630024663"><ele>538.8</ele><time>2026-05-01T09:41:08Z</time></trkpt><trkpt lat="43.66185618815054" lon="12.35113686384894"><ele>542.4</ele><time>2026-05-01T09:41:09Z</time></trkpt><trkpt lat="43.66194374777992" lon="12.35116654887968"><ele>546.0</ele><time>2026-05-01T09:41:10Z</time></trkpt><trkpt lat="43.662025875849594" lon="12.351211554125367"><ele>547.8</ele><time>2026-05-01T09:41:11Z</time></trkpt><trkpt lat="43.66210650636531" lon="12.351272871582106"><ele>549.6</ele><time>2026-05-01T09:41:12Z</time></trkpt><trkpt lat="43.66219933163062" lon="12.351358334107262"><ele>551.4</ele><time>2026-05-01T09:41:13Z</time></trkpt><trkpt lat="43.66227783797732" lon="12.35146124709409"><ele>553.2</ele><time>2026-05-01T09:41:14Z</time></trkpt><trkpt lat="43.6623443950407" lon="12.351580022968164"><ele>555.0</ele><time>2026-05-01T09:41:15Z</time></trkpt><trkpt lat="43.662419682794216" lon="12.351669575943268"><ele>552.0</ele><time>2026-05-01T09:41:16Z</time></trkpt><trkpt lat="43.66251545911451" lon="12.351754565757437"><ele>549.0</ele><time>2026-05-01T09:41:17Z</time></trkpt><trkpt lat="43.662637642950486" lon="12.351822974047185"><ele>546.0</ele><time>2026-05-01T09:41:18Z</time></trkpt><trkpt lat="43.66274787104972" lon="12.351873576046106"><ele>543.0</ele><time>2026-05-01T09:41:19Z</time></trkpt><trkpt lat="43.662863032490755" lon="12.351895900168191"><ele>543.0</ele><time>2026-05-01T09:41:20Z</time></trkpt><trkpt lat="43.66296084563803" lon="12.351923290127823"><ele>543.0</ele><time>2026-05-01T09:41:21Z</time></trkpt><trkpt lat="43.663068997686814" lon="12.351935545087589"><ele>543.0</ele><time>2026-05-01T09:41:22Z</time></trkpt><trkpt lat="43.66318944337202" lon="12.351927419621141"><ele>543.0</ele><time>2026-05-01T09:41:23Z</time></trkpt><trkpt lat="43.66331887167623" lon="12.351920798258622"><ele>543.0</ele><time>2026-05-01T09:41:24Z</time></trkpt><trkpt lat="43.66344730650162" lon="12.351930923958161"><ele>543.0</ele><time>2026-05-01T09:41:25Z</time></trkpt><trkpt lat="43.66356678220331" lon="12.351946749939803"><ele>543.0</ele><time>2026-05-01T09:41:26Z</time></trkpt><trkpt lat="43.66367941595696" lon="12.351968031193307"><ele>543.0</ele><time>2026-05-01T09:41:27Z</time></trkpt><trkpt lat="43.66380634046697" lon="12.351927901969542"><ele>539.5</ele><time>2026-05-01T09:41:28Z</time></trkpt><trkpt lat="43.66392277433487" lon="12.351882088822778"><ele>536.0</ele><time>2026-05-01T09:41:29Z</time></trkpt><trkpt lat="43.66403540908912" lon="12.351849057251528"><ele>532.5</ele><time>2026-05-01T09:41:30Z</time></trkpt><trkpt lat="43.664141335888495" lon="12.351840523542233"><ele>529.0</ele><time>2026-05-01T09:41:31Z</time></trkpt><trkpt lat="43.66425698536806" lon="12.351860322945862"><ele>529.0</ele><time>2026-05-01T09:41:32Z</time></trkpt><trkpt lat="43.664386605425904" lon="12.35191532830132"><ele>529.0</ele><time>2026-05-01T09:41:33Z</time></trkpt><trkpt lat="43.664511931112884" lon="12.351934399265385"><ele>529.0</ele><time>2026-05-01T09:41:34Z</time></trkpt><trkpt lat="43.664615931901636" lon="12.351958625213383"><ele>529.0</ele><time>2026-05-01T09:41:35Z</time></trkpt><trkpt lat="43.66470950490834" lon="12.351947333645818"><ele>525.0</ele><time>2026-05-01T09:41:36Z</time></trkpt><trkpt lat="43.66481984408974" lon="12.3519176754739"><ele>521.0</ele><time>2026-05-01T09:41:37Z</time></trkpt><trkpt lat="43.664948415920094" lon="12.351868369897351"><ele>517.0</ele><time>2026-05-01T09:41:38Z</time></trkpt><trkpt lat="43.66507672091993" lon="12.351803429368195"><ele>513.0</ele><time>2026-05-01T09:41:39Z</time></trkpt><trkpt lat="43.6651925616392" lon="12.351785071765422"><ele>512.1666666666666</ele><time>2026-05-01T09:41:40Z</time></trkpt><trkpt lat="43.66528642395143" lon="12.351751429338702"><ele>511.33333333333337</ele><time>2026-05-01T09:41:41Z</time></trkpt><trkpt lat="43.665361606053054" lon="12.351732898138318"><ele>510.5</ele><time>2026-05-01T09:41:42Z</time></trkpt><trkpt lat="43.665436132057245" lon="12.35174340658768"><ele>509.6666666666667</ele><time>2026-05-01T09:41:43Z</time></trkpt><trkpt lat="43.66551668730434" lon="12.35178183363863"><ele>508.83333333333337</ele><time>2026-05-01T09:41:44Z</time></trkpt><trkpt lat="43.66558086919642" lon="12.351854216094317"><ele>508.0</ele><time>2026-05-01T09:41:45Z</time></trkpt><trkpt lat="43.66563107208315" lon="12.351937712824315"><ele>508.0</ele><time>2026-05-01T09:41:46Z</time></trkpt><trkpt lat="43.66565035389884" lon="12.352028920813284"><ele>507.99999999999994</ele><time>2026-05-01T09:41:47Z</time></trkpt><trkpt lat="43.665655989966915" lon="12.352146609666562"><ele>507.99999999999994</ele><time>2026-05-01T09:41:48Z</time></trkpt><trkpt lat="43.665616487384106" lon="12.352268716369794"><ele>508.0</ele><time>2026-05-01T09:41:49Z</time></trkpt><trkpt lat="43.66557720742794" lon="12.352438062166861"><ele>508.0</ele><time>2026-05-01T09:41:50Z</time></trkpt><trkpt lat="43.66555453333899" lon="12.35263810292613"><ele>508.79999999999995</ele><time>2026-05-01T09:41:51Z</time></trkpt><trkpt lat="43.66556049061326" lon="12.352841553768673"><ele>509.59999999999997</ele><time>2026-05-01T09:41:52Z</time></trkpt><trkpt lat="43.6655670008713" lon="12.353008458058431"><ele>510.40000000000003</ele><time>2026-05-01T09:41:53Z</time></trkpt><trkpt lat="43.6655613405338" lon="12.35313002261773"><ele>511.20000000000005</ele><time>2026-05-01T09:41:54Z</time></trkpt><trkpt lat="43.66555713993674" lon="12.353229291989713"><ele>512.0</ele><time>2026-05-01T09:41:55Z</time></trkpt><trkpt lat="43.66548564202678" lon="12.353284105554467"><ele>510.75</ele><time>2026-05-01T09:41:56Z</time></trkpt><trkpt lat="43.66540250875637" lon="12.353330102482461"><ele>509.5</ele><time>2026-05-01T09:41:57Z</time></trkpt><trkpt lat="43.665310524927875" lon="12.353394131081005"><ele>508.25</ele><time>2026-05-01T09:41:58Z</time></trkpt><trkpt lat="43.66519418428501" lon="12.353456719688776"><ele>507.0</ele><time>2026-05-01T09:41:59Z</time></trkpt><trkpt lat="43.6650633336065" lon="12.353482484126992"><ele>507.0</ele><time>2026-05-01T09:42:00Z</time></trkpt><trkpt lat="43.664950613894405" lon="12.353491803112394"><ele>507.0</ele><time>2026-05-01T09:42:01Z</time></trkpt><trkpt lat="43.6648663627987" lon="12.353502125836838"><ele>507.0</ele><time>2026-05-01T09:42:02Z</time></trkpt><trkpt lat="43.66479871747651" lon="12.353531647759562"><ele>507.0</ele><time>2026-05-01T09:42:03Z</time></trkpt><trkpt lat="43.66475240583148" lon="12.353614713858803"><ele>507.0</ele><time>2026-05-01T09:42:04Z</time></trkpt><trkpt lat="43.664736835084625" lon="12.353732140478671"><ele>507.0</ele><time>2026-05-01T09:42:05Z</time></trkpt><trkpt lat="43.664728081802984" lon="12.353824706663616"><ele>511.0</ele><time>2026-05-01T09:42:06Z</time></trkpt><trkpt lat="43.664711254120185" lon="12.353916485052084"><ele>515.0</ele><time>2026-05-01T09:42:07Z</time></trkpt><trkpt lat="43.66469681810423" lon="12.354018834137312"><ele>519.0</ele><time>2026-05-01T09:42:08Z</time></trkpt><trkpt lat="43.66467973625533" lon="12.354152283682689"><ele>523.0</ele><time>2026-05-01T09:42:09Z</time></trkpt><trkpt lat="43.66465507013017" lon="12.354301997291739"><ele>527.0</ele><time>2026-05-01T09:42:10Z</time></trkpt><trkpt lat="43.66461742377974" lon="12.35445398844839"><ele>527.0</ele><time>2026-05-01T09:42:11Z</time></trkpt><trkpt lat="43.66457124538422" lon="12.354555769472924"><ele>527.0</ele><time>2026-05-01T09:42:12Z</time></trkpt><trkpt lat="43.66454730556633" lon="12.3546428178689"><ele>527.0</ele><time>2026-05-01T09:42:13Z</time></trkpt><trkpt lat="43.664480869604446" lon="12.354679995726885"><ele>527.0</ele><time>2026-05-01T09:42:14Z</time></trkpt><trkpt lat="43.664380031641386" lon="12.354669925364055"><ele>527.0</ele><time>2026-05-01T09:42:16Z</time></trkpt><trkpt lat="43.66432640865449" lon="12.354621830087982"><ele>527.0</ele><time>2026-05-01T09:42:17Z</time></trkpt><trkpt lat="43.664254005679815" lon="12.354552599784816"><ele>528.0</ele><time>2026-05-01T09:42:18Z</time></trkpt><trkpt lat="43.6641868472937" lon="12.354525819653743"><ele>529.0</ele><time>2026-05-01T09:42:19Z</time></trkpt><trkpt lat="43.6641186083946" lon="12.354519351763413"><ele>530.0</ele><time>2026-05-01T09:42:20Z</time></trkpt><trkpt lat="43.664046956507136" lon="12.354593801189939"><ele>531.0</ele><time>2026-05-01T09:42:21Z</time></trkpt><trkpt lat="43.66400456762924" lon="12.3546885170632"><ele>532.0</ele><time>2026-05-01T09:42:22Z</time></trkpt><trkpt lat="43.66403580625255" lon="12.354828246993408"><ele>533.0</ele><time>2026-05-01T09:42:23Z</time></trkpt><trkpt lat="43.66402130204426" lon="12.354936869727197"><ele>533.0</ele><time>2026-05-01T09:42:24Z</time></trkpt><trkpt lat="43.664030513927145" lon="12.355065756879213"><ele>533.0</ele><time>2026-05-01T09:42:25Z</time></trkpt><trkpt lat="43.6640590668907" lon="12.355221068364258"><ele>533.0</ele><time>2026-05-01T09:42:26Z</time></trkpt><trkpt lat="43.66406397835063" lon="12.35538265952837"><ele>533.0</ele><time>2026-05-01T09:42:27Z</time></trkpt><trkpt lat="43.664073021038504" lon="12.35552169274397"><ele>533.0</ele><time>2026-05-01T09:42:28Z</time></trkpt><trkpt lat="43.664073727846656" lon="12.355635349331541"><ele>535.5</ele><time>2026-05-01T09:42:29Z</time></trkpt><trkpt lat="43.664013415358056" lon="12.35570170487505"><ele>538.0</ele><time>2026-05-01T09:42:30Z</time></trkpt><trkpt lat="43.66395573108793" lon="12.355752257551691"><ele>540.5</ele><time>2026-05-01T09:42:31Z</time></trkpt><trkpt lat="43.663874167658406" lon="12.355773913683802"><ele>543.0</ele><time>2026-05-01T09:42:32Z</time></trkpt><trkpt lat="43.66378532121032" lon="12.355844747920077"><ele>545.5</ele><time>2026-05-01T09:42:33Z</time></trkpt><trkpt lat="43.663714742899174" lon="12.355923102293797"><ele>548.0</ele><time>2026-05-01T09:42:34Z</time></trkpt><trkpt lat="43.663661361999075" lon="12.356024217268182"><ele>548.0</ele><time>2026-05-01T09:42:35Z</time></trkpt><trkpt lat="43.66363362277079" lon="12.356165154448318"><ele>548.0</ele><time>2026-05-01T09:42:36Z</time></trkpt><trkpt lat="43.66358525282579" lon="12.356327351872247"><ele>548.0</ele><time>2026-05-01T09:42:37Z</time></trkpt><trkpt lat="43.66352622745615" lon="12.356501892358539"><ele>548.0</ele><time>2026-05-01T09:42:38Z</time></trkpt><trkpt lat="43.66343828849681" lon="12.356678288614239"><ele>546.5</ele><time>2026-05-01T09:42:39Z</time></trkpt><trkpt lat="43.663386659283006" lon="12.356881668606526"><ele>545.0</ele><time>2026-05-01T09:42:40Z</time></trkpt><trkpt lat="43.663344957619785" lon="12.35704307311548"><ele>543.5</ele><time>2026-05-01T09:42:41Z</time></trkpt><trkpt lat="43.66331487138613" lon="12.357174272764443"><ele>542.0</ele><time>2026-05-01T09:42:42Z</time></trkpt><trkpt lat="43.663301459527375" lon="12.357343364686013"><ele>546.6666666666666</ele><time>2026-05-01T09:42:43Z</time></trkpt><trkpt lat="43.66329208266623" lon="12.357567674314254"><ele>551.3333333333334</ele><time>2026-05-01T09:42:44Z</time></trkpt><trkpt lat="43.663255942782484" lon="12.357824898589998"><ele>556.0</ele><time>2026-05-01T09:42:45Z</time></trkpt><trkpt lat="43.663222329076575" lon="12.35805319340503"><ele>557.8</ele><time>2026-05-01T09:42:46Z</time></trkpt><trkpt lat="43.663192493087365" lon="12.358234045255287"><ele>559.6</ele><time>2026-05-01T09:42:47Z</time></trkpt><trkpt lat="43.66317995626812" lon="12.358370666183438"><ele>561.4</ele><time>2026-05-01T09:42:48Z</time></trkpt><trkpt lat="43.663188181284504" lon="12.358495065944245"><ele>563.2</ele><time>2026-05-01T09:42:49Z</time></trkpt><trkpt lat="43.663226356361555" lon="12.35859750882397"><ele>565.0</ele><time>2026-05-01T09:42:50Z</time></trkpt><trkpt lat="43.66328141873634" lon="12.358711175803826"><ele>565.0</ele><time>2026-05-01T09:42:51Z</time></trkpt><trkpt lat="43.66335423753392" lon="12.358852911117218"><ele>565.0</ele><time>2026-05-01T09:42:52Z</time></trkpt><trkpt lat="43.66343580105903" lon="12.358996916928595"><ele>565.0</ele><time>2026-05-01T09:42:53Z</time></trkpt><trkpt lat="43.66351893122816" lon="12.359127675330619"><ele>565.0</ele><time>2026-05-01T09:42:54Z</time></trkpt><trkpt lat="43.66360904623102" lon="12.359224355998583"><ele>569.5</ele><time>2026-05-01T09:42:55Z</time></trkpt><trkpt lat="43.66374240303617" lon="12.359305378130497"><ele>574.0</ele><time>2026-05-01T09:42:56Z</time></trkpt><trkpt lat="43.66386254844651" lon="12.35943026481679"><ele>578.5</ele><time>2026-05-01T09:42:57Z</time></trkpt><trkpt lat="43.66397019984899" lon="12.359556496844231"><ele>583.0</ele><time>2026-05-01T09:42:58Z</time></trkpt><trkpt lat="43.66403718241747" lon="12.359678229428875"><ele>582.6</ele><time>2026-05-01T09:42:59Z</time></trkpt><trkpt lat="43.664086595277865" lon="12.359794417945107"><ele>582.1999999999999</ele><time>2026-05-01T09:43:00Z</time></trkpt><trkpt lat="43.66412009373521" lon="12.35991992651109"><ele>581.8</ele><time>2026-05-01T09:43:01Z</time></trkpt><trkpt lat="43.66413848348785" lon="12.360067139553061"><ele>581.4</ele><time>2026-05-01T09:43:02Z</time></trkpt><trkpt lat="43.664111641229745" lon="12.36021944634937"><ele>581.0</ele><time>2026-05-01T09:43:03Z</time></trkpt><trkpt lat="43.664072139285935" lon="12.36038718000498"><ele>581.0</ele><time>2026-05-01T09:43:04Z</time></trkpt><trkpt lat="43.66403903813398" lon="12.360529920582806"><ele>581.0</ele><time>2026-05-01T09:43:05Z</time></trkpt><trkpt lat="43.66402352025426" lon="12.360621226179592"><ele>581.0</ele><time>2026-05-01T09:43:06Z</time></trkpt><trkpt lat="43.664014896842694" lon="12.360709081820314"><ele>581.0</ele><time>2026-05-01T09:43:07Z</time></trkpt><trkpt lat="43.664018418667936" lon="12.360802933825486"><ele>581.0</ele><time>2026-05-01T09:43:08Z</time></trkpt><trkpt lat="43.66405516030115" lon="12.360882247621234"><ele>581.0</ele><time>2026-05-01T09:43:09Z</time></trkpt><trkpt lat="43.66410060015428" lon="12.360957863628455"><ele>581.0</ele><time>2026-05-01T09:43:10Z</time></trkpt><trkpt lat="43.66417949073332" lon="12.36104264037899"><ele>581.75</ele><time>2026-05-01T09:43:11Z</time></trkpt><trkpt lat="43.66427172266597" lon="12.361131315995662"><ele>582.5</ele><time>2026-05-01T09:43:12Z</time></trkpt><trkpt lat="43.664379841158336" lon="12.361233557365845"><ele>583.25</ele><time>2026-05-01T09:43:13Z</time></trkpt><trkpt lat="43.66446944123055" lon="12.361369349125706"><ele>584.0</ele><time>2026-05-01T09:43:14Z</time></trkpt><trkpt lat="43.66457599601368" lon="12.361477526865624"><ele>593.3333333333333</ele><time>2026-05-01T09:43:15Z</time></trkpt><trkpt lat="43.66464909230336" lon="12.361630735445713"><ele>602.6666666666666</ele><time>2026-05-01T09:43:16Z</time></trkpt><trkpt lat="43.66473809914461" lon="12.361798208361082"><ele>612.0</ele><time>2026-05-01T09:43:17Z</time></trkpt><trkpt lat="43.664827700184034" lon="12.361993854159662"><ele>612.0</ele><time>2026-05-01T09:43:18Z</time></trkpt><trkpt lat="43.66489539279755" lon="12.362160576126712"><ele>612.0</ele><time>2026-05-01T09:43:19Z</time></trkpt><trkpt lat="43.6649451684831" lon="12.362293186002724"><ele>612.0</ele><time>2026-05-01T09:43:20Z</time></trkpt><trkpt lat="43.664986071880506" lon="12.362407034181505"><ele>612.0</ele><time>2026-05-01T09:43:21Z</time></trkpt><trkpt lat="43.665025055340315" lon="12.362523513058175"><ele>612.0</ele><time>2026-05-01T09:43:22Z</time></trkpt><trkpt lat="43.66504704416862" lon="12.362631181501593"><ele>612.2</ele><time>2026-05-01T09:43:23Z</time></trkpt><trkpt lat="43.66504759165874" lon="12.362755722299552"><ele>612.4000000000001</ele><time>2026-05-01T09:43:24Z</time></trkpt><trkpt lat="43.665039246310045" lon="12.362903688934336"><ele>612.5999999999999</ele><time>2026-05-01T09:43:25Z</time></trkpt><trkpt lat="43.66501313763656" lon="12.363056534023508"><ele>612.8</ele><time>2026-05-01T09:43:26Z</time></trkpt><trkpt lat="43.664970510141416" lon="12.36319710154969"><ele>613.0</ele><time>2026-05-01T09:43:27Z</time></trkpt><trkpt lat="43.664920506796705" lon="12.36333630052037"><ele>613.0</ele><time>2026-05-01T09:43:28Z</time></trkpt><trkpt lat="43.66487163657607" lon="12.36347006303782"><ele>613.0</ele><time>2026-05-01T09:43:29Z</time></trkpt><trkpt lat="43.664815343432686" lon="12.363597717768759"><ele>613.0</ele><time>2026-05-01T09:43:30Z</time></trkpt><trkpt lat="43.66473617553309" lon="12.363741441123388"><ele>613.0</ele><time>2026-05-01T09:43:31Z</time></trkpt><trkpt lat="43.66464743979092" lon="12.36388041271406"><ele>611.1999999999999</ele><time>2026-05-01T09:43:32Z</time></trkpt><trkpt lat="43.66454785754507" lon="12.364014909944373"><ele>609.4</ele><time>2026-05-01T09:43:33Z</time></trkpt><trkpt lat="43.664468236560104" lon="12.364131901025546"><ele>607.5999999999999</ele><time>2026-05-01T09:43:34Z</time></trkpt><trkpt lat="43.66442911666394" lon="12.364229883012863"><ele>605.8</ele><time>2026-05-01T09:43:35Z</time></trkpt><trkpt lat="43.664425662279285" lon="12.364356681920365"><ele>604.0</ele><time>2026-05-01T09:43:37Z</time></trkpt><trkpt lat="43.664501722591126" lon="12.364434524615202"><ele>608.0</ele><time>2026-05-01T09:43:39Z</time></trkpt><trkpt lat="43.66457638560554" lon="12.364382150736562"><ele>612.0</ele><time>2026-05-01T09:43:40Z</time></trkpt><trkpt lat="43.664646956617624" lon="12.364348046981865"><ele>616.0</ele><time>2026-05-01T09:43:41Z</time></trkpt><trkpt lat="43.664725025953125" lon="12.364309688616697"><ele>620.0</ele><time>2026-05-01T09:43:42Z</time></trkpt><trkpt lat="43.66483373404772" lon="12.364306618064669"><ele>624.0</ele><time>2026-05-01T09:43:43Z</time></trkpt><trkpt lat="43.664952494815715" lon="12.364273498788748"><ele>624.0</ele><time>2026-05-01T09:43:44Z</time></trkpt><trkpt lat="43.66509210856828" lon="12.364258603018138"><ele>624.0</ele><time>2026-05-01T09:43:45Z</time></trkpt><trkpt lat="43.66525189276728" lon="12.36423935109795"><ele>624.0</ele><time>2026-05-01T09:43:46Z</time></trkpt><trkpt lat="43.66539877555814" lon="12.364226959799732"><ele>624.0</ele><time>2026-05-01T09:43:47Z</time></trkpt><trkpt lat="43.66551817088193" lon="12.364191290533437"><ele>627.5</ele><time>2026-05-01T09:43:48Z</time></trkpt><trkpt lat="43.66563172571568" lon="12.36414110871143"><ele>631.0</ele><time>2026-05-01T09:43:49Z</time></trkpt><trkpt lat="43.66574474973712" lon="12.364068848976043"><ele>634.5</ele><time>2026-05-01T09:43:50Z</time></trkpt><trkpt lat="43.665857477184645" lon="12.363976163985011"><ele>638.0</ele><time>2026-05-01T09:43:51Z</time></trkpt><trkpt lat="43.66595081784732" lon="12.363907745132641"><ele>637.4</ele><time>2026-05-01T09:43:52Z</time></trkpt><trkpt lat="43.66604611771226" lon="12.363842004542002"><ele>636.8</ele><time>2026-05-01T09:43:53Z</time></trkpt><trkpt lat="43.66610885636502" lon="12.363779306408015"><ele>636.2</ele><time>2026-05-01T09:43:54Z</time></trkpt><trkpt lat="43.6661507544537" lon="12.363621613654619"><ele>635.6</ele><time>2026-05-01T09:43:56Z</time></trkpt><trkpt lat="43.66614418885391" lon="12.363513775854571"><ele>635.0</ele><time>2026-05-01T09:43:57Z</time></trkpt><trkpt lat="43.66611536625604" lon="12.363385923558205"><ele>635.0</ele><time>2026-05-01T09:43:58Z</time></trkpt><trkpt lat="43.66608817062441" lon="12.363243412674121"><ele>635.0</ele><time>2026-05-01T09:43:59Z</time></trkpt><trkpt lat="43.66607840642394" lon="12.363073015612233"><ele>635.0</ele><time>2026-05-01T09:44:00Z</time></trkpt><trkpt lat="43.66605160446319" lon="12.362886327745553"><ele>635.0</ele><time>2026-05-01T09:44:01Z</time></trkpt><trkpt lat="43.66604148770483" lon="12.362760382276473"><ele>635.0</ele><time>2026-05-01T09:44:02Z</time></trkpt><trkpt lat="43.66605600041384" lon="12.362613511275748"><ele>635.0</ele><time>2026-05-01T09:44:04Z</time></trkpt><trkpt lat="43.66611516029427" lon="12.362457519052155"><ele>635.0</ele><time>2026-05-01T09:44:06Z</time></trkpt><trkpt lat="43.6661917190303" lon="12.362450262675132"><ele>635.0</ele><time>2026-05-01T09:44:07Z</time></trkpt><trkpt lat="43.66626786778047" lon="12.362420915770427"><ele>635.0</ele><time>2026-05-01T09:44:08Z</time></trkpt><trkpt lat="43.666352787395645" lon="12.362426534840685"><ele>639.1666666666666</ele><time>2026-05-01T09:44:09Z</time></trkpt><trkpt lat="43.66642175114988" lon="12.362461830483975"><ele>643.3333333333333</ele><time>2026-05-01T09:44:10Z</time></trkpt><trkpt lat="43.66648332893155" lon="12.362506730019382"><ele>647.5</ele><time>2026-05-01T09:44:11Z</time></trkpt><trkpt lat="43.666525200857315" lon="12.362577398314"><ele>651.6666666666666</ele><time>2026-05-01T09:44:12Z</time></trkpt><trkpt lat="43.66655187273653" lon="12.362672090711884"><ele>655.8333333333334</ele><time>2026-05-01T09:44:13Z</time></trkpt><trkpt lat="43.66656116032698" lon="12.362781098680674"><ele>660.0</ele><time>2026-05-01T09:44:14Z</time></trkpt><trkpt lat="43.6665833596038" lon="12.36292352144522"><ele>659.4</ele><time>2026-05-01T09:44:15Z</time></trkpt><trkpt lat="43.666608086163414" lon="12.36307054303421"><ele>658.8</ele><time>2026-05-01T09:44:16Z</time></trkpt><trkpt lat="43.66663995473851" lon="12.363238589152536"><ele>658.2</ele><time>2026-05-01T09:44:17Z</time></trkpt><trkpt lat="43.666684080815905" lon="12.363371760276864"><ele>657.6</ele><time>2026-05-01T09:44:18Z</time></trkpt><trkpt lat="43.66672698668764" lon="12.363487797964291"><ele>657.0</ele><time>2026-05-01T09:44:19Z</time></trkpt><trkpt lat="43.66677631100925" lon="12.363580001474922"><ele>657.0</ele><time>2026-05-01T09:44:20Z</time></trkpt><trkpt lat="43.66684674712158" lon="12.363669672475513"><ele>657.0</ele><time>2026-05-01T09:44:21Z</time></trkpt><trkpt lat="43.6669395216863" lon="12.363749999010299"><ele>657.0</ele><time>2026-05-01T09:44:22Z</time></trkpt><trkpt lat="43.66706242019764" lon="12.363825813198186"><ele>657.0</ele><time>2026-05-01T09:44:23Z</time></trkpt><trkpt lat="43.667199050786756" lon="12.363937856188592"><ele>659.0</ele><time>2026-05-01T09:44:24Z</time></trkpt><trkpt lat="43.66733826156314" lon="12.364009024411162"><ele>661.0</ele><time>2026-05-01T09:44:25Z</time></trkpt><trkpt lat="43.667439699086984" lon="12.36407890752862"><ele>663.0</ele><time>2026-05-01T09:44:26Z</time></trkpt><trkpt lat="43.66751994281505" lon="12.364104973103165"><ele>665.0</ele><time>2026-05-01T09:44:27Z</time></trkpt><trkpt lat="43.66759183176191" lon="12.36411401155263"><ele>667.0</ele><time>2026-05-01T09:44:28Z</time></trkpt><trkpt lat="43.66770422850934" lon="12.364085204616229"><ele>667.0</ele><time>2026-05-01T09:44:30Z</time></trkpt><trkpt lat="43.6677711113048" lon="12.364054045785718"><ele>667.0</ele><time>2026-05-01T09:44:31Z</time></trkpt><trkpt lat="43.66783106409427" lon="12.363928227078667"><ele>667.0</ele><time>2026-05-01T09:44:32Z</time></trkpt><trkpt lat="43.6679057990148" lon="12.363810423142105"><ele>667.0</ele><time>2026-05-01T09:44:33Z</time></trkpt><trkpt lat="43.667999629132154" lon="12.363694445588791"><ele>667.0</ele><time>2026-05-01T09:44:34Z</time></trkpt><trkpt lat="43.66808465169438" lon="12.363571155073968"><ele>668.6666666666667</ele><time>2026-05-01T09:44:35Z</time></trkpt><trkpt lat="43.6681692630862" lon="12.363455199571522"><ele>670.3333333333334</ele><time>2026-05-01T09:44:36Z</time></trkpt><trkpt lat="43.66824588903408" lon="12.363369466765116"><ele>672.0</ele><time>2026-05-01T09:44:37Z</time></trkpt><trkpt lat="43.66831343582862" lon="12.363308087700473"><ele>673.6666666666666</ele><time>2026-05-01T09:44:38Z</time></trkpt><trkpt lat="43.6683749353569" lon="12.363249233402032"><ele>675.3333333333333</ele><time>2026-05-01T09:44:39Z</time></trkpt><trkpt lat="43.66844623168429" lon="12.363266463022105"><ele>677.0</ele><time>2026-05-01T09:44:40Z</time></trkpt><trkpt lat="43.668523714337425" lon="12.36326967436515"><ele>677.3333333333333</ele><time>2026-05-01T09:44:41Z</time></trkpt><trkpt lat="43.66862073889691" lon="12.363288478955884"><ele>677.6666666666666</ele><time>2026-05-01T09:44:42Z</time></trkpt><trkpt lat="43.66869489904153" lon="12.363280884307798"><ele>678.0</ele><time>2026-05-01T09:44:43Z</time></trkpt><trkpt lat="43.6687755133402" lon="12.36325705572085"><ele>678.3333333333334</ele><time>2026-05-01T09:44:44Z</time></trkpt><trkpt lat="43.66884605309623" lon="12.363191528778072"><ele>678.6666666666667</ele><time>2026-05-01T09:44:45Z</time></trkpt><trkpt lat="43.66890624371429" lon="12.36310655560484"><ele>679.0</ele><time>2026-05-01T09:44:46Z</time></trkpt><trkpt lat="43.668961353083304" lon="12.363011178727508"><ele>679.0</ele><time>2026-05-01T09:44:47Z</time></trkpt><trkpt lat="43.669026999812125" lon="12.36289002030883"><ele>679.0</ele><time>2026-05-01T09:44:48Z</time></trkpt><trkpt lat="43.669102555630126" lon="12.362750928838185"><ele>679.0</ele><time>2026-05-01T09:44:49Z</time></trkpt><trkpt lat="43.66919685858068" lon="12.362638896321698"><ele>679.0</ele><time>2026-05-01T09:44:50Z</time></trkpt><trkpt lat="43.669267455160615" lon="12.362549308242457"><ele>679.0</ele><time>2026-05-01T09:44:51Z</time></trkpt><trkpt lat="43.669336742280976" lon="12.362467863475135"><ele>679.0</ele><time>2026-05-01T09:44:52Z</time></trkpt><trkpt lat="43.669411500204696" lon="12.362395407029018"><ele>679.0</ele><time>2026-05-01T09:44:53Z</time></trkpt><trkpt lat="43.669473272189315" lon="12.36234695078102"><ele>679.0</ele><time>2026-05-01T09:44:54Z</time></trkpt><trkpt lat="43.669534460676815" lon="12.362304325194353"><ele>679.0</ele><time>2026-05-01T09:44:55Z</time></trkpt><trkpt lat="43.66961524375737" lon="12.362234150220347"><ele>679.0</ele><time>2026-05-01T09:44:56Z</time></trkpt><trkpt lat="43.66974742743261" lon="12.362186767681735"><ele>680.5</ele><time>2026-05-01T09:44:57Z</time></trkpt><trkpt lat="43.66988196971692" lon="12.36213005399605"><ele>682.0</ele><time>2026-05-01T09:44:58Z</time></trkpt><trkpt lat="43.67001505182237" lon="12.362068775452046"><ele>683.5</ele><time>2026-05-01T09:44:59Z</time></trkpt><trkpt lat="43.67015657936247" lon="12.362010866545129"><ele>685.0</ele><time>2026-05-01T09:45:00Z</time></trkpt><trkpt lat="43.670300845554266" lon="12.361972083712644"><ele>685.5</ele><time>2026-05-01T09:45:01Z</time></trkpt><trkpt lat="43.67041116895915" lon="12.361904021280875"><ele>686.0</ele><time>2026-05-01T09:45:02Z</time></trkpt><trkpt lat="43.67051915417329" lon="12.361841253469738"><ele>686.5</ele><time>2026-05-01T09:45:03Z</time></trkpt><trkpt lat="43.67062769121196" lon="12.361757583056216"><ele>687.0</ele><time>2026-05-01T09:45:04Z</time></trkpt><trkpt lat="43.6707157447135" lon="12.361677542330726"><ele>687.0</ele><time>2026-05-01T09:45:05Z</time></trkpt><trkpt lat="43.67079083047038" lon="12.36161875683569"><ele>687.0</ele><time>2026-05-01T09:45:06Z</time></trkpt><trkpt lat="43.67087842270018" lon="12.361559037520491"><ele>687.0</ele><time>2026-05-01T09:45:07Z</time></trkpt><trkpt lat="43.67098085911255" lon="12.361538496785435"><ele>687.0</ele><time>2026-05-01T09:45:08Z</time></trkpt><trkpt lat="43.6710683887677" lon="12.361515821527231"><ele>687.0</ele><time>2026-05-01T09:45:09Z</time></trkpt><trkpt lat="43.671141681040915" lon="12.361505986443312"><ele>686.6</ele><time>2026-05-01T09:45:11Z</time></trkpt><trkpt lat="43.67122613866071" lon="12.361503391631251"><ele>686.2</ele><time>2026-05-01T09:45:16Z</time></trkpt><trkpt lat="43.671297074682045" lon="12.361464615978463"><ele>685.8</ele><time>2026-05-01T09:45:19Z</time></trkpt><trkpt lat="43.67139096562436" lon="12.361469179011474"><ele>685.4</ele><time>2026-05-01T09:45:22Z</time></trkpt><trkpt lat="43.6714824703564" lon="12.361455668132406"><ele>685.0</ele><time>2026-05-01T09:45:23Z</time></trkpt><trkpt lat="43.67160943871673" lon="12.361418286875512"><ele>685.0</ele><time>2026-05-01T09:45:24Z</time></trkpt><trkpt lat="43.67174843379859" lon="12.361395907010902"><ele>685.0</ele><time>2026-05-01T09:45:25Z</time></trkpt><trkpt lat="43.67188657364951" lon="12.361359777589696"><ele>685.0</ele><time>2026-05-01T09:45:26Z</time></trkpt><trkpt lat="43.672038526538614" lon="12.36129625252469"><ele>685.0</ele><time>2026-05-01T09:45:27Z</time></trkpt><trkpt lat="43.672165901050754" lon="12.361231838823402"><ele>689.0</ele><time>2026-05-01T09:45:28Z</time></trkpt><trkpt lat="43.67227470341383" lon="12.361181096332745"><ele>693.0</ele><time>2026-05-01T09:45:29Z</time></trkpt><trkpt lat="43.67238514869249" lon="12.361155568614262"><ele>697.0</ele><time>2026-05-01T09:45:30Z</time></trkpt><trkpt lat="43.67249625120271" lon="12.361159570650196"><ele>701.0</ele><time>2026-05-01T09:45:31Z</time></trkpt><trkpt lat="43.67261378781882" lon="12.361186011967456"><ele>701.0</ele><time>2026-05-01T09:45:32Z</time></trkpt><trkpt lat="43.67274536161482" lon="12.36122282731439"><ele>701.0</ele><time>2026-05-01T09:45:33Z</time></trkpt><trkpt lat="43.67288303916191" lon="12.361276040636293"><ele>701.0</ele><time>2026-05-01T09:45:34Z</time></trkpt><trkpt lat="43.673013580062715" lon="12.361343873780845"><ele>701.0</ele><time>2026-05-01T09:45:35Z</time></trkpt><trkpt lat="43.6731337516078" lon="12.361422398204434"><ele>700.0</ele><time>2026-05-01T09:45:36Z</time></trkpt><trkpt lat="43.67321905950155" lon="12.361486914347342"><ele>699.0</ele><time>2026-05-01T09:45:37Z</time></trkpt><trkpt lat="43.673280747108784" lon="12.361585597721932"><ele>698.0</ele><time>2026-05-01T09:45:38Z</time></trkpt><trkpt lat="43.673363601615534" lon="12.361678205123278"><ele>697.0</ele><time>2026-05-01T09:45:39Z</time></trkpt><trkpt lat="43.673444304473506" lon="12.361768752087427"><ele>696.0</ele><time>2026-05-01T09:45:40Z</time></trkpt><trkpt lat="43.673517159597374" lon="12.361865052430689"><ele>696.0</ele><time>2026-05-01T09:45:41Z</time></trkpt><trkpt lat="43.67356825008134" lon="12.361965878959394"><ele>696.0</ele><time>2026-05-01T09:45:42Z</time></trkpt><trkpt lat="43.67361298009421" lon="12.36208614367236"><ele>696.0</ele><time>2026-05-01T09:45:43Z</time></trkpt><trkpt lat="43.6736556289393" lon="12.362238065351683"><ele>696.0</ele><time>2026-05-01T09:45:44Z</time></trkpt><trkpt lat="43.673710909742596" lon="12.362385715977524"><ele>696.0</ele><time>2026-05-01T09:45:45Z</time></trkpt><trkpt lat="43.67379721870801" lon="12.362534582038363"><ele>696.8</ele><time>2026-05-01T09:45:46Z</time></trkpt><trkpt lat="43.67386815696815" lon="12.362720496284831"><ele>697.5999999999999</ele><time>2026-05-01T09:45:47Z</time></trkpt><trkpt lat="43.673954330891526" lon="12.362854618410678"><ele>698.4</ele><time>2026-05-01T09:45:48Z</time></trkpt><trkpt lat="43.67400775566816" lon="12.362963287226897"><ele>699.2</ele><time>2026-05-01T09:45:49Z</time></trkpt><trkpt lat="43.67404384605913" lon="12.363044356579993"><ele>700.0</ele><time>2026-05-01T09:45:50Z</time></trkpt><trkpt lat="43.67410751879473" lon="12.36308040847903"><ele>700.0</ele><time>2026-05-01T09:45:52Z</time></trkpt><trkpt lat="43.6741991575171" lon="12.363059838683437"><ele>700.0</ele><time>2026-05-01T09:45:55Z</time></trkpt><trkpt lat="43.674257695750164" lon="12.363026237979371"><ele>700.0</ele><time>2026-05-01T09:45:56Z</time></trkpt><trkpt lat="43.67430933724211" lon="12.362955481639418"><ele>700.0</ele><time>2026-05-01T09:45:57Z</time></trkpt><trkpt lat="43.67435911382863" lon="12.362862787355697"><ele>700.0</ele><time>2026-05-01T09:45:58Z</time></trkpt><trkpt lat="43.67442186414163" lon="12.36277763096948"><ele>700.0</ele><time>2026-05-01T09:45:59Z</time></trkpt><trkpt lat="43.67447039084788" lon="12.362674397258484"><ele>697.0</ele><time>2026-05-01T09:46:00Z</time></trkpt><trkpt lat="43.67451005017216" lon="12.362541414464689"><ele>694.0</ele><time>2026-05-01T09:46:01Z</time></trkpt><trkpt lat="43.67454241822768" lon="12.362379465138673"><ele>691.0</ele><time>2026-05-01T09:46:02Z</time></trkpt><trkpt lat="43.67459953186509" lon="12.362192516237814"><ele>688.0</ele><time>2026-05-01T09:46:03Z</time></trkpt><trkpt lat="43.674629869402665" lon="12.361998257458872"><ele>688.0</ele><time>2026-05-01T09:46:04Z</time></trkpt><trkpt lat="43.67468994505384" lon="12.361800883113052"><ele>688.0</ele><time>2026-05-01T09:46:05Z</time></trkpt><trkpt lat="43.674739023731576" lon="12.361597825957581"><ele>688.0</ele><time>2026-05-01T09:46:06Z</time></trkpt><trkpt lat="43.67478201678604" lon="12.36135655839414"><ele>690.3333333333334</ele><time>2026-05-01T09:46:07Z</time></trkpt><trkpt lat="43.67481990067543" lon="12.36109009414569"><ele>692.6666666666666</ele><time>2026-05-01T09:46:08Z</time></trkpt><trkpt lat="43.67486721753898" lon="12.360859984244357"><ele>695.0</ele><time>2026-05-01T09:46:09Z</time></trkpt><trkpt lat="43.674900920612465" lon="12.360683998621512"><ele>695.0</ele><time>2026-05-01T09:46:10Z</time></trkpt><trkpt lat="43.67492929047431" lon="12.360549307393255"><ele>695.0</ele><time>2026-05-01T09:46:11Z</time></trkpt><trkpt lat="43.67495408612721" lon="12.360438749836165"><ele>695.0</ele><time>2026-05-01T09:46:12Z</time></trkpt><trkpt lat="43.67497656044989" lon="12.360319201593425"><ele>695.0</ele><time>2026-05-01T09:46:13Z</time></trkpt><trkpt lat="43.67502652406128" lon="12.360170119318878"><ele>695.0</ele><time>2026-05-01T09:46:14Z</time></trkpt><trkpt lat="43.67506911871506" lon="12.359984041674695"><ele>697.6</ele><time>2026-05-01T09:46:15Z</time></trkpt><trkpt lat="43.6751063162542" lon="12.359813404519691"><ele>700.2</ele><time>2026-05-01T09:46:16Z</time></trkpt><trkpt lat="43.675145151352794" lon="12.359705556311697"><ele>702.8</ele><time>2026-05-01T09:46:17Z</time></trkpt><trkpt lat="43.67522463763769" lon="12.359626848953763"><ele>705.4</ele><time>2026-05-01T09:46:18Z</time></trkpt><trkpt lat="43.675294088747535" lon="12.359531177370203"><ele>708.0</ele><time>2026-05-01T09:46:19Z</time></trkpt><trkpt lat="43.67534809724205" lon="12.359462716533102"><ele>708.0</ele><time>2026-05-01T09:46:20Z</time></trkpt><trkpt lat="43.67541295876633" lon="12.359407748526293"><ele>708.0</ele><time>2026-05-01T09:46:22Z</time></trkpt><trkpt lat="43.67548215615743" lon="12.359339913974734"><ele>708.0</ele><time>2026-05-01T09:46:23Z</time></trkpt><trkpt lat="43.67558478478787" lon="12.359280362546023"><ele>708.0</ele><time>2026-05-01T09:46:24Z</time></trkpt><trkpt lat="43.67570839694978" lon="12.359240776200972"><ele>708.0</ele><time>2026-05-01T09:46:25Z</time></trkpt><trkpt lat="43.67583517035984" lon="12.35918585828274"><ele>708.0</ele><time>2026-05-01T09:46:26Z</time></trkpt><trkpt lat="43.67594557978505" lon="12.359120417603505"><ele>708.0</ele><time>2026-05-01T09:46:27Z</time></trkpt><trkpt lat="43.6760437800843" lon="12.359071292958697"><ele>708.0</ele><time>2026-05-01T09:46:28Z</time></trkpt><trkpt lat="43.67615718556359" lon="12.358991251192888"><ele>708.0</ele><time>2026-05-01T09:46:29Z</time></trkpt><trkpt lat="43.67623903491955" lon="12.358928102465587"><ele>708.0</ele><time>2026-05-01T09:46:30Z</time></trkpt><trkpt lat="43.67634878819876" lon="12.358920581302527"><ele>706.5999999999999</ele><time>2026-05-01T09:46:32Z</time></trkpt><trkpt lat="43.676476697017755" lon="12.35893719887696"><ele>705.1999999999999</ele><time>2026-05-01T09:46:34Z</time></trkpt><trkpt lat="43.67655604419525" lon="12.35897564895579"><ele>703.8</ele><time>2026-05-01T09:46:35Z</time></trkpt><trkpt lat="43.676678563143824" lon="12.358981807968531"><ele>702.4</ele><time>2026-05-01T09:46:37Z</time></trkpt><trkpt lat="43.676762518905065" lon="12.358967663389725"><ele>701.0</ele><time>2026-05-01T09:46:38Z</time></trkpt><trkpt lat="43.67687099260788" lon="12.35894968582731"><ele>699.8</ele><time>2026-05-01T09:46:39Z</time></trkpt><trkpt lat="43.676983054653384" lon="12.358951769754597"><ele>698.5999999999999</ele><time>2026-05-01T09:46:40Z</time></trkpt><trkpt lat="43.67708887073968" lon="12.358967248281257"><ele>697.4</ele><time>2026-05-01T09:46:41Z</time></trkpt><trkpt lat="43.67717430180918" lon="12.359002770766008"><ele>696.2</ele><time>2026-05-01T09:46:42Z</time></trkpt><trkpt lat="43.677245226787775" lon="12.358981060097124"><ele>695.0</ele><time>2026-05-01T09:46:43Z</time></trkpt><trkpt lat="43.67735995825059" lon="12.358934615571023"><ele>695.0</ele><time>2026-05-01T09:46:45Z</time></trkpt><trkpt lat="43.677437206473556" lon="12.358900255067327"><ele>695.0</ele><time>2026-05-01T09:46:46Z</time></trkpt><trkpt lat="43.67751846508694" lon="12.358832930210312"><ele>695.0</ele><time>2026-05-01T09:46:47Z</time></trkpt><trkpt lat="43.677602632038614" lon="12.358751565054655"><ele>695.0</ele><time>2026-05-01T09:46:48Z</time></trkpt><trkpt lat="43.67766910413003" lon="12.35864386171255"><ele>695.0</ele><time>2026-05-01T09:46:49Z</time></trkpt><trkpt lat="43.67775252066618" lon="12.358537595945391"><ele>695.0</ele><time>2026-05-01T09:46:50Z</time></trkpt><trkpt lat="43.677846017843926" lon="12.358393944976562"><ele>695.0</ele><time>2026-05-01T09:46:51Z</time></trkpt><trkpt lat="43.67796559739902" lon="12.358253172223554"><ele>695.0</ele><time>2026-05-01T09:46:52Z</time></trkpt><trkpt lat="43.678063486098395" lon="12.358130971738095"><ele>695.0</ele><time>2026-05-01T09:46:53Z</time></trkpt><trkpt lat="43.67814508362" lon="12.358023519573717"><ele>697.2</ele><time>2026-05-01T09:46:54Z</time></trkpt><trkpt lat="43.678218049985574" lon="12.357922224083502"><ele>699.4</ele><time>2026-05-01T09:46:55Z</time></trkpt><trkpt lat="43.67828648425313" lon="12.357825324424304"><ele>701.5999999999999</ele><time>2026-05-01T09:46:56Z</time></trkpt><trkpt lat="43.67834260322837" lon="12.35772431739775"><ele>703.8</ele><time>2026-05-01T09:46:57Z</time></trkpt><trkpt lat="43.67842093517429" lon="12.357581803667497"><ele>706.0</ele><time>2026-05-01T09:46:58Z</time></trkpt><trkpt lat="43.6784841691724" lon="12.357430132508751"><ele>706.0</ele><time>2026-05-01T09:46:59Z</time></trkpt><trkpt lat="43.67852655849336" lon="12.357325233172542"><ele>706.0</ele><time>2026-05-01T09:47:00Z</time></trkpt><trkpt lat="43.67856208758537" lon="12.357167838563175"><ele>706.0</ele><time>2026-05-01T09:47:02Z</time></trkpt><trkpt lat="43.67857430939465" lon="12.35698565991967"><ele>706.0</ele><time>2026-05-01T09:47:04Z</time></trkpt><trkpt lat="43.67861510587893" lon="12.356878943364805"><ele>706.0</ele><time>2026-05-01T09:47:05Z</time></trkpt><trkpt lat="43.67867257561633" lon="12.356814819564807"><ele>705.5999999999999</ele><time>2026-05-01T09:47:06Z</time></trkpt><trkpt lat="43.67873523171576" lon="12.356756018411948"><ele>705.2</ele><time>2026-05-01T09:47:07Z</time></trkpt><trkpt lat="43.67881730801192" lon="12.356702876796527"><ele>704.8</ele><time>2026-05-01T09:47:08Z</time></trkpt><trkpt lat="43.678911925280104" lon="12.35669151249453"><ele>704.4000000000001</ele><time>2026-05-01T09:47:09Z</time></trkpt><trkpt lat="43.67902618570456" lon="12.356682783030129"><ele>704.0</ele><time>2026-05-01T09:47:10Z</time></trkpt><trkpt lat="43.67915525243237" lon="12.356636657918976"><ele>704.0</ele><time>2026-05-01T09:47:11Z</time></trkpt><trkpt lat="43.679280332479905" lon="12.356616561097525"><ele>704.0</ele><time>2026-05-01T09:47:12Z</time></trkpt><trkpt lat="43.67938245565014" lon="12.356618232284244"><ele>704.0</ele><time>2026-05-01T09:47:13Z</time></trkpt><trkpt lat="43.67946978606202" lon="12.356591457644948"><ele>704.0</ele><time>2026-05-01T09:47:14Z</time></trkpt><trkpt lat="43.679552444100686" lon="12.356576014508606"><ele>704.0</ele><time>2026-05-01T09:47:15Z</time></trkpt><trkpt lat="43.67963891104379" lon="12.356574639031146"><ele>703.0</ele><time>2026-05-01T09:47:16Z</time></trkpt><trkpt lat="43.67971434738655" lon="12.356580635174975"><ele>702.0</ele><time>2026-05-01T09:47:17Z</time></trkpt><trkpt lat="43.67989019752584" lon="12.356600160337578"><ele>701.0</ele><time>2026-05-01T09:47:20Z</time></trkpt><trkpt lat="43.68000014972915" lon="12.356620437900549"><ele>700.0</ele><time>2026-05-01T09:47:22Z</time></trkpt><trkpt lat="43.6801022836833" lon="12.356644473123026"><ele>700.0</ele><time>2026-05-01T09:47:24Z</time></trkpt><trkpt lat="43.68014280730042" lon="12.356729111283915"><ele>700.0</ele><time>2026-05-01T09:47:26Z</time></trkpt><trkpt lat="43.6801053732372" lon="12.356852741779003"><ele>700.0</ele><time>2026-05-01T09:47:29Z</time></trkpt><trkpt lat="43.68000006946998" lon="12.356853330673108"><ele>700.0</ele><time>2026-05-01T09:47:31Z</time></trkpt><trkpt lat="43.67989695319764" lon="12.356858679754263"><ele>700.0</ele><time>2026-05-01T09:47:33Z</time></trkpt><trkpt lat="43.679810626694916" lon="12.35686544138256"><ele>700.0</ele><time>2026-05-01T09:47:35Z</time></trkpt><trkpt lat="43.679764885671695" lon="12.357006717390522"><ele>700.0</ele><time>2026-05-01T09:47:37Z</time></trkpt><trkpt lat="43.67985292576109" lon="12.357092796710214"><ele>700.0</ele><time>2026-05-01T09:47:39Z</time></trkpt><trkpt lat="43.67994408892331" lon="12.35709488227403"><ele>700.0</ele><time>2026-05-01T09:47:41Z</time></trkpt><trkpt lat="43.68005845688147" lon="12.35707315271329"><ele>700.0</ele><time>2026-05-01T09:47:43Z</time></trkpt><trkpt lat="43.68014759681917" lon="12.357083487281704"><ele>700.0</ele><time>2026-05-01T09:47:44Z</time></trkpt><trkpt lat="43.68023007733454" lon="12.357102885613518"><ele>700.0</ele><time>2026-05-01T09:47:45Z</time></trkpt><trkpt lat="43.68030684936522" lon="12.357134848309851"><ele>700.0</ele><time>2026-05-01T09:47:46Z</time></trkpt><trkpt lat="43.68038526237615" lon="12.357173770694379"><ele>700.0</ele><time>2026-05-01T09:47:47Z</time></trkpt><trkpt lat="43.680452564350304" lon="12.35722274097545"><ele>700.0</ele><time>2026-05-01T09:47:48Z</time></trkpt><trkpt lat="43.68052521520898" lon="12.357285420795161"><ele>700.0</ele><time>2026-05-01T09:47:49Z</time></trkpt><trkpt lat="43.68060096041051" lon="12.357347459133583"><ele>697.6666666666667</ele><time>2026-05-01T09:47:50Z</time></trkpt><trkpt lat="43.68069237558256" lon="12.357419697159559"><ele>695.3333333333334</ele><time>2026-05-01T09:47:51Z</time></trkpt><trkpt lat="43.68077343976349" lon="12.357494750407787"><ele>693.0</ele><time>2026-05-01T09:47:52Z</time></trkpt><trkpt lat="43.68084661147363" lon="12.357540666533303"><ele>690.6666666666666</ele><time>2026-05-01T09:47:53Z</time></trkpt><trkpt lat="43.68091515220497" lon="12.357593498160037"><ele>688.3333333333333</ele><time>2026-05-01T09:47:54Z</time></trkpt><trkpt lat="43.6809825814698" lon="12.357646313821837"><ele>686.0</ele><time>2026-05-01T09:47:55Z</time></trkpt><trkpt lat="43.681041052468345" lon="12.357697080240378"><ele>684.4285714285714</ele><time>2026-05-01T09:47:56Z</time></trkpt><trkpt lat="43.68111145298633" lon="12.357758072446405"><ele>682.8571428571429</ele><time>2026-05-01T09:47:57Z</time></trkpt><trkpt lat="43.68117858381452" lon="12.357794912882763"><ele>681.2857142857142</ele><time>2026-05-01T09:47:58Z</time></trkpt><trkpt lat="43.68125764158007" lon="12.357829311842274"><ele>679.7142857142858</ele><time>2026-05-01T09:47:59Z</time></trkpt><trkpt lat="43.68132184631772" lon="12.357825745180063"><ele>678.1428571428571</ele><time>2026-05-01T09:48:00Z</time></trkpt><trkpt lat="43.68138513612735" lon="12.357790156953564"><ele>676.5714285714286</ele><time>2026-05-01T09:48:01Z</time></trkpt><trkpt lat="43.68144545811056" lon="12.357727978087494"><ele>675.0</ele><time>2026-05-01T09:48:02Z</time></trkpt><trkpt lat="43.681499249793234" lon="12.35764850209471"><ele>675.0</ele><time>2026-05-01T09:48:03Z</time></trkpt><trkpt lat="43.68157678134311" lon="12.357559758820244"><ele>675.0</ele><time>2026-05-01T09:48:04Z</time></trkpt><trkpt lat="43.68165623018347" lon="12.357439814925657"><ele>675.0</ele><time>2026-05-01T09:48:05Z</time></trkpt><trkpt lat="43.68171508606945" lon="12.357315139272297"><ele>675.0</ele><time>2026-05-01T09:48:06Z</time></trkpt><trkpt lat="43.68178726118968" lon="12.357222507202176"><ele>675.0</ele><time>2026-05-01T09:48:07Z</time></trkpt><trkpt lat="43.681834223489474" lon="12.357107135568596"><ele>676.8333333333334</ele><time>2026-05-01T09:48:08Z</time></trkpt><trkpt lat="43.681877837547056" lon="12.356980402366888"><ele>678.6666666666666</ele><time>2026-05-01T09:48:09Z</time></trkpt><trkpt lat="43.681910331091515" lon="12.3568617138878"><ele>680.5</ele><time>2026-05-01T09:48:10Z</time></trkpt><trkpt lat="43.681970239704064" lon="12.35679526198068"><ele>682.3333333333333</ele><time>2026-05-01T09:48:11Z</time></trkpt><trkpt lat="43.682034910919235" lon="12.356743915757399"><ele>684.1666666666666</ele><time>2026-05-01T09:48:12Z</time></trkpt><trkpt lat="43.68209364162075" lon="12.356660246828866"><ele>686.0</ele><time>2026-05-01T09:48:13Z</time></trkpt><trkpt lat="43.68213252785098" lon="12.356560498168857"><ele>679.6666666666666</ele><time>2026-05-01T09:48:14Z</time></trkpt><trkpt lat="43.68216014476511" lon="12.356479501373789"><ele>673.3333333333333</ele><time>2026-05-01T09:48:16Z</time></trkpt><trkpt lat="43.68224972194287" lon="12.356510097619555"><ele>667.0</ele><time>2026-05-01T09:48:19Z</time></trkpt><trkpt lat="43.68227529378015" lon="12.356667984120275"><ele>660.6666666666666</ele><time>2026-05-01T09:48:21Z</time></trkpt><trkpt lat="43.68224486709166" lon="12.356759748229623"><ele>654.3333333333334</ele><time>2026-05-01T09:48:22Z</time></trkpt><trkpt lat="43.68223748961415" lon="12.356853097471719"><ele>648.0</ele><time>2026-05-01T09:48:23Z</time></trkpt><trkpt lat="43.68219926132156" lon="12.356981510945571"><ele>648.0</ele><time>2026-05-01T09:48:25Z</time></trkpt><trkpt lat="43.682156877281884" lon="12.357142875512103"><ele>648.0</ele><time>2026-05-01T09:48:27Z</time></trkpt><trkpt lat="43.68213877465132" lon="12.357241603207944"><ele>648.0</ele><time>2026-05-01T09:48:28Z</time></trkpt><trkpt lat="43.68212320482907" lon="12.357363424123928"><ele>648.0</ele><time>2026-05-01T09:48:29Z</time></trkpt><trkpt lat="43.68213733735871" lon="12.357484402846142"><ele>648.0</ele><time>2026-05-01T09:48:30Z</time></trkpt><trkpt lat="43.68214254161753" lon="12.357590154165434"><ele>647.0</ele><time>2026-05-01T09:48:31Z</time></trkpt><trkpt lat="43.68214276983312" lon="12.357717329175749"><ele>646.0</ele><time>2026-05-01T09:48:32Z</time></trkpt><trkpt lat="43.682150086015696" lon="12.357833166222264"><ele>645.0</ele><time>2026-05-01T09:48:33Z</time></trkpt><trkpt lat="43.68215551231021" lon="12.357951265045426"><ele>644.0</ele><time>2026-05-01T09:48:34Z</time></trkpt><trkpt lat="43.68214620177293" lon="12.358067247864238"><ele>643.0</ele><time>2026-05-01T09:48:35Z</time></trkpt><trkpt lat="43.68212460614353" lon="12.358190357395276"><ele>642.0</ele><time>2026-05-01T09:48:36Z</time></trkpt><trkpt lat="43.682102970542125" lon="12.35827864034653"><ele>640.0</ele><time>2026-05-01T09:48:37Z</time></trkpt><trkpt lat="43.68207929012153" lon="12.358360910707182"><ele>638.0</ele><time>2026-05-01T09:48:38Z</time></trkpt><trkpt lat="43.682056072317025" lon="12.358446031871933"><ele>636.0</ele><time>2026-05-01T09:48:39Z</time></trkpt><trkpt lat="43.68203775091835" lon="12.358551987521196"><ele>634.0</ele><time>2026-05-01T09:48:40Z</time></trkpt><trkpt lat="43.68209404450232" lon="12.35866832159138"><ele>632.0</ele><time>2026-05-01T09:48:41Z</time></trkpt><trkpt lat="43.68211971337076" lon="12.358793035575106"><ele>630.0</ele><time>2026-05-01T09:48:42Z</time></trkpt><trkpt lat="43.68213898215395" lon="12.358886340221563"><ele>629.3333333333334</ele><time>2026-05-01T09:48:43Z</time></trkpt><trkpt lat="43.682137573574614" lon="12.358981420714747"><ele>628.6666666666666</ele><time>2026-05-01T09:48:44Z</time></trkpt><trkpt lat="43.68210651778051" lon="12.359095732149457"><ele>628.0</ele><time>2026-05-01T09:48:45Z</time></trkpt><trkpt lat="43.682089898947375" lon="12.359204626582265"><ele>627.3333333333333</ele><time>2026-05-01T09:48:46Z</time></trkpt><trkpt lat="43.68209927386975" lon="12.359318222143166"><ele>626.6666666666666</ele><time>2026-05-01T09:48:47Z</time></trkpt><trkpt lat="43.682114983152246" lon="12.359416721930936"><ele>626.0</ele><time>2026-05-01T09:48:48Z</time></trkpt><trkpt lat="43.68214960075122" lon="12.359502191550385"><ele>626.0</ele><time>2026-05-01T09:48:49Z</time></trkpt><trkpt lat="43.68220312751699" lon="12.359583733203106"><ele>626.0</ele><time>2026-05-01T09:48:50Z</time></trkpt><trkpt lat="43.682264199572494" lon="12.359656001535559"><ele>626.0</ele><time>2026-05-01T09:48:51Z</time></trkpt><trkpt lat="43.68232761709879" lon="12.359725738618009"><ele>626.0</ele><time>2026-05-01T09:48:52Z</time></trkpt><trkpt lat="43.68238479249429" lon="12.359811532055216"><ele>626.0</ele><time>2026-05-01T09:48:53Z</time></trkpt><trkpt lat="43.682441073187896" lon="12.35988861188398"><ele>626.0</ele><time>2026-05-01T09:48:54Z</time></trkpt><trkpt lat="43.68249427479" lon="12.359977164111157"><ele>626.0</ele><time>2026-05-01T09:48:55Z</time></trkpt><trkpt lat="43.682563496929426" lon="12.360049322445757"><ele>626.0</ele><time>2026-05-01T09:48:56Z</time></trkpt><trkpt lat="43.682624747328774" lon="12.360124750007119"><ele>626.0</ele><time>2026-05-01T09:48:57Z</time></trkpt><trkpt lat="43.682693604423434" lon="12.360198604122427"><ele>626.0</ele><time>2026-05-01T09:48:58Z</time></trkpt><trkpt lat="43.68272610639886" lon="12.360309475170066"><ele>626.0</ele><time>2026-05-01T09:48:59Z</time></trkpt><trkpt lat="43.682761817905536" lon="12.360421929442213"><ele>626.0</ele><time>2026-05-01T09:49:00Z</time></trkpt><trkpt lat="43.682785605366504" lon="12.360544521206933"><ele>624.8</ele><time>2026-05-01T09:49:01Z</time></trkpt><trkpt lat="43.68280281219459" lon="12.360677538920987"><ele>623.6</ele><time>2026-05-01T09:49:02Z</time></trkpt><trkpt lat="43.68280955981588" lon="12.36082996604764"><ele>622.4</ele><time>2026-05-01T09:49:03Z</time></trkpt><trkpt lat="43.682797047025225" lon="12.360971706882026"><ele>621.2</ele><time>2026-05-01T09:49:04Z</time></trkpt><trkpt lat="43.68278080727965" lon="12.36110293336628"><ele>620.0</ele><time>2026-05-01T09:49:05Z</time></trkpt><trkpt lat="43.68274885020243" lon="12.361239024251802"><ele>620.0</ele><time>2026-05-01T09:49:06Z</time></trkpt><trkpt lat="43.682698198526204" lon="12.361362104465934"><ele>620.0</ele><time>2026-05-01T09:49:07Z</time></trkpt><trkpt lat="43.682655372855734" lon="12.361471578084203"><ele>620.0</ele><time>2026-05-01T09:49:08Z</time></trkpt><trkpt lat="43.68263642801707" lon="12.3615883466289"><ele>620.0</ele><time>2026-05-01T09:49:09Z</time></trkpt><trkpt lat="43.68261776225324" lon="12.361695633512719"><ele>620.0</ele><time>2026-05-01T09:49:10Z</time></trkpt><trkpt lat="43.68261828738646" lon="12.361824966427015"><ele>619.4</ele><time>2026-05-01T09:49:11Z</time></trkpt><trkpt lat="43.68264336659579" lon="12.36195164135837"><ele>618.8</ele><time>2026-05-01T09:49:12Z</time></trkpt><trkpt lat="43.682694709275836" lon="12.36208439744406"><ele>618.2</ele><time>2026-05-01T09:49:13Z</time></trkpt><trkpt lat="43.68275129457168" lon="12.36220299096969"><ele>617.6</ele><time>2026-05-01T09:49:14Z</time></trkpt><trkpt lat="43.68281926731061" lon="12.362290193315731"><ele>617.0</ele><time>2026-05-01T09:49:15Z</time></trkpt><trkpt lat="43.682900647900944" lon="12.362368737885243"><ele>615.4</ele><time>2026-05-01T09:49:16Z</time></trkpt><trkpt lat="43.682993018233425" lon="12.36242789356744"><ele>613.8000000000001</ele><time>2026-05-01T09:49:17Z</time></trkpt><trkpt lat="43.68309017513867" lon="12.362457590088848"><ele>612.2</ele><time>2026-05-01T09:49:18Z</time></trkpt><trkpt lat="43.68318191551831" lon="12.362479226981819"><ele>610.6</ele><time>2026-05-01T09:49:19Z</time></trkpt><trkpt lat="43.68325556961524" lon="12.362524591606967"><ele>609.0</ele><time>2026-05-01T09:49:20Z</time></trkpt><trkpt lat="43.68333093124821" lon="12.362614918706985"><ele>609.0</ele><time>2026-05-01T09:49:21Z</time></trkpt><trkpt lat="43.68336403182121" lon="12.36273638376611"><ele>609.0</ele><time>2026-05-01T09:49:22Z</time></trkpt><trkpt lat="43.68342684306533" lon="12.362834097373039"><ele>609.0</ele><time>2026-05-01T09:49:23Z</time></trkpt><trkpt lat="43.6834856146611" lon="12.36295552570072"><ele>609.0</ele><time>2026-05-01T09:49:24Z</time></trkpt><trkpt lat="43.683546253622275" lon="12.363050257243907"><ele>609.0</ele><time>2026-05-01T09:49:25Z</time></trkpt><trkpt lat="43.68362200853847" lon="12.363121923899953"><ele>608.1666666666666</ele><time>2026-05-01T09:49:26Z</time></trkpt><trkpt lat="43.683730464369816" lon="12.36316522655639"><ele>607.3333333333334</ele><time>2026-05-01T09:49:27Z</time></trkpt><trkpt lat="43.68384256559341" lon="12.363205811983235"><ele>606.5</ele><time>2026-05-01T09:49:28Z</time></trkpt><trkpt lat="43.68391485927556" lon="12.36324299146131"><ele>605.6666666666667</ele><time>2026-05-01T09:49:29Z</time></trkpt><trkpt lat="43.683979031487866" lon="12.363287289012069"><ele>604.8333333333334</ele><time>2026-05-01T09:49:30Z</time></trkpt><trkpt lat="43.684037391722484" lon="12.363334137878297"><ele>604.0</ele><time>2026-05-01T09:49:31Z</time></trkpt><trkpt lat="43.68411338420357" lon="12.363440537147657"><ele>604.0</ele><time>2026-05-01T09:49:33Z</time></trkpt><trkpt lat="43.68410941662538" lon="12.363584829651899"><ele>604.0</ele><time>2026-05-01T09:49:35Z</time></trkpt><trkpt lat="43.684120299186645" lon="12.36368403141117"><ele>604.0</ele><time>2026-05-01T09:49:36Z</time></trkpt><trkpt lat="43.684137249066495" lon="12.363808181318435"><ele>604.0</ele><time>2026-05-01T09:49:37Z</time></trkpt><trkpt lat="43.68416887500922" lon="12.363987886354122"><ele>604.0</ele><time>2026-05-01T09:49:38Z</time></trkpt><trkpt lat="43.684200540847925" lon="12.36415129185091"><ele>604.25</ele><time>2026-05-01T09:49:39Z</time></trkpt><trkpt lat="43.68425179914486" lon="12.364319033582944"><ele>604.5</ele><time>2026-05-01T09:49:40Z</time></trkpt><trkpt lat="43.68430352929749" lon="12.364472468760319"><ele>604.75</ele><time>2026-05-01T09:49:41Z</time></trkpt><trkpt lat="43.68434987311831" lon="12.364607483448369"><ele>605.0</ele><time>2026-05-01T09:49:42Z</time></trkpt><trkpt lat="43.68440064447216" lon="12.364740090185117"><ele>608.4</ele><time>2026-05-01T09:49:43Z</time></trkpt><trkpt lat="43.684430719313845" lon="12.364901204925246"><ele>611.8</ele><time>2026-05-01T09:49:44Z</time></trkpt><trkpt lat="43.68444760298451" lon="12.365047260540658"><ele>615.2</ele><time>2026-05-01T09:49:45Z</time></trkpt><trkpt lat="43.68446167144255" lon="12.365196024042108"><ele>618.6</ele><time>2026-05-01T09:49:46Z</time></trkpt><trkpt lat="43.6844903757176" lon="12.365305193841321"><ele>622.0</ele><time>2026-05-01T09:49:47Z</time></trkpt><trkpt lat="43.68452121682424" lon="12.365399164858998"><ele>622.0</ele><time>2026-05-01T09:49:48Z</time></trkpt><trkpt lat="43.684568591369455" lon="12.365485350447083"><ele>622.0</ele><time>2026-05-01T09:49:49Z</time></trkpt><trkpt lat="43.684621089791534" lon="12.365597218382135"><ele>622.0</ele><time>2026-05-01T09:49:50Z</time></trkpt><trkpt lat="43.68468225740398" lon="12.365720642032088"><ele>622.0</ele><time>2026-05-01T09:49:51Z</time></trkpt><trkpt lat="43.68473587947364" lon="12.365802445055076"><ele>622.0</ele><time>2026-05-01T09:49:52Z</time></trkpt><trkpt lat="43.684792857245775" lon="12.365898353611035"><ele>620.5</ele><time>2026-05-01T09:49:53Z</time></trkpt><trkpt lat="43.684896802152956" lon="12.36598129144241"><ele>619.0</ele><time>2026-05-01T09:49:54Z</time></trkpt><trkpt lat="43.68499127572282" lon="12.366059379776859"><ele>617.5</ele><time>2026-05-01T09:49:55Z</time></trkpt><trkpt lat="43.6850966815082" lon="12.366116852539147"><ele>616.0</ele><time>2026-05-01T09:49:56Z</time></trkpt><trkpt lat="43.68520750972569" lon="12.366156556676623"><ele>615.0</ele><time>2026-05-01T09:49:57Z</time></trkpt><trkpt lat="43.685348192507256" lon="12.366192310197537"><ele>614.0</ele><time>2026-05-01T09:49:58Z</time></trkpt><trkpt lat="43.68547065551979" lon="12.366276626362751"><ele>613.0</ele><time>2026-05-01T09:49:59Z</time></trkpt><trkpt lat="43.68554775902198" lon="12.366318293457335"><ele>612.0</ele><time>2026-05-01T09:50:00Z</time></trkpt><trkpt lat="43.68559926936755" lon="12.366373541819002"><ele>611.0</ele><time>2026-05-01T09:50:01Z</time></trkpt><trkpt lat="43.68569306208681" lon="12.366434580892186"><ele>610.6</ele><time>2026-05-01T09:50:02Z</time></trkpt><trkpt lat="43.68580874960018" lon="12.366485645618567"><ele>610.2</ele><time>2026-05-01T09:50:03Z</time></trkpt><trkpt lat="43.68590154254563" lon="12.366529773923112"><ele>609.8</ele><time>2026-05-01T09:50:04Z</time></trkpt><trkpt lat="43.6859624628557" lon="12.366575686844676"><ele>609.4</ele><time>2026-05-01T09:50:05Z</time></trkpt><trkpt lat="43.686020541140685" lon="12.366610754511177"><ele>609.0</ele><time>2026-05-01T09:50:06Z</time></trkpt><trkpt lat="43.686123420927636" lon="12.366705500454678"><ele>608.6</ele><time>2026-05-01T09:50:08Z</time></trkpt><trkpt lat="43.68618508842025" lon="12.366861449686464"><ele>608.2</ele><time>2026-05-01T09:50:10Z</time></trkpt><trkpt lat="43.686198428738486" lon="12.366953009819806"><ele>607.8000000000001</ele><time>2026-05-01T09:50:11Z</time></trkpt><trkpt lat="43.68620115657687" lon="12.367073543755723"><ele>607.4</ele><time>2026-05-01T09:50:12Z</time></trkpt><trkpt lat="43.68622636334856" lon="12.367228618929902"><ele>607.0</ele><time>2026-05-01T09:50:13Z</time></trkpt><trkpt lat="43.68627600876954" lon="12.3673975471285"><ele>608.75</ele><time>2026-05-01T09:50:14Z</time></trkpt><trkpt lat="43.68634328725206" lon="12.367545997945419"><ele>610.5</ele><time>2026-05-01T09:50:15Z</time></trkpt><trkpt lat="43.68640227685896" lon="12.367733785788094"><ele>612.25</ele><time>2026-05-01T09:50:16Z</time></trkpt><trkpt lat="43.686465398648856" lon="12.367876667345588"><ele>614.0</ele><time>2026-05-01T09:50:17Z</time></trkpt><trkpt lat="43.68653608678202" lon="12.368018841931676"><ele>613.0</ele><time>2026-05-01T09:50:18Z</time></trkpt><trkpt lat="43.68661197678537" lon="12.368146458255957"><ele>612.0</ele><time>2026-05-01T09:50:19Z</time></trkpt><trkpt lat="43.686701805913586" lon="12.368257753859618"><ele>611.0</ele><time>2026-05-01T09:50:20Z</time></trkpt><trkpt lat="43.68677997017971" lon="12.368390060205714"><ele>610.0</ele><time>2026-05-01T09:50:21Z</time></trkpt><trkpt lat="43.68684371586287" lon="12.36850591602764"><ele>610.0</ele><time>2026-05-01T09:50:22Z</time></trkpt><trkpt lat="43.68690112931684" lon="12.368617588262266"><ele>610.0</ele><time>2026-05-01T09:50:23Z</time></trkpt><trkpt lat="43.68696513146829" lon="12.368716118147493"><ele>610.0</ele><time>2026-05-01T09:50:24Z</time></trkpt><trkpt lat="43.68704435718046" lon="12.368789834293061"><ele>610.0</ele><time>2026-05-01T09:50:25Z</time></trkpt><trkpt lat="43.68712284989604" lon="12.368834578601177"><ele>610.0</ele><time>2026-05-01T09:50:26Z</time></trkpt><trkpt lat="43.68721910015283" lon="12.368853800215915"><ele>609.6</ele><time>2026-05-01T09:50:27Z</time></trkpt><trkpt lat="43.687324232004336" lon="12.368852821437054"><ele>609.2</ele><time>2026-05-01T09:50:28Z</time></trkpt><trkpt lat="43.68741308616356" lon="12.368856973077007"><ele>608.8</ele><time>2026-05-01T09:50:29Z</time></trkpt><trkpt lat="43.687484700580754" lon="12.3688867934428"><ele>608.4</ele><time>2026-05-01T09:50:30Z</time></trkpt><trkpt lat="43.687559512867566" lon="12.368957393751126"><ele>608.0</ele><time>2026-05-01T09:50:31Z</time></trkpt><trkpt lat="43.68761314332486" lon="12.369083697843733"><ele>606.5</ele><time>2026-05-01T09:50:32Z</time></trkpt><trkpt lat="43.6877051325641" lon="12.369160797583504"><ele>605.0</ele><time>2026-05-01T09:50:33Z</time></trkpt><trkpt lat="43.6878010751347" lon="12.369201548024487"><ele>603.5</ele><time>2026-05-01T09:50:34Z</time></trkpt><trkpt lat="43.687914028627794" lon="12.36922750808853"><ele>602.0</ele><time>2026-05-01T09:50:35Z</time></trkpt><trkpt lat="43.68802727313927" lon="12.369307496093768"><ele>600.0</ele><time>2026-05-01T09:50:36Z</time></trkpt><trkpt lat="43.68813517276657" lon="12.369378871276254"><ele>598.0</ele><time>2026-05-01T09:50:37Z</time></trkpt><trkpt lat="43.688227373014534" lon="12.369470952729474"><ele>596.0</ele><time>2026-05-01T09:50:38Z</time></trkpt><trkpt lat="43.68830654504289" lon="12.369572562390683"><ele>594.0</ele><time>2026-05-01T09:50:39Z</time></trkpt><trkpt lat="43.68838739386802" lon="12.369682103201802"><ele>593.8</ele><time>2026-05-01T09:50:40Z</time></trkpt><trkpt lat="43.68847460086514" lon="12.369805293546271"><ele>593.5999999999999</ele><time>2026-05-01T09:50:41Z</time></trkpt><trkpt lat="43.68854965491549" lon="12.369912974241146"><ele>593.4</ele><time>2026-05-01T09:50:42Z</time></trkpt><trkpt lat="43.688610839606014" lon="12.370015958689425"><ele>593.1999999999999</ele><time>2026-05-01T09:50:43Z</time></trkpt><trkpt lat="43.688659303866125" lon="12.370138606889393"><ele>593.0</ele><time>2026-05-01T09:50:44Z</time></trkpt><trkpt lat="43.68867967296117" lon="12.370287113385384"><ele>593.0</ele><time>2026-05-01T09:50:45Z</time></trkpt><trkpt lat="43.68870191617075" lon="12.370472855631675"><ele>593.0</ele><time>2026-05-01T09:50:46Z</time></trkpt><trkpt lat="43.68871284524699" lon="12.370683734803318"><ele>593.0</ele><time>2026-05-01T09:50:47Z</time></trkpt><trkpt lat="43.68872107814803" lon="12.370873025209747"><ele>593.0</ele><time>2026-05-01T09:50:48Z</time></trkpt><trkpt lat="43.688725765362626" lon="12.371021838067335"><ele>593.3333333333333</ele><time>2026-05-01T09:50:49Z</time></trkpt><trkpt lat="43.68872804853272" lon="12.371160047552396"><ele>593.6666666666666</ele><time>2026-05-01T09:50:50Z</time></trkpt><trkpt lat="43.688726359039066" lon="12.37128694353567"><ele>594.0</ele><time>2026-05-01T09:50:51Z</time></trkpt><trkpt lat="43.68871247945458" lon="12.371412047992"><ele>594.3333333333334</ele><time>2026-05-01T09:50:52Z</time></trkpt><trkpt lat="43.688679998950576" lon="12.371511139925262"><ele>594.6666666666667</ele><time>2026-05-01T09:50:53Z</time></trkpt><trkpt lat="43.68864534381426" lon="12.371619289836428"><ele>595.0</ele><time>2026-05-01T09:50:54Z</time></trkpt><trkpt lat="43.68861745040041" lon="12.37173704833232"><ele>593.5</ele><time>2026-05-01T09:50:55Z</time></trkpt><trkpt lat="43.68858557858239" lon="12.371866313639252"><ele>592.0</ele><time>2026-05-01T09:50:56Z</time></trkpt><trkpt lat="43.68856995976535" lon="12.371987835510014"><ele>590.5</ele><time>2026-05-01T09:50:57Z</time></trkpt><trkpt lat="43.68856477063579" lon="12.372095346105121"><ele>589.0</ele><time>2026-05-01T09:50:58Z</time></trkpt><trkpt lat="43.68857915822596" lon="12.372199326230954"><ele>587.5</ele><time>2026-05-01T09:50:59Z</time></trkpt><trkpt lat="43.688619940924355" lon="12.372310115581433"><ele>586.0</ele><time>2026-05-01T09:51:00Z</time></trkpt><trkpt lat="43.6886772748816" lon="12.37241829913978"><ele>586.0</ele><time>2026-05-01T09:51:01Z</time></trkpt><trkpt lat="43.68874212005246" lon="12.372520854461747"><ele>586.0</ele><time>2026-05-01T09:51:02Z</time></trkpt><trkpt lat="43.6888029617527" lon="12.372630827421862"><ele>586.0</ele><time>2026-05-01T09:51:03Z</time></trkpt><trkpt lat="43.68884817363987" lon="12.372735466886347"><ele>586.0</ele><time>2026-05-01T09:51:04Z</time></trkpt><trkpt lat="43.68890233258123" lon="12.372838037485774"><ele>586.0</ele><time>2026-05-01T09:51:05Z</time></trkpt><trkpt lat="43.68895536056885" lon="12.372943694811642"><ele>583.6666666666667</ele><time>2026-05-01T09:51:06Z</time></trkpt><trkpt lat="43.68900338416901" lon="12.37304336664207"><ele>581.3333333333334</ele><time>2026-05-01T09:51:07Z</time></trkpt><trkpt lat="43.68905139710738" lon="12.37314407254841"><ele>579.0</ele><time>2026-05-01T09:51:08Z</time></trkpt><trkpt lat="43.68909673201802" lon="12.373236699381735"><ele>576.6666666666666</ele><time>2026-05-01T09:51:09Z</time></trkpt><trkpt lat="43.689114833746864" lon="12.373332093341352"><ele>574.3333333333333</ele><time>2026-05-01T09:51:10Z</time></trkpt><trkpt lat="43.68913384020476" lon="12.373458884355623"><ele>572.0</ele><time>2026-05-01T09:51:12Z</time></trkpt><trkpt lat="43.689134401977725" lon="12.37356781482173"><ele>572.0</ele><time>2026-05-01T09:51:15Z</time></trkpt><trkpt lat="43.68914198782853" lon="12.373666701807645"><ele>572.0</ele><time>2026-05-01T09:51:19Z</time></trkpt><trkpt lat="43.68912425892441" lon="12.373759494228251"><ele>572.0</ele><time>2026-05-01T09:51:26Z</time></trkpt><trkpt lat="43.689123947112414" lon="12.373886079016497"><ele>572.0</ele><time>2026-05-01T09:51:30Z</time></trkpt><trkpt lat="43.68911957553119" lon="12.373975820726582"><ele>572.0</ele><time>2026-05-01T09:51:32Z</time></trkpt><trkpt lat="43.68910853305811" lon="12.374123746470776"><ele>572.0</ele><time>2026-05-01T09:51:34Z</time></trkpt><trkpt lat="43.68923124112287" lon="12.374261482802359"><ele>572.0</ele><time>2026-05-01T09:51:35Z</time></trkpt><trkpt lat="43.6892720460312" lon="12.374378614567563"><ele>572.0</ele><time>2026-05-01T09:51:36Z</time></trkpt><trkpt lat="43.689310141616616" lon="12.374529331755511"><ele>572.0</ele><time>2026-05-01T09:51:37Z</time></trkpt><trkpt lat="43.689367849690406" lon="12.374699031788733"><ele>572.0</ele><time>2026-05-01T09:51:38Z</time></trkpt><trkpt lat="43.689401784205536" lon="12.374883110852963"><ele>570.0</ele><time>2026-05-01T09:51:39Z</time></trkpt><trkpt lat="43.68944275824743" lon="12.375078866626357"><ele>568.0</ele><time>2026-05-01T09:51:40Z</time></trkpt><trkpt lat="43.68950457716532" lon="12.375294065002185"><ele>566.0</ele><time>2026-05-01T09:51:41Z</time></trkpt><trkpt lat="43.68955864921749" lon="12.375549107997703"><ele>566.0</ele><time>2026-05-01T09:51:42Z</time></trkpt><trkpt lat="43.68963226695759" lon="12.375741699937677"><ele>566.0</ele><time>2026-05-01T09:51:43Z</time></trkpt><trkpt lat="43.68965282271138" lon="12.375904501246715"><ele>566.0</ele><time>2026-05-01T09:51:44Z</time></trkpt><trkpt lat="43.68968013370325" lon="12.376088444136897"><ele>566.0</ele><time>2026-05-01T09:51:45Z</time></trkpt><trkpt lat="43.68972797241638" lon="12.376273821442188"><ele>568.0</ele><time>2026-05-01T09:51:46Z</time></trkpt><trkpt lat="43.68974841065049" lon="12.37644147183848"><ele>570.0</ele><time>2026-05-01T09:51:47Z</time></trkpt><trkpt lat="43.68977767040683" lon="12.376599890543698"><ele>572.0</ele><time>2026-05-01T09:51:48Z</time></trkpt><trkpt lat="43.68983363637797" lon="12.37676642841655"><ele>574.0</ele><time>2026-05-01T09:51:49Z</time></trkpt><trkpt lat="43.689902885853385" lon="12.376934996022728"><ele>574.0</ele><time>2026-05-01T09:51:50Z</time></trkpt><trkpt lat="43.69000140312488" lon="12.37710619643767"><ele>574.0</ele><time>2026-05-01T09:51:51Z</time></trkpt><trkpt lat="43.69010623847519" lon="12.377261077586734"><ele>574.0</ele><time>2026-05-01T09:51:52Z</time></trkpt><trkpt lat="43.690193650183424" lon="12.377418900441224"><ele>573.6666666666667</ele><time>2026-05-01T09:51:53Z</time></trkpt><trkpt lat="43.69024546067876" lon="12.377603668831696"><ele>573.3333333333334</ele><time>2026-05-01T09:51:54Z</time></trkpt><trkpt lat="43.69031713704148" lon="12.377803969901704"><ele>573.0</ele><time>2026-05-01T09:51:55Z</time></trkpt><trkpt lat="43.69041692466947" lon="12.378029361398308"><ele>570.3333333333334</ele><time>2026-05-01T09:51:56Z</time></trkpt><trkpt lat="43.690495184400554" lon="12.378271361539747"><ele>567.6666666666667</ele><time>2026-05-01T09:51:57Z</time></trkpt><trkpt lat="43.69054937347191" lon="12.378495222132447"><ele>565.0</ele><time>2026-05-01T09:51:58Z</time></trkpt><trkpt lat="43.690658450404655" lon="12.378712684509901"><ele>561.0</ele><time>2026-05-01T09:51:59Z</time></trkpt><trkpt lat="43.69073560897585" lon="12.378904702505464"><ele>557.0</ele><time>2026-05-01T09:52:00Z</time></trkpt><trkpt lat="43.69081225711724" lon="12.379093444005997"><ele>553.0</ele><time>2026-05-01T09:52:01Z</time></trkpt><trkpt lat="43.690893200974266" lon="12.379274995171079"><ele>553.0</ele><time>2026-05-01T09:52:02Z</time></trkpt><trkpt lat="43.69096857083961" lon="12.379464111002306"><ele>553.0</ele><time>2026-05-01T09:52:03Z</time></trkpt><trkpt lat="43.69106107588929" lon="12.37971390518547"><ele>553.0</ele><time>2026-05-01T09:52:04Z</time></trkpt><trkpt lat="43.691167084842654" lon="12.379991333076916"><ele>553.6666666666667</ele><time>2026-05-01T09:52:05Z</time></trkpt><trkpt lat="43.69128211480345" lon="12.380274629748875"><ele>554.3333333333334</ele><time>2026-05-01T09:52:06Z</time></trkpt><trkpt lat="43.691382418628834" lon="12.380511945947415"><ele>555.0</ele><time>2026-05-01T09:52:07Z</time></trkpt><trkpt lat="43.69148854238133" lon="12.380765357565977"><ele>555.0</ele><time>2026-05-01T09:52:08Z</time></trkpt><trkpt lat="43.69159841611981" lon="12.381060903936973"><ele>555.0</ele><time>2026-05-01T09:52:09Z</time></trkpt><trkpt lat="43.69168673883674" lon="12.381304648725674"><ele>555.0</ele><time>2026-05-01T09:52:10Z</time></trkpt><trkpt lat="43.69173918016649" lon="12.381516987835258"><ele>558.5</ele><time>2026-05-01T09:52:11Z</time></trkpt><trkpt lat="43.69178755244579" lon="12.381694169934782"><ele>562.0</ele><time>2026-05-01T09:52:12Z</time></trkpt><trkpt lat="43.69182439635481" lon="12.381872279998039"><ele>565.5</ele><time>2026-05-01T09:52:13Z</time></trkpt><trkpt lat="43.691848408376096" lon="12.382015028724318"><ele>569.0</ele><time>2026-05-01T09:52:14Z</time></trkpt><trkpt lat="43.6918723204694" lon="12.382140565610065"><ele>571.0</ele><time>2026-05-01T09:52:15Z</time></trkpt><trkpt lat="43.691905922287205" lon="12.382258929190352"><ele>573.0</ele><time>2026-05-01T09:52:16Z</time></trkpt><trkpt lat="43.69195752364828" lon="12.382365380011983"><ele>575.0</ele><time>2026-05-01T09:52:17Z</time></trkpt><trkpt lat="43.692003722340786" lon="12.382466859740621"><ele>577.0</ele><time>2026-05-01T09:52:18Z</time></trkpt><trkpt lat="43.69206210416832" lon="12.382561761515282"><ele>579.0</ele><time>2026-05-01T09:52:19Z</time></trkpt><trkpt lat="43.69213728231488" lon="12.382664753853252"><ele>579.0</ele><time>2026-05-01T09:52:20Z</time></trkpt><trkpt lat="43.69222462481749" lon="12.382763133483481"><ele>579.0</ele><time>2026-05-01T09:52:21Z</time></trkpt><trkpt lat="43.6923038263298" lon="12.382849484122044"><ele>579.0</ele><time>2026-05-01T09:52:22Z</time></trkpt><trkpt lat="43.69236858234336" lon="12.382919984027128"><ele>579.0</ele><time>2026-05-01T09:52:23Z</time></trkpt><trkpt lat="43.69245221633115" lon="12.383000596404191"><ele>579.0</ele><time>2026-05-01T09:52:25Z</time></trkpt><trkpt lat="43.692536297383754" lon="12.383065953542078"><ele>579.0</ele><time>2026-05-01T09:52:27Z</time></trkpt><trkpt lat="43.69261056392838" lon="12.383113805940722"><ele>579.0</ele><time>2026-05-01T09:52:28Z</time></trkpt><trkpt lat="43.692712412342146" lon="12.383155691182964"><ele>579.0</ele><time>2026-05-01T09:52:29Z</time></trkpt><trkpt lat="43.69281611673432" lon="12.38318693589025"><ele>579.0</ele><time>2026-05-01T09:52:30Z</time></trkpt><trkpt lat="43.69292319427766" lon="12.383212155764708"><ele>579.0</ele><time>2026-05-01T09:52:31Z</time></trkpt><trkpt lat="43.69303558354665" lon="12.383236832642005"><ele>577.2</ele><time>2026-05-01T09:52:32Z</time></trkpt><trkpt lat="43.69315151477621" lon="12.383274796216135"><ele>575.4</ele><time>2026-05-01T09:52:33Z</time></trkpt><trkpt lat="43.69325093387477" lon="12.383318578500962"><ele>573.6</ele><time>2026-05-01T09:52:34Z</time></trkpt><trkpt lat="43.693338613320215" lon="12.383382927785892"><ele>571.8</ele><time>2026-05-01T09:52:35Z</time></trkpt><trkpt lat="43.69339817455805" lon="12.383496258211045"><ele>570.0</ele><time>2026-05-01T09:52:36Z</time></trkpt><trkpt lat="43.693488442792535" lon="12.383607939356855"><ele>570.0</ele><time>2026-05-01T09:52:37Z</time></trkpt><trkpt lat="43.6935471283658" lon="12.383755388750723"><ele>570.0</ele><time>2026-05-01T09:52:38Z</time></trkpt><trkpt lat="43.69363339813198" lon="12.383884879646468"><ele>570.0</ele><time>2026-05-01T09:52:39Z</time></trkpt><trkpt lat="43.69374562256982" lon="12.383987478686295"><ele>570.0</ele><time>2026-05-01T09:52:40Z</time></trkpt><trkpt lat="43.69387426519746" lon="12.384083558995428"><ele>566.3333333333334</ele><time>2026-05-01T09:52:41Z</time></trkpt><trkpt lat="43.694029468090356" lon="12.384174456679972"><ele>562.6666666666667</ele><time>2026-05-01T09:52:42Z</time></trkpt><trkpt lat="43.69419506335421" lon="12.384271273292052"><ele>559.0</ele><time>2026-05-01T09:52:43Z</time></trkpt><trkpt lat="43.69436795985823" lon="12.384378072816983"><ele>557.6666666666667</ele><time>2026-05-01T09:52:44Z</time></trkpt><trkpt lat="43.69451005907607" lon="12.384471350329207"><ele>556.3333333333334</ele><time>2026-05-01T09:52:45Z</time></trkpt><trkpt lat="43.69466858904787" lon="12.384541370894922"><ele>555.0</ele><time>2026-05-01T09:52:46Z</time></trkpt><trkpt lat="43.69484457531269" lon="12.384614311684075"><ele>555.0</ele><time>2026-05-01T09:52:47Z</time></trkpt><trkpt lat="43.695026031002335" lon="12.384691885215048"><ele>555.0</ele><time>2026-05-01T09:52:48Z</time></trkpt><trkpt lat="43.69522007719998" lon="12.384791310533803"><ele>555.0</ele><time>2026-05-01T09:52:49Z</time></trkpt><trkpt lat="43.695420732594" lon="12.384886748272496"><ele>555.6666666666666</ele><time>2026-05-01T09:52:50Z</time></trkpt><trkpt lat="43.6955971514172" lon="12.384987380895192"><ele>556.3333333333333</ele><time>2026-05-01T09:52:51Z</time></trkpt><trkpt lat="43.69576152189584" lon="12.385109297103837"><ele>557.0</ele><time>2026-05-01T09:52:52Z</time></trkpt><trkpt lat="43.695903467434306" lon="12.38511503282797"><ele>557.0</ele><time>2026-05-01T09:52:53Z</time></trkpt><trkpt lat="43.696038358427785" lon="12.385167407161317"><ele>557.0</ele><time>2026-05-01T09:52:54Z</time></trkpt><trkpt lat="43.69615838709434" lon="12.385225709715375"><ele>557.0</ele><time>2026-05-01T09:52:55Z</time></trkpt><trkpt lat="43.696251302057526" lon="12.385284597723604"><ele>557.0</ele><time>2026-05-01T09:52:56Z</time></trkpt><trkpt lat="43.69629712891846" lon="12.385387881235419"><ele>557.0</ele><time>2026-05-01T09:52:57Z</time></trkpt><trkpt lat="43.696331100890276" lon="12.38546903171328"><ele>557.0</ele><time>2026-05-01T09:52:58Z</time></trkpt><trkpt lat="43.69636229811595" lon="12.385574461917901"><ele>557.0</ele><time>2026-05-01T09:52:59Z</time></trkpt><trkpt lat="43.696397522791585" lon="12.385700363055806"><ele>557.0</ele><time>2026-05-01T09:53:00Z</time></trkpt><trkpt lat="43.696442343534045" lon="12.38586316014945"><ele>557.0</ele><time>2026-05-01T09:53:01Z</time></trkpt><trkpt lat="43.696505204615335" lon="12.386041721854447"><ele>557.0</ele><time>2026-05-01T09:53:02Z</time></trkpt><trkpt lat="43.696575235956914" lon="12.38621830499989"><ele>557.0</ele><time>2026-05-01T09:53:03Z</time></trkpt><trkpt lat="43.69666618701294" lon="12.386399712927988"><ele>557.0</ele><time>2026-05-01T09:53:04Z</time></trkpt><trkpt lat="43.696726223934476" lon="12.386603972856154"><ele>557.75</ele><time>2026-05-01T09:53:05Z</time></trkpt><trkpt lat="43.696778599874364" lon="12.386766271247469"><ele>558.5</ele><time>2026-05-01T09:53:06Z</time></trkpt><trkpt lat="43.69681597135522" lon="12.386936178273745"><ele>559.25</ele><time>2026-05-01T09:53:07Z</time></trkpt><trkpt lat="43.69684454692698" lon="12.387129174115092"><ele>560.0</ele><time>2026-05-01T09:53:08Z</time></trkpt><trkpt lat="43.69688224234947" lon="12.38734140947124"><ele>561.0</ele><time>2026-05-01T09:53:09Z</time></trkpt><trkpt lat="43.69693869461485" lon="12.387554784171106"><ele>562.0</ele><time>2026-05-01T09:53:10Z</time></trkpt><trkpt lat="43.696977778763326" lon="12.387809972456838"><ele>563.0</ele><time>2026-05-01T09:53:11Z</time></trkpt><trkpt lat="43.697047563773225" lon="12.388060448355699"><ele>563.0</ele><time>2026-05-01T09:53:12Z</time></trkpt><trkpt lat="43.69708469904361" lon="12.388253568007613"><ele>563.0</ele><time>2026-05-01T09:53:13Z</time></trkpt><trkpt lat="43.69712069153876" lon="12.38841020386821"><ele>563.0</ele><time>2026-05-01T09:53:14Z</time></trkpt><trkpt lat="43.69715536676114" lon="12.388549704709549"><ele>563.0</ele><time>2026-05-01T09:53:15Z</time></trkpt><trkpt lat="43.6971982324637" lon="12.388722668724773"><ele>566.0</ele><time>2026-05-01T09:53:16Z</time></trkpt><trkpt lat="43.69725004580086" lon="12.388879886420598"><ele>569.0</ele><time>2026-05-01T09:53:17Z</time></trkpt><trkpt lat="43.69730302811889" lon="12.389015155500477"><ele>572.0</ele><time>2026-05-01T09:53:18Z</time></trkpt><trkpt lat="43.697358226820114" lon="12.389149284487935"><ele>575.0</ele><time>2026-05-01T09:53:19Z</time></trkpt><trkpt lat="43.69741387944281" lon="12.38928958498037"><ele>575.0</ele><time>2026-05-01T09:53:20Z</time></trkpt><trkpt lat="43.69747170027113" lon="12.389421488863016"><ele>575.0</ele><time>2026-05-01T09:53:21Z</time></trkpt><trkpt lat="43.69753816673422" lon="12.389546315501793"><ele>575.0</ele><time>2026-05-01T09:53:22Z</time></trkpt><trkpt lat="43.697597756225875" lon="12.389671956586861"><ele>575.0</ele><time>2026-05-01T09:53:23Z</time></trkpt><trkpt lat="43.697653218444614" lon="12.389787582828347"><ele>575.0</ele><time>2026-05-01T09:53:24Z</time></trkpt><trkpt lat="43.69769750175375" lon="12.389894887382196"><ele>574.5</ele><time>2026-05-01T09:53:25Z</time></trkpt><trkpt lat="43.69771534133801" lon="12.390003938259468"><ele>574.0</ele><time>2026-05-01T09:53:26Z</time></trkpt><trkpt lat="43.69773405127128" lon="12.390108064354386"><ele>573.5</ele><time>2026-05-01T09:53:27Z</time></trkpt><trkpt lat="43.697746231197044" lon="12.390213349729283"><ele>573.0</ele><time>2026-05-01T09:53:28Z</time></trkpt><trkpt lat="43.69774000700083" lon="12.390378611915255"><ele>572.5</ele><time>2026-05-01T09:53:30Z</time></trkpt><trkpt lat="43.69771270398148" lon="12.390495252011881"><ele>572.0</ele><time>2026-05-01T09:53:32Z</time></trkpt><trkpt lat="43.6976758601098" lon="12.390569580192318"><ele>572.0</ele><time>2026-05-01T09:53:36Z</time></trkpt><trkpt lat="43.69752094041481" lon="12.390701885558489"><ele>572.0</ele><time>2026-05-01T09:53:55Z</time></trkpt><trkpt lat="43.697469817137595" lon="12.39064739192196"><ele>572.0</ele><time>2026-05-01T09:53:56Z</time></trkpt><trkpt lat="43.69772128713118" lon="12.389946457957999"><ele>572.0</ele><time>2026-05-01T09:53:59Z</time></trkpt><trkpt lat="43.69765368060945" lon="12.38977406623462"><ele>572.0</ele><time>2026-05-01T09:54:00Z</time></trkpt><trkpt lat="43.69757114980551" lon="12.389605886830504"><ele>572.0</ele><time>2026-05-01T09:54:01Z</time></trkpt><trkpt lat="43.69749880195682" lon="12.389467558571067"><ele>572.0</ele><time>2026-05-01T09:54:02Z</time></trkpt><trkpt lat="43.697435596816256" lon="12.389336219136249"><ele>572.75</ele><time>2026-05-01T09:54:03Z</time></trkpt><trkpt lat="43.697372753108404" lon="12.389182567671728"><ele>573.5</ele><time>2026-05-01T09:54:04Z</time></trkpt><trkpt lat="43.69731335295573" lon="12.38902351508647"><ele>574.25</ele><time>2026-05-01T09:54:05Z</time></trkpt><trkpt lat="43.69726551265355" lon="12.388885791940002"><ele>575.0</ele><time>2026-05-01T09:54:06Z</time></trkpt><trkpt lat="43.69722463451099" lon="12.388763331987318"><ele>572.0</ele><time>2026-05-01T09:54:07Z</time></trkpt><trkpt lat="43.69718333460938" lon="12.388636916734487"><ele>569.0</ele><time>2026-05-01T09:54:08Z</time></trkpt><trkpt lat="43.69712693690666" lon="12.388414497588238"><ele>566.0</ele><time>2026-05-01T09:54:10Z</time></trkpt><trkpt lat="43.69709212011149" lon="12.388257377054313"><ele>563.0</ele><time>2026-05-01T09:54:12Z</time></trkpt><trkpt lat="43.697064703954716" lon="12.388126825958842"><ele>559.1999999999999</ele><time>2026-05-01T09:54:14Z</time></trkpt><trkpt lat="43.69703833543241" lon="12.387992721706501"><ele>555.4</ele><time>2026-05-01T09:54:16Z</time></trkpt><trkpt lat="43.69701013401152" lon="12.38786061995002"><ele>551.5999999999999</ele><time>2026-05-01T09:54:18Z</time></trkpt><trkpt lat="43.696994133492275" lon="12.387763939248257"><ele>547.8</ele><time>2026-05-01T09:54:20Z</time></trkpt><trkpt lat="43.696970458414434" lon="12.387664055646173"><ele>544.0</ele><time>2026-05-01T09:54:32Z</time></trkpt><trkpt lat="43.69693913228647" lon="12.387526455809672"><ele>547.2</ele><time>2026-05-01T09:54:33Z</time></trkpt><trkpt lat="43.69689960308902" lon="12.387338484008978"><ele>550.4</ele><time>2026-05-01T09:54:34Z</time></trkpt><trkpt lat="43.6968729115755" lon="12.387179379227572"><ele>553.6</ele><time>2026-05-01T09:54:35Z</time></trkpt><trkpt lat="43.69684807218561" lon="12.38704884591941"><ele>556.8</ele><time>2026-05-01T09:54:36Z</time></trkpt><trkpt lat="43.69684695991132" lon="12.386931639091666"><ele>560.0</ele><time>2026-05-01T09:54:37Z</time></trkpt><trkpt lat="43.6968187911627" lon="12.386805316126562"><ele>560.0</ele><time>2026-05-01T09:54:39Z</time></trkpt><trkpt lat="43.69687286729674" lon="12.386985277615974"><ele>560.0</ele><time>2026-05-01T09:54:51Z</time></trkpt><trkpt lat="43.6968585053211" lon="12.387160319134312"><ele>560.0</ele><time>2026-05-01T09:54:52Z</time></trkpt><trkpt lat="43.696895274518695" lon="12.387339590750068"><ele>560.0</ele><time>2026-05-01T09:54:53Z</time></trkpt><trkpt lat="43.69693298279573" lon="12.387515638730672"><ele>560.75</ele><time>2026-05-01T09:54:54Z</time></trkpt><trkpt lat="43.69696865592259" lon="12.387695502720756"><ele>561.5</ele><time>2026-05-01T09:54:55Z</time></trkpt><trkpt lat="43.69701045706187" lon="12.387890174361512"><ele>562.25</ele><time>2026-05-01T09:54:56Z</time></trkpt><trkpt lat="43.69705173740956" lon="12.388097016263567"><ele>563.0</ele><time>2026-05-01T09:54:57Z</time></trkpt><trkpt lat="43.69710194054477" lon="12.388329893190189"><ele>563.0</ele><time>2026-05-01T09:54:58Z</time></trkpt><trkpt lat="43.69714607615655" lon="12.388524520640605"><ele>563.0</ele><time>2026-05-01T09:54:59Z</time></trkpt><trkpt lat="43.69719539311945" lon="12.38871609515897"><ele>563.0</ele><time>2026-05-01T09:55:00Z</time></trkpt><trkpt lat="43.697258208219964" lon="12.388908943915538"><ele>563.0</ele><time>2026-05-01T09:55:01Z</time></trkpt><trkpt lat="43.69734046995884" lon="12.389120260355153"><ele>566.0</ele><time>2026-05-01T09:55:02Z</time></trkpt><trkpt lat="43.69743378461915" lon="12.389343682951"><ele>569.0</ele><time>2026-05-01T09:55:03Z</time></trkpt><trkpt lat="43.6975226168631" lon="12.389529568179388"><ele>572.0</ele><time>2026-05-01T09:55:04Z</time></trkpt><trkpt lat="43.69760016433519" lon="12.389684554488209"><ele>572.0</ele><time>2026-05-01T09:55:05Z</time></trkpt><trkpt lat="43.697663726287324" lon="12.38981474674934"><ele>572.0</ele><time>2026-05-01T09:55:06Z</time></trkpt><trkpt lat="43.69771365741266" lon="12.389948374262879"><ele>572.0</ele><time>2026-05-01T09:55:07Z</time></trkpt><trkpt lat="43.69772956851725" lon="12.39008551791737"><ele>572.0</ele><time>2026-05-01T09:55:08Z</time></trkpt><trkpt lat="43.69774555919966" lon="12.3902071474602"><ele>572.0</ele><time>2026-05-01T09:55:09Z</time></trkpt><trkpt lat="43.69774465078597" lon="12.390329422200505"><ele>572.0</ele><time>2026-05-01T09:55:10Z</time></trkpt><trkpt lat="43.697730260733564" lon="12.390442394648035"><ele>572.0</ele><time>2026-05-01T09:55:11Z</time></trkpt><trkpt lat="43.6977002774127" lon="12.39054441207335"><ele>572.0</ele><time>2026-05-01T09:55:12Z</time></trkpt><trkpt lat="43.69764964733239" lon="12.390626441221475"><ele>572.0</ele><time>2026-05-01T09:55:13Z</time></trkpt><trkpt lat="43.69758211488381" lon="12.39070050865979"><ele>572.0</ele><time>2026-05-01T09:55:14Z</time></trkpt><trkpt lat="43.69753090932779" lon="12.390789814072438"><ele>572.0</ele><time>2026-05-01T09:55:15Z</time></trkpt><trkpt lat="43.69749820865161" lon="12.390884771982794"><ele>571.6</ele><time>2026-05-01T09:55:16Z</time></trkpt><trkpt lat="43.697487666557485" lon="12.390976753019343"><ele>571.2</ele><time>2026-05-01T09:55:17Z</time></trkpt><trkpt lat="43.697533447793916" lon="12.391078932765435"><ele>570.8</ele><time>2026-05-01T09:55:18Z</time></trkpt><trkpt lat="43.69755266025842" lon="12.391196294581611"><ele>570.4</ele><time>2026-05-01T09:55:19Z</time></trkpt><trkpt lat="43.6975961336277" lon="12.39133777411457"><ele>570.0</ele><time>2026-05-01T09:55:20Z</time></trkpt><trkpt lat="43.69763146087268" lon="12.39147867755155"><ele>568.0</ele><time>2026-05-01T09:55:21Z</time></trkpt><trkpt lat="43.69765887589833" lon="12.391624957622701"><ele>566.0</ele><time>2026-05-01T09:55:22Z</time></trkpt><trkpt lat="43.69768688342922" lon="12.391795721818815"><ele>564.0</ele><time>2026-05-01T09:55:23Z</time></trkpt><trkpt lat="43.697682808958646" lon="12.391967335638274"><ele>562.0</ele><time>2026-05-01T09:55:24Z</time></trkpt><trkpt lat="43.6976483412471" lon="12.39211772619843"><ele>560.0</ele><time>2026-05-01T09:55:25Z</time></trkpt><trkpt lat="43.69762612768518" lon="12.392237807175976"><ele>558.0</ele><time>2026-05-01T09:55:26Z</time></trkpt><trkpt lat="43.697594173273046" lon="12.39236128138736"><ele>556.0</ele><time>2026-05-01T09:55:27Z</time></trkpt><trkpt lat="43.69755267135698" lon="12.392515533868306"><ele>554.0</ele><time>2026-05-01T09:55:29Z</time></trkpt><trkpt lat="43.697536281800815" lon="12.392651817469226"><ele>552.0</ele><time>2026-05-01T09:55:31Z</time></trkpt><trkpt lat="43.69761003799877" lon="12.392746641931963"><ele>552.0</ele><time>2026-05-01T09:55:33Z</time></trkpt><trkpt lat="43.6977158913989" lon="12.39285657895271"><ele>552.0</ele><time>2026-05-01T09:55:35Z</time></trkpt><trkpt lat="43.697786736231535" lon="12.392924237845126"><ele>552.0</ele><time>2026-05-01T09:55:36Z</time></trkpt><trkpt lat="43.6978502799169" lon="12.393001830109288"><ele>552.0</ele><time>2026-05-01T09:55:37Z</time></trkpt><trkpt lat="43.69790714985115" lon="12.393081437157678"><ele>552.0</ele><time>2026-05-01T09:55:38Z</time></trkpt><trkpt lat="43.69797272789641" lon="12.393181120866716"><ele>551.0</ele><time>2026-05-01T09:55:39Z</time></trkpt><trkpt lat="43.69804187381189" lon="12.393297025504136"><ele>550.0</ele><time>2026-05-01T09:55:40Z</time></trkpt><trkpt lat="43.698114672823294" lon="12.393427154352752"><ele>549.0</ele><time>2026-05-01T09:55:41Z</time></trkpt><trkpt lat="43.698181996261106" lon="12.393555796570748"><ele>548.0</ele><time>2026-05-01T09:55:42Z</time></trkpt><trkpt lat="43.69824073951238" lon="12.393672369830956"><ele>547.0</ele><time>2026-05-01T09:55:43Z</time></trkpt><trkpt lat="43.698291237494914" lon="12.39377467168689"><ele>544.6</ele><time>2026-05-01T09:55:44Z</time></trkpt><trkpt lat="43.69833271336285" lon="12.393851012647945"><ele>542.2</ele><time>2026-05-01T09:55:45Z</time></trkpt><trkpt lat="43.69837133150287" lon="12.393945901762672"><ele>539.8</ele><time>2026-05-01T09:55:47Z</time></trkpt><trkpt lat="43.698525716355306" lon="12.39391456994708"><ele>537.4</ele><time>2026-05-01T09:55:49Z</time></trkpt><trkpt lat="43.69864040655006" lon="12.39388362008203"><ele>535.0</ele><time>2026-05-01T09:55:50Z</time></trkpt><trkpt lat="43.698777790993006" lon="12.393850370469268"><ele>535.0</ele><time>2026-05-01T09:55:51Z</time></trkpt><trkpt lat="43.69891419272862" lon="12.393847483390589"><ele>535.0</ele><time>2026-05-01T09:55:52Z</time></trkpt><trkpt lat="43.69907137417119" lon="12.39387992354343"><ele>535.0</ele><time>2026-05-01T09:55:53Z</time></trkpt><trkpt lat="43.699230261742336" lon="12.39393797401965"><ele>535.0</ele><time>2026-05-01T09:55:54Z</time></trkpt><trkpt lat="43.69935980837332" lon="12.394011369217834"><ele>535.0</ele><time>2026-05-01T09:55:55Z</time></trkpt><trkpt lat="43.69947777507798" lon="12.394085060967456"><ele>535.0</ele><time>2026-05-01T09:55:56Z</time></trkpt><trkpt lat="43.69959186704474" lon="12.394167867731817"><ele>535.0</ele><time>2026-05-01T09:55:57Z</time></trkpt><trkpt lat="43.69969460961809" lon="12.394317523290766"><ele>532.5</ele><time>2026-05-01T09:55:58Z</time></trkpt><trkpt lat="43.69979222818588" lon="12.394476494051043"><ele>530.0</ele><time>2026-05-01T09:55:59Z</time></trkpt><trkpt lat="43.6998958241305" lon="12.39459275746571"><ele>527.5</ele><time>2026-05-01T09:56:00Z</time></trkpt><trkpt lat="43.69998814863951" lon="12.394695321239046"><ele>525.0</ele><time>2026-05-01T09:56:01Z</time></trkpt><trkpt lat="43.70010417062439" lon="12.394780620436133"><ele>523.5</ele><time>2026-05-01T09:56:02Z</time></trkpt><trkpt lat="43.70025292235725" lon="12.394855833414177"><ele>522.0</ele><time>2026-05-01T09:56:03Z</time></trkpt><trkpt lat="43.700385786093975" lon="12.394922358287"><ele>520.5</ele><time>2026-05-01T09:56:04Z</time></trkpt><trkpt lat="43.70050253345069" lon="12.394979153625355"><ele>519.0</ele><time>2026-05-01T09:56:05Z</time></trkpt><trkpt lat="43.70060879062112" lon="12.394996722726523"><ele>519.0</ele><time>2026-05-01T09:56:06Z</time></trkpt><trkpt lat="43.70070987038918" lon="12.394976180504658"><ele>519.0</ele><time>2026-05-01T09:56:07Z</time></trkpt><trkpt lat="43.700802238983016" lon="12.39489677600208"><ele>519.0</ele><time>2026-05-01T09:56:08Z</time></trkpt><trkpt lat="43.70088744526662" lon="12.394761834273924"><ele>519.0</ele><time>2026-05-01T09:56:09Z</time></trkpt><trkpt lat="43.70096559019892" lon="12.394588990374627"><ele>517.75</ele><time>2026-05-01T09:56:10Z</time></trkpt><trkpt lat="43.70103526292489" lon="12.394407796519614"><ele>516.5</ele><time>2026-05-01T09:56:11Z</time></trkpt><trkpt lat="43.701101335523155" lon="12.394236399481613"><ele>515.25</ele><time>2026-05-01T09:56:12Z</time></trkpt><trkpt lat="43.70115384812072" lon="12.394044122887006"><ele>514.0</ele><time>2026-05-01T09:56:13Z</time></trkpt><trkpt lat="43.7011796871891" lon="12.393821573908973"><ele>514.0</ele><time>2026-05-01T09:56:14Z</time></trkpt><trkpt lat="43.70119055066456" lon="12.393589008993924"><ele>514.0</ele><time>2026-05-01T09:56:15Z</time></trkpt><trkpt lat="43.70118820379843" lon="12.393366249062625"><ele>514.0</ele><time>2026-05-01T09:56:16Z</time></trkpt><trkpt lat="43.701193593227465" lon="12.393166568559689"><ele>512.25</ele><time>2026-05-01T09:56:17Z</time></trkpt><trkpt lat="43.70119549788981" lon="12.392969311606002"><ele>510.5</ele><time>2026-05-01T09:56:18Z</time></trkpt><trkpt lat="43.70118870628786" lon="12.39278020170476"><ele>508.75</ele><time>2026-05-01T09:56:19Z</time></trkpt><trkpt lat="43.70116493239859" lon="12.39259199454275"><ele>507.0</ele><time>2026-05-01T09:56:20Z</time></trkpt><trkpt lat="43.70112194399484" lon="12.392399911016986"><ele>508.75</ele><time>2026-05-01T09:56:21Z</time></trkpt><trkpt lat="43.70105905340017" lon="12.392206871067497"><ele>510.5</ele><time>2026-05-01T09:56:22Z</time></trkpt><trkpt lat="43.70098531265734" lon="12.392045063393395"><ele>512.25</ele><time>2026-05-01T09:56:23Z</time></trkpt><trkpt lat="43.70088802716079" lon="12.391896266499224"><ele>514.0</ele><time>2026-05-01T09:56:24Z</time></trkpt><trkpt lat="43.70075672627194" lon="12.391756632620282"><ele>514.0</ele><time>2026-05-01T09:56:25Z</time></trkpt><trkpt lat="43.700607590664674" lon="12.391634512097182"><ele>514.0</ele><time>2026-05-01T09:56:26Z</time></trkpt><trkpt lat="43.700482997136426" lon="12.391507685640716"><ele>514.0</ele><time>2026-05-01T09:56:27Z</time></trkpt><trkpt lat="43.7003751994225" lon="12.391402936797393"><ele>511.33333333333337</ele><time>2026-05-01T09:56:28Z</time></trkpt><trkpt lat="43.700330658771556" lon="12.391216958216546"><ele>508.66666666666663</ele><time>2026-05-01T09:56:29Z</time></trkpt><trkpt lat="43.70029497011957" lon="12.391006842121033"><ele>506.0</ele><time>2026-05-01T09:56:30Z</time></trkpt><trkpt lat="43.70029498303677" lon="12.390766898118315"><ele>506.0</ele><time>2026-05-01T09:56:31Z</time></trkpt><trkpt lat="43.70027426815693" lon="12.390530835180043"><ele>506.0</ele><time>2026-05-01T09:56:32Z</time></trkpt><trkpt lat="43.70027671736625" lon="12.39032206343805"><ele>506.0</ele><time>2026-05-01T09:56:33Z</time></trkpt><trkpt lat="43.70030548179447" lon="12.390114218145966"><ele>506.0</ele><time>2026-05-01T09:56:34Z</time></trkpt><trkpt lat="43.70039812646701" lon="12.389950720874259"><ele>506.0</ele><time>2026-05-01T09:56:35Z</time></trkpt><trkpt lat="43.70049099319044" lon="12.389787932483458"><ele>506.0</ele><time>2026-05-01T09:56:36Z</time></trkpt><trkpt lat="43.70058513429738" lon="12.389637915399462"><ele>506.0</ele><time>2026-05-01T09:56:37Z</time></trkpt><trkpt lat="43.70069325894867" lon="12.389500779395988"><ele>507.0</ele><time>2026-05-01T09:56:38Z</time></trkpt><trkpt lat="43.70089536160125" lon="12.38927284187289"><ele>508.0</ele><time>2026-05-01T09:56:40Z</time></trkpt><trkpt lat="43.70099513592537" lon="12.389189504567497"><ele>509.0</ele><time>2026-05-01T09:56:41Z</time></trkpt><trkpt lat="43.70110994725453" lon="12.389103635193504"><ele>509.0</ele><time>2026-05-01T09:56:42Z</time></trkpt><trkpt lat="43.70125994421753" lon="12.389068433721125"><ele>509.0</ele><time>2026-05-01T09:56:43Z</time></trkpt><trkpt lat="43.70144465613328" lon="12.389052061463119"><ele>509.0</ele><time>2026-05-01T09:56:44Z</time></trkpt><trkpt lat="43.70164345603547" lon="12.389044477876116"><ele>509.0</ele><time>2026-05-01T09:56:45Z</time></trkpt><trkpt lat="43.70180513901207" lon="12.389054236543522"><ele>509.0</ele><time>2026-05-01T09:56:46Z</time></trkpt><trkpt lat="43.70194189191042" lon="12.389016620726608"><ele>509.0</ele><time>2026-05-01T09:56:47Z</time></trkpt><trkpt lat="43.702078130082754" lon="12.388944873281941"><ele>509.0</ele><time>2026-05-01T09:56:48Z</time></trkpt><trkpt lat="43.70221935560826" lon="12.388818143072768"><ele>510.0</ele><time>2026-05-01T09:56:49Z</time></trkpt><trkpt lat="43.70238022034552" lon="12.388668988347149"><ele>511.0</ele><time>2026-05-01T09:56:50Z</time></trkpt><trkpt lat="43.70256297668284" lon="12.388505558235742"><ele>512.0</ele><time>2026-05-01T09:56:51Z</time></trkpt><trkpt lat="43.70275999528877" lon="12.388322097871663"><ele>512.0</ele><time>2026-05-01T09:56:52Z</time></trkpt><trkpt lat="43.702957355658945" lon="12.388119794360646"><ele>512.0</ele><time>2026-05-01T09:56:53Z</time></trkpt><trkpt lat="43.703137794110944" lon="12.387957787123527"><ele>511.66666666666663</ele><time>2026-05-01T09:56:54Z</time></trkpt><trkpt lat="43.70332164850814" lon="12.387826322261486"><ele>511.33333333333337</ele><time>2026-05-01T09:56:55Z</time></trkpt><trkpt lat="43.70349722839698" lon="12.38767943587533"><ele>511.0</ele><time>2026-05-01T09:56:56Z</time></trkpt><trkpt lat="43.70366698144043" lon="12.387571568856716"><ele>511.0</ele><time>2026-05-01T09:56:57Z</time></trkpt><trkpt lat="43.703831088505645" lon="12.387427703753472"><ele>511.0</ele><time>2026-05-01T09:56:58Z</time></trkpt><trkpt lat="43.70397781421019" lon="12.387240979180474"><ele>511.0</ele><time>2026-05-01T09:56:59Z</time></trkpt><trkpt lat="43.704105499789634" lon="12.387033951771262"><ele>512.6666666666667</ele><time>2026-05-01T09:57:00Z</time></trkpt><trkpt lat="43.70425660171309" lon="12.386861920471937"><ele>514.3333333333334</ele><time>2026-05-01T09:57:01Z</time></trkpt><trkpt lat="43.704409112807625" lon="12.38672851973061"><ele>516.0</ele><time>2026-05-01T09:57:02Z</time></trkpt><trkpt lat="43.704577125916934" lon="12.386621526694888"><ele>516.6666666666666</ele><time>2026-05-01T09:57:03Z</time></trkpt><trkpt lat="43.70476393365805" lon="12.386570488091142"><ele>517.3333333333333</ele><time>2026-05-01T09:57:04Z</time></trkpt><trkpt lat="43.704966791199645" lon="12.386468439890182"><ele>518.0</ele><time>2026-05-01T09:57:05Z</time></trkpt><trkpt lat="43.70518660572114" lon="12.38640829953813"><ele>518.3333333333333</ele><time>2026-05-01T09:57:06Z</time></trkpt><trkpt lat="43.705373764168804" lon="12.386349787280801"><ele>518.6666666666666</ele><time>2026-05-01T09:57:07Z</time></trkpt><trkpt lat="43.70554985412627" lon="12.386302627803099"><ele>519.0</ele><time>2026-05-01T09:57:08Z</time></trkpt><trkpt lat="43.70573472388822" lon="12.386333631840179"><ele>524.0</ele><time>2026-05-01T09:57:09Z</time></trkpt><trkpt lat="43.70592661858016" lon="12.386331878697082"><ele>529.0</ele><time>2026-05-01T09:57:10Z</time></trkpt><trkpt lat="43.70610967183091" lon="12.386373149757809"><ele>534.0</ele><time>2026-05-01T09:57:11Z</time></trkpt><trkpt lat="43.706283530837496" lon="12.386458287628049"><ele>534.0</ele><time>2026-05-01T09:57:12Z</time></trkpt><trkpt lat="43.706430441752076" lon="12.38662193383343"><ele>534.0</ele><time>2026-05-01T09:57:13Z</time></trkpt><trkpt lat="43.7065935899723" lon="12.386758588893072"><ele>534.0</ele><time>2026-05-01T09:57:14Z</time></trkpt><trkpt lat="43.70674524715348" lon="12.386823840435826"><ele>534.0</ele><time>2026-05-01T09:57:15Z</time></trkpt><trkpt lat="43.7068502647911" lon="12.386930639802564"><ele>534.0</ele><time>2026-05-01T09:57:16Z</time></trkpt><trkpt lat="43.7068747147456" lon="12.387096861037703"><ele>534.0</ele><time>2026-05-01T09:57:17Z</time></trkpt><trkpt lat="43.706889551447844" lon="12.38727644421504"><ele>534.0</ele><time>2026-05-01T09:57:18Z</time></trkpt><trkpt lat="43.70690920095049" lon="12.38751432511808"><ele>534.0</ele><time>2026-05-01T09:57:19Z</time></trkpt><trkpt lat="43.70693869324836" lon="12.387763960418157"><ele>534.0</ele><time>2026-05-01T09:57:20Z</time></trkpt><trkpt lat="43.70699494051036" lon="12.38796449013796"><ele>534.0</ele><time>2026-05-01T09:57:21Z</time></trkpt><trkpt lat="43.70706309322652" lon="12.388140304567923"><ele>531.6666666666666</ele><time>2026-05-01T09:57:22Z</time></trkpt><trkpt lat="43.70716978859244" lon="12.388302148755706"><ele>529.3333333333333</ele><time>2026-05-01T09:57:23Z</time></trkpt><trkpt lat="43.7073022163052" lon="12.388477744578543"><ele>527.0</ele><time>2026-05-01T09:57:24Z</time></trkpt><trkpt lat="43.707438234433354" lon="12.388645436600981"><ele>527.0</ele><time>2026-05-01T09:57:25Z</time></trkpt><trkpt lat="43.7075471918658" lon="12.388798517878373"><ele>527.0</ele><time>2026-05-01T09:57:26Z</time></trkpt><trkpt lat="43.70765272701485" lon="12.388925041483027"><ele>527.0</ele><time>2026-05-01T09:57:27Z</time></trkpt><trkpt lat="43.707767092182124" lon="12.38900242037187"><ele>527.0</ele><time>2026-05-01T09:57:28Z</time></trkpt><trkpt lat="43.70789175082296" lon="12.389010559273064"><ele>527.25</ele><time>2026-05-01T09:57:29Z</time></trkpt><trkpt lat="43.708007017753374" lon="12.388949393369716"><ele>527.5</ele><time>2026-05-01T09:57:30Z</time></trkpt><trkpt lat="43.70812587014351" lon="12.388867723160828"><ele>527.75</ele><time>2026-05-01T09:57:31Z</time></trkpt><trkpt lat="43.70824497584352" lon="12.388816365204278"><ele>528.0</ele><time>2026-05-01T09:57:32Z</time></trkpt><trkpt lat="43.708355764767475" lon="12.388824447969268"><ele>525.6</ele><time>2026-05-01T09:57:33Z</time></trkpt><trkpt lat="43.70845666688321" lon="12.38887591222236"><ele>523.1999999999999</ele><time>2026-05-01T09:57:34Z</time></trkpt><trkpt lat="43.70854439027805" lon="12.38896656718343"><ele>520.8</ele><time>2026-05-01T09:57:35Z</time></trkpt><trkpt lat="43.70857241689515" lon="12.389109202068157"><ele>518.4</ele><time>2026-05-01T09:57:36Z</time></trkpt><trkpt lat="43.70861558391711" lon="12.38922737422944"><ele>516.0</ele><time>2026-05-01T09:57:37Z</time></trkpt><trkpt lat="43.70867003295104" lon="12.389356542882927"><ele>515.0</ele><time>2026-05-01T09:57:38Z</time></trkpt><trkpt lat="43.70871262549888" lon="12.389498822726294"><ele>514.0</ele><time>2026-05-01T09:57:39Z</time></trkpt><trkpt lat="43.70876191557282" lon="12.389629764455064"><ele>513.0</ele><time>2026-05-01T09:57:40Z</time></trkpt><trkpt lat="43.70881493541056" lon="12.389723110853742"><ele>512.0</ele><time>2026-05-01T09:57:41Z</time></trkpt><trkpt lat="43.70887602552607" lon="12.389760432417548"><ele>511.0</ele><time>2026-05-01T09:57:42Z</time></trkpt><trkpt lat="43.708943250145346" lon="12.389752037474818"><ele>510.0</ele><time>2026-05-01T09:57:43Z</time></trkpt><trkpt lat="43.70899732083853" lon="12.389680862232606"><ele>510.0</ele><time>2026-05-01T09:57:44Z</time></trkpt><trkpt lat="43.709026758961315" lon="12.389565701449339"><ele>510.0</ele><time>2026-05-01T09:57:45Z</time></trkpt><trkpt lat="43.709013222133414" lon="12.389413789089675"><ele>510.0</ele><time>2026-05-01T09:57:46Z</time></trkpt><trkpt lat="43.70900070177901" lon="12.389255651756693"><ele>510.0</ele><time>2026-05-01T09:57:47Z</time></trkpt><trkpt lat="43.70904084048589" lon="12.389069246045395"><ele>510.0</ele><time>2026-05-01T09:57:48Z</time></trkpt><trkpt lat="43.70911355074" lon="12.388848268598633"><ele>510.0</ele><time>2026-05-01T09:57:49Z</time></trkpt><trkpt lat="43.7092095682025" lon="12.38861574966496"><ele>510.0</ele><time>2026-05-01T09:57:50Z</time></trkpt><trkpt lat="43.70930617463161" lon="12.388384201195606"><ele>502.33333333333337</ele><time>2026-05-01T09:57:51Z</time></trkpt><trkpt lat="43.70942561133317" lon="12.388162618394517"><ele>494.6666666666667</ele><time>2026-05-01T09:57:52Z</time></trkpt><trkpt lat="43.709555246591236" lon="12.387959201563278"><ele>487.0</ele><time>2026-05-01T09:57:53Z</time></trkpt><trkpt lat="43.7096804739484" lon="12.387769316343986"><ele>487.0</ele><time>2026-05-01T09:57:54Z</time></trkpt><trkpt lat="43.70979263609596" lon="12.387573806309508"><ele>487.0</ele><time>2026-05-01T09:57:55Z</time></trkpt><trkpt lat="43.70989335699009" lon="12.387390158540766"><ele>487.0</ele><time>2026-05-01T09:57:56Z</time></trkpt><trkpt lat="43.709985682367375" lon="12.387227445899946"><ele>487.0</ele><time>2026-05-01T09:57:57Z</time></trkpt><trkpt lat="43.71008743710335" lon="12.387093383772243"><ele>487.0</ele><time>2026-05-01T09:57:58Z</time></trkpt><trkpt lat="43.710207624418906" lon="12.386979932707478"><ele>487.0</ele><time>2026-05-01T09:57:59Z</time></trkpt><trkpt lat="43.710358046745526" lon="12.386897188712362"><ele>487.0</ele><time>2026-05-01T09:58:00Z</time></trkpt><trkpt lat="43.71053565962183" lon="12.386823247570302"><ele>484.0</ele><time>2026-05-01T09:58:01Z</time></trkpt><trkpt lat="43.71072949030021" lon="12.3867443395366"><ele>481.0</ele><time>2026-05-01T09:58:02Z</time></trkpt><trkpt lat="43.71091998334345" lon="12.386659990888882"><ele>478.0</ele><time>2026-05-01T09:58:03Z</time></trkpt><trkpt lat="43.71109296627039" lon="12.386581881786832"><ele>475.6666666666667</ele><time>2026-05-01T09:58:04Z</time></trkpt><trkpt lat="43.71125748399447" lon="12.386512495736367"><ele>473.33333333333337</ele><time>2026-05-01T09:58:05Z</time></trkpt><trkpt lat="43.711414561814976" lon="12.386447036449974"><ele>471.0</ele><time>2026-05-01T09:58:06Z</time></trkpt><trkpt lat="43.711565837741546" lon="12.38638113954639"><ele>470.5</ele><time>2026-05-01T09:58:07Z</time></trkpt><trkpt lat="43.711703673779056" lon="12.386314410343374"><ele>470.0</ele><time>2026-05-01T09:58:08Z</time></trkpt><trkpt lat="43.71183720848763" lon="12.386250218983262"><ele>469.5</ele><time>2026-05-01T09:58:09Z</time></trkpt><trkpt lat="43.711970630415244" lon="12.386213597729212"><ele>469.0</ele><time>2026-05-01T09:58:10Z</time></trkpt><trkpt lat="43.71210998351851" lon="12.386216033955767"><ele>468.0</ele><time>2026-05-01T09:58:11Z</time></trkpt><trkpt lat="43.7122514610695" lon="12.386241780821821"><ele>467.0</ele><time>2026-05-01T09:58:12Z</time></trkpt><trkpt lat="43.7123845544323" lon="12.386272305198164"><ele>466.0</ele><time>2026-05-01T09:58:13Z</time></trkpt><trkpt lat="43.71249653163737" lon="12.38630486311339"><ele>465.0</ele><time>2026-05-01T09:58:14Z</time></trkpt><trkpt lat="43.71258787941513" lon="12.38632263255553"><ele>465.0</ele><time>2026-05-01T09:58:15Z</time></trkpt><trkpt lat="43.712671997570155" lon="12.386302202208823"><ele>465.0</ele><time>2026-05-01T09:58:16Z</time></trkpt><trkpt lat="43.71274356185067" lon="12.386227876296376"><ele>465.0</ele><time>2026-05-01T09:58:17Z</time></trkpt><trkpt lat="43.712786158120785" lon="12.386092892124807"><ele>465.0</ele><time>2026-05-01T09:58:18Z</time></trkpt><trkpt lat="43.712808897682706" lon="12.385927761673388"><ele>465.0</ele><time>2026-05-01T09:58:19Z</time></trkpt><trkpt lat="43.712811035549" lon="12.385768139436486"><ele>465.0</ele><time>2026-05-01T09:58:20Z</time></trkpt><trkpt lat="43.71278865796332" lon="12.385644048148905"><ele>465.0</ele><time>2026-05-01T09:58:21Z</time></trkpt><trkpt lat="43.712725180308055" lon="12.385544651731504"><ele>465.0</ele><time>2026-05-01T09:58:22Z</time></trkpt><trkpt lat="43.71262686236284" lon="12.385450951264906"><ele>465.0</ele><time>2026-05-01T09:58:23Z</time></trkpt><trkpt lat="43.71249536183936" lon="12.385448327828799"><ele>465.0</ele><time>2026-05-01T09:58:24Z</time></trkpt><trkpt lat="43.71239269251323" lon="12.3854263127691"><ele>462.8</ele><time>2026-05-01T09:58:25Z</time></trkpt><trkpt lat="43.712321675063976" lon="12.385418345593207"><ele>460.6</ele><time>2026-05-01T09:58:26Z</time></trkpt><trkpt lat="43.712276662655476" lon="12.385281346015603"><ele>458.4</ele><time>2026-05-01T09:58:28Z</time></trkpt><trkpt lat="43.71233967566995" lon="12.385179144840743"><ele>456.2</ele><time>2026-05-01T09:58:29Z</time></trkpt><trkpt lat="43.71245248284988" lon="12.385126181089715"><ele>454.0</ele><time>2026-05-01T09:58:30Z</time></trkpt><trkpt lat="43.712591068010795" lon="12.385085082590482"><ele>454.0</ele><time>2026-05-01T09:58:31Z</time></trkpt><trkpt lat="43.712735281624674" lon="12.38503590532677"><ele>454.0</ele><time>2026-05-01T09:58:32Z</time></trkpt><trkpt lat="43.71286808458921" lon="12.384975544691052"><ele>454.0</ele><time>2026-05-01T09:58:33Z</time></trkpt><trkpt lat="43.712997863437415" lon="12.384947067846245"><ele>454.0</ele><time>2026-05-01T09:58:34Z</time></trkpt><trkpt lat="43.71313398678991" lon="12.384955125348643"><ele>452.6666666666667</ele><time>2026-05-01T09:58:35Z</time></trkpt><trkpt lat="43.71327577177796" lon="12.385008968411459"><ele>451.33333333333337</ele><time>2026-05-01T09:58:36Z</time></trkpt><trkpt lat="43.71342540818219" lon="12.385105987982955"><ele>450.0</ele><time>2026-05-01T09:58:37Z</time></trkpt><trkpt lat="43.71359772962949" lon="12.385246919820352"><ele>446.25</ele><time>2026-05-01T09:58:38Z</time></trkpt><trkpt lat="43.71376235756464" lon="12.385383436225442"><ele>442.5</ele><time>2026-05-01T09:58:39Z</time></trkpt><trkpt lat="43.71387583286662" lon="12.385525011745507"><ele>438.75</ele><time>2026-05-01T09:58:40Z</time></trkpt><trkpt lat="43.71396667753847" lon="12.385587656111369"><ele>435.0</ele><time>2026-05-01T09:58:41Z</time></trkpt><trkpt lat="43.71403585441436" lon="12.385648872393672"><ele>435.0</ele><time>2026-05-01T09:58:42Z</time></trkpt><trkpt lat="43.71422806167981" lon="12.38577119230312"><ele>435.0</ele><time>2026-05-01T09:58:43Z</time></trkpt><trkpt lat="43.71430347801955" lon="12.38580004419356"><ele>435.0</ele><time>2026-05-01T09:58:44Z</time></trkpt><trkpt lat="43.71436350138587" lon="12.385768977652342"><ele>435.0</ele><time>2026-05-01T09:58:45Z</time></trkpt><trkpt lat="43.71440049637176" lon="12.38567850605903"><ele>435.0</ele><time>2026-05-01T09:58:46Z</time></trkpt><trkpt lat="43.714344503863735" lon="12.385395808549205"><ele>435.0</ele><time>2026-05-01T09:58:48Z</time></trkpt><trkpt lat="43.71430946718577" lon="12.38520755979419"><ele>435.0</ele><time>2026-05-01T09:58:49Z</time></trkpt><trkpt lat="43.7142740759475" lon="12.384999397742975"><ele>435.0</ele><time>2026-05-01T09:58:50Z</time></trkpt><trkpt lat="43.714315055269346" lon="12.384761466558968"><ele>433.66666666666663</ele><time>2026-05-01T09:58:51Z</time></trkpt><trkpt lat="43.71435832757592" lon="12.38452931907149"><ele>432.3333333333333</ele><time>2026-05-01T09:58:52Z</time></trkpt><trkpt lat="43.71441776336546" lon="12.384334185390829"><ele>431.0</ele><time>2026-05-01T09:58:53Z</time></trkpt><trkpt lat="43.714472135396186" lon="12.384152934778541"><ele>428.5</ele><time>2026-05-01T09:58:54Z</time></trkpt><trkpt lat="43.7145255063835" lon="12.384031088868216"><ele>426.0</ele><time>2026-05-01T09:58:55Z</time></trkpt><trkpt lat="43.714532591456745" lon="12.383859856545566"><ele>423.5</ele><time>2026-05-01T09:58:56Z</time></trkpt><trkpt lat="43.71447335500533" lon="12.383702111407958"><ele>421.0</ele><time>2026-05-01T09:58:57Z</time></trkpt><trkpt lat="43.71438531598688" lon="12.38353743528069"><ele>421.0</ele><time>2026-05-01T09:58:58Z</time></trkpt><trkpt lat="43.71427235836989" lon="12.383367225827765"><ele>421.0</ele><time>2026-05-01T09:58:59Z</time></trkpt><trkpt lat="43.71411847800285" lon="12.383200665803358"><ele>421.0</ele><time>2026-05-01T09:59:00Z</time></trkpt><trkpt lat="43.713951421789474" lon="12.38301450577021"><ele>414.5</ele><time>2026-05-01T09:59:01Z</time></trkpt><trkpt lat="43.71377360897869" lon="12.382816273753111"><ele>408.0</ele><time>2026-05-01T09:59:02Z</time></trkpt><trkpt lat="43.71357607120052" lon="12.382618703032232"><ele>409.33333333333337</ele><time>2026-05-01T09:59:03Z</time></trkpt><trkpt lat="43.71338375326908" lon="12.382402697274381"><ele>410.6666666666667</ele><time>2026-05-01T09:59:04Z</time></trkpt><trkpt lat="43.713205394617816" lon="12.382272938189345"><ele>412.0</ele><time>2026-05-01T09:59:05Z</time></trkpt><trkpt lat="43.713067655013916" lon="12.382171244468454"><ele>410.00000000000006</ele><time>2026-05-01T09:59:06Z</time></trkpt><trkpt lat="43.7129614686228" lon="12.38207324450551"><ele>408.0</ele><time>2026-05-01T09:59:07Z</time></trkpt><trkpt lat="43.712899819582155" lon="12.381975669661513"><ele>406.0</ele><time>2026-05-01T09:59:08Z</time></trkpt><trkpt lat="43.71290054732794" lon="12.381882205528836"><ele>404.0</ele><time>2026-05-01T09:59:09Z</time></trkpt><trkpt lat="43.71293685322527" lon="12.381795194394545"><ele>402.00000000000006</ele><time>2026-05-01T09:59:10Z</time></trkpt><trkpt lat="43.71300709266592" lon="12.381732049189472"><ele>400.0</ele><time>2026-05-01T09:59:11Z</time></trkpt><trkpt lat="43.713118057572935" lon="12.3817446603984"><ele>400.0</ele><time>2026-05-01T09:59:12Z</time></trkpt><trkpt lat="43.71325942861769" lon="12.381706878564419"><ele>400.0</ele><time>2026-05-01T09:59:13Z</time></trkpt><trkpt lat="43.71340894598237" lon="12.381658008575423"><ele>400.0</ele><time>2026-05-01T09:59:14Z</time></trkpt><trkpt lat="43.71356776071433" lon="12.381570578302025"><ele>399.0</ele><time>2026-05-01T09:59:15Z</time></trkpt><trkpt lat="43.713744068012325" lon="12.381428016051846"><ele>398.0</ele><time>2026-05-01T09:59:16Z</time></trkpt><trkpt lat="43.71392184841285" lon="12.381272964020216"><ele>397.0</ele><time>2026-05-01T09:59:17Z</time></trkpt><trkpt lat="43.714095615337556" lon="12.381112071494872"><ele>393.6666666666667</ele><time>2026-05-01T09:59:18Z</time></trkpt><trkpt lat="43.71427412940127" lon="12.380934837971848"><ele>390.33333333333337</ele><time>2026-05-01T09:59:19Z</time></trkpt><trkpt lat="43.7144159098012" lon="12.380788863505952"><ele>387.0</ele><time>2026-05-01T09:59:20Z</time></trkpt><trkpt lat="43.714528193587995" lon="12.380677416661342"><ele>383.6</ele><time>2026-05-01T09:59:21Z</time></trkpt><trkpt lat="43.714622598617005" lon="12.380567737854713"><ele>380.20000000000005</ele><time>2026-05-01T09:59:22Z</time></trkpt><trkpt lat="43.714693020969555" lon="12.380458461042284"><ele>376.8</ele><time>2026-05-01T09:59:23Z</time></trkpt><trkpt lat="43.714728517831134" lon="12.380329369130877"><ele>373.4</ele><time>2026-05-01T09:59:24Z</time></trkpt><trkpt lat="43.71471311213348" lon="12.380192016560635"><ele>370.0</ele><time>2026-05-01T09:59:25Z</time></trkpt><trkpt lat="43.71466121984061" lon="12.380070202310486"><ele>368.5</ele><time>2026-05-01T09:59:26Z</time></trkpt><trkpt lat="43.714589415711266" lon="12.379958497701647"><ele>367.0</ele><time>2026-05-01T09:59:27Z</time></trkpt><trkpt lat="43.71446352392066" lon="12.379964749003937"><ele>365.5</ele><time>2026-05-01T09:59:28Z</time></trkpt><trkpt lat="43.714341537717566" lon="12.380008918860968"><ele>364.0</ele><time>2026-05-01T09:59:29Z</time></trkpt><trkpt lat="43.71422835943424" lon="12.380097337236274"><ele>366.79999999999995</ele><time>2026-05-01T09:59:30Z</time></trkpt><trkpt lat="43.71412907815494" lon="12.380142033695705"><ele>369.59999999999997</ele><time>2026-05-01T09:59:31Z</time></trkpt><trkpt lat="43.71405657885785" lon="12.380154794939239"><ele>372.4</ele><time>2026-05-01T09:59:32Z</time></trkpt><trkpt lat="43.71397953680675" lon="12.380140793383577"><ele>375.2</ele><time>2026-05-01T09:59:33Z</time></trkpt><trkpt lat="43.713924951963" lon="12.380022713116265"><ele>378.0</ele><time>2026-05-01T09:59:34Z</time></trkpt><trkpt lat="43.71385605480193" lon="12.379934352760914"><ele>378.0</ele><time>2026-05-01T09:59:35Z</time></trkpt><trkpt lat="43.71383253197453" lon="12.379808157048638"><ele>378.0</ele><time>2026-05-01T09:59:36Z</time></trkpt><trkpt lat="43.71382378611243" lon="12.379695560284983"><ele>378.0</ele><time>2026-05-01T09:59:37Z</time></trkpt><trkpt lat="43.713827625956895" lon="12.379598789924712"><ele>378.0</ele><time>2026-05-01T09:59:38Z</time></trkpt><trkpt lat="43.71384903942698" lon="12.37950084504852"><ele>378.0</ele><time>2026-05-01T09:59:39Z</time></trkpt><trkpt lat="43.7138770224144" lon="12.37941546917971"><ele>378.0</ele><time>2026-05-01T09:59:40Z</time></trkpt><trkpt lat="43.7139300483964" lon="12.379303315944476"><ele>378.0</ele><time>2026-05-01T09:59:42Z</time></trkpt><trkpt lat="43.71398398085627" lon="12.379231222582437"><ele>378.0</ele><time>2026-05-01T09:59:44Z</time></trkpt><trkpt lat="43.71390947562893" lon="12.379302196545064"><ele>378.0</ele><time>2026-05-01T09:59:55Z</time></trkpt><trkpt lat="43.713865213458874" lon="12.379436407528345"><ele>378.0</ele><time>2026-05-01T09:59:56Z</time></trkpt><trkpt lat="43.71382223272774" lon="12.379556911813873"><ele>378.0</ele><time>2026-05-01T09:59:57Z</time></trkpt><trkpt lat="43.71380095699488" lon="12.37968966287075"><ele>378.0</ele><time>2026-05-01T09:59:58Z</time></trkpt><trkpt lat="43.713811522574375" lon="12.37983158217362"><ele>378.0</ele><time>2026-05-01T09:59:59Z</time></trkpt><trkpt lat="43.71384005694681" lon="12.379930502869392"><ele>378.0</ele><time>2026-05-01T10:00:00Z</time></trkpt><trkpt lat="43.713880053049444" lon="12.380057157013976"><ele>378.0</ele><time>2026-05-01T10:00:02Z</time></trkpt><trkpt lat="43.71394271404555" lon="12.380217188086565"><ele>378.0</ele><time>2026-05-01T10:00:04Z</time></trkpt><trkpt lat="43.713973186730996" lon="12.38033579390849"><ele>378.0</ele><time>2026-05-01T10:00:05Z</time></trkpt><trkpt lat="43.713997650630866" lon="12.380431013190421"><ele>378.0</ele><time>2026-05-01T10:00:06Z</time></trkpt><trkpt lat="43.71397645980636" lon="12.38034853338699"><ele>378.0</ele><time>2026-05-01T10:00:12Z</time></trkpt><trkpt lat="43.71385551204988" lon="12.38019036827419"><ele>378.0</ele><time>2026-05-01T10:00:15Z</time></trkpt><trkpt lat="43.71393205296502" lon="12.380083929512537"><ele>378.0</ele><time>2026-05-01T10:00:17Z</time></trkpt><trkpt lat="43.7139035084741" lon="12.379999553352924"><ele>378.0</ele><time>2026-05-01T10:00:19Z</time></trkpt><trkpt lat="43.71384910607582" lon="12.379855882438285"><ele>378.0</ele><time>2026-05-01T10:00:21Z</time></trkpt><trkpt lat="43.71383002783698" lon="12.379733411525924"><ele>378.0</ele><time>2026-05-01T10:00:22Z</time></trkpt><trkpt lat="43.71382484495868" lon="12.379593322176454"><ele>378.0</ele><time>2026-05-01T10:00:23Z</time></trkpt><trkpt lat="43.71385117115109" lon="12.379456323924002"><ele>378.0</ele><time>2026-05-01T10:00:24Z</time></trkpt><trkpt lat="43.71390999194447" lon="12.37931449830539"><ele>376.0</ele><time>2026-05-01T10:00:25Z</time></trkpt><trkpt lat="43.713987216839506" lon="12.379178614735261"><ele>374.0</ele><time>2026-05-01T10:00:26Z</time></trkpt><trkpt lat="43.714072207652514" lon="12.379052185804685"><ele>372.0</ele><time>2026-05-01T10:00:27Z</time></trkpt><trkpt lat="43.71415349393844" lon="12.378934232810103"><ele>370.0</ele><time>2026-05-01T10:00:28Z</time></trkpt><trkpt lat="43.714241633390934" lon="12.378812894903485"><ele>368.5</ele><time>2026-05-01T10:00:29Z</time></trkpt><trkpt lat="43.714357255808125" lon="12.378722772938124"><ele>367.0</ele><time>2026-05-01T10:00:30Z</time></trkpt><trkpt lat="43.71446076328739" lon="12.378618786992783"><ele>365.5</ele><time>2026-05-01T10:00:31Z</time></trkpt><trkpt lat="43.714573514003916" lon="12.378574646796453"><ele>364.0</ele><time>2026-05-01T10:00:32Z</time></trkpt><trkpt lat="43.714676910942195" lon="12.378582056037535"><ele>363.0</ele><time>2026-05-01T10:00:33Z</time></trkpt><trkpt lat="43.71475865922828" lon="12.378652315247294"><ele>362.0</ele><time>2026-05-01T10:00:34Z</time></trkpt><trkpt lat="43.714801902316275" lon="12.378787025063342"><ele>361.0</ele><time>2026-05-01T10:00:35Z</time></trkpt><trkpt lat="43.71483545535207" lon="12.378942068945198"><ele>360.0</ele><time>2026-05-01T10:00:36Z</time></trkpt><trkpt lat="43.714875398142254" lon="12.379104732348305"><ele>359.0</ele><time>2026-05-01T10:00:37Z</time></trkpt><trkpt lat="43.71492370288" lon="12.379240629458117"><ele>359.0</ele><time>2026-05-01T10:00:38Z</time></trkpt><trkpt lat="43.714972977723896" lon="12.37934477717379"><ele>359.0</ele><time>2026-05-01T10:00:39Z</time></trkpt><trkpt lat="43.71503051711897" lon="12.379407926548858"><ele>359.0</ele><time>2026-05-01T10:00:40Z</time></trkpt><trkpt lat="43.71511447771625" lon="12.37935928233484"><ele>359.0</ele><time>2026-05-01T10:00:41Z</time></trkpt><trkpt lat="43.715157773982725" lon="12.379268994020986"><ele>359.0</ele><time>2026-05-01T10:00:42Z</time></trkpt><trkpt lat="43.71516267132829" lon="12.37914076104418"><ele>359.0</ele><time>2026-05-01T10:00:43Z</time></trkpt><trkpt lat="43.71512933794654" lon="12.37899728469228"><ele>356.33333333333337</ele><time>2026-05-01T10:00:44Z</time></trkpt><trkpt lat="43.71505805970618" lon="12.378850673008783"><ele>353.6666666666667</ele><time>2026-05-01T10:00:45Z</time></trkpt><trkpt lat="43.71501361665482" lon="12.37865785494915"><ele>351.0</ele><time>2026-05-01T10:00:46Z</time></trkpt><trkpt lat="43.71501523436818" lon="12.378398786763803"><ele>351.0</ele><time>2026-05-01T10:00:47Z</time></trkpt><trkpt lat="43.71502547795572" lon="12.378167932198982"><ele>351.0</ele><time>2026-05-01T10:00:48Z</time></trkpt><trkpt lat="43.715011077336754" lon="12.377965034946431"><ele>351.0</ele><time>2026-05-01T10:00:49Z</time></trkpt><trkpt lat="43.714961163834175" lon="12.377784727362254"><ele>348.75</ele><time>2026-05-01T10:00:50Z</time></trkpt><trkpt lat="43.714899017545434" lon="12.377617428781512"><ele>346.5</ele><time>2026-05-01T10:00:51Z</time></trkpt><trkpt lat="43.71485621916524" lon="12.37744778439531"><ele>344.25</ele><time>2026-05-01T10:00:52Z</time></trkpt><trkpt lat="43.714814797328046" lon="12.37729060926464"><ele>342.0</ele><time>2026-05-01T10:00:53Z</time></trkpt><trkpt lat="43.71479634748511" lon="12.377138285531451"><ele>342.0</ele><time>2026-05-01T10:00:54Z</time></trkpt><trkpt lat="43.71482334635355" lon="12.377000623850522"><ele>342.0</ele><time>2026-05-01T10:00:55Z</time></trkpt><trkpt lat="43.71486250864739" lon="12.376874339957865"><ele>342.0</ele><time>2026-05-01T10:00:56Z</time></trkpt><trkpt lat="43.71495666482631" lon="12.376812304052201"><ele>342.0</ele><time>2026-05-01T10:00:57Z</time></trkpt><trkpt lat="43.715064515541506" lon="12.376780140458587"><ele>342.0</ele><time>2026-05-01T10:00:58Z</time></trkpt><trkpt lat="43.71516975282144" lon="12.376732340468568"><ele>341.1666666666667</ele><time>2026-05-01T10:00:59Z</time></trkpt><trkpt lat="43.715270947012876" lon="12.376722756988555"><ele>340.3333333333333</ele><time>2026-05-01T10:01:00Z</time></trkpt><trkpt lat="43.71535142635012" lon="12.376698281860126"><ele>339.5</ele><time>2026-05-01T10:01:01Z</time></trkpt><trkpt lat="43.715428413595305" lon="12.376679301602461"><ele>338.66666666666663</ele><time>2026-05-01T10:01:02Z</time></trkpt><trkpt lat="43.71549526985004" lon="12.376663978921789"><ele>337.8333333333333</ele><time>2026-05-01T10:01:03Z</time></trkpt><trkpt lat="43.715606906196385" lon="12.376638516717831"><ele>337.0</ele><time>2026-05-01T10:01:05Z</time></trkpt><trkpt lat="43.71569338413601" lon="12.376618625378638"><ele>337.0</ele><time>2026-05-01T10:01:07Z</time></trkpt><trkpt lat="43.71576932274965" lon="12.37660096689642"><ele>337.0</ele><time>2026-05-01T10:01:09Z</time></trkpt><trkpt lat="43.71585447359654" lon="12.376581166228808"><ele>337.0</ele><time>2026-05-01T10:01:11Z</time></trkpt><trkpt lat="43.71593714119314" lon="12.376561689059475"><ele>337.0</ele><time>2026-05-01T10:01:13Z</time></trkpt><trkpt lat="43.716020453601395" lon="12.376538351932084"><ele>337.0</ele><time>2026-05-01T10:01:16Z</time></trkpt><trkpt lat="43.71608477418331" lon="12.376518754440827"><ele>337.0</ele><time>2026-05-01T10:01:20Z</time></trkpt><trkpt lat="43.716165808780005" lon="12.376501939346523"><ele>338.16666666666663</ele><time>2026-05-01T10:01:22Z</time></trkpt><trkpt lat="43.71624408243782" lon="12.376501178821103"><ele>339.3333333333333</ele><time>2026-05-01T10:01:24Z</time></trkpt><trkpt lat="43.7163381668111" lon="12.37656653139462"><ele>340.5</ele><time>2026-05-01T10:01:26Z</time></trkpt><trkpt lat="43.71639733915274" lon="12.376656746977904"><ele>341.6666666666667</ele><time>2026-05-01T10:01:27Z</time></trkpt><trkpt lat="43.71643457533487" lon="12.376755125971888"><ele>342.83333333333337</ele><time>2026-05-01T10:01:29Z</time></trkpt><trkpt lat="43.71649903976661" lon="12.376840110790146"><ele>344.0</ele><time>2026-05-01T10:01:32Z</time></trkpt><trkpt lat="43.71654230378801" lon="12.376926328336909"><ele>344.0</ele><time>2026-05-01T10:01:33Z</time></trkpt><trkpt lat="43.71659776847507" lon="12.377035212209378"><ele>344.0</ele><time>2026-05-01T10:01:34Z</time></trkpt><trkpt lat="43.716659726608796" lon="12.377129749105116"><ele>344.0</ele><time>2026-05-01T10:01:35Z</time></trkpt><trkpt lat="43.71671983741585" lon="12.377230386387742"><ele>344.0</ele><time>2026-05-01T10:01:36Z</time></trkpt><trkpt lat="43.71678546613756" lon="12.377332736024009"><ele>344.0</ele><time>2026-05-01T10:01:37Z</time></trkpt><trkpt lat="43.71684066954466" lon="12.37742145434985"><ele>343.79999999999995</ele><time>2026-05-01T10:01:38Z</time></trkpt><trkpt lat="43.716884341757535" lon="12.377485297205984"><ele>343.59999999999997</ele><time>2026-05-01T10:01:39Z</time></trkpt><trkpt lat="43.716995689061264" lon="12.377340592647238"><ele>343.4</ele><time>2026-05-01T10:01:43Z</time></trkpt><trkpt lat="43.71696582216475" lon="12.377223196267755"><ele>343.2</ele><time>2026-05-01T10:01:44Z</time></trkpt><trkpt lat="43.716943481077735" lon="12.37709924789768"><ele>343.0</ele><time>2026-05-01T10:01:45Z</time></trkpt><trkpt lat="43.71692846955977" lon="12.37696051396235"><ele>343.2</ele><time>2026-05-01T10:01:46Z</time></trkpt><trkpt lat="43.71691605073264" lon="12.376820565540175"><ele>343.4</ele><time>2026-05-01T10:01:47Z</time></trkpt><trkpt lat="43.71690476810736" lon="12.37669296027209"><ele>343.59999999999997</ele><time>2026-05-01T10:01:48Z</time></trkpt><trkpt lat="43.716887774251546" lon="12.376555539866544"><ele>343.79999999999995</ele><time>2026-05-01T10:01:49Z</time></trkpt><trkpt lat="43.71686727042636" lon="12.376412100284565"><ele>344.0</ele><time>2026-05-01T10:01:50Z</time></trkpt><trkpt lat="43.716855589353216" lon="12.376286138023332"><ele>344.5</ele><time>2026-05-01T10:01:51Z</time></trkpt><trkpt lat="43.7168623801185" lon="12.376173852371394"><ele>345.0</ele><time>2026-05-01T10:01:52Z</time></trkpt><trkpt lat="43.71700397025306" lon="12.376009438830263"><ele>345.5</ele><time>2026-05-01T10:01:54Z</time></trkpt><trkpt lat="43.71711442817417" lon="12.375931688515397"><ele>346.0</ele><time>2026-05-01T10:01:55Z</time></trkpt><trkpt lat="43.71724209585038" lon="12.375844354294115"><ele>347.66666666666663</ele><time>2026-05-01T10:01:56Z</time></trkpt><trkpt lat="43.71739589326581" lon="12.375737256150606"><ele>349.3333333333333</ele><time>2026-05-01T10:01:57Z</time></trkpt><trkpt lat="43.71755551499292" lon="12.375649332948946"><ele>351.0</ele><time>2026-05-01T10:01:58Z</time></trkpt><trkpt lat="43.71770350538955" lon="12.375521843695358"><ele>353.3333333333333</ele><time>2026-05-01T10:01:59Z</time></trkpt><trkpt lat="43.71787747789741" lon="12.375413064980956"><ele>355.66666666666663</ele><time>2026-05-01T10:02:00Z</time></trkpt><trkpt lat="43.718063145376014" lon="12.375292264162063"><ele>358.0</ele><time>2026-05-01T10:02:01Z</time></trkpt><trkpt lat="43.718241014359016" lon="12.375174111845187"><ele>358.0</ele><time>2026-05-01T10:02:02Z</time></trkpt><trkpt lat="43.71841732756455" lon="12.375063930603297"><ele>358.0</ele><time>2026-05-01T10:02:03Z</time></trkpt><trkpt lat="43.7185904696606" lon="12.374955473312195"><ele>358.0</ele><time>2026-05-01T10:02:04Z</time></trkpt><trkpt lat="43.7187648319428" lon="12.37484929521248"><ele>359.3333333333333</ele><time>2026-05-01T10:02:05Z</time></trkpt><trkpt lat="43.718940355142536" lon="12.37474000546034"><ele>360.6666666666667</ele><time>2026-05-01T10:02:06Z</time></trkpt><trkpt lat="43.71911673207479" lon="12.374629381957309"><ele>362.0</ele><time>2026-05-01T10:02:07Z</time></trkpt><trkpt lat="43.71929631261453" lon="12.374526777777417"><ele>363.0</ele><time>2026-05-01T10:02:08Z</time></trkpt><trkpt lat="43.719476771457565" lon="12.374418796227575"><ele>364.0</ele><time>2026-05-01T10:02:09Z</time></trkpt><trkpt lat="43.71965279070343" lon="12.374308437667304"><ele>365.0</ele><time>2026-05-01T10:02:10Z</time></trkpt><trkpt lat="43.7198370012274" lon="12.374235342629971"><ele>365.0</ele><time>2026-05-01T10:02:11Z</time></trkpt><trkpt lat="43.72002871264445" lon="12.374163076828497"><ele>365.0</ele><time>2026-05-01T10:02:12Z</time></trkpt><trkpt lat="43.72024016167691" lon="12.374107108063159"><ele>365.0</ele><time>2026-05-01T10:02:13Z</time></trkpt><trkpt lat="43.72047392199605" lon="12.374080680469644"><ele>366.0</ele><time>2026-05-01T10:02:14Z</time></trkpt><trkpt lat="43.720730117136796" lon="12.374054757268972"><ele>367.0</ele><time>2026-05-01T10:02:15Z</time></trkpt><trkpt lat="43.72098841452689" lon="12.374008714837107"><ele>366.5</ele><time>2026-05-01T10:02:16Z</time></trkpt><trkpt lat="43.721241307082366" lon="12.37397327713268"><ele>366.0</ele><time>2026-05-01T10:02:17Z</time></trkpt><trkpt lat="43.721493750408584" lon="12.373924859403395"><ele>366.0</ele><time>2026-05-01T10:02:18Z</time></trkpt><trkpt lat="43.721759421442634" lon="12.373873143621426"><ele>366.0</ele><time>2026-05-01T10:02:19Z</time></trkpt><trkpt lat="43.72204245945412" lon="12.373839888846504"><ele>369.5</ele><time>2026-05-01T10:02:20Z</time></trkpt><trkpt lat="43.722340822596095" lon="12.373780813835738"><ele>373.0</ele><time>2026-05-01T10:02:21Z</time></trkpt><trkpt lat="43.722653315053535" lon="12.37371457063465"><ele>373.5</ele><time>2026-05-01T10:02:22Z</time></trkpt><trkpt lat="43.72296802165794" lon="12.373613923304958"><ele>374.0</ele><time>2026-05-01T10:02:23Z</time></trkpt><trkpt lat="43.723241056226534" lon="12.373508682869332"><ele>374.0</ele><time>2026-05-01T10:02:24Z</time></trkpt><trkpt lat="43.72349239593049" lon="12.373448921692976"><ele>374.0</ele><time>2026-05-01T10:02:25Z</time></trkpt><trkpt lat="43.72372964836975" lon="12.373402410292405"><ele>375.0</ele><time>2026-05-01T10:02:26Z</time></trkpt><trkpt lat="43.723951497884414" lon="12.37336071052199"><ele>376.0</ele><time>2026-05-01T10:02:27Z</time></trkpt><trkpt lat="43.724156871413086" lon="12.373316900066964"><ele>377.0</ele><time>2026-05-01T10:02:28Z</time></trkpt><trkpt lat="43.72435785430762" lon="12.373260394094967"><ele>376.0</ele><time>2026-05-01T10:02:29Z</time></trkpt><trkpt lat="43.72455757387992" lon="12.373205176298674"><ele>375.0</ele><time>2026-05-01T10:02:30Z</time></trkpt><trkpt lat="43.72471351229059" lon="12.373110368385202"><ele>374.0</ele><time>2026-05-01T10:02:31Z</time></trkpt><trkpt lat="43.7248518235513" lon="12.373044918066352"><ele>376.0</ele><time>2026-05-01T10:02:32Z</time></trkpt><trkpt lat="43.724977073783116" lon="12.37297546259719"><ele>378.0</ele><time>2026-05-01T10:02:33Z</time></trkpt><trkpt lat="43.72510030794903" lon="12.372899630106268"><ele>380.0</ele><time>2026-05-01T10:02:34Z</time></trkpt><trkpt lat="43.72522599133718" lon="12.372809072597708"><ele>382.0</ele><time>2026-05-01T10:02:35Z</time></trkpt><trkpt lat="43.72534516167964" lon="12.37268786612765"><ele>382.0</ele><time>2026-05-01T10:02:36Z</time></trkpt><trkpt lat="43.725453392580164" lon="12.372524597202965"><ele>382.0</ele><time>2026-05-01T10:02:37Z</time></trkpt><trkpt lat="43.72555347563983" lon="12.372337054444797"><ele>382.0</ele><time>2026-05-01T10:02:38Z</time></trkpt><trkpt lat="43.72564103773357" lon="12.372144737168103"><ele>385.66666666666663</ele><time>2026-05-01T10:02:39Z</time></trkpt><trkpt lat="43.72574991930702" lon="12.3719751007495"><ele>389.3333333333333</ele><time>2026-05-01T10:02:40Z</time></trkpt><trkpt lat="43.72585755922714" lon="12.371777813531164"><ele>393.0</ele><time>2026-05-01T10:02:41Z</time></trkpt><trkpt lat="43.72598788023217" lon="12.37153846541336"><ele>395.0</ele><time>2026-05-01T10:02:42Z</time></trkpt><trkpt lat="43.72612207903143" lon="12.371250125738637"><ele>397.0</ele><time>2026-05-01T10:02:43Z</time></trkpt><trkpt lat="43.72631462300376" lon="12.371044289784358"><ele>397.0</ele><time>2026-05-01T10:02:44Z</time></trkpt><trkpt lat="43.72651688117327" lon="12.37087950244319"><ele>397.0</ele><time>2026-05-01T10:02:45Z</time></trkpt><trkpt lat="43.72674954040005" lon="12.37073525548675"><ele>396.0</ele><time>2026-05-01T10:02:46Z</time></trkpt><trkpt lat="43.72697803699203" lon="12.370550669407733"><ele>395.0</ele><time>2026-05-01T10:02:47Z</time></trkpt><trkpt lat="43.72719454838752" lon="12.370426375199294"><ele>398.0</ele><time>2026-05-01T10:02:48Z</time></trkpt><trkpt lat="43.72738241911588" lon="12.37031262217975"><ele>401.0</ele><time>2026-05-01T10:02:49Z</time></trkpt><trkpt lat="43.72755493899288" lon="12.37020475635625"><ele>404.0</ele><time>2026-05-01T10:02:50Z</time></trkpt><trkpt lat="43.72771412363283" lon="12.370073947070642"><ele>404.3333333333333</ele><time>2026-05-01T10:02:51Z</time></trkpt><trkpt lat="43.72787881994577" lon="12.369906435335102"><ele>404.66666666666663</ele><time>2026-05-01T10:02:52Z</time></trkpt><trkpt lat="43.728051234082564" lon="12.36968503761989"><ele>405.0</ele><time>2026-05-01T10:02:53Z</time></trkpt><trkpt lat="43.72823172812887" lon="12.369445439938733"><ele>405.0</ele><time>2026-05-01T10:02:54Z</time></trkpt><trkpt lat="43.72841735832939" lon="12.369209870339448"><ele>405.0</ele><time>2026-05-01T10:02:55Z</time></trkpt><trkpt lat="43.72857125808847" lon="12.369001391307192"><ele>401.33333333333337</ele><time>2026-05-01T10:02:56Z</time></trkpt><trkpt lat="43.728689027352054" lon="12.368784890722434"><ele>397.6666666666667</ele><time>2026-05-01T10:02:57Z</time></trkpt><trkpt lat="43.728768864029504" lon="12.368520407134724"><ele>394.0</ele><time>2026-05-01T10:02:58Z</time></trkpt><trkpt lat="43.72882772470729" lon="12.368209645901453"><ele>397.0</ele><time>2026-05-01T10:02:59Z</time></trkpt><trkpt lat="43.72886981879462" lon="12.36786839889084"><ele>400.0</ele><time>2026-05-01T10:03:00Z</time></trkpt><trkpt lat="43.72888653575031" lon="12.367504940123029"><ele>403.0</ele><time>2026-05-01T10:03:01Z</time></trkpt><trkpt lat="43.728886110707016" lon="12.367106581885086"><ele>406.0</ele><time>2026-05-01T10:03:02Z</time></trkpt><trkpt lat="43.72889324377073" lon="12.366676265195624"><ele>409.0</ele><time>2026-05-01T10:03:03Z</time></trkpt><trkpt lat="43.72894060364094" lon="12.366268946946718"><ele>412.0</ele><time>2026-05-01T10:03:04Z</time></trkpt><trkpt lat="43.72897884537523" lon="12.365913176859188"><ele>412.0</ele><time>2026-05-01T10:03:05Z</time></trkpt><trkpt lat="43.729016014562895" lon="12.365603742513843"><ele>412.0</ele><time>2026-05-01T10:03:06Z</time></trkpt><trkpt lat="43.72905711664527" lon="12.36530773238823"><ele>412.0</ele><time>2026-05-01T10:03:07Z</time></trkpt><trkpt lat="43.72909960614179" lon="12.365002825185515"><ele>417.0</ele><time>2026-05-01T10:03:08Z</time></trkpt><trkpt lat="43.72915565220434" lon="12.364691233873979"><ele>422.0</ele><time>2026-05-01T10:03:09Z</time></trkpt><trkpt lat="43.72919749528681" lon="12.36441521715929"><ele>427.0</ele><time>2026-05-01T10:03:10Z</time></trkpt><trkpt lat="43.72926055720724" lon="12.364208959374999"><ele>427.0</ele><time>2026-05-01T10:03:11Z</time></trkpt><trkpt lat="43.72929587207416" lon="12.364044908817535"><ele>427.0</ele><time>2026-05-01T10:03:12Z</time></trkpt><trkpt lat="43.72938274753166" lon="12.36392493925955"><ele>427.0</ele><time>2026-05-01T10:03:13Z</time></trkpt><trkpt lat="43.72949757437352" lon="12.36384793639832"><ele>427.0</ele><time>2026-05-01T10:03:14Z</time></trkpt><trkpt lat="43.72964977034857" lon="12.363859058547115"><ele>427.0</ele><time>2026-05-01T10:03:15Z</time></trkpt><trkpt lat="43.72981583569354" lon="12.363909639089734"><ele>427.0</ele><time>2026-05-01T10:03:16Z</time></trkpt><trkpt lat="43.73002688106694" lon="12.364006010854407"><ele>427.0</ele><time>2026-05-01T10:03:17Z</time></trkpt><trkpt lat="43.73023182052273" lon="12.364090731673832"><ele>429.0</ele><time>2026-05-01T10:03:18Z</time></trkpt><trkpt lat="43.73038225836292" lon="12.36415700737332"><ele>431.0</ele><time>2026-05-01T10:03:19Z</time></trkpt><trkpt lat="43.73052236660912" lon="12.36414034635575"><ele>433.0</ele><time>2026-05-01T10:03:20Z</time></trkpt><trkpt lat="43.730689840033584" lon="12.364037106054607"><ele>433.0</ele><time>2026-05-01T10:03:21Z</time></trkpt><trkpt lat="43.73086291407261" lon="12.363864389841218"><ele>433.0</ele><time>2026-05-01T10:03:22Z</time></trkpt><trkpt lat="43.731052108512706" lon="12.363664721946845"><ele>434.6666666666667</ele><time>2026-05-01T10:03:23Z</time></trkpt><trkpt lat="43.73122318311105" lon="12.363474213125325"><ele>436.33333333333337</ele><time>2026-05-01T10:03:24Z</time></trkpt><trkpt lat="43.731370948500384" lon="12.363346237390525"><ele>438.0</ele><time>2026-05-01T10:03:25Z</time></trkpt><trkpt lat="43.73148218338217" lon="12.363243484986564"><ele>438.0</ele><time>2026-05-01T10:03:26Z</time></trkpt><trkpt lat="43.73157101757682" lon="12.36311074480322"><ele>438.0</ele><time>2026-05-01T10:03:27Z</time></trkpt><trkpt lat="43.73161420657723" lon="12.362920924657582"><ele>438.0</ele><time>2026-05-01T10:03:28Z</time></trkpt><trkpt lat="43.731625801451365" lon="12.362727565244063"><ele>438.0</ele><time>2026-05-01T10:03:29Z</time></trkpt><trkpt lat="43.73158929897091" lon="12.362543914168526"><ele>441.66666666666663</ele><time>2026-05-01T10:03:30Z</time></trkpt><trkpt lat="43.73150309994688" lon="12.362352234707853"><ele>445.3333333333333</ele><time>2026-05-01T10:03:31Z</time></trkpt><trkpt lat="43.73138865771321" lon="12.362158547734522"><ele>449.0</ele><time>2026-05-01T10:03:32Z</time></trkpt><trkpt lat="43.731331211670565" lon="12.361980855934634"><ele>451.6</ele><time>2026-05-01T10:03:33Z</time></trkpt><trkpt lat="43.73130719175225" lon="12.361832971810637"><ele>454.2</ele><time>2026-05-01T10:03:34Z</time></trkpt><trkpt lat="43.73131005058486" lon="12.361706061062254"><ele>456.80000000000007</ele><time>2026-05-01T10:03:35Z</time></trkpt><trkpt lat="43.731368518739444" lon="12.361611349701958"><ele>459.40000000000003</ele><time>2026-05-01T10:03:36Z</time></trkpt><trkpt lat="43.73146026814303" lon="12.361575782907066"><ele>462.0</ele><time>2026-05-01T10:03:37Z</time></trkpt><trkpt lat="43.731587363515864" lon="12.361564457126226"><ele>462.0</ele><time>2026-05-01T10:03:38Z</time></trkpt><trkpt lat="43.73170884604859" lon="12.361533152525075"><ele>462.0</ele><time>2026-05-01T10:03:39Z</time></trkpt><trkpt lat="43.73179214010376" lon="12.361426609926518"><ele>462.0</ele><time>2026-05-01T10:03:40Z</time></trkpt><trkpt lat="43.73183799881354" lon="12.361248500445813"><ele>462.0</ele><time>2026-05-01T10:03:41Z</time></trkpt><trkpt lat="43.7318451025995" lon="12.361031160497982"><ele>464.5</ele><time>2026-05-01T10:03:42Z</time></trkpt><trkpt lat="43.73182391895519" lon="12.360794769324956"><ele>467.0</ele><time>2026-05-01T10:03:43Z</time></trkpt><trkpt lat="43.73177877633137" lon="12.360595022416634"><ele>469.5</ele><time>2026-05-01T10:03:44Z</time></trkpt><trkpt lat="43.731724439710355" lon="12.360461446445896"><ele>472.0</ele><time>2026-05-01T10:03:45Z</time></trkpt><trkpt lat="43.73166519468241" lon="12.360387053696208"><ele>473.42857142857144</ele><time>2026-05-01T10:03:46Z</time></trkpt><trkpt lat="43.73162718570182" lon="12.360305391396862"><ele>474.8571428571429</ele><time>2026-05-01T10:03:47Z</time></trkpt><trkpt lat="43.731573559235684" lon="12.36024443029752"><ele>476.28571428571433</ele><time>2026-05-01T10:03:48Z</time></trkpt><trkpt lat="43.73151456858205" lon="12.360182788932825"><ele>477.7142857142857</ele><time>2026-05-01T10:03:49Z</time></trkpt><trkpt lat="43.7314528260637" lon="12.360118880042663"><ele>479.1428571428572</ele><time>2026-05-01T10:03:50Z</time></trkpt><trkpt lat="43.73139051396752" lon="12.360054381896358"><ele>480.5714285714286</ele><time>2026-05-01T10:03:51Z</time></trkpt><trkpt lat="43.73132653082169" lon="12.35998815436954"><ele>482.0</ele><time>2026-05-01T10:03:52Z</time></trkpt><trkpt lat="43.731261576695765" lon="12.359920921803127"><ele>481.99999999999994</ele><time>2026-05-01T10:03:53Z</time></trkpt><trkpt lat="43.73118468022094" lon="12.35986998678097"><ele>482.0</ele><time>2026-05-01T10:03:54Z</time></trkpt><trkpt lat="43.73112707722677" lon="12.359781704401563"><ele>482.0</ele><time>2026-05-01T10:03:55Z</time></trkpt><trkpt lat="43.73104768263934" lon="12.359723548163487"><ele>482.0</ele><time>2026-05-01T10:03:56Z</time></trkpt><trkpt lat="43.730996023944506" lon="12.359625376022557"><ele>481.99999999999994</ele><time>2026-05-01T10:03:57Z</time></trkpt><trkpt lat="43.73096884965759" lon="12.35950684347494"><ele>482.0</ele><time>2026-05-01T10:03:58Z</time></trkpt><trkpt lat="43.73097060611746" lon="12.359381872098247"><ele>482.8</ele><time>2026-05-01T10:03:59Z</time></trkpt><trkpt lat="43.730995771655735" lon="12.359261456278272"><ele>483.6</ele><time>2026-05-01T10:04:00Z</time></trkpt><trkpt lat="43.7310495771319" lon="12.359159111888918"><ele>484.40000000000003</ele><time>2026-05-01T10:04:01Z</time></trkpt><trkpt lat="43.73111893123509" lon="12.359073710205738"><ele>485.20000000000005</ele><time>2026-05-01T10:04:02Z</time></trkpt><trkpt lat="43.73122243256783" lon="12.359029657144129"><ele>486.0</ele><time>2026-05-01T10:04:03Z</time></trkpt><trkpt lat="43.7313389170777" lon="12.359014763440484"><ele>487.25</ele><time>2026-05-01T10:04:04Z</time></trkpt><trkpt lat="43.731471389735276" lon="12.35901370343679"><ele>488.5</ele><time>2026-05-01T10:04:05Z</time></trkpt><trkpt lat="43.731611888273356" lon="12.359006792902598"><ele>489.75</ele><time>2026-05-01T10:04:06Z</time></trkpt><trkpt lat="43.731750126513894" lon="12.35898863073219"><ele>491.0</ele><time>2026-05-01T10:04:07Z</time></trkpt><trkpt lat="43.73188173702043" lon="12.358971351163701"><ele>491.0</ele><time>2026-05-01T10:04:08Z</time></trkpt><trkpt lat="43.73200295232322" lon="12.358936107459138"><ele>491.0</ele><time>2026-05-01T10:04:09Z</time></trkpt><trkpt lat="43.732129891021785" lon="12.358841764275665"><ele>491.0</ele><time>2026-05-01T10:04:10Z</time></trkpt><trkpt lat="43.732252019920324" lon="12.35867166704741"><ele>491.0</ele><time>2026-05-01T10:04:11Z</time></trkpt><trkpt lat="43.73236789420367" lon="12.358495584722395"><ele>493.66666666666663</ele><time>2026-05-01T10:04:12Z</time></trkpt><trkpt lat="43.73249543362667" lon="12.358353159145725"><ele>496.33333333333337</ele><time>2026-05-01T10:04:13Z</time></trkpt><trkpt lat="43.732641403095116" lon="12.358249552081496"><ele>499.0</ele><time>2026-05-01T10:04:14Z</time></trkpt><trkpt lat="43.732780262162244" lon="12.358172258298936"><ele>499.25</ele><time>2026-05-01T10:04:15Z</time></trkpt><trkpt lat="43.73290435508384" lon="12.35809660872453"><ele>499.5</ele><time>2026-05-01T10:04:16Z</time></trkpt><trkpt lat="43.733025435831415" lon="12.357974986763724"><ele>499.75</ele><time>2026-05-01T10:04:17Z</time></trkpt><trkpt lat="43.733140329008485" lon="12.357817893838456"><ele>500.0</ele><time>2026-05-01T10:04:18Z</time></trkpt><trkpt lat="43.73324116609873" lon="12.357638372114764"><ele>503.3333333333333</ele><time>2026-05-01T10:04:19Z</time></trkpt><trkpt lat="43.733346469259004" lon="12.357470793838992"><ele>506.66666666666663</ele><time>2026-05-01T10:04:20Z</time></trkpt><trkpt lat="43.73346736291596" lon="12.357333036138684"><ele>510.0</ele><time>2026-05-01T10:04:21Z</time></trkpt><trkpt lat="43.73361105926039" lon="12.357235754879989"><ele>512.0</ele><time>2026-05-01T10:04:22Z</time></trkpt><trkpt lat="43.73379130966428" lon="12.357150342949167"><ele>514.0</ele><time>2026-05-01T10:04:23Z</time></trkpt><trkpt lat="43.7339841720311" lon="12.357055389879255"><ele>516.0</ele><time>2026-05-01T10:04:24Z</time></trkpt><trkpt lat="43.734144776283" lon="12.356963996599697"><ele>516.0</ele><time>2026-05-01T10:04:25Z</time></trkpt><trkpt lat="43.734274772074635" lon="12.356833972241125"><ele>516.0</ele><time>2026-05-01T10:04:26Z</time></trkpt><trkpt lat="43.734378026759025" lon="12.356665066733747"><ele>516.0</ele><time>2026-05-01T10:04:27Z</time></trkpt><trkpt lat="43.734464252565225" lon="12.35645027114456"><ele>516.5</ele><time>2026-05-01T10:04:28Z</time></trkpt><trkpt lat="43.7345545960145" lon="12.356178069880356"><ele>517.0</ele><time>2026-05-01T10:04:29Z</time></trkpt><trkpt lat="43.73465758155661" lon="12.355851076686243"><ele>517.0</ele><time>2026-05-01T10:04:30Z</time></trkpt><trkpt lat="43.73475593209114" lon="12.355566955143587"><ele>517.0</ele><time>2026-05-01T10:04:31Z</time></trkpt><trkpt lat="43.73488947955361" lon="12.355350542632841"><ele>517.0</ele><time>2026-05-01T10:04:32Z</time></trkpt><trkpt lat="43.7350445106561" lon="12.355172483974261"><ele>519.0</ele><time>2026-05-01T10:04:33Z</time></trkpt><trkpt lat="43.7352201054508" lon="12.355031054203472"><ele>521.0</ele><time>2026-05-01T10:04:34Z</time></trkpt><trkpt lat="43.73544459085151" lon="12.354904335786333"><ele>523.0</ele><time>2026-05-01T10:04:35Z</time></trkpt><trkpt lat="43.73566042747559" lon="12.354770425252482"><ele>526.3333333333334</ele><time>2026-05-01T10:04:36Z</time></trkpt><trkpt lat="43.73583305252142" lon="12.354645544569767"><ele>529.6666666666666</ele><time>2026-05-01T10:04:37Z</time></trkpt><trkpt lat="43.7359890110544" lon="12.35456834645664"><ele>533.0</ele><time>2026-05-01T10:04:38Z</time></trkpt><trkpt lat="43.73613314812168" lon="12.354550827060043"><ele>535.25</ele><time>2026-05-01T10:04:39Z</time></trkpt><trkpt lat="43.73626001209707" lon="12.354608405691305"><ele>537.5</ele><time>2026-05-01T10:04:40Z</time></trkpt><trkpt lat="43.73637961897182" lon="12.35471065771944"><ele>539.75</ele><time>2026-05-01T10:04:41Z</time></trkpt><trkpt lat="43.736455471038326" lon="12.354860568875756"><ele>542.0</ele><time>2026-05-01T10:04:42Z</time></trkpt><trkpt lat="43.73650758942902" lon="12.355068238692118"><ele>542.0</ele><time>2026-05-01T10:04:43Z</time></trkpt><trkpt lat="43.736555095672124" lon="12.355329361554354"><ele>542.0</ele><time>2026-05-01T10:04:44Z</time></trkpt><trkpt lat="43.736606639922336" lon="12.35563760571028"><ele>542.0</ele><time>2026-05-01T10:04:45Z</time></trkpt><trkpt lat="43.7366617609387" lon="12.355959377345586"><ele>540.3333333333333</ele><time>2026-05-01T10:04:46Z</time></trkpt><trkpt lat="43.736703149648434" lon="12.356230971152462"><ele>538.6666666666666</ele><time>2026-05-01T10:04:47Z</time></trkpt><trkpt lat="43.73675943504578" lon="12.356401549483754"><ele>537.0</ele><time>2026-05-01T10:04:48Z</time></trkpt><trkpt lat="43.73683945411379" lon="12.356541846430371"><ele>538.0</ele><time>2026-05-01T10:04:49Z</time></trkpt><trkpt lat="43.736973881469396" lon="12.356595131453918"><ele>539.0</ele><time>2026-05-01T10:04:50Z</time></trkpt><trkpt lat="43.737139104633954" lon="12.356644072774502"><ele>540.0</ele><time>2026-05-01T10:04:51Z</time></trkpt><trkpt lat="43.737331928788066" lon="12.356671735062205"><ele>540.0</ele><time>2026-05-01T10:04:52Z</time></trkpt><trkpt lat="43.737549262815875" lon="12.356618463569026"><ele>540.0</ele><time>2026-05-01T10:04:53Z</time></trkpt><trkpt lat="43.73779249721655" lon="12.356523076753748"><ele>541.5</ele><time>2026-05-01T10:04:54Z</time></trkpt><trkpt lat="43.73807067707102" lon="12.356432241355657"><ele>543.0</ele><time>2026-05-01T10:04:55Z</time></trkpt><trkpt lat="43.73831470108022" lon="12.356393384154888"><ele>545.75</ele><time>2026-05-01T10:04:56Z</time></trkpt><trkpt lat="43.73845335804648" lon="12.356364406478264"><ele>548.5</ele><time>2026-05-01T10:04:57Z</time></trkpt><trkpt lat="43.73856561502057" lon="12.356299365280591"><ele>551.25</ele><time>2026-05-01T10:04:58Z</time></trkpt><trkpt lat="43.73863674851994" lon="12.356204182233508"><ele>554.0</ele><time>2026-05-01T10:04:59Z</time></trkpt><trkpt lat="43.73863281720811" lon="12.35603761656212"><ele>554.0</ele><time>2026-05-01T10:05:00Z</time></trkpt><trkpt lat="43.738602992690836" lon="12.35587241502115"><ele>554.0</ele><time>2026-05-01T10:05:01Z</time></trkpt><trkpt lat="43.738535941192595" lon="12.355714634359247"><ele>554.0</ele><time>2026-05-01T10:05:02Z</time></trkpt><trkpt lat="43.73839834363435" lon="12.355605233435174"><ele>554.0</ele><time>2026-05-01T10:05:03Z</time></trkpt><trkpt lat="43.73821441137178" lon="12.355528220265008"><ele>556.3333333333333</ele><time>2026-05-01T10:05:04Z</time></trkpt><trkpt lat="43.738010859277004" lon="12.355468118310029"><ele>558.6666666666666</ele><time>2026-05-01T10:05:05Z</time></trkpt><trkpt lat="43.73786557359793" lon="12.355344933565096"><ele>561.0</ele><time>2026-05-01T10:05:06Z</time></trkpt><trkpt lat="43.737773694894884" lon="12.355236036073972"><ele>561.0</ele><time>2026-05-01T10:05:07Z</time></trkpt><trkpt lat="43.737692860178335" lon="12.355137501236069"><ele>561.0</ele><time>2026-05-01T10:05:08Z</time></trkpt><trkpt lat="43.737731585786705" lon="12.354968077430717"><ele>561.0</ele><time>2026-05-01T10:05:09Z</time></trkpt><trkpt lat="43.73777477003543" lon="12.354848406650873"><ele>561.0</ele><time>2026-05-01T10:05:10Z</time></trkpt><trkpt lat="43.73783769557191" lon="12.354738424466444"><ele>561.0</ele><time>2026-05-01T10:05:11Z</time></trkpt><trkpt lat="43.73795265395796" lon="12.35464078056038"><ele>563.0</ele><time>2026-05-01T10:05:12Z</time></trkpt><trkpt lat="43.73810707437572" lon="12.354536721042427"><ele>565.0</ele><time>2026-05-01T10:05:13Z</time></trkpt><trkpt lat="43.73828604460956" lon="12.354422274951448"><ele>567.0</ele><time>2026-05-01T10:05:14Z</time></trkpt><trkpt lat="43.738490243918605" lon="12.354281929322665"><ele>568.5</ele><time>2026-05-01T10:05:15Z</time></trkpt><trkpt lat="43.738663237302916" lon="12.354160839533352"><ele>570.0</ele><time>2026-05-01T10:05:16Z</time></trkpt><trkpt lat="43.73876068107498" lon="12.354046489951303"><ele>571.5</ele><time>2026-05-01T10:05:17Z</time></trkpt><trkpt lat="43.73880589323885" lon="12.353905594061667"><ele>573.0</ele><time>2026-05-01T10:05:18Z</time></trkpt><trkpt lat="43.73879493580959" lon="12.353757854871365"><ele>574.0</ele><time>2026-05-01T10:05:19Z</time></trkpt><trkpt lat="43.738731812497285" lon="12.353604105347193"><ele>575.0</ele><time>2026-05-01T10:05:20Z</time></trkpt><trkpt lat="43.738617001422156" lon="12.353498349374291"><ele>576.0</ele><time>2026-05-01T10:05:21Z</time></trkpt><trkpt lat="43.73845950259371" lon="12.353417738340363"><ele>577.0</ele><time>2026-05-01T10:05:22Z</time></trkpt><trkpt lat="43.73827484420462" lon="12.353349320011512"><ele>577.0</ele><time>2026-05-01T10:05:23Z</time></trkpt><trkpt lat="43.73814988269128" lon="12.3532264615604"><ele>577.0</ele><time>2026-05-01T10:05:24Z</time></trkpt><trkpt lat="43.738043879899976" lon="12.353073536532767"><ele>577.0</ele><time>2026-05-01T10:05:25Z</time></trkpt><trkpt lat="43.737968013985395" lon="12.352902043629221"><ele>579.75</ele><time>2026-05-01T10:05:26Z</time></trkpt><trkpt lat="43.737942071300424" lon="12.352723542033518"><ele>582.5</ele><time>2026-05-01T10:05:27Z</time></trkpt><trkpt lat="43.73796713275972" lon="12.352553696652139"><ele>585.25</ele><time>2026-05-01T10:05:28Z</time></trkpt><trkpt lat="43.73802510604791" lon="12.352407375175703"><ele>588.0</ele><time>2026-05-01T10:05:29Z</time></trkpt><trkpt lat="43.73811493778951" lon="12.352254228343144"><ele>589.3333333333334</ele><time>2026-05-01T10:05:30Z</time></trkpt><trkpt lat="43.73824010754806" lon="12.352154128774371"><ele>590.6666666666667</ele><time>2026-05-01T10:05:31Z</time></trkpt><trkpt lat="43.73839636543494" lon="12.352061011633815"><ele>592.0</ele><time>2026-05-01T10:05:32Z</time></trkpt><trkpt lat="43.73859125429578" lon="12.351950270088105"><ele>592.0</ele><time>2026-05-01T10:05:33Z</time></trkpt><trkpt lat="43.73880965101773" lon="12.35181293081921"><ele>592.0</ele><time>2026-05-01T10:05:34Z</time></trkpt><trkpt lat="43.73899765640224" lon="12.351713976399617"><ele>592.0</ele><time>2026-05-01T10:05:35Z</time></trkpt><trkpt lat="43.73915217996407" lon="12.35170139253267"><ele>592.0</ele><time>2026-05-01T10:05:36Z</time></trkpt><trkpt lat="43.73928433607398" lon="12.351767602876123"><ele>592.0</ele><time>2026-05-01T10:05:37Z</time></trkpt><trkpt lat="43.73937821185144" lon="12.351870387067063"><ele>592.0</ele><time>2026-05-01T10:05:38Z</time></trkpt><trkpt lat="43.73949686178223" lon="12.351996888441825"><ele>592.0</ele><time>2026-05-01T10:05:39Z</time></trkpt><trkpt lat="43.739616131699975" lon="12.352127364358097"><ele>593.0</ele><time>2026-05-01T10:05:40Z</time></trkpt><trkpt lat="43.739750123073996" lon="12.352283555240394"><ele>594.0</ele><time>2026-05-01T10:05:41Z</time></trkpt><trkpt lat="43.73984922296126" lon="12.352465258045196"><ele>595.0</ele><time>2026-05-01T10:05:42Z</time></trkpt><trkpt lat="43.7399142174018" lon="12.352693296258144"><ele>595.0</ele><time>2026-05-01T10:05:43Z</time></trkpt><trkpt lat="43.73995744726159" lon="12.352955522538426"><ele>595.0</ele><time>2026-05-01T10:05:44Z</time></trkpt><trkpt lat="43.74001681460015" lon="12.35315482750355"><ele>595.0</ele><time>2026-05-01T10:05:45Z</time></trkpt><trkpt lat="43.740064887470815" lon="12.353317805375434"><ele>593.75</ele><time>2026-05-01T10:05:46Z</time></trkpt><trkpt lat="43.74015132305789" lon="12.353458987554733"><ele>592.5</ele><time>2026-05-01T10:05:47Z</time></trkpt><trkpt lat="43.740270555928724" lon="12.353565998977603"><ele>591.25</ele><time>2026-05-01T10:05:48Z</time></trkpt><trkpt lat="43.740408074783495" lon="12.353636516052072"><ele>590.0</ele><time>2026-05-01T10:05:49Z</time></trkpt><trkpt lat="43.740561974339286" lon="12.353691794841184"><ele>593.3333333333333</ele><time>2026-05-01T10:05:50Z</time></trkpt><trkpt lat="43.740737154598946" lon="12.353742568793454"><ele>596.6666666666666</ele><time>2026-05-01T10:05:51Z</time></trkpt><trkpt lat="43.74094426170368" lon="12.35381803266889"><ele>600.0</ele><time>2026-05-01T10:05:52Z</time></trkpt><trkpt lat="43.741156427777945" lon="12.353901117490388"><ele>601.0</ele><time>2026-05-01T10:05:53Z</time></trkpt><trkpt lat="43.741369154404026" lon="12.35397169495181"><ele>602.0</ele><time>2026-05-01T10:05:54Z</time></trkpt><trkpt lat="43.74159817635893" lon="12.354057223968974"><ele>602.0</ele><time>2026-05-01T10:05:55Z</time></trkpt><trkpt lat="43.741798075102714" lon="12.35414831543845"><ele>602.0</ele><time>2026-05-01T10:05:56Z</time></trkpt><trkpt lat="43.74197522219851" lon="12.354228239263266"><ele>602.0</ele><time>2026-05-01T10:05:57Z</time></trkpt><trkpt lat="43.74214027437845" lon="12.354296138814183"><ele>604.25</ele><time>2026-05-01T10:05:58Z</time></trkpt><trkpt lat="43.74229378037863" lon="12.354358917526056"><ele>606.5</ele><time>2026-05-01T10:05:59Z</time></trkpt><trkpt lat="43.74243320457343" lon="12.354404107264369"><ele>608.75</ele><time>2026-05-01T10:06:00Z</time></trkpt><trkpt lat="43.74256321835925" lon="12.354415162535908"><ele>611.0</ele><time>2026-05-01T10:06:01Z</time></trkpt><trkpt lat="43.74268011172887" lon="12.354395591854992"><ele>610.5</ele><time>2026-05-01T10:06:02Z</time></trkpt><trkpt lat="43.742800138099064" lon="12.354348558480172"><ele>610.0</ele><time>2026-05-01T10:06:03Z</time></trkpt><trkpt lat="43.74292726146217" lon="12.354297048080745"><ele>609.5</ele><time>2026-05-01T10:06:04Z</time></trkpt><trkpt lat="43.74303527320051" lon="12.354141493041574"><ele>609.0</ele><time>2026-05-01T10:06:05Z</time></trkpt><trkpt lat="43.743149363655725" lon="12.353984453317786"><ele>611.6666666666666</ele><time>2026-05-01T10:06:06Z</time></trkpt><trkpt lat="43.74326564301488" lon="12.353812739396266"><ele>614.3333333333333</ele><time>2026-05-01T10:06:07Z</time></trkpt><trkpt lat="43.743392012366755" lon="12.35362777096116"><ele>617.0</ele><time>2026-05-01T10:06:08Z</time></trkpt><trkpt lat="43.743527579095215" lon="12.35343492990609"><ele>615.6666666666666</ele><time>2026-05-01T10:06:09Z</time></trkpt><trkpt lat="43.74365570877886" lon="12.353242737086745"><ele>614.3333333333334</ele><time>2026-05-01T10:06:10Z</time></trkpt><trkpt lat="43.743783509949296" lon="12.353046132513636"><ele>613.0</ele><time>2026-05-01T10:06:11Z</time></trkpt><trkpt lat="43.743912838411774" lon="12.352854755438965"><ele>615.6666666666667</ele><time>2026-05-01T10:06:12Z</time></trkpt><trkpt lat="43.7440499336045" lon="12.352659460238641"><ele>618.3333333333334</ele><time>2026-05-01T10:06:13Z</time></trkpt><trkpt lat="43.744185969501004" lon="12.352465346371337"><ele>621.0</ele><time>2026-05-01T10:06:14Z</time></trkpt><trkpt lat="43.74432732715095" lon="12.352261981145247"><ele>622.0</ele><time>2026-05-01T10:06:15Z</time></trkpt><trkpt lat="43.74446433628385" lon="12.352052664325315"><ele>623.0</ele><time>2026-05-01T10:06:16Z</time></trkpt><trkpt lat="43.74461402254933" lon="12.35184388069078"><ele>624.0</ele><time>2026-05-01T10:06:17Z</time></trkpt><trkpt lat="43.74477531587288" lon="12.351608720773077"><ele>627.0</ele><time>2026-05-01T10:06:18Z</time></trkpt><trkpt lat="43.744931317683175" lon="12.351366033805265"><ele>630.0</ele><time>2026-05-01T10:06:19Z</time></trkpt><trkpt lat="43.74510470271815" lon="12.351147629314196"><ele>629.3333333333334</ele><time>2026-05-01T10:06:20Z</time></trkpt><trkpt lat="43.745252150715416" lon="12.350913903888157"><ele>628.6666666666667</ele><time>2026-05-01T10:06:21Z</time></trkpt><trkpt lat="43.745409126418764" lon="12.35069659305444"><ele>628.0</ele><time>2026-05-01T10:06:22Z</time></trkpt><trkpt lat="43.74556924965238" lon="12.350476139211063"><ele>629.6666666666667</ele><time>2026-05-01T10:06:23Z</time></trkpt><trkpt lat="43.74573048440664" lon="12.350279098111095"><ele>631.3333333333334</ele><time>2026-05-01T10:06:24Z</time></trkpt><trkpt lat="43.74585344588538" lon="12.350032923327845"><ele>633.0</ele><time>2026-05-01T10:06:25Z</time></trkpt><trkpt lat="43.74596850932195" lon="12.349797718443511"><ele>636.3333333333334</ele><time>2026-05-01T10:06:26Z</time></trkpt><trkpt lat="43.74610085458816" lon="12.349593786470896"><ele>639.6666666666667</ele><time>2026-05-01T10:06:27Z</time></trkpt><trkpt lat="43.746239577484126" lon="12.34943182375223"><ele>643.0</ele><time>2026-05-01T10:06:28Z</time></trkpt><trkpt lat="43.74638025930315" lon="12.349320002269264"><ele>643.0</ele><time>2026-05-01T10:06:29Z</time></trkpt><trkpt lat="43.746523897229615" lon="12.349237534315266"><ele>643.0</ele><time>2026-05-01T10:06:30Z</time></trkpt><trkpt lat="43.74668887116933" lon="12.34920108508414"><ele>643.0</ele><time>2026-05-01T10:06:31Z</time></trkpt><trkpt lat="43.74685617555253" lon="12.349198868885706"><ele>648.3333333333334</ele><time>2026-05-01T10:06:32Z</time></trkpt><trkpt lat="43.747023082719004" lon="12.349232103280373"><ele>653.6666666666666</ele><time>2026-05-01T10:06:33Z</time></trkpt><trkpt lat="43.747190891276716" lon="12.349349049628092"><ele>659.0</ele><time>2026-05-01T10:06:34Z</time></trkpt><trkpt lat="43.74738420186795" lon="12.349464847512733"><ele>659.0</ele><time>2026-05-01T10:06:35Z</time></trkpt><trkpt lat="43.747568177588825" lon="12.349614566278676"><ele>659.0</ele><time>2026-05-01T10:06:36Z</time></trkpt><trkpt lat="43.74774580934044" lon="12.349743781123435"><ele>659.0</ele><time>2026-05-01T10:06:37Z</time></trkpt><trkpt lat="43.7479294776601" lon="12.34986585975708"><ele>660.6666666666666</ele><time>2026-05-01T10:06:38Z</time></trkpt><trkpt lat="43.748104282372516" lon="12.349988047973167"><ele>662.3333333333334</ele><time>2026-05-01T10:06:39Z</time></trkpt><trkpt lat="43.74828092376098" lon="12.350097582210788"><ele>664.0</ele><time>2026-05-01T10:06:40Z</time></trkpt><trkpt lat="43.74846655804954" lon="12.350198964224687"><ele>666.6666666666667</ele><time>2026-05-01T10:06:41Z</time></trkpt><trkpt lat="43.748648207317764" lon="12.350286286368151"><ele>669.3333333333334</ele><time>2026-05-01T10:06:42Z</time></trkpt><trkpt lat="43.74881757475266" lon="12.350366068885368"><ele>672.0</ele><time>2026-05-01T10:06:43Z</time></trkpt><trkpt lat="43.748983000221656" lon="12.350439968304865"><ele>672.0</ele><time>2026-05-01T10:06:44Z</time></trkpt><trkpt lat="43.74915050392917" lon="12.350465911343855"><ele>672.0</ele><time>2026-05-01T10:06:45Z</time></trkpt><trkpt lat="43.74931916496345" lon="12.350438002753192"><ele>672.0</ele><time>2026-05-01T10:06:46Z</time></trkpt><trkpt lat="43.74947888202011" lon="12.350362543982746"><ele>670.6666666666666</ele><time>2026-05-01T10:06:47Z</time></trkpt><trkpt lat="43.74962968942509" lon="12.350251764939635"><ele>669.3333333333333</ele><time>2026-05-01T10:06:48Z</time></trkpt><trkpt lat="43.74977384118547" lon="12.350127789002686"><ele>668.0</ele><time>2026-05-01T10:06:49Z</time></trkpt><trkpt lat="43.74991845346283" lon="12.35000433837255"><ele>668.0</ele><time>2026-05-01T10:06:50Z</time></trkpt><trkpt lat="43.75003180511463" lon="12.349886246983909"><ele>668.0</ele><time>2026-05-01T10:06:51Z</time></trkpt><trkpt lat="43.750131206116976" lon="12.349726713326058"><ele>668.0</ele><time>2026-05-01T10:06:52Z</time></trkpt><trkpt lat="43.75022175688977" lon="12.349528082584921"><ele>671.3333333333333</ele><time>2026-05-01T10:06:53Z</time></trkpt><trkpt lat="43.75030842157474" lon="12.349312826469154"><ele>674.6666666666666</ele><time>2026-05-01T10:06:54Z</time></trkpt><trkpt lat="43.750393981352445" lon="12.349137371707357"><ele>678.0</ele><time>2026-05-01T10:06:55Z</time></trkpt><trkpt lat="43.75045944507585" lon="12.34897193548006"><ele>678.0</ele><time>2026-05-01T10:06:56Z</time></trkpt><trkpt lat="43.75058867262925" lon="12.348900321096014"><ele>678.0</ele><time>2026-05-01T10:06:57Z</time></trkpt><trkpt lat="43.75074194748081" lon="12.348859389498552"><ele>678.0</ele><time>2026-05-01T10:06:58Z</time></trkpt><trkpt lat="43.75092126994612" lon="12.34880940928119"><ele>687.0</ele><time>2026-05-01T10:06:59Z</time></trkpt><trkpt lat="43.75112061256742" lon="12.348741215981969"><ele>696.0</ele><time>2026-05-01T10:07:00Z</time></trkpt><trkpt lat="43.75134367697882" lon="12.348683816213503"><ele>705.0</ele><time>2026-05-01T10:07:01Z</time></trkpt><trkpt lat="43.75153646055068" lon="12.34862479431385"><ele>705.0</ele><time>2026-05-01T10:07:02Z</time></trkpt><trkpt lat="43.751693864019195" lon="12.348571748672168"><ele>705.0</ele><time>2026-05-01T10:07:03Z</time></trkpt><trkpt lat="43.75183292099317" lon="12.348538476468141"><ele>705.0</ele><time>2026-05-01T10:07:04Z</time></trkpt><trkpt lat="43.7519500819602" lon="12.348473021289704"><ele>705.0</ele><time>2026-05-01T10:07:05Z</time></trkpt><trkpt lat="43.75203206681612" lon="12.348359246421953"><ele>705.5</ele><time>2026-05-01T10:07:06Z</time></trkpt><trkpt lat="43.75211851734381" lon="12.348316443167487"><ele>706.0</ele><time>2026-05-01T10:07:07Z</time></trkpt><trkpt lat="43.752188975431295" lon="12.348343266908888"><ele>706.5</ele><time>2026-05-01T10:07:08Z</time></trkpt><trkpt lat="43.75224657805752" lon="12.348403807330607"><ele>707.0</ele><time>2026-05-01T10:07:09Z</time></trkpt><trkpt lat="43.75230636699239" lon="12.348493822554586"><ele>707.5</ele><time>2026-05-01T10:07:10Z</time></trkpt><trkpt lat="43.75232170247007" lon="12.348630462479946"><ele>708.0</ele><time>2026-05-01T10:07:11Z</time></trkpt><trkpt lat="43.752321351270325" lon="12.348783820412468"><ele>706.75</ele><time>2026-05-01T10:07:12Z</time></trkpt><trkpt lat="43.75230243050676" lon="12.348956151026867"><ele>705.5</ele><time>2026-05-01T10:07:13Z</time></trkpt><trkpt lat="43.752275393161824" lon="12.349151661877622"><ele>704.25</ele><time>2026-05-01T10:07:14Z</time></trkpt><trkpt lat="43.752264646390586" lon="12.349361725569734"><ele>703.0</ele><time>2026-05-01T10:07:15Z</time></trkpt><trkpt lat="43.75223020074079" lon="12.349575147800968"><ele>702.75</ele><time>2026-05-01T10:07:16Z</time></trkpt><trkpt lat="43.752213625076884" lon="12.349776026311764"><ele>702.5</ele><time>2026-05-01T10:07:17Z</time></trkpt><trkpt lat="43.752196716602896" lon="12.34994740669404"><ele>702.25</ele><time>2026-05-01T10:07:18Z</time></trkpt><trkpt lat="43.75220786908134" lon="12.350104960105382"><ele>702.0</ele><time>2026-05-01T10:07:19Z</time></trkpt><trkpt lat="43.75226907052531" lon="12.35026555182261"><ele>702.0</ele><time>2026-05-01T10:07:20Z</time></trkpt><trkpt lat="43.75236804846766" lon="12.350431447038636"><ele>702.0</ele><time>2026-05-01T10:07:21Z</time></trkpt><trkpt lat="43.75247601076871" lon="12.350626604256925"><ele>702.0</ele><time>2026-05-01T10:07:22Z</time></trkpt><trkpt lat="43.75257680860707" lon="12.350817741067765"><ele>702.0</ele><time>2026-05-01T10:07:23Z</time></trkpt><trkpt lat="43.752665066489854" lon="12.35097585977706"><ele>702.0</ele><time>2026-05-01T10:07:24Z</time></trkpt><trkpt lat="43.752749082328876" lon="12.351104720034945"><ele>702.0</ele><time>2026-05-01T10:07:25Z</time></trkpt><trkpt lat="43.75283938573638" lon="12.351168018376137"><ele>702.0</ele><time>2026-05-01T10:07:26Z</time></trkpt><trkpt lat="43.75294650146654" lon="12.351175310613467"><ele>702.0</ele><time>2026-05-01T10:07:27Z</time></trkpt><trkpt lat="43.753079765064456" lon="12.351118447438896"><ele>702.0</ele><time>2026-05-01T10:07:28Z</time></trkpt><trkpt lat="43.753248508807324" lon="12.351029681093829"><ele>702.0</ele><time>2026-05-01T10:07:29Z</time></trkpt><trkpt lat="43.75345157285402" lon="12.350946427414346"><ele>701.5</ele><time>2026-05-01T10:07:30Z</time></trkpt><trkpt lat="43.75367400998831" lon="12.350847029298716"><ele>701.0</ele><time>2026-05-01T10:07:31Z</time></trkpt><trkpt lat="43.75391317791619" lon="12.350744170143484"><ele>701.0</ele><time>2026-05-01T10:07:32Z</time></trkpt><trkpt lat="43.754171725501934" lon="12.350635463292702"><ele>701.0</ele><time>2026-05-01T10:07:33Z</time></trkpt><trkpt lat="43.75445705754316" lon="12.350548021800636"><ele>715.0</ele><time>2026-05-01T10:07:34Z</time></trkpt><trkpt lat="43.75470825454184" lon="12.350452426769905"><ele>729.0</ele><time>2026-05-01T10:07:35Z</time></trkpt><trkpt lat="43.754924244596594" lon="12.35044906867253"><ele>729.0</ele><time>2026-05-01T10:07:36Z</time></trkpt><trkpt lat="43.75512647478946" lon="12.350432757349164"><ele>729.0</ele><time>2026-05-01T10:07:37Z</time></trkpt><trkpt lat="43.75532963996793" lon="12.350442978847422"><ele>729.0</ele><time>2026-05-01T10:07:38Z</time></trkpt><trkpt lat="43.75553626303929" lon="12.3504235014709"><ele>730.3333333333334</ele><time>2026-05-01T10:07:39Z</time></trkpt><trkpt lat="43.75575110486776" lon="12.350420512047883"><ele>731.6666666666667</ele><time>2026-05-01T10:07:40Z</time></trkpt><trkpt lat="43.75595592108314" lon="12.350460087259991"><ele>733.0</ele><time>2026-05-01T10:07:41Z</time></trkpt><trkpt lat="43.75613349922713" lon="12.350535906671306"><ele>730.3333333333334</ele><time>2026-05-01T10:07:42Z</time></trkpt><trkpt lat="43.756298754091354" lon="12.350625496119589"><ele>727.6666666666666</ele><time>2026-05-01T10:07:43Z</time></trkpt><trkpt lat="43.75645011786416" lon="12.350704420937353"><ele>725.0</ele><time>2026-05-01T10:07:44Z</time></trkpt><trkpt lat="43.75661577834489" lon="12.350740418758578"><ele>725.0</ele><time>2026-05-01T10:07:45Z</time></trkpt><trkpt lat="43.756803566280944" lon="12.35072458703999"><ele>725.0</ele><time>2026-05-01T10:07:46Z</time></trkpt><trkpt lat="43.75699105439974" lon="12.35069039621173"><ele>725.0</ele><time>2026-05-01T10:07:47Z</time></trkpt><trkpt lat="43.757165533845516" lon="12.350669827813839"><ele>726.0</ele><time>2026-05-01T10:07:48Z</time></trkpt><trkpt lat="43.75732722462845" lon="12.3506522174199"><ele>727.0</ele><time>2026-05-01T10:07:49Z</time></trkpt><trkpt lat="43.75748289138046" lon="12.350609478143989"><ele>728.0</ele><time>2026-05-01T10:07:50Z</time></trkpt><trkpt lat="43.75762826495929" lon="12.350532901409524"><ele>729.6666666666666</ele><time>2026-05-01T10:07:51Z</time></trkpt><trkpt lat="43.75776904031191" lon="12.350432553564405"><ele>731.3333333333334</ele><time>2026-05-01T10:07:52Z</time></trkpt><trkpt lat="43.75791101132025" lon="12.350316085460047"><ele>733.0</ele><time>2026-05-01T10:07:53Z</time></trkpt><trkpt lat="43.75804732821696" lon="12.350173081083014"><ele>733.0</ele><time>2026-05-01T10:07:54Z</time></trkpt><trkpt lat="43.75818259896161" lon="12.349989466574897"><ele>733.0</ele><time>2026-05-01T10:07:55Z</time></trkpt><trkpt lat="43.75831547807018" lon="12.349777257382408"><ele>733.0</ele><time>2026-05-01T10:07:56Z</time></trkpt><trkpt lat="43.758433194740554" lon="12.349579922512682"><ele>732.0</ele><time>2026-05-01T10:07:57Z</time></trkpt><trkpt lat="43.75855710945102" lon="12.349425902098664"><ele>731.0</ele><time>2026-05-01T10:07:58Z</time></trkpt><trkpt lat="43.758680150458005" lon="12.349281125776017"><ele>730.0</ele><time>2026-05-01T10:07:59Z</time></trkpt><trkpt lat="43.75881950780403" lon="12.349168905588405"><ele>730.0</ele><time>2026-05-01T10:08:00Z</time></trkpt><trkpt lat="43.758972059472065" lon="12.349077537436317"><ele>730.0</ele><time>2026-05-01T10:08:01Z</time></trkpt><trkpt lat="43.75911875069798" lon="12.349025876584303"><ele>730.0</ele><time>2026-05-01T10:08:02Z</time></trkpt><trkpt lat="43.759272560632134" lon="12.349014744120147"><ele>731.3333333333334</ele><time>2026-05-01T10:08:03Z</time></trkpt><trkpt lat="43.759437203500646" lon="12.349020822228983"><ele>732.6666666666666</ele><time>2026-05-01T10:08:04Z</time></trkpt><trkpt lat="43.759606491297085" lon="12.349105156611587"><ele>734.0</ele><time>2026-05-01T10:08:05Z</time></trkpt><trkpt lat="43.759780169294885" lon="12.34917610686668"><ele>734.0</ele><time>2026-05-01T10:08:06Z</time></trkpt><trkpt lat="43.759958512093746" lon="12.349230163913974"><ele>734.0</ele><time>2026-05-01T10:08:07Z</time></trkpt><trkpt lat="43.76012771328177" lon="12.349298484132182"><ele>734.0</ele><time>2026-05-01T10:08:08Z</time></trkpt><trkpt lat="43.760284309814644" lon="12.349315123142521"><ele>731.6666666666666</ele><time>2026-05-01T10:08:09Z</time></trkpt><trkpt lat="43.76043352627695" lon="12.34927819701697"><ele>729.3333333333334</ele><time>2026-05-01T10:08:10Z</time></trkpt><trkpt lat="43.76058141639105" lon="12.349188819177112"><ele>727.0</ele><time>2026-05-01T10:08:11Z</time></trkpt><trkpt lat="43.76072496454574" lon="12.34907718952743"><ele>727.0</ele><time>2026-05-01T10:08:12Z</time></trkpt><trkpt lat="43.760886187522594" lon="12.349006538745774"><ele>727.0</ele><time>2026-05-01T10:08:13Z</time></trkpt><trkpt lat="43.76105284239841" lon="12.348973743376497"><ele>727.0</ele><time>2026-05-01T10:08:14Z</time></trkpt><trkpt lat="43.761237468424824" lon="12.348977006139803"><ele>726.3333333333334</ele><time>2026-05-01T10:08:15Z</time></trkpt><trkpt lat="43.761437818383655" lon="12.348964483548576"><ele>725.6666666666666</ele><time>2026-05-01T10:08:16Z</time></trkpt><trkpt lat="43.761647127468265" lon="12.348969074568862"><ele>725.0</ele><time>2026-05-01T10:08:17Z</time></trkpt><trkpt lat="43.76183845675063" lon="12.348963955154254"><ele>726.6666666666666</ele><time>2026-05-01T10:08:18Z</time></trkpt><trkpt lat="43.76200551669295" lon="12.348966520348064"><ele>728.3333333333334</ele><time>2026-05-01T10:08:19Z</time></trkpt><trkpt lat="43.76215788004169" lon="12.348975310949367"><ele>730.0</ele><time>2026-05-01T10:08:20Z</time></trkpt><trkpt lat="43.76229839774004" lon="12.34895546302842"><ele>730.0</ele><time>2026-05-01T10:08:21Z</time></trkpt><trkpt lat="43.76243422507548" lon="12.348893931086778"><ele>730.0</ele><time>2026-05-01T10:08:22Z</time></trkpt><trkpt lat="43.76257228183872" lon="12.348789775504356"><ele>730.0</ele><time>2026-05-01T10:08:23Z</time></trkpt><trkpt lat="43.76270834437256" lon="12.348652745373892"><ele>727.3333333333334</ele><time>2026-05-01T10:08:24Z</time></trkpt><trkpt lat="43.76285146235914" lon="12.348491371332075"><ele>724.6666666666666</ele><time>2026-05-01T10:08:25Z</time></trkpt><trkpt lat="43.763006029678536" lon="12.348318329992896"><ele>722.0</ele><time>2026-05-01T10:08:26Z</time></trkpt><trkpt lat="43.76319651413948" lon="12.348158392515106"><ele>723.0</ele><time>2026-05-01T10:08:27Z</time></trkpt><trkpt lat="43.763375352657555" lon="12.347961178601487"><ele>724.0</ele><time>2026-05-01T10:08:28Z</time></trkpt><trkpt lat="43.76355596051575" lon="12.347807545723624"><ele>725.0</ele><time>2026-05-01T10:08:29Z</time></trkpt><trkpt lat="43.76372807939249" lon="12.347691172664069"><ele>725.0</ele><time>2026-05-01T10:08:30Z</time></trkpt><trkpt lat="43.76388366611133" lon="12.347592091299274"><ele>725.0</ele><time>2026-05-01T10:08:31Z</time></trkpt><trkpt lat="43.76402399731567" lon="12.34747363425364"><ele>725.0</ele><time>2026-05-01T10:08:32Z</time></trkpt><trkpt lat="43.764117780443044" lon="12.347322253769894"><ele>726.0</ele><time>2026-05-01T10:08:33Z</time></trkpt><trkpt lat="43.76416138889711" lon="12.347133678822187"><ele>727.0</ele><time>2026-05-01T10:08:34Z</time></trkpt><trkpt lat="43.76415732743199" lon="12.346944556637778"><ele>728.0</ele><time>2026-05-01T10:08:35Z</time></trkpt><trkpt lat="43.76411293008353" lon="12.34677156303413"><ele>729.0</ele><time>2026-05-01T10:08:36Z</time></trkpt><trkpt lat="43.764033858587055" lon="12.346597207702533"><ele>729.0</ele><time>2026-05-01T10:08:37Z</time></trkpt><trkpt lat="43.763972076463446" lon="12.34639719689109"><ele>729.0</ele><time>2026-05-01T10:08:38Z</time></trkpt><trkpt lat="43.76391854647543" lon="12.346193344846284"><ele>729.0</ele><time>2026-05-01T10:08:39Z</time></trkpt><trkpt lat="43.7638744470095" lon="12.345995102597545"><ele>728.0</ele><time>2026-05-01T10:08:40Z</time></trkpt><trkpt lat="43.763892588635365" lon="12.345793190074545"><ele>727.0</ele><time>2026-05-01T10:08:41Z</time></trkpt><trkpt lat="43.76396506023212" lon="12.345613618151882"><ele>726.0</ele><time>2026-05-01T10:08:42Z</time></trkpt><trkpt lat="43.76403792741253" lon="12.34545166478624"><ele>725.0</ele><time>2026-05-01T10:08:43Z</time></trkpt><trkpt lat="43.7641320455304" lon="12.34531282140613"><ele>725.0</ele><time>2026-05-01T10:08:44Z</time></trkpt><trkpt lat="43.764226392515226" lon="12.345182023108528"><ele>725.0</ele><time>2026-05-01T10:08:45Z</time></trkpt><trkpt lat="43.76435360216721" lon="12.34512700724054"><ele>725.0</ele><time>2026-05-01T10:08:46Z</time></trkpt><trkpt lat="43.76448362277495" lon="12.345037798984908"><ele>725.0</ele><time>2026-05-01T10:08:47Z</time></trkpt><trkpt lat="43.764632251261276" lon="12.34495775648886"><ele>722.3333333333333</ele><time>2026-05-01T10:08:48Z</time></trkpt><trkpt lat="43.76477300772848" lon="12.344848751635778"><ele>719.6666666666666</ele><time>2026-05-01T10:08:49Z</time></trkpt><trkpt lat="43.76489842462901" lon="12.344701697174587"><ele>717.0</ele><time>2026-05-01T10:08:50Z</time></trkpt><trkpt lat="43.7650089242744" lon="12.344541108095735"><ele>717.0</ele><time>2026-05-01T10:08:51Z</time></trkpt><trkpt lat="43.76509526497633" lon="12.344379048503331"><ele>717.0</ele><time>2026-05-01T10:08:52Z</time></trkpt><trkpt lat="43.765160782673945" lon="12.344210646369064"><ele>717.0</ele><time>2026-05-01T10:08:53Z</time></trkpt><trkpt lat="43.76520567900079" lon="12.34403024099835"><ele>717.0</ele><time>2026-05-01T10:08:54Z</time></trkpt><trkpt lat="43.76520509109355" lon="12.343851874105301"><ele>716.0</ele><time>2026-05-01T10:08:55Z</time></trkpt><trkpt lat="43.765177717185026" lon="12.343655207264758"><ele>715.0</ele><time>2026-05-01T10:08:56Z</time></trkpt><trkpt lat="43.76514431649213" lon="12.34343887505214"><ele>714.0</ele><time>2026-05-01T10:08:57Z</time></trkpt><trkpt lat="43.76511020380467" lon="12.34322787685479"><ele>713.25</ele><time>2026-05-01T10:08:58Z</time></trkpt><trkpt lat="43.765111234737184" lon="12.343037166018561"><ele>712.5</ele><time>2026-05-01T10:08:59Z</time></trkpt><trkpt lat="43.76510690909265" lon="12.342844035913474"><ele>711.75</ele><time>2026-05-01T10:09:00Z</time></trkpt><trkpt lat="43.76514481903203" lon="12.34264522749324"><ele>711.0</ele><time>2026-05-01T10:09:01Z</time></trkpt><trkpt lat="43.765219036590146" lon="12.342448546983388"><ele>711.25</ele><time>2026-05-01T10:09:02Z</time></trkpt><trkpt lat="43.76530741450092" lon="12.34228855480628"><ele>711.5</ele><time>2026-05-01T10:09:03Z</time></trkpt><trkpt lat="43.76541293418442" lon="12.34214921742254"><ele>711.75</ele><time>2026-05-01T10:09:04Z</time></trkpt><trkpt lat="43.76552390484294" lon="12.342000817398738"><ele>712.0</ele><time>2026-05-01T10:09:05Z</time></trkpt><trkpt lat="43.76566392210135" lon="12.341872772223166"><ele>712.0</ele><time>2026-05-01T10:09:06Z</time></trkpt><trkpt lat="43.76580074654408" lon="12.341745504973238"><ele>712.0</ele><time>2026-05-01T10:09:07Z</time></trkpt><trkpt lat="43.76595238841325" lon="12.341635712929376"><ele>712.0</ele><time>2026-05-01T10:09:08Z</time></trkpt><trkpt lat="43.76611781239823" lon="12.341553935343425"><ele>712.0</ele><time>2026-05-01T10:09:09Z</time></trkpt><trkpt lat="43.76629103258089" lon="12.341510100272084"><ele>712.0</ele><time>2026-05-01T10:09:10Z</time></trkpt><trkpt lat="43.76647542699806" lon="12.341488834336811"><ele>712.0</ele><time>2026-05-01T10:09:11Z</time></trkpt><trkpt lat="43.76666621303075" lon="12.341478367828659"><ele>712.6666666666667</ele><time>2026-05-01T10:09:12Z</time></trkpt><trkpt lat="43.76687213527085" lon="12.34145583338462"><ele>713.3333333333334</ele><time>2026-05-01T10:09:13Z</time></trkpt><trkpt lat="43.767090339707536" lon="12.341422687921552"><ele>714.0</ele><time>2026-05-01T10:09:14Z</time></trkpt><trkpt lat="43.76728074640665" lon="12.341391955334643"><ele>715.0</ele><time>2026-05-01T10:09:15Z</time></trkpt><trkpt lat="43.7674456366428" lon="12.34137265426705"><ele>716.0</ele><time>2026-05-01T10:09:16Z</time></trkpt><trkpt lat="43.7675893338213" lon="12.341358608089173"><ele>717.0</ele><time>2026-05-01T10:09:17Z</time></trkpt><trkpt lat="43.76771320213567" lon="12.341344185042564"><ele>718.0</ele><time>2026-05-01T10:09:18Z</time></trkpt><trkpt lat="43.76782516298451" lon="12.341330590360004"><ele>718.5</ele><time>2026-05-01T10:09:19Z</time></trkpt><trkpt lat="43.767930448168926" lon="12.341317092075029"><ele>719.0</ele><time>2026-05-01T10:09:20Z</time></trkpt><trkpt lat="43.76803350709682" lon="12.341300635257019"><ele>719.5</ele><time>2026-05-01T10:09:21Z</time></trkpt><trkpt lat="43.76812211512792" lon="12.341290683370131"><ele>720.0</ele><time>2026-05-01T10:09:22Z</time></trkpt><trkpt lat="43.768187659676" lon="12.341289940159038"><ele>720.5</ele><time>2026-05-01T10:09:23Z</time></trkpt><trkpt lat="43.768265250388566" lon="12.341287999709603"><ele>721.0</ele><time>2026-05-01T10:09:25Z</time></trkpt><trkpt lat="43.76834171788293" lon="12.341279869268217"><ele>721.0</ele><time>2026-05-01T10:09:28Z</time></trkpt><trkpt lat="43.76841403999192" lon="12.341262477269966"><ele>721.0</ele><time>2026-05-01T10:09:32Z</time></trkpt><trkpt lat="43.768487625845566" lon="12.341254228473238"><ele>721.0</ele><time>2026-05-01T10:09:35Z</time></trkpt><trkpt lat="43.768449985095685" lon="12.341037565189643"><ele>721.0</ele><time>2026-05-01T10:09:36Z</time></trkpt><trkpt lat="43.76842156506304" lon="12.34091861965306"><ele>721.0</ele><time>2026-05-01T10:09:37Z</time></trkpt><trkpt lat="43.76837261725116" lon="12.340777517511741"><ele>721.0</ele><time>2026-05-01T10:09:38Z</time></trkpt><trkpt lat="43.768320824856865" lon="12.34060996716912"><ele>721.0</ele><time>2026-05-01T10:09:39Z</time></trkpt><trkpt lat="43.768282286364766" lon="12.340425042443128"><ele>721.0</ele><time>2026-05-01T10:09:40Z</time></trkpt><trkpt lat="43.76824589568061" lon="12.340221411173557"><ele>721.0</ele><time>2026-05-01T10:09:41Z</time></trkpt><trkpt lat="43.76820496994153" lon="12.340011986364399"><ele>722.6666666666667</ele><time>2026-05-01T10:09:42Z</time></trkpt><trkpt lat="43.768143722213836" lon="12.339794153778602"><ele>724.3333333333334</ele><time>2026-05-01T10:09:43Z</time></trkpt><trkpt lat="43.7680647962759" lon="12.339591660838769"><ele>726.0</ele><time>2026-05-01T10:09:44Z</time></trkpt><trkpt lat="43.76799032268989" lon="12.339415757819575"><ele>727.0</ele><time>2026-05-01T10:09:45Z</time></trkpt><trkpt lat="43.76790397658045" lon="12.339265039267376"><ele>728.0</ele><time>2026-05-01T10:09:46Z</time></trkpt><trkpt lat="43.76783303684234" lon="12.33910854753791"><ele>729.0</ele><time>2026-05-01T10:09:47Z</time></trkpt><trkpt lat="43.76774618661274" lon="12.338968296918187"><ele>730.0</ele><time>2026-05-01T10:09:48Z</time></trkpt><trkpt lat="43.7676321508305" lon="12.338820493368926"><ele>733.6666666666667</ele><time>2026-05-01T10:09:49Z</time></trkpt><trkpt lat="43.76749794083539" lon="12.338636463228678"><ele>737.3333333333334</ele><time>2026-05-01T10:09:50Z</time></trkpt><trkpt lat="43.767350857009625" lon="12.338429307619444"><ele>741.0</ele><time>2026-05-01T10:09:51Z</time></trkpt><trkpt lat="43.76719983320181" lon="12.338192805862226"><ele>741.0</ele><time>2026-05-01T10:09:52Z</time></trkpt><trkpt lat="43.7670488246473" lon="12.338001124558552"><ele>741.0</ele><time>2026-05-01T10:09:53Z</time></trkpt><trkpt lat="43.7669027400339" lon="12.337850459260244"><ele>741.0</ele><time>2026-05-01T10:09:54Z</time></trkpt><trkpt lat="43.766753034964815" lon="12.337706903511485"><ele>744.0</ele><time>2026-05-01T10:09:55Z</time></trkpt><trkpt lat="43.76662096585386" lon="12.337584882507391"><ele>747.0</ele><time>2026-05-01T10:09:56Z</time></trkpt><trkpt lat="43.766517136031005" lon="12.33749335829556"><ele>750.0</ele><time>2026-05-01T10:09:57Z</time></trkpt><trkpt lat="43.76643277411077" lon="12.337424507907325"><ele>753.0</ele><time>2026-05-01T10:09:58Z</time></trkpt><trkpt lat="43.766368670184185" lon="12.337367562498777"><ele>753.0</ele><time>2026-05-01T10:09:59Z</time></trkpt><trkpt lat="43.766311768728016" lon="12.337304190171121"><ele>753.0</ele><time>2026-05-01T10:10:00Z</time></trkpt><trkpt lat="43.76624984517897" lon="12.337213507983384"><ele>753.0</ele><time>2026-05-01T10:10:01Z</time></trkpt><trkpt lat="43.76617735135831" lon="12.337116009413188"><ele>753.0</ele><time>2026-05-01T10:10:02Z</time></trkpt><trkpt lat="43.7661093459915" lon="12.337016123119854"><ele>753.0</ele><time>2026-05-01T10:10:03Z</time></trkpt><trkpt lat="43.76605514376111" lon="12.336906222598657"><ele>754.0</ele><time>2026-05-01T10:10:04Z</time></trkpt><trkpt lat="43.765996691715664" lon="12.336804025442607"><ele>755.0</ele><time>2026-05-01T10:10:05Z</time></trkpt><trkpt lat="43.76594354483888" lon="12.336726172656096"><ele>756.0</ele><time>2026-05-01T10:10:06Z</time></trkpt><trkpt lat="43.765894582417175" lon="12.336661155829619"><ele>757.0</ele><time>2026-05-01T10:10:07Z</time></trkpt><trkpt lat="43.765807018166775" lon="12.336565187222348"><ele>758.0</ele><time>2026-05-01T10:10:09Z</time></trkpt><trkpt lat="43.765717992653315" lon="12.336585199552825"><ele>759.0</ele><time>2026-05-01T10:10:10Z</time></trkpt><trkpt lat="43.76565502997964" lon="12.33664368447696"><ele>759.0</ele><time>2026-05-01T10:10:11Z</time></trkpt><trkpt lat="43.76557805597869" lon="12.336671025344854"><ele>759.0</ele><time>2026-05-01T10:10:12Z</time></trkpt><trkpt lat="43.7654867892737" lon="12.336703662688993"><ele>759.0</ele><time>2026-05-01T10:10:13Z</time></trkpt><trkpt lat="43.76538728678443" lon="12.33672226066711"><ele>759.0</ele><time>2026-05-01T10:10:14Z</time></trkpt><trkpt lat="43.765284335226205" lon="12.336718362208"><ele>759.0</ele><time>2026-05-01T10:10:15Z</time></trkpt><trkpt lat="43.7651752063226" lon="12.336701427124737"><ele>759.8000000000001</ele><time>2026-05-01T10:10:16Z</time></trkpt><trkpt lat="43.76504902870226" lon="12.336645371679214"><ele>760.6</ele><time>2026-05-01T10:10:17Z</time></trkpt><trkpt lat="43.764953362360735" lon="12.336576050028343"><ele>761.4</ele><time>2026-05-01T10:10:18Z</time></trkpt><trkpt lat="43.76486660811931" lon="12.33650499384414"><ele>762.2</ele><time>2026-05-01T10:10:19Z</time></trkpt><trkpt lat="43.7647911810202" lon="12.33644070985469"><ele>763.0</ele><time>2026-05-01T10:10:20Z</time></trkpt><trkpt lat="43.76471462759058" lon="12.336381269150444"><ele>764.8</ele><time>2026-05-01T10:10:21Z</time></trkpt><trkpt lat="43.76463635108218" lon="12.336331852514244"><ele>766.5999999999999</ele><time>2026-05-01T10:10:22Z</time></trkpt><trkpt lat="43.764548121804665" lon="12.336275337833447"><ele>768.4000000000001</ele><time>2026-05-01T10:10:23Z</time></trkpt><trkpt lat="43.764464404801444" lon="12.336239516069586"><ele>770.2</ele><time>2026-05-01T10:10:24Z</time></trkpt><trkpt lat="43.764367974058615" lon="12.33618393487687"><ele>772.0</ele><time>2026-05-01T10:10:25Z</time></trkpt><trkpt lat="43.76427945651386" lon="12.336174519265771"><ele>773.0</ele><time>2026-05-01T10:10:26Z</time></trkpt><trkpt lat="43.76415470340997" lon="12.336107658509746"><ele>774.0</ele><time>2026-05-01T10:10:27Z</time></trkpt><trkpt lat="43.764030563707465" lon="12.33603715556852"><ele>775.0</ele><time>2026-05-01T10:10:28Z</time></trkpt><trkpt lat="43.76390225923059" lon="12.33595905293828"><ele>776.0</ele><time>2026-05-01T10:10:29Z</time></trkpt><trkpt lat="43.763939557693526" lon="12.335127908725925"><ele>777.0</ele><time>2026-05-01T10:10:30Z</time></trkpt><trkpt lat="43.763829313624456" lon="12.334969874974764"><ele>778.0</ele><time>2026-05-01T10:10:31Z</time></trkpt><trkpt lat="43.763720631017144" lon="12.334823690763146"><ele>779.0</ele><time>2026-05-01T10:10:32Z</time></trkpt><trkpt lat="43.76361458734808" lon="12.334688280495257"><ele>782.25</ele><time>2026-05-01T10:10:33Z</time></trkpt><trkpt lat="43.763522952584744" lon="12.334567630188387"><ele>785.5</ele><time>2026-05-01T10:10:34Z</time></trkpt><trkpt lat="43.76344553784598" lon="12.334459247540734"><ele>788.75</ele><time>2026-05-01T10:10:35Z</time></trkpt><trkpt lat="43.76336303853006" lon="12.334335540704425"><ele>792.0</ele><time>2026-05-01T10:10:36Z</time></trkpt><trkpt lat="43.763280411760924" lon="12.334207884091823"><ele>792.0</ele><time>2026-05-01T10:10:37Z</time></trkpt><trkpt lat="43.763203558495746" lon="12.334093775280792"><ele>792.0</ele><time>2026-05-01T10:10:38Z</time></trkpt><trkpt lat="43.763126655995706" lon="12.333984157448997"><ele>792.0</ele><time>2026-05-01T10:10:39Z</time></trkpt><trkpt lat="43.763046802773566" lon="12.333861417621707"><ele>792.0</ele><time>2026-05-01T10:10:40Z</time></trkpt><trkpt lat="43.76295537639158" lon="12.333721389549785"><ele>792.0</ele><time>2026-05-01T10:10:41Z</time></trkpt><trkpt lat="43.762878412584165" lon="12.333598117572844"><ele>792.0</ele><time>2026-05-01T10:10:42Z</time></trkpt><trkpt lat="43.7628274253466" lon="12.333510187309539"><ele>792.0</ele><time>2026-05-01T10:10:43Z</time></trkpt><trkpt lat="43.762782123323255" lon="12.333427929059972"><ele>792.0</ele><time>2026-05-01T10:10:44Z</time></trkpt><trkpt lat="43.76272817513145" lon="12.333297520561777"><ele>792.0</ele><time>2026-05-01T10:10:46Z</time></trkpt><trkpt lat="43.762687503381514" lon="12.333184295841901"><ele>805.0</ele><time>2026-05-01T10:10:48Z</time></trkpt><trkpt lat="43.76264451016783" lon="12.333115525133572"><ele>805.0</ele><time>2026-05-01T10:10:50Z</time></trkpt><trkpt lat="43.76258617774313" lon="12.333077122295691"><ele>805.0</ele><time>2026-05-01T10:11:00Z</time></trkpt></trkseg><trkseg><trkpt lat="43.766332256175815" lon="12.337402579018317"><ele>753.0</ele><time>2026-05-01T10:17:57Z</time></trkpt><trkpt lat="43.76638715025366" lon="12.337475694530065"><ele>753.0</ele><time>2026-05-01T10:17:58Z</time></trkpt><trkpt lat="43.76645482029069" lon="12.337538013415955"><ele>753.0</ele><time>2026-05-01T10:17:59Z</time></trkpt><trkpt lat="43.7665329187118" lon="12.337582018052249"><ele>753.0</ele><time>2026-05-01T10:18:00Z</time></trkpt><trkpt lat="43.76661648049676" lon="12.33763868321445"><ele>753.0</ele><time>2026-05-01T10:18:01Z</time></trkpt><trkpt lat="43.76670351613932" lon="12.337710744604736"><ele>753.0</ele><time>2026-05-01T10:18:02Z</time></trkpt><trkpt lat="43.76678533160986" lon="12.33779286177433"><ele>750.0</ele><time>2026-05-01T10:18:03Z</time></trkpt><trkpt lat="43.766872499709265" lon="12.33788863493189"><ele>747.0</ele><time>2026-05-01T10:18:04Z</time></trkpt><trkpt lat="43.76696772104629" lon="12.33799443214372"><ele>744.0</ele><time>2026-05-01T10:18:05Z</time></trkpt><trkpt lat="43.76706347448061" lon="12.338106805094737"><ele>741.0</ele><time>2026-05-01T10:18:06Z</time></trkpt><trkpt lat="43.7671619859548" lon="12.33822420971408"><ele>741.0</ele><time>2026-05-01T10:18:07Z</time></trkpt><trkpt lat="43.76726041601352" lon="12.338352751148053"><ele>741.0</ele><time>2026-05-01T10:18:08Z</time></trkpt><trkpt lat="43.76735897872601" lon="12.338488305494064"><ele>741.0</ele><time>2026-05-01T10:18:09Z</time></trkpt><trkpt lat="43.76745212736231" lon="12.33861471098791"><ele>741.0</ele><time>2026-05-01T10:18:10Z</time></trkpt><trkpt lat="43.76753955826799" lon="12.338726755540513"><ele>741.0</ele><time>2026-05-01T10:18:11Z</time></trkpt><trkpt lat="43.767620372727805" lon="12.338820145106537"><ele>741.0</ele><time>2026-05-01T10:18:12Z</time></trkpt><trkpt lat="43.76769726117413" lon="12.33890662510169"><ele>741.0</ele><time>2026-05-01T10:18:13Z</time></trkpt><trkpt lat="43.767745766109485" lon="12.339008811201268"><ele>741.0</ele><time>2026-05-01T10:18:14Z</time></trkpt><trkpt lat="43.76779900025952" lon="12.339100748728836"><ele>741.0</ele><time>2026-05-01T10:18:15Z</time></trkpt><trkpt lat="43.76784750094503" lon="12.339194241234676"><ele>738.8</ele><time>2026-05-01T10:18:16Z</time></trkpt><trkpt lat="43.76789412626551" lon="12.33929033883097"><ele>736.5999999999999</ele><time>2026-05-01T10:18:17Z</time></trkpt><trkpt lat="43.767946662505025" lon="12.339405407826959"><ele>734.4</ele><time>2026-05-01T10:18:18Z</time></trkpt><trkpt lat="43.76800401474463" lon="12.339508955118221"><ele>732.2</ele><time>2026-05-01T10:18:19Z</time></trkpt><trkpt lat="43.76805246407792" lon="12.339620154826617"><ele>730.0</ele><time>2026-05-01T10:18:20Z</time></trkpt><trkpt lat="43.76809448823769" lon="12.339735863199692"><ele>729.3333333333334</ele><time>2026-05-01T10:18:21Z</time></trkpt><trkpt lat="43.76813529348848" lon="12.339853834222586"><ele>728.6666666666667</ele><time>2026-05-01T10:18:22Z</time></trkpt><trkpt lat="43.76817083787699" lon="12.339966179480642"><ele>728.0</ele><time>2026-05-01T10:18:23Z</time></trkpt><trkpt lat="43.76820023237169" lon="12.340079618713112"><ele>727.3333333333334</ele><time>2026-05-01T10:18:24Z</time></trkpt><trkpt lat="43.768219647780064" lon="12.340187721888395"><ele>726.6666666666666</ele><time>2026-05-01T10:18:25Z</time></trkpt><trkpt lat="43.76823453094999" lon="12.340284298458402"><ele>726.0</ele><time>2026-05-01T10:18:26Z</time></trkpt><trkpt lat="43.76825215798941" lon="12.340377790289391"><ele>725.9999999999999</ele><time>2026-05-01T10:18:27Z</time></trkpt><trkpt lat="43.76826969232436" lon="12.340469012112855"><ele>726.0</ele><time>2026-05-01T10:18:28Z</time></trkpt><trkpt lat="43.76828195608697" lon="12.340563397203079"><ele>726.0</ele><time>2026-05-01T10:18:29Z</time></trkpt><trkpt lat="43.76830858792231" lon="12.340654492322114"><ele>726.0</ele><time>2026-05-01T10:18:30Z</time></trkpt><trkpt lat="43.76833558657917" lon="12.340751533148435"><ele>726.0</ele><time>2026-05-01T10:18:31Z</time></trkpt><trkpt lat="43.76836629676015" lon="12.340849655447798"><ele>725.9999999999999</ele><time>2026-05-01T10:18:32Z</time></trkpt><trkpt lat="43.76839913329447" lon="12.340945432803496"><ele>726.0</ele><time>2026-05-01T10:18:33Z</time></trkpt><trkpt lat="43.76843454173081" lon="12.341034458300738"><ele>725.0</ele><time>2026-05-01T10:18:34Z</time></trkpt><trkpt lat="43.768475708895735" lon="12.341141220659852"><ele>724.0</ele><time>2026-05-01T10:18:36Z</time></trkpt><trkpt lat="43.768525605681475" lon="12.341228697366791"><ele>723.0</ele><time>2026-05-01T10:18:46Z</time></trkpt><trkpt lat="43.76865661467168" lon="12.34125408912814"><ele>722.0</ele><time>2026-05-01T10:18:48Z</time></trkpt><trkpt lat="43.76873703393793" lon="12.341237406894003"><ele>721.0</ele><time>2026-05-01T10:18:49Z</time></trkpt><trkpt lat="43.76881521746617" lon="12.341220722133396"><ele>720.5999999999999</ele><time>2026-05-01T10:18:50Z</time></trkpt><trkpt lat="43.76890791293871" lon="12.341199561895305"><ele>720.2</ele><time>2026-05-01T10:18:51Z</time></trkpt><trkpt lat="43.7690099782018" lon="12.34117380591049"><ele>719.8</ele><time>2026-05-01T10:18:52Z</time></trkpt><trkpt lat="43.769122797032146" lon="12.341137137294096"><ele>719.4000000000001</ele><time>2026-05-01T10:18:53Z</time></trkpt><trkpt lat="43.769241409091286" lon="12.341099271146053"><ele>719.0</ele><time>2026-05-01T10:18:54Z</time></trkpt><trkpt lat="43.7693571438234" lon="12.341061302941002"><ele>717.5</ele><time>2026-05-01T10:18:55Z</time></trkpt><trkpt lat="43.7694824784032" lon="12.341019671747265"><ele>716.0</ele><time>2026-05-01T10:18:56Z</time></trkpt><trkpt lat="43.76961581153255" lon="12.340971509685975"><ele>714.5</ele><time>2026-05-01T10:18:57Z</time></trkpt><trkpt lat="43.76975220591614" lon="12.340923471613864"><ele>713.0</ele><time>2026-05-01T10:18:58Z</time></trkpt><trkpt lat="43.769892356838945" lon="12.34087710094931"><ele>713.0</ele><time>2026-05-01T10:18:59Z</time></trkpt><trkpt lat="43.770032223023925" lon="12.340830015132724"><ele>713.0</ele><time>2026-05-01T10:19:00Z</time></trkpt><trkpt lat="43.77015589589158" lon="12.340782760576383"><ele>713.0</ele><time>2026-05-01T10:19:01Z</time></trkpt><trkpt lat="43.77026528760657" lon="12.340736968145901"><ele>713.0</ele><time>2026-05-01T10:19:02Z</time></trkpt><trkpt lat="43.77037482283841" lon="12.340691744798283"><ele>713.75</ele><time>2026-05-01T10:19:03Z</time></trkpt><trkpt lat="43.77048864711176" lon="12.340643431675637"><ele>714.5</ele><time>2026-05-01T10:19:04Z</time></trkpt><trkpt lat="43.77060296993682" lon="12.34059624060089"><ele>715.25</ele><time>2026-05-01T10:19:05Z</time></trkpt><trkpt lat="43.77071015751461" lon="12.34055831664462"><ele>716.0</ele><time>2026-05-01T10:19:06Z</time></trkpt><trkpt lat="43.77080907122461" lon="12.340524742236598"><ele>717.1999999999999</ele><time>2026-05-01T10:19:07Z</time></trkpt><trkpt lat="43.770907217637536" lon="12.3404896569679"><ele>718.4</ele><time>2026-05-01T10:19:08Z</time></trkpt><trkpt lat="43.77100590335988" lon="12.340452130368396"><ele>719.6</ele><time>2026-05-01T10:19:09Z</time></trkpt><trkpt lat="43.77111040528096" lon="12.340411890538018"><ele>720.8</ele><time>2026-05-01T10:19:10Z</time></trkpt><trkpt lat="43.77121550192163" lon="12.340375479843797"><ele>722.0</ele><time>2026-05-01T10:19:11Z</time></trkpt><trkpt lat="43.771321949693395" lon="12.340335619848984"><ele>722.0</ele><time>2026-05-01T10:19:12Z</time></trkpt><trkpt lat="43.771428031955445" lon="12.340293014907923"><ele>722.0</ele><time>2026-05-01T10:19:13Z</time></trkpt><trkpt lat="43.771526362598934" lon="12.340261659702211"><ele>722.0</ele><time>2026-05-01T10:19:14Z</time></trkpt><trkpt lat="43.77161395650796" lon="12.340242277630518"><ele>722.0</ele><time>2026-05-01T10:19:15Z</time></trkpt><trkpt lat="43.77167922478687" lon="12.340233822104633"><ele>722.0</ele><time>2026-05-01T10:19:17Z</time></trkpt><trkpt lat="43.771526362460705" lon="12.340225644873385"><ele>722.0</ele><time>2026-05-01T10:20:06Z</time></trkpt><trkpt lat="43.771437018592906" lon="12.340261696402214"><ele>722.0</ele><time>2026-05-01T10:20:07Z</time></trkpt><trkpt lat="43.771350694143536" lon="12.340289042753797"><ele>722.0</ele><time>2026-05-01T10:20:08Z</time></trkpt><trkpt lat="43.77126377819503" lon="12.340315091301374"><ele>722.0</ele><time>2026-05-01T10:20:09Z</time></trkpt><trkpt lat="43.771193640087816" lon="12.340337755735286"><ele>722.0</ele><time>2026-05-01T10:20:10Z</time></trkpt><trkpt lat="43.77112383662157" lon="12.340361529492947"><ele>722.0</ele><time>2026-05-01T10:20:11Z</time></trkpt><trkpt lat="43.771048756660896" lon="12.340382709240084"><ele>722.2</ele><time>2026-05-01T10:20:12Z</time></trkpt><trkpt lat="43.7709821680953" lon="12.340397972079655"><ele>722.4000000000001</ele><time>2026-05-01T10:20:13Z</time></trkpt><trkpt lat="43.77087625844505" lon="12.340417406760364"><ele>722.5999999999999</ele><time>2026-05-01T10:20:15Z</time></trkpt><trkpt lat="43.77079665059101" lon="12.340405013382219"><ele>722.8</ele><time>2026-05-01T10:20:17Z</time></trkpt><trkpt lat="43.770729517346176" lon="12.340317816293489"><ele>723.0</ele><time>2026-05-01T10:20:19Z</time></trkpt><trkpt lat="43.7706731474359" lon="12.340156107180574"><ele>723.0</ele><time>2026-05-01T10:20:21Z</time></trkpt><trkpt lat="43.77064467899963" lon="12.340058082153359"><ele>723.0</ele><time>2026-05-01T10:20:22Z</time></trkpt><trkpt lat="43.7706355413436" lon="12.339945052787751"><ele>723.0</ele><time>2026-05-01T10:20:23Z</time></trkpt><trkpt lat="43.77060297019369" lon="12.33983833670064"><ele>723.0</ele><time>2026-05-01T10:20:24Z</time></trkpt><trkpt lat="43.770570258118646" lon="12.33972622925389"><ele>723.0</ele><time>2026-05-01T10:20:25Z</time></trkpt><trkpt lat="43.770537628089" lon="12.339614402901079"><ele>723.0</ele><time>2026-05-01T10:20:26Z</time></trkpt><trkpt lat="43.77050710921065" lon="12.339510122083677"><ele>724.0</ele><time>2026-05-01T10:20:27Z</time></trkpt><trkpt lat="43.77047613667157" lon="12.339404239252488"><ele>725.0</ele><time>2026-05-01T10:20:28Z</time></trkpt><trkpt lat="43.77044253115459" lon="12.339289355274833"><ele>726.0</ele><time>2026-05-01T10:20:29Z</time></trkpt><trkpt lat="43.77041018203296" lon="12.339188747799366"><ele>727.0</ele><time>2026-05-01T10:20:30Z</time></trkpt><trkpt lat="43.77037097742157" lon="12.339069877751902"><ele>728.0</ele><time>2026-05-01T10:20:31Z</time></trkpt><trkpt lat="43.770331565725996" lon="12.338950379809559"><ele>729.0</ele><time>2026-05-01T10:20:32Z</time></trkpt><trkpt lat="43.77029649921856" lon="12.338844056673885"><ele>729.8333333333334</ele><time>2026-05-01T10:20:33Z</time></trkpt><trkpt lat="43.7702647420555" lon="12.33874776761678"><ele>730.6666666666666</ele><time>2026-05-01T10:20:34Z</time></trkpt><trkpt lat="43.770231137196" lon="12.338645876233873"><ele>731.5</ele><time>2026-05-01T10:20:35Z</time></trkpt><trkpt lat="43.77019410207679" lon="12.338532713086128"><ele>732.3333333333333</ele><time>2026-05-01T10:20:36Z</time></trkpt><trkpt lat="43.77015192622934" lon="12.338402682263538"><ele>733.1666666666666</ele><time>2026-05-01T10:20:37Z</time></trkpt><trkpt lat="43.770111531094784" lon="12.338278141441133"><ele>734.0</ele><time>2026-05-01T10:20:38Z</time></trkpt><trkpt lat="43.77007334238288" lon="12.338160403200337"><ele>734.0</ele><time>2026-05-01T10:20:39Z</time></trkpt><trkpt lat="43.77004022689989" lon="12.338058306039809"><ele>734.0</ele><time>2026-05-01T10:20:40Z</time></trkpt><trkpt lat="43.769989453480946" lon="12.337948471643093"><ele>734.0</ele><time>2026-05-01T10:20:41Z</time></trkpt><trkpt lat="43.76995135702444" lon="12.337837760732075"><ele>734.0</ele><time>2026-05-01T10:20:42Z</time></trkpt><trkpt lat="43.76991133915795" lon="12.337713041606413"><ele>734.0</ele><time>2026-05-01T10:20:43Z</time></trkpt><trkpt lat="43.76987489219582" lon="12.33759602955165"><ele>735.6666666666666</ele><time>2026-05-01T10:20:44Z</time></trkpt><trkpt lat="43.769841201272044" lon="12.33747842797491"><ele>737.3333333333333</ele><time>2026-05-01T10:20:45Z</time></trkpt><trkpt lat="43.76979557136769" lon="12.337358232337944"><ele>739.0</ele><time>2026-05-01T10:20:46Z</time></trkpt><trkpt lat="43.76975908209546" lon="12.337247779084587"><ele>740.6666666666666</ele><time>2026-05-01T10:20:47Z</time></trkpt><trkpt lat="43.76972412226129" lon="12.337140508424605"><ele>742.3333333333334</ele><time>2026-05-01T10:20:48Z</time></trkpt><trkpt lat="43.76968521939907" lon="12.337033111313172"><ele>744.0</ele><time>2026-05-01T10:20:49Z</time></trkpt><trkpt lat="43.76964197145154" lon="12.336912111826454"><ele>745.8333333333334</ele><time>2026-05-01T10:20:50Z</time></trkpt><trkpt lat="43.769608237791225" lon="12.336824685004387"><ele>747.6666666666666</ele><time>2026-05-01T10:20:51Z</time></trkpt><trkpt lat="43.769589508300776" lon="12.336716097365116"><ele>749.5</ele><time>2026-05-01T10:20:52Z</time></trkpt><trkpt lat="43.76953706746536" lon="12.336609705417285"><ele>751.3333333333333</ele><time>2026-05-01T10:20:53Z</time></trkpt><trkpt lat="43.76950876575669" lon="12.336476262308299"><ele>753.1666666666666</ele><time>2026-05-01T10:20:54Z</time></trkpt><trkpt lat="43.76947502177557" lon="12.336376030288884"><ele>755.0</ele><time>2026-05-01T10:20:55Z</time></trkpt><trkpt lat="43.76944046326073" lon="12.336273378790878"><ele>756.0</ele><time>2026-05-01T10:20:56Z</time></trkpt><trkpt lat="43.7693944004276" lon="12.336182382590783"><ele>757.0</ele><time>2026-05-01T10:20:57Z</time></trkpt><trkpt lat="43.7693611843285" lon="12.336089979838983"><ele>758.0</ele><time>2026-05-01T10:20:58Z</time></trkpt><trkpt lat="43.76932987188033" lon="12.335960285338356"><ele>759.0</ele><time>2026-05-01T10:20:59Z</time></trkpt><trkpt lat="43.769298902706836" lon="12.335875586183501"><ele>760.0</ele><time>2026-05-01T10:21:00Z</time></trkpt><trkpt lat="43.769268493925814" lon="12.335778659902255"><ele>761.0</ele><time>2026-05-01T10:21:01Z</time></trkpt><trkpt lat="43.76920478047865" lon="12.335623674957771"><ele>762.8333333333333</ele><time>2026-05-01T10:21:03Z</time></trkpt><trkpt lat="43.76917078836284" lon="12.335527856911469"><ele>764.6666666666666</ele><time>2026-05-01T10:21:04Z</time></trkpt><trkpt lat="43.76913880999837" lon="12.335415917926497"><ele>766.5</ele><time>2026-05-01T10:21:05Z</time></trkpt><trkpt lat="43.7691028759238" lon="12.335302074298447"><ele>768.3333333333333</ele><time>2026-05-01T10:21:06Z</time></trkpt><trkpt lat="43.76906748108869" lon="12.33519617419455"><ele>770.1666666666666</ele><time>2026-05-01T10:21:07Z</time></trkpt><trkpt lat="43.7690320651775" lon="12.335074335925714"><ele>772.0</ele><time>2026-05-01T10:21:08Z</time></trkpt><trkpt lat="43.768991084216125" lon="12.334962894937892"><ele>772.0</ele><time>2026-05-01T10:21:09Z</time></trkpt><trkpt lat="43.76894604042944" lon="12.334833808821411"><ele>772.0</ele><time>2026-05-01T10:21:10Z</time></trkpt><trkpt lat="43.768905001608495" lon="12.334695922076554"><ele>772.0</ele><time>2026-05-01T10:21:11Z</time></trkpt><trkpt lat="43.76886029380144" lon="12.334574397675865"><ele>772.0</ele><time>2026-05-01T10:21:12Z</time></trkpt><trkpt lat="43.768811314807785" lon="12.334433740469192"><ele>772.0</ele><time>2026-05-01T10:21:13Z</time></trkpt><trkpt lat="43.76877002588407" lon="12.334314898458079"><ele>772.9999999999999</ele><time>2026-05-01T10:21:14Z</time></trkpt><trkpt lat="43.768743002058294" lon="12.334216633337387"><ele>774.0</ele><time>2026-05-01T10:21:15Z</time></trkpt><trkpt lat="43.76871100350448" lon="12.334114575382193"><ele>775.0</ele><time>2026-05-01T10:21:16Z</time></trkpt><trkpt lat="43.76866980882936" lon="12.333990517284485"><ele>776.0</ele><time>2026-05-01T10:21:18Z</time></trkpt><trkpt lat="43.7686699569073" lon="12.333900086443728"><ele>776.9999999999999</ele><time>2026-05-01T10:21:22Z</time></trkpt><trkpt lat="43.768760500095226" lon="12.333814807171489"><ele>778.0</ele><time>2026-05-01T10:21:31Z</time></trkpt><trkpt lat="43.768822268908025" lon="12.333764061100197"><ele>779.8333333333333</ele><time>2026-05-01T10:21:32Z</time></trkpt><trkpt lat="43.76890236062233" lon="12.333737805158357"><ele>781.6666666666666</ele><time>2026-05-01T10:21:33Z</time></trkpt><trkpt lat="43.768982313398034" lon="12.333716247814776"><ele>783.5</ele><time>2026-05-01T10:21:34Z</time></trkpt><trkpt lat="43.76905987028553" lon="12.333690718330208"><ele>785.3333333333333</ele><time>2026-05-01T10:21:35Z</time></trkpt><trkpt lat="43.76914567347003" lon="12.33365683364454"><ele>787.1666666666666</ele><time>2026-05-01T10:21:36Z</time></trkpt><trkpt lat="43.76922039956319" lon="12.333609340649033"><ele>789.0</ele><time>2026-05-01T10:21:37Z</time></trkpt><trkpt lat="43.76930950614697" lon="12.333556310769882"><ele>787.5</ele><time>2026-05-01T10:21:38Z</time></trkpt><trkpt lat="43.76940712597062" lon="12.33350873106243"><ele>786.0</ele><time>2026-05-01T10:21:39Z</time></trkpt><trkpt lat="43.769512657912486" lon="12.33345052543513"><ele>784.5</ele><time>2026-05-01T10:21:40Z</time></trkpt><trkpt lat="43.76962603583526" lon="12.333388051063938"><ele>783.0</ele><time>2026-05-01T10:21:41Z</time></trkpt><trkpt lat="43.76973603127276" lon="12.333324984557217"><ele>783.0</ele><time>2026-05-01T10:21:42Z</time></trkpt><trkpt lat="43.76983574241561" lon="12.333270757477633"><ele>783.0</ele><time>2026-05-01T10:21:43Z</time></trkpt><trkpt lat="43.76993175290175" lon="12.333219047244121"><ele>783.0</ele><time>2026-05-01T10:21:44Z</time></trkpt><trkpt lat="43.77003553991762" lon="12.333169095089296"><ele>783.0</ele><time>2026-05-01T10:21:45Z</time></trkpt><trkpt lat="43.77014033889424" lon="12.33311073641193"><ele>783.0</ele><time>2026-05-01T10:21:46Z</time></trkpt><trkpt lat="43.77024781164402" lon="12.333058000514745"><ele>783.8</ele><time>2026-05-01T10:21:47Z</time></trkpt><trkpt lat="43.7703290559103" lon="12.33302241777955"><ele>784.5999999999999</ele><time>2026-05-01T10:21:48Z</time></trkpt><trkpt lat="43.77041955886159" lon="12.332980681875974"><ele>785.4000000000001</ele><time>2026-05-01T10:21:49Z</time></trkpt><trkpt lat="43.77052717284807" lon="12.332905466551875"><ele>786.2</ele><time>2026-05-01T10:21:51Z</time></trkpt><trkpt lat="43.77063361074779" lon="12.332830850171717"><ele>787.0</ele><time>2026-05-01T10:21:53Z</time></trkpt><trkpt lat="43.7707152707698" lon="12.332786989944266"><ele>786.9999999999999</ele><time>2026-05-01T10:21:55Z</time></trkpt><trkpt lat="43.77080074261937" lon="12.332777766982813"><ele>787.0</ele><time>2026-05-01T10:22:30Z</time></trkpt><trkpt lat="43.77087058618417" lon="12.332809440433435"><ele>787.0</ele><time>2026-05-01T10:22:32Z</time></trkpt><trkpt lat="43.77093623127168" lon="12.332877424609524"><ele>787.0</ele><time>2026-05-01T10:22:35Z</time></trkpt><trkpt lat="43.77102158438355" lon="12.332946826755675"><ele>786.9999999999999</ele><time>2026-05-01T10:22:37Z</time></trkpt><trkpt lat="43.771120273859076" lon="12.332966989539749"><ele>787.0</ele><time>2026-05-01T10:22:38Z</time></trkpt><trkpt lat="43.77118929128426" lon="12.333033688757963"><ele>785.0</ele><time>2026-05-01T10:22:39Z</time></trkpt><trkpt lat="43.77126099071699" lon="12.33309225715538"><ele>783.0</ele><time>2026-05-01T10:22:40Z</time></trkpt><trkpt lat="43.77132361146372" lon="12.33314458443191"><ele>781.0</ele><time>2026-05-01T10:22:41Z</time></trkpt><trkpt lat="43.77139462924404" lon="12.333208159068807"><ele>779.0</ele><time>2026-05-01T10:22:42Z</time></trkpt><trkpt lat="43.771477038214464" lon="12.333284948059893"><ele>777.0</ele><time>2026-05-01T10:22:43Z</time></trkpt><trkpt lat="43.77157680534967" lon="12.333357186167415"><ele>777.0</ele><time>2026-05-01T10:22:44Z</time></trkpt><trkpt lat="43.771682799632494" lon="12.333449148469315"><ele>777.0</ele><time>2026-05-01T10:22:45Z</time></trkpt><trkpt lat="43.77178861110365" lon="12.333533101153888"><ele>777.0</ele><time>2026-05-01T10:22:46Z</time></trkpt><trkpt lat="43.77188047954468" lon="12.3336049913316"><ele>777.0</ele><time>2026-05-01T10:22:47Z</time></trkpt><trkpt lat="43.77195744201728" lon="12.33366175462997"><ele>777.0</ele><time>2026-05-01T10:22:48Z</time></trkpt><trkpt lat="43.77203793719111" lon="12.333725173893816"><ele>774.8333333333334</ele><time>2026-05-01T10:22:49Z</time></trkpt><trkpt lat="43.77211218485406" lon="12.33378186450456"><ele>772.6666666666666</ele><time>2026-05-01T10:22:50Z</time></trkpt><trkpt lat="43.77219268335826" lon="12.333831528954782"><ele>770.5</ele><time>2026-05-01T10:22:51Z</time></trkpt><trkpt lat="43.772275739646446" lon="12.333879478822617"><ele>768.3333333333333</ele><time>2026-05-01T10:22:52Z</time></trkpt><trkpt lat="43.772339520181234" lon="12.333916678123746"><ele>766.1666666666666</ele><time>2026-05-01T10:22:53Z</time></trkpt><trkpt lat="43.772404520676645" lon="12.333957250177477"><ele>764.0</ele><time>2026-05-01T10:22:54Z</time></trkpt><trkpt lat="43.77247571613025" lon="12.33398797346972"><ele>764.0</ele><time>2026-05-01T10:22:55Z</time></trkpt><trkpt lat="43.77255247051231" lon="12.334016602611097"><ele>764.0</ele><time>2026-05-01T10:22:56Z</time></trkpt><trkpt lat="43.77262192360056" lon="12.334043614802248"><ele>764.0</ele><time>2026-05-01T10:22:57Z</time></trkpt><trkpt lat="43.7726849736162" lon="12.334062109960426"><ele>764.0</ele><time>2026-05-01T10:22:58Z</time></trkpt><trkpt lat="43.77277524488249" lon="12.334099411478116"><ele>764.0</ele><time>2026-05-01T10:23:00Z</time></trkpt><trkpt lat="43.77285735797445" lon="12.334150043386076"><ele>764.0</ele><time>2026-05-01T10:23:02Z</time></trkpt><trkpt lat="43.77292430520032" lon="12.334253782321458"><ele>761.4000000000001</ele><time>2026-05-01T10:23:04Z</time></trkpt><trkpt lat="43.77295269170335" lon="12.33433338098137"><ele>758.8</ele><time>2026-05-01T10:23:05Z</time></trkpt><trkpt lat="43.77303475723644" lon="12.334400200407288"><ele>756.2</ele><time>2026-05-01T10:23:07Z</time></trkpt><trkpt lat="43.77315421415979" lon="12.33440069900115"><ele>753.5999999999999</ele><time>2026-05-01T10:23:09Z</time></trkpt><trkpt lat="43.77327031415035" lon="12.334424532642931"><ele>751.0</ele><time>2026-05-01T10:23:11Z</time></trkpt><trkpt lat="43.77337538392517" lon="12.334543435968403"><ele>751.0</ele><time>2026-05-01T10:23:13Z</time></trkpt><trkpt lat="43.77344313898364" lon="12.334625434367846"><ele>751.0</ele><time>2026-05-01T10:23:14Z</time></trkpt><trkpt lat="43.77352774194118" lon="12.334695033958566"><ele>751.0</ele><time>2026-05-01T10:23:15Z</time></trkpt><trkpt lat="43.77360875171301" lon="12.334726901797016"><ele>751.0</ele><time>2026-05-01T10:23:16Z</time></trkpt><trkpt lat="43.773672111203936" lon="12.334783798432408"><ele>751.0</ele><time>2026-05-01T10:23:17Z</time></trkpt><trkpt lat="43.77374185289515" lon="12.334815755434569"><ele>751.0</ele><time>2026-05-01T10:23:18Z</time></trkpt><trkpt lat="43.77380228979372" lon="12.334862760416057"><ele>747.5999999999999</ele><time>2026-05-01T10:23:19Z</time></trkpt><trkpt lat="43.77390202061425" lon="12.33495676602504"><ele>744.2</ele><time>2026-05-01T10:23:21Z</time></trkpt><trkpt lat="43.773964631214525" lon="12.33498941281709"><ele>740.8</ele><time>2026-05-01T10:23:22Z</time></trkpt><trkpt lat="43.77404992773331" lon="12.335073601331375"><ele>737.4000000000001</ele><time>2026-05-01T10:23:24Z</time></trkpt><trkpt lat="43.774147748126175" lon="12.335133064321958"><ele>734.0</ele><time>2026-05-01T10:23:26Z</time></trkpt><trkpt lat="43.774249795456946" lon="12.335191611595517"><ele>734.0</ele><time>2026-05-01T10:23:28Z</time></trkpt><trkpt lat="43.77435002212633" lon="12.335242978295426"><ele>734.0</ele><time>2026-05-01T10:23:30Z</time></trkpt><trkpt lat="43.774399735210366" lon="12.33530347282353"><ele>734.0</ele><time>2026-05-01T10:23:31Z</time></trkpt><trkpt lat="43.774455987321446" lon="12.33535397314062"><ele>734.0</ele><time>2026-05-01T10:23:32Z</time></trkpt><trkpt lat="43.77450946309131" lon="12.335411481975221"><ele>734.0</ele><time>2026-05-01T10:23:33Z</time></trkpt><trkpt lat="43.77457545810464" lon="12.335461646233941"><ele>734.0</ele><time>2026-05-01T10:23:34Z</time></trkpt><trkpt lat="43.77466715544281" lon="12.335541504486052"><ele>731.2</ele><time>2026-05-01T10:23:35Z</time></trkpt><trkpt lat="43.77476493249698" lon="12.335635222474265"><ele>728.4000000000001</ele><time>2026-05-01T10:23:36Z</time></trkpt><trkpt lat="43.77483772421941" lon="12.33573280106099"><ele>725.6</ele><time>2026-05-01T10:23:37Z</time></trkpt><trkpt lat="43.774915685876515" lon="12.335798245111206"><ele>722.8</ele><time>2026-05-01T10:23:38Z</time></trkpt><trkpt lat="43.77498384514787" lon="12.335881924559931"><ele>720.0</ele><time>2026-05-01T10:23:39Z</time></trkpt><trkpt lat="43.77504614517656" lon="12.335959891950074"><ele>720.0</ele><time>2026-05-01T10:23:40Z</time></trkpt><trkpt lat="43.77509312226835" lon="12.33605080133266"><ele>720.0</ele><time>2026-05-01T10:23:41Z</time></trkpt><trkpt lat="43.775143645263455" lon="12.33611557041297"><ele>720.0</ele><time>2026-05-01T10:23:42Z</time></trkpt><trkpt lat="43.775218436997505" lon="12.336207240498547"><ele>720.0</ele><time>2026-05-01T10:23:44Z</time></trkpt><trkpt lat="43.77526880790108" lon="12.33627678484062"><ele>720.0</ele><time>2026-05-01T10:23:47Z</time></trkpt><trkpt lat="43.77542655096506" lon="12.336324261486753"><ele>719.6</ele><time>2026-05-01T10:24:00Z</time></trkpt><trkpt lat="43.77552594132034" lon="12.3363349135991"><ele>719.2</ele><time>2026-05-01T10:24:01Z</time></trkpt><trkpt lat="43.775623869302294" lon="12.336323750402368"><ele>718.8</ele><time>2026-05-01T10:24:02Z</time></trkpt><trkpt lat="43.77574282923982" lon="12.3363420760048"><ele>718.4</ele><time>2026-05-01T10:24:03Z</time></trkpt><trkpt lat="43.7758706206496" lon="12.33635613276941"><ele>718.0</ele><time>2026-05-01T10:24:04Z</time></trkpt><trkpt lat="43.77600708296043" lon="12.33636256531539"><ele>719.25</ele><time>2026-05-01T10:24:05Z</time></trkpt><trkpt lat="43.77614528197214" lon="12.336356986223908"><ele>720.5</ele><time>2026-05-01T10:24:06Z</time></trkpt><trkpt lat="43.776287337427455" lon="12.336351515644177"><ele>721.75</ele><time>2026-05-01T10:24:07Z</time></trkpt><trkpt lat="43.77643035795148" lon="12.336350264206931"><ele>723.0</ele><time>2026-05-01T10:24:08Z</time></trkpt><trkpt lat="43.77657479488763" lon="12.3363490831068"><ele>723.0</ele><time>2026-05-01T10:24:09Z</time></trkpt><trkpt lat="43.77671783912507" lon="12.336345907336263"><ele>723.0</ele><time>2026-05-01T10:24:10Z</time></trkpt><trkpt lat="43.77684287805285" lon="12.33634555726514"><ele>723.0</ele><time>2026-05-01T10:24:11Z</time></trkpt><trkpt lat="43.7769612635672" lon="12.336343979461436"><ele>723.0</ele><time>2026-05-01T10:24:12Z</time></trkpt><trkpt lat="43.777074950136345" lon="12.33633956570837"><ele>728.0</ele><time>2026-05-01T10:24:13Z</time></trkpt><trkpt lat="43.777183187180086" lon="12.336340211665256"><ele>728.0</ele><time>2026-05-01T10:24:14Z</time></trkpt><trkpt lat="43.777288296365825" lon="12.336342878767933"><ele>728.0</ele><time>2026-05-01T10:24:15Z</time></trkpt><trkpt lat="43.77739128711646" lon="12.336344488621938"><ele>728.0</ele><time>2026-05-01T10:24:16Z</time></trkpt><trkpt lat="43.777493024797" lon="12.336344794795538"><ele>728.0</ele><time>2026-05-01T10:24:17Z</time></trkpt></trkseg></trk></gpx>